<?xml version='1.0' encoding='UTF-8'?><gpx version="1.1" creator="JPX - https://github.com/jenetics/jpx" xmlns="http://www.topografix.com/GPX/1/1"><trk><trkseg><trkpt lat="49.13389488547826" lon="2.5076966815813435"><ele>77.0</ele><time>2026-05-02T12:24:21.402Z</time></trkpt><trkpt lat="49.13396403791043" lon="2.5074782757298317"><ele>77.0</ele><time>2026-05-02T12:24:22.783Z</time></trkpt><trkpt lat="49.134032670278785" lon="2.507374098779251"><ele>77.0</ele><time>2026-05-02T12:24:23.783Z</time></trkpt><trkpt lat="49.13404925643611" lon="2.507207260786239"><ele>77.0</ele><time>2026-05-02T12:24:25.783Z</time></trkpt><trkpt lat="49.13405306835828" lon="2.5070985876340925"><ele>77.0</ele><time>2026-05-02T12:24:27.783Z</time></trkpt><trkpt lat="49.13410505376549" lon="2.50699840985157"><ele>77.42857142857143</ele><time>2026-05-02T12:24:29.995Z</time></trkpt><trkpt lat="49.13414461107138" lon="2.5069063799568827"><ele>77.85714285714286</ele><time>2026-05-02T12:24:31.996Z</time></trkpt><trkpt lat="49.13419244370419" lon="2.5068271629347665"><ele>78.28571428571428</ele><time>2026-05-02T12:24:33.996Z</time></trkpt><trkpt lat="49.13423706602909" lon="2.50674990844039"><ele>78.71428571428572</ele><time>2026-05-02T12:24:35.997Z</time></trkpt><trkpt lat="49.134323532310226" lon="2.506768211688768"><ele>79.14285714285714</ele><time>2026-05-02T12:24:38.997Z</time></trkpt><trkpt lat="49.13438837387136" lon="2.50680991372154"><ele>79.57142857142857</ele><time>2026-05-02T12:24:40.998Z</time></trkpt><trkpt lat="49.134450121585026" lon="2.506853596006383"><ele>80.0</ele><time>2026-05-02T12:24:42.998Z</time></trkpt><trkpt lat="49.134515854721066" lon="2.506888457153809"><ele>80.0</ele><time>2026-05-02T12:24:44.998Z</time></trkpt><trkpt lat="49.13458681915003" lon="2.5069369220112"><ele>80.0</ele><time>2026-05-02T12:24:46.999Z</time></trkpt><trkpt lat="49.13466198997243" lon="2.506973281243423"><ele>80.0</ele><time>2026-05-02T12:24:48.999Z</time></trkpt><trkpt lat="49.13473521406742" lon="2.5069961128164784"><ele>80.0</ele><time>2026-05-02T12:24:50.999Z</time></trkpt><trkpt lat="49.13482033457939" lon="2.5070256414382355"><ele>80.0</ele><time>2026-05-02T12:24:52.999Z</time></trkpt><trkpt lat="49.13491102647084" lon="2.5070466693374613"><ele>80.0</ele><time>2026-05-02T12:24:54.999Z</time></trkpt><trkpt lat="49.13499236533208" lon="2.507072261207324"><ele>79.16666666666667</ele><time>2026-05-02T12:24:56.999Z</time></trkpt><trkpt lat="49.13507198249144" lon="2.507093901926265"><ele>78.33333333333334</ele><time>2026-05-02T12:24:58.999Z</time></trkpt><trkpt lat="49.135148562552416" lon="2.5071166974377355"><ele>77.5</ele><time>2026-05-02T12:25:00.999Z</time></trkpt><trkpt lat="49.13523499005126" lon="2.5071334587635334"><ele>76.66666666666667</ele><time>2026-05-02T12:25:02.999Z</time></trkpt><trkpt lat="49.135311739256956" lon="2.5071423447134964"><ele>75.83333333333333</ele><time>2026-05-02T12:25:04.999Z</time></trkpt><trkpt lat="49.13539520144392" lon="2.5071565763978123"><ele>75.0</ele><time>2026-05-02T12:25:06.999Z</time></trkpt><trkpt lat="49.13546847182122" lon="2.507170234580228"><ele>75.0</ele><time>2026-05-02T12:25:08.999Z</time></trkpt><trkpt lat="49.13554915064723" lon="2.5071775397194305"><ele>75.0</ele><time>2026-05-02T12:25:10.999Z</time></trkpt><trkpt lat="49.135630745446534" lon="2.5071922912136406"><ele>75.0</ele><time>2026-05-02T12:25:12.999Z</time></trkpt><trkpt lat="49.135717071085175" lon="2.5072299556814657"><ele>75.0</ele><time>2026-05-02T12:25:14.999Z</time></trkpt><trkpt lat="49.13581879303308" lon="2.5072542034679146"><ele>75.0</ele><time>2026-05-02T12:25:16.999Z</time></trkpt><trkpt lat="49.13591022281944" lon="2.507227275666904"><ele>75.0</ele><time>2026-05-02T12:25:18.999Z</time></trkpt><trkpt lat="49.13599114335014" lon="2.5071858831531237"><ele>74.99999999999999</ele><time>2026-05-02T12:25:20.999Z</time></trkpt><trkpt lat="49.1360631015652" lon="2.5071420778787017"><ele>75.0</ele><time>2026-05-02T12:25:22.999Z</time></trkpt><trkpt lat="49.13613763930678" lon="2.5071342153126546"><ele>75.0</ele><time>2026-05-02T12:25:24.999Z</time></trkpt><trkpt lat="49.13621019389602" lon="2.507144447503513"><ele>75.0</ele><time>2026-05-02T12:25:26.999Z</time></trkpt><trkpt lat="49.13627040656568" lon="2.507113898276736"><ele>75.0</ele><time>2026-05-02T12:25:28.999Z</time></trkpt><trkpt lat="49.13636011479529" lon="2.50712577933173"><ele>74.99999999999999</ele><time>2026-05-02T12:26:18.998Z</time></trkpt><trkpt lat="49.136428882864145" lon="2.507110980372841"><ele>75.0</ele><time>2026-05-02T12:26:21.997Z</time></trkpt><trkpt lat="49.13651082901966" lon="2.5071078335312516"><ele>75.33333333333333</ele><time>2026-05-02T12:26:23.997Z</time></trkpt><trkpt lat="49.1365762748764" lon="2.5070950241790677"><ele>75.66666666666667</ele><time>2026-05-02T12:26:25.997Z</time></trkpt><trkpt lat="49.13664506425216" lon="2.5070629658327217"><ele>76.0</ele><time>2026-05-02T12:26:28.997Z</time></trkpt><trkpt lat="49.13674045526098" lon="2.5070382102843607"><ele>76.33333333333334</ele><time>2026-05-02T12:26:30.997Z</time></trkpt><trkpt lat="49.13681865822767" lon="2.507035916180441"><ele>76.66666666666667</ele><time>2026-05-02T12:26:32.997Z</time></trkpt><trkpt lat="49.1368905726469" lon="2.5069986908367525"><ele>77.0</ele><time>2026-05-02T12:26:35Z</time></trkpt><trkpt lat="49.13696936014102" lon="2.506989661905721"><ele>77.16666666666667</ele><time>2026-05-02T12:26:37Z</time></trkpt><trkpt lat="49.13704972469532" lon="2.506971422151264"><ele>77.33333333333334</ele><time>2026-05-02T12:26:39Z</time></trkpt><trkpt lat="49.137124378698" lon="2.5069522393401575"><ele>77.5</ele><time>2026-05-02T12:26:41Z</time></trkpt><trkpt lat="49.13721196022404" lon="2.5069460923751303"><ele>77.66666666666667</ele><time>2026-05-02T12:26:43Z</time></trkpt><trkpt lat="49.137296963133146" lon="2.5069288498856332"><ele>77.83333333333333</ele><time>2026-05-02T12:26:45Z</time></trkpt><trkpt lat="49.137393489767675" lon="2.506912738076324"><ele>78.0</ele><time>2026-05-02T12:26:47Z</time></trkpt><trkpt lat="49.13749899498965" lon="2.506984130949502"><ele>78.33333333333333</ele><time>2026-05-02T12:26:49Z</time></trkpt><trkpt lat="49.13756739454042" lon="2.507091955075398"><ele>78.66666666666667</ele><time>2026-05-02T12:26:51Z</time></trkpt><trkpt lat="49.137619744278815" lon="2.5071459344044995"><ele>79.0</ele><time>2026-05-02T12:26:52Z</time></trkpt><trkpt lat="49.13770208853025" lon="2.507231608143196"><ele>79.33333333333334</ele><time>2026-05-02T12:26:54Z</time></trkpt><trkpt lat="49.13776218208308" lon="2.507272318656555"><ele>79.66666666666667</ele><time>2026-05-02T12:26:55Z</time></trkpt><trkpt lat="49.137840721392415" lon="2.5073537147649967"><ele>80.0</ele><time>2026-05-02T12:26:57Z</time></trkpt><trkpt lat="49.13793770663985" lon="2.5074246410225434"><ele>80.0</ele><time>2026-05-02T12:26:59Z</time></trkpt><trkpt lat="49.1380356471038" lon="2.507448257002145"><ele>80.0</ele><time>2026-05-02T12:27:01Z</time></trkpt><trkpt lat="49.138133107416486" lon="2.507476444098666"><ele>80.0</ele><time>2026-05-02T12:27:03Z</time></trkpt><trkpt lat="49.13823969648413" lon="2.507467398961062"><ele>80.0</ele><time>2026-05-02T12:27:05Z</time></trkpt><trkpt lat="49.13831966471933" lon="2.5074423168648474"><ele>80.0</ele><time>2026-05-02T12:27:07Z</time></trkpt><trkpt lat="49.13837104756322" lon="2.5075650395445037"><ele>78.8</ele><time>2026-05-02T12:27:09Z</time></trkpt><trkpt lat="49.1384409250691" lon="2.507557893635104"><ele>77.6</ele><time>2026-05-02T12:27:11Z</time></trkpt><trkpt lat="49.13850879635424" lon="2.5074894261240246"><ele>76.4</ele><time>2026-05-02T12:27:12.999Z</time></trkpt><trkpt lat="49.13858340792138" lon="2.5073936239913093"><ele>75.2</ele><time>2026-05-02T12:27:14.999Z</time></trkpt><trkpt lat="49.13866422374234" lon="2.5073042498995406"><ele>74.0</ele><time>2026-05-02T12:27:16.999Z</time></trkpt><trkpt lat="49.13873712361692" lon="2.5071878918416086"><ele>74.0</ele><time>2026-05-02T12:27:18.999Z</time></trkpt><trkpt lat="49.1388426791591" lon="2.507160562775173"><ele>74.0</ele><time>2026-05-02T12:27:20.999Z</time></trkpt><trkpt lat="49.1389207356283" lon="2.507052341649435"><ele>74.0</ele><time>2026-05-02T12:27:22.999Z</time></trkpt><trkpt lat="49.13897419445614" lon="2.506901840591128"><ele>74.0</ele><time>2026-05-02T12:27:24.999Z</time></trkpt><trkpt lat="49.13904712004204" lon="2.506757916072321"><ele>74.0</ele><time>2026-05-02T12:27:26.999Z</time></trkpt><trkpt lat="49.13909052314945" lon="2.5066246214279486"><ele>73.83333333333334</ele><time>2026-05-02T12:27:28.999Z</time></trkpt><trkpt lat="49.139128142646854" lon="2.5064926728471812"><ele>73.66666666666667</ele><time>2026-05-02T12:27:30.999Z</time></trkpt><trkpt lat="49.13917876443339" lon="2.5064336663824327"><ele>73.5</ele><time>2026-05-02T12:27:31.999Z</time></trkpt><trkpt lat="49.13922261043849" lon="2.506299835266305"><ele>73.33333333333333</ele><time>2026-05-02T12:27:33.999Z</time></trkpt><trkpt lat="49.139286216302324" lon="2.5061924662017194"><ele>73.16666666666666</ele><time>2026-05-02T12:27:35.999Z</time></trkpt><trkpt lat="49.13937793549162" lon="2.5061472412186157"><ele>73.0</ele><time>2026-05-02T12:27:37.999Z</time></trkpt><trkpt lat="49.139453777001044" lon="2.506074669811575"><ele>73.0</ele><time>2026-05-02T12:27:39.999Z</time></trkpt><trkpt lat="49.13954251398628" lon="2.5061057282552377"><ele>73.0</ele><time>2026-05-02T12:27:41.999Z</time></trkpt><trkpt lat="49.139620758483616" lon="2.5061568863988795"><ele>73.0</ele><time>2026-05-02T12:27:43.999Z</time></trkpt><trkpt lat="49.139690226340264" lon="2.5062377883928693"><ele>73.0</ele><time>2026-05-02T12:27:45.998Z</time></trkpt><trkpt lat="49.139781086191164" lon="2.5062899016347857"><ele>73.0</ele><time>2026-05-02T12:27:47.998Z</time></trkpt><trkpt lat="49.139881254506115" lon="2.5062826074689966"><ele>72.8</ele><time>2026-05-02T12:27:49.998Z</time></trkpt><trkpt lat="49.13995407769869" lon="2.506368863942548"><ele>72.6</ele><time>2026-05-02T12:27:51.998Z</time></trkpt><trkpt lat="49.14003979543989" lon="2.5064405970226185"><ele>72.4</ele><time>2026-05-02T12:27:53.998Z</time></trkpt><trkpt lat="49.140103142845746" lon="2.506527848078749"><ele>72.2</ele><time>2026-05-02T12:27:55.998Z</time></trkpt><trkpt lat="49.140178707582066" lon="2.50662120501152"><ele>72.0</ele><time>2026-05-02T12:27:57.998Z</time></trkpt><trkpt lat="49.140247566904165" lon="2.506738085956901"><ele>72.0</ele><time>2026-05-02T12:27:59.998Z</time></trkpt><trkpt lat="49.14028318402958" lon="2.5068444960964866"><ele>72.0</ele><time>2026-05-02T12:28:01.998Z</time></trkpt><trkpt lat="49.14037845339975" lon="2.506932463627039"><ele>72.0</ele><time>2026-05-02T12:28:03.998Z</time></trkpt><trkpt lat="49.14047048594049" lon="2.5069719135079414"><ele>72.0</ele><time>2026-05-02T12:28:05.998Z</time></trkpt><trkpt lat="49.1405242856349" lon="2.5070311759192503"><ele>72.0</ele><time>2026-05-02T12:28:07.998Z</time></trkpt><trkpt lat="49.14059672414065" lon="2.5071007840619433"><ele>72.0</ele><time>2026-05-02T12:28:09.998Z</time></trkpt><trkpt lat="49.140674903933" lon="2.5071236214558703"><ele>71.5</ele><time>2026-05-02T12:28:11.998Z</time></trkpt><trkpt lat="49.14074242385234" lon="2.50711656694164"><ele>71.0</ele><time>2026-05-02T12:28:13.998Z</time></trkpt><trkpt lat="49.140833642272156" lon="2.5071198935697585"><ele>70.5</ele><time>2026-05-02T12:28:15.998Z</time></trkpt><trkpt lat="49.140933944373735" lon="2.507127634249612"><ele>70.0</ele><time>2026-05-02T12:28:18.998Z</time></trkpt><trkpt lat="49.14100707909714" lon="2.507137712512722"><ele>69.5</ele><time>2026-05-02T12:28:20.997Z</time></trkpt><trkpt lat="49.14107377880648" lon="2.5071398533370894"><ele>69.0</ele><time>2026-05-02T12:28:22.997Z</time></trkpt><trkpt lat="49.14116543253381" lon="2.5071185000157055"><ele>69.0</ele><time>2026-05-02T12:28:25.997Z</time></trkpt><trkpt lat="49.141239987191305" lon="2.507121657133477"><ele>69.0</ele><time>2026-05-02T12:28:27.997Z</time></trkpt><trkpt lat="49.14132921042033" lon="2.50712710605726"><ele>69.0</ele><time>2026-05-02T12:28:30.997Z</time></trkpt><trkpt lat="49.141400567733825" lon="2.507108979193145"><ele>69.0</ele><time>2026-05-02T12:28:32.997Z</time></trkpt><trkpt lat="49.141432939905215" lon="2.506997776605871"><ele>69.0</ele><time>2026-05-02T12:28:34.997Z</time></trkpt><trkpt lat="49.14145151201086" lon="2.506900672226218"><ele>69.0</ele><time>2026-05-02T12:28:36.997Z</time></trkpt><trkpt lat="49.14147172860644" lon="2.5067965386992777"><ele>69.83333333333333</ele><time>2026-05-02T12:28:39Z</time></trkpt><trkpt lat="49.141492951090385" lon="2.506654229466676"><ele>70.66666666666667</ele><time>2026-05-02T12:28:42Z</time></trkpt><trkpt lat="49.14151791379614" lon="2.5065471443082674"><ele>71.5</ele><time>2026-05-02T12:28:44Z</time></trkpt><trkpt lat="49.141536674649416" lon="2.506452579822806"><ele>72.33333333333334</ele><time>2026-05-02T12:28:46Z</time></trkpt><trkpt lat="49.141555620084816" lon="2.506324511200736"><ele>73.16666666666667</ele><time>2026-05-02T12:28:48Z</time></trkpt><trkpt lat="49.14158345750255" lon="2.5061786648939157"><ele>74.0</ele><time>2026-05-02T12:28:51Z</time></trkpt><trkpt lat="49.14160476811189" lon="2.5060837704445897"><ele>74.14285714285714</ele><time>2026-05-02T12:28:53Z</time></trkpt><trkpt lat="49.14161694510711" lon="2.5059813483619355"><ele>74.28571428571428</ele><time>2026-05-02T12:28:55Z</time></trkpt><trkpt lat="49.14164723397171" lon="2.5058725771438897"><ele>74.42857142857142</ele><time>2026-05-02T12:28:57Z</time></trkpt><trkpt lat="49.14166041602368" lon="2.5057547526015056"><ele>74.57142857142857</ele><time>2026-05-02T12:28:59Z</time></trkpt><trkpt lat="49.141681695870965" lon="2.505658877938043"><ele>74.71428571428571</ele><time>2026-05-02T12:29:01Z</time></trkpt><trkpt lat="49.141699353248875" lon="2.5055595131051716"><ele>74.85714285714285</ele><time>2026-05-02T12:29:03Z</time></trkpt><trkpt lat="49.14171088147608" lon="2.505450855122845"><ele>75.0</ele><time>2026-05-02T12:29:05Z</time></trkpt><trkpt lat="49.141726312288014" lon="2.5053389759643987"><ele>75.14285714285714</ele><time>2026-05-02T12:29:07Z</time></trkpt><trkpt lat="49.14174021671922" lon="2.505220711462124"><ele>75.28571428571428</ele><time>2026-05-02T12:29:09Z</time></trkpt><trkpt lat="49.141754745341146" lon="2.505120636947899"><ele>75.42857142857142</ele><time>2026-05-02T12:29:11Z</time></trkpt><trkpt lat="49.14177379393297" lon="2.505024146054895"><ele>75.57142857142857</ele><time>2026-05-02T12:29:13Z</time></trkpt><trkpt lat="49.14178926929559" lon="2.504926867684421"><ele>75.71428571428572</ele><time>2026-05-02T12:29:15Z</time></trkpt><trkpt lat="49.141812923497596" lon="2.5048023911091444"><ele>75.85714285714285</ele><time>2026-05-02T12:29:16.999Z</time></trkpt><trkpt lat="49.14182057234881" lon="2.504687565371312"><ele>76.0</ele><time>2026-05-02T12:29:18.999Z</time></trkpt><trkpt lat="49.141855152973925" lon="2.5045903158953555"><ele>76.0</ele><time>2026-05-02T12:29:20.999Z</time></trkpt><trkpt lat="49.14192283382786" lon="2.5045945862387757"><ele>76.0</ele><time>2026-05-02T12:29:22.999Z</time></trkpt><trkpt lat="49.14201790266231" lon="2.5045899073469706"><ele>76.0</ele><time>2026-05-02T12:29:25.999Z</time></trkpt><trkpt lat="49.14210866415496" lon="2.5045653565196395"><ele>76.0</ele><time>2026-05-02T12:29:28.999Z</time></trkpt><trkpt lat="49.14218388920342" lon="2.5045634043556824"><ele>76.0</ele><time>2026-05-02T12:29:30.999Z</time></trkpt><trkpt lat="49.14225868396337" lon="2.5045554164442807"><ele>76.0</ele><time>2026-05-02T12:29:32.999Z</time></trkpt><trkpt lat="49.142331832558405" lon="2.50455358876745"><ele>76.28571428571428</ele><time>2026-05-02T12:29:34.999Z</time></trkpt><trkpt lat="49.142395505788265" lon="2.5045393159995366"><ele>76.57142857142858</ele><time>2026-05-02T12:29:36.999Z</time></trkpt><trkpt lat="49.14247646357095" lon="2.5045392156158144"><ele>76.85714285714286</ele><time>2026-05-02T12:29:38.999Z</time></trkpt><trkpt lat="49.14255619429009" lon="2.5045394818292306"><ele>77.14285714285714</ele><time>2026-05-02T12:29:40.999Z</time></trkpt><trkpt lat="49.142633031517825" lon="2.5045261388493336"><ele>77.42857142857142</ele><time>2026-05-02T12:29:42.999Z</time></trkpt><trkpt lat="49.14271408458906" lon="2.5045245104799956"><ele>77.71428571428572</ele><time>2026-05-02T12:29:44.999Z</time></trkpt><trkpt lat="49.14277859055689" lon="2.5045258616111683"><ele>78.0</ele><time>2026-05-02T12:29:46.999Z</time></trkpt><trkpt lat="49.142846370460134" lon="2.5045237444013897"><ele>78.0</ele><time>2026-05-02T12:29:48.999Z</time></trkpt><trkpt lat="49.14293894875487" lon="2.5045172834796268"><ele>78.0</ele><time>2026-05-02T12:29:51.998Z</time></trkpt><trkpt lat="49.143032528785724" lon="2.50451844030867"><ele>78.0</ele><time>2026-05-02T12:29:54.998Z</time></trkpt><trkpt lat="49.14310926451429" lon="2.504528362033252"><ele>78.0</ele><time>2026-05-02T12:29:56.998Z</time></trkpt><trkpt lat="49.14318394887969" lon="2.5045388462146767"><ele>78.0</ele><time>2026-05-02T12:29:58.998Z</time></trkpt><trkpt lat="49.14326062320807" lon="2.5045216537176724"><ele>78.0</ele><time>2026-05-02T12:30:00.998Z</time></trkpt><trkpt lat="49.14334073949791" lon="2.504522970553106"><ele>78.16666666666667</ele><time>2026-05-02T12:30:02.998Z</time></trkpt><trkpt lat="49.14342599704278" lon="2.5044939680918437"><ele>78.33333333333333</ele><time>2026-05-02T12:30:04.998Z</time></trkpt><trkpt lat="49.14348622157925" lon="2.5045227345928196"><ele>78.5</ele><time>2026-05-02T12:30:06.998Z</time></trkpt><trkpt lat="49.143573140909545" lon="2.504509731381975"><ele>78.66666666666666</ele><time>2026-05-02T12:30:08.998Z</time></trkpt><trkpt lat="49.14366410255176" lon="2.504501284837967"><ele>78.83333333333333</ele><time>2026-05-02T12:30:10.998Z</time></trkpt><trkpt lat="49.14375072659665" lon="2.5044980992842247"><ele>79.0</ele><time>2026-05-02T12:30:12.998Z</time></trkpt><trkpt lat="49.14384508581809" lon="2.5044940357215784"><ele>79.0</ele><time>2026-05-02T12:30:14.998Z</time></trkpt><trkpt lat="49.14393137934719" lon="2.504479343398733"><ele>79.0</ele><time>2026-05-02T12:30:16.998Z</time></trkpt><trkpt lat="49.1440121852874" lon="2.5044790605469314"><ele>79.0</ele><time>2026-05-02T12:30:18.998Z</time></trkpt><trkpt lat="49.14409099498919" lon="2.5044448589703454"><ele>79.0</ele><time>2026-05-02T12:30:21.998Z</time></trkpt><trkpt lat="49.14414581939155" lon="2.5045025828435237"><ele>79.0</ele><time>2026-05-02T12:30:23.998Z</time></trkpt><trkpt lat="49.14421237147879" lon="2.5044909037534318"><ele>79.0</ele><time>2026-05-02T12:30:25.997Z</time></trkpt><trkpt lat="49.14429368694967" lon="2.5044876850239"><ele>78.4</ele><time>2026-05-02T12:30:27.997Z</time></trkpt><trkpt lat="49.14438693230718" lon="2.5044844132605184"><ele>77.80000000000001</ele><time>2026-05-02T12:30:29.997Z</time></trkpt><trkpt lat="49.14446887725786" lon="2.504486166023434"><ele>77.19999999999999</ele><time>2026-05-02T12:30:31.997Z</time></trkpt><trkpt lat="49.144560994530465" lon="2.5044836647080095"><ele>76.6</ele><time>2026-05-02T12:30:33.997Z</time></trkpt><trkpt lat="49.14464881795587" lon="2.5044905981056473"><ele>76.0</ele><time>2026-05-02T12:30:35.997Z</time></trkpt><trkpt lat="49.14474859217749" lon="2.504480808703188"><ele>76.0</ele><time>2026-05-02T12:30:37.997Z</time></trkpt><trkpt lat="49.14484200217909" lon="2.5044787081935804"><ele>76.0</ele><time>2026-05-02T12:30:39.997Z</time></trkpt><trkpt lat="49.14493731784435" lon="2.5044745691409944"><ele>76.0</ele><time>2026-05-02T12:30:41.997Z</time></trkpt><trkpt lat="49.145033767979484" lon="2.5044665313050736"><ele>76.0</ele><time>2026-05-02T12:30:43.997Z</time></trkpt><trkpt lat="49.14512114384602" lon="2.5044648649483947"><ele>76.0</ele><time>2026-05-02T12:30:46Z</time></trkpt><trkpt lat="49.14521679194553" lon="2.504465864348885"><ele>75.5</ele><time>2026-05-02T12:30:48Z</time></trkpt><trkpt lat="49.14530334574139" lon="2.504461484461583"><ele>75.0</ele><time>2026-05-02T12:30:50Z</time></trkpt><trkpt lat="49.14538562682016" lon="2.5044522311006263"><ele>74.5</ele><time>2026-05-02T12:30:52Z</time></trkpt><trkpt lat="49.14546940451601" lon="2.5044471562774695"><ele>74.0</ele><time>2026-05-02T12:30:54Z</time></trkpt><trkpt lat="49.14555373652329" lon="2.5044630223080224"><ele>73.5</ele><time>2026-05-02T12:30:56Z</time></trkpt><trkpt lat="49.14563062391621" lon="2.504449071555295"><ele>73.0</ele><time>2026-05-02T12:30:58Z</time></trkpt><trkpt lat="49.14572425678666" lon="2.504439976542297"><ele>71.83333333333333</ele><time>2026-05-02T12:31:00Z</time></trkpt><trkpt lat="49.14580310240844" lon="2.5044429307838856"><ele>70.66666666666666</ele><time>2026-05-02T12:31:02Z</time></trkpt><trkpt lat="49.14588713144482" lon="2.5044401721506593"><ele>69.5</ele><time>2026-05-02T12:31:18Z</time></trkpt><trkpt lat="49.14597398010805" lon="2.5044383238520944"><ele>68.33333333333333</ele><time>2026-05-02T12:31:21.999Z</time></trkpt><trkpt lat="49.14604598682539" lon="2.5044299354520128"><ele>67.16666666666667</ele><time>2026-05-02T12:31:24.999Z</time></trkpt><trkpt lat="49.14613694532429" lon="2.50443736143057"><ele>66.0</ele><time>2026-05-02T12:31:26.999Z</time></trkpt><trkpt lat="49.14624034449325" lon="2.5044282630064245"><ele>66.0</ele><time>2026-05-02T12:31:28.999Z</time></trkpt><trkpt lat="49.146336945376106" lon="2.504420516877373"><ele>66.0</ele><time>2026-05-02T12:31:30.999Z</time></trkpt><trkpt lat="49.146429739380984" lon="2.5044057360509657"><ele>66.0</ele><time>2026-05-02T12:31:32.999Z</time></trkpt><trkpt lat="49.146533468284666" lon="2.504404555353253"><ele>66.0</ele><time>2026-05-02T12:31:34.999Z</time></trkpt><trkpt lat="49.14662470353781" lon="2.504406784552905"><ele>66.0</ele><time>2026-05-02T12:31:36.999Z</time></trkpt><trkpt lat="49.14673833723593" lon="2.5044018275247177"><ele>65.2</ele><time>2026-05-02T12:31:38.999Z</time></trkpt><trkpt lat="49.146847992703876" lon="2.504407519666479"><ele>64.39999999999999</ele><time>2026-05-02T12:31:40.999Z</time></trkpt><trkpt lat="49.14695508449876" lon="2.5044053691390014"><ele>63.6</ele><time>2026-05-02T12:31:42.999Z</time></trkpt><trkpt lat="49.14701861879077" lon="2.5044083167502107"><ele>62.8</ele><time>2026-05-02T12:31:43.999Z</time></trkpt><trkpt lat="49.14713689575893" lon="2.5043987026585164"><ele>62.0</ele><time>2026-05-02T12:31:45.999Z</time></trkpt><trkpt lat="49.14720477234596" lon="2.504402290798078"><ele>62.00000000000001</ele><time>2026-05-02T12:31:46.999Z</time></trkpt><trkpt lat="49.147269692200595" lon="2.5044109616648753"><ele>62.0</ele><time>2026-05-02T12:31:47.999Z</time></trkpt><trkpt lat="49.1474003443084" lon="2.5043917529589104"><ele>62.0</ele><time>2026-05-02T12:31:49.999Z</time></trkpt><trkpt lat="49.14747849047485" lon="2.5043892436902673"><ele>62.0</ele><time>2026-05-02T12:31:50.999Z</time></trkpt><trkpt lat="49.14754099646757" lon="2.5044057335452155"><ele>62.00000000000001</ele><time>2026-05-02T12:31:51.999Z</time></trkpt><trkpt lat="49.14761677402478" lon="2.5044085837940395"><ele>62.0</ele><time>2026-05-02T12:31:52.999Z</time></trkpt><trkpt lat="49.1476805824352" lon="2.504399142878097"><ele>62.2</ele><time>2026-05-02T12:31:53.999Z</time></trkpt><trkpt lat="49.147783208567226" lon="2.5043720199298045"><ele>62.400000000000006</ele><time>2026-05-02T12:31:55.998Z</time></trkpt><trkpt lat="49.14785316404696" lon="2.504364393423352"><ele>62.599999999999994</ele><time>2026-05-02T12:31:56.998Z</time></trkpt><trkpt lat="49.14797727966893" lon="2.5043654300117058"><ele>62.8</ele><time>2026-05-02T12:31:58.998Z</time></trkpt><trkpt lat="49.14808530836244" lon="2.5043656447199574"><ele>63.0</ele><time>2026-05-02T12:32:00.998Z</time></trkpt><trkpt lat="49.14819067117396" lon="2.5043705504982094"><ele>63.833333333333336</ele><time>2026-05-02T12:32:02.998Z</time></trkpt><trkpt lat="49.148290420993426" lon="2.5043623344100685"><ele>64.66666666666667</ele><time>2026-05-02T12:32:04.998Z</time></trkpt><trkpt lat="49.14838063121142" lon="2.5043620182607147"><ele>65.5</ele><time>2026-05-02T12:32:06.998Z</time></trkpt><trkpt lat="49.148450024205495" lon="2.5043510241322773"><ele>66.33333333333334</ele><time>2026-05-02T12:32:08.998Z</time></trkpt><trkpt lat="49.14852578031959" lon="2.5043533444476767"><ele>67.16666666666667</ele><time>2026-05-02T12:32:11.998Z</time></trkpt><trkpt lat="49.148600023401066" lon="2.5043128300139244"><ele>68.0</ele><time>2026-05-02T12:32:13.998Z</time></trkpt><trkpt lat="49.14865087671196" lon="2.50421500063287"><ele>68.0</ele><time>2026-05-02T12:32:15.998Z</time></trkpt><trkpt lat="49.14875501306873" lon="2.504168094053739"><ele>68.0</ele><time>2026-05-02T12:32:18.998Z</time></trkpt><trkpt lat="49.148824275063006" lon="2.5041272100048615"><ele>68.0</ele><time>2026-05-02T12:32:20.998Z</time></trkpt><trkpt lat="49.14890007914414" lon="2.5040823540680597"><ele>68.0</ele><time>2026-05-02T12:32:22.998Z</time></trkpt><trkpt lat="49.14896609648751" lon="2.5040410319471236"><ele>68.0</ele><time>2026-05-02T12:32:24.998Z</time></trkpt><trkpt lat="49.149033252573254" lon="2.5040056708746783"><ele>68.0</ele><time>2026-05-02T12:32:26.998Z</time></trkpt><trkpt lat="49.14910182014954" lon="2.5039630641572557"><ele>68.16666666666667</ele><time>2026-05-02T12:32:28.998Z</time></trkpt><trkpt lat="49.14916604618117" lon="2.50392001272113"><ele>68.33333333333334</ele><time>2026-05-02T12:32:30.997Z</time></trkpt><trkpt lat="49.14924337555868" lon="2.503867850718755"><ele>68.5</ele><time>2026-05-02T12:32:32.997Z</time></trkpt><trkpt lat="49.14932040683071" lon="2.5038260647628268"><ele>68.66666666666667</ele><time>2026-05-02T12:32:34.997Z</time></trkpt><trkpt lat="49.149405052728895" lon="2.5037735830540297"><ele>68.83333333333333</ele><time>2026-05-02T12:32:36.997Z</time></trkpt><trkpt lat="49.149487875041736" lon="2.503723181549993"><ele>69.0</ele><time>2026-05-02T12:32:38.997Z</time></trkpt><trkpt lat="49.14957138631066" lon="2.503670999503279"><ele>69.16666666666667</ele><time>2026-05-02T12:32:40.997Z</time></trkpt><trkpt lat="49.14965232138752" lon="2.503628530366323"><ele>69.33333333333333</ele><time>2026-05-02T12:32:42.997Z</time></trkpt><trkpt lat="49.149720223107146" lon="2.503581767384818"><ele>69.5</ele><time>2026-05-02T12:32:44.997Z</time></trkpt><trkpt lat="49.149791296969504" lon="2.5035460600223844"><ele>69.66666666666666</ele><time>2026-05-02T12:32:46.997Z</time></trkpt><trkpt lat="49.14985530333183" lon="2.5035051592251683"><ele>69.83333333333333</ele><time>2026-05-02T12:32:48.997Z</time></trkpt><trkpt lat="49.149924518315075" lon="2.5034540301293307"><ele>70.0</ele><time>2026-05-02T12:32:51Z</time></trkpt><trkpt lat="49.14999906208608" lon="2.5034197404241523"><ele>70.0</ele><time>2026-05-02T12:32:53Z</time></trkpt><trkpt lat="49.15006707472254" lon="2.5033926632938095"><ele>70.0</ele><time>2026-05-02T12:32:55Z</time></trkpt><trkpt lat="49.15015010654527" lon="2.503338557061808"><ele>70.0</ele><time>2026-05-02T12:32:57Z</time></trkpt><trkpt lat="49.15022654111205" lon="2.5032790773195677"><ele>70.0</ele><time>2026-05-02T12:32:59Z</time></trkpt><trkpt lat="49.15030012504455" lon="2.503231556877626"><ele>70.0</ele><time>2026-05-02T12:33:01Z</time></trkpt><trkpt lat="49.150380024847784" lon="2.5031933905540504"><ele>70.0</ele><time>2026-05-02T12:33:03Z</time></trkpt><trkpt lat="49.150461494760016" lon="2.503141243163946"><ele>70.0</ele><time>2026-05-02T12:33:05Z</time></trkpt><trkpt lat="49.15054031360629" lon="2.503087762771529"><ele>70.0</ele><time>2026-05-02T12:33:07Z</time></trkpt><trkpt lat="49.15061881270611" lon="2.5030471154535925"><ele>70.0</ele><time>2026-05-02T12:33:09Z</time></trkpt><trkpt lat="49.15069846373831" lon="2.502990392861131"><ele>70.0</ele><time>2026-05-02T12:33:11Z</time></trkpt><trkpt lat="49.15078095732017" lon="2.502953723002758"><ele>70.0</ele><time>2026-05-02T12:33:13Z</time></trkpt><trkpt lat="49.1508572524861" lon="2.5028993075172687"><ele>70.0</ele><time>2026-05-02T12:33:15Z</time></trkpt><trkpt lat="49.15094092122246" lon="2.5028488914016"><ele>69.8</ele><time>2026-05-02T12:33:17Z</time></trkpt><trkpt lat="49.1510317101427" lon="2.5027939832567614"><ele>69.6</ele><time>2026-05-02T12:33:19Z</time></trkpt><trkpt lat="49.151114074517224" lon="2.5027185068771445"><ele>69.4</ele><time>2026-05-02T12:33:21Z</time></trkpt><trkpt lat="49.151204895534526" lon="2.5026697699432714"><ele>69.2</ele><time>2026-05-02T12:33:23Z</time></trkpt><trkpt lat="49.1513031865212" lon="2.5026209397281036"><ele>69.0</ele><time>2026-05-02T12:33:25Z</time></trkpt><trkpt lat="49.15140088774457" lon="2.5025661637416095"><ele>69.0</ele><time>2026-05-02T12:33:27Z</time></trkpt><trkpt lat="49.15148818481574" lon="2.502509373745414"><ele>69.0</ele><time>2026-05-02T12:33:28.999Z</time></trkpt><trkpt lat="49.15158014742812" lon="2.50244419620872"><ele>69.0</ele><time>2026-05-02T12:33:30.999Z</time></trkpt><trkpt lat="49.15167766815775" lon="2.5023857837808827"><ele>69.0</ele><time>2026-05-02T12:33:32.999Z</time></trkpt><trkpt lat="49.15178052200607" lon="2.502337080299641"><ele>69.0</ele><time>2026-05-02T12:33:34.999Z</time></trkpt><trkpt lat="49.15188027620018" lon="2.5022724983790856"><ele>68.4</ele><time>2026-05-02T12:33:36.999Z</time></trkpt><trkpt lat="49.15198850531807" lon="2.5022106331188647"><ele>67.80000000000001</ele><time>2026-05-02T12:33:38.999Z</time></trkpt><trkpt lat="49.15209744339829" lon="2.50213898607007"><ele>67.19999999999999</ele><time>2026-05-02T12:33:40.999Z</time></trkpt><trkpt lat="49.15217990092595" lon="2.5021043713530062"><ele>66.6</ele><time>2026-05-02T12:33:42.999Z</time></trkpt><trkpt lat="49.152261293691794" lon="2.5020544973215544"><ele>66.0</ele><time>2026-05-02T12:33:44.999Z</time></trkpt><trkpt lat="49.15235085392913" lon="2.502004808608333"><ele>66.16666666666667</ele><time>2026-05-02T12:33:46.999Z</time></trkpt><trkpt lat="49.15243152228034" lon="2.501947900514823"><ele>66.33333333333333</ele><time>2026-05-02T12:33:48.999Z</time></trkpt><trkpt lat="49.15249760972574" lon="2.50190275394525"><ele>66.5</ele><time>2026-05-02T12:33:49.999Z</time></trkpt><trkpt lat="49.15255853886219" lon="2.501872466692364"><ele>66.66666666666666</ele><time>2026-05-02T12:33:50.999Z</time></trkpt><trkpt lat="49.15262843224498" lon="2.501843330398619"><ele>66.83333333333333</ele><time>2026-05-02T12:33:51.999Z</time></trkpt><trkpt lat="49.15270638838224" lon="2.5017972633584105"><ele>67.0</ele><time>2026-05-02T12:33:53.999Z</time></trkpt><trkpt lat="49.1528030146757" lon="2.501708160650009"><ele>67.0</ele><time>2026-05-02T12:33:55.999Z</time></trkpt><trkpt lat="49.15289592194964" lon="2.501665371399154"><ele>67.0</ele><time>2026-05-02T12:33:57.999Z</time></trkpt><trkpt lat="49.15299227858676" lon="2.5016268540743107"><ele>67.0</ele><time>2026-05-02T12:33:59.999Z</time></trkpt><trkpt lat="49.15307514774304" lon="2.5015727310078564"><ele>67.0</ele><time>2026-05-02T12:34:01.998Z</time></trkpt><trkpt lat="49.15315602297978" lon="2.501519175375026"><ele>67.0</ele><time>2026-05-02T12:34:03.998Z</time></trkpt><trkpt lat="49.15323745414726" lon="2.501478803670508"><ele>67.0</ele><time>2026-05-02T12:34:05.998Z</time></trkpt><trkpt lat="49.15332069627928" lon="2.5014313097489627"><ele>67.0</ele><time>2026-05-02T12:34:07.998Z</time></trkpt><trkpt lat="49.15339126513807" lon="2.5013760930838957"><ele>67.0</ele><time>2026-05-02T12:34:09.998Z</time></trkpt><trkpt lat="49.15347070163802" lon="2.501332164565018"><ele>67.0</ele><time>2026-05-02T12:34:11.998Z</time></trkpt><trkpt lat="49.15355874253219" lon="2.501278836561914"><ele>67.0</ele><time>2026-05-02T12:34:13.998Z</time></trkpt><trkpt lat="49.15363729960199" lon="2.5012304394155924"><ele>67.0</ele><time>2026-05-02T12:34:15.998Z</time></trkpt><trkpt lat="49.15371733357057" lon="2.5011776017103293"><ele>67.0</ele><time>2026-05-02T12:34:17.998Z</time></trkpt><trkpt lat="49.15380489084372" lon="2.5011497631182436"><ele>67.0</ele><time>2026-05-02T12:34:19.998Z</time></trkpt><trkpt lat="49.153868186293785" lon="2.5010999548849515"><ele>67.0</ele><time>2026-05-02T12:34:21.998Z</time></trkpt><trkpt lat="49.15393773846559" lon="2.501041360795432"><ele>67.0</ele><time>2026-05-02T12:34:23.998Z</time></trkpt><trkpt lat="49.15399615847122" lon="2.500995161208685"><ele>67.0</ele><time>2026-05-02T12:34:25.998Z</time></trkpt><trkpt lat="49.15407866391853" lon="2.5009602674407887"><ele>67.0</ele><time>2026-05-02T12:34:27.998Z</time></trkpt><trkpt lat="49.15415299542767" lon="2.500917209004388"><ele>67.0</ele><time>2026-05-02T12:34:29.998Z</time></trkpt><trkpt lat="49.15423040590116" lon="2.500865187999242"><ele>67.0</ele><time>2026-05-02T12:34:31.998Z</time></trkpt><trkpt lat="49.15430723755187" lon="2.500815077600021"><ele>67.0</ele><time>2026-05-02T12:34:33.998Z</time></trkpt><trkpt lat="49.15438888465457" lon="2.5007535056497376"><ele>67.0</ele><time>2026-05-02T12:34:35.997Z</time></trkpt><trkpt lat="49.1544754351056" lon="2.5007160211072708"><ele>67.0</ele><time>2026-05-02T12:34:37.997Z</time></trkpt><trkpt lat="49.154563910346894" lon="2.5006709657169934"><ele>67.0</ele><time>2026-05-02T12:34:39.997Z</time></trkpt><trkpt lat="49.154646375044436" lon="2.5006333648266983"><ele>67.0</ele><time>2026-05-02T12:34:41.997Z</time></trkpt><trkpt lat="49.1547347871882" lon="2.5005755473143814"><ele>67.0</ele><time>2026-05-02T12:34:43.997Z</time></trkpt><trkpt lat="49.154819456666324" lon="2.500511604985603"><ele>67.0</ele><time>2026-05-02T12:34:45.997Z</time></trkpt><trkpt lat="49.154901368992576" lon="2.5004804479961096"><ele>67.0</ele><time>2026-05-02T12:34:47.997Z</time></trkpt><trkpt lat="49.15496365580514" lon="2.500451811020794"><ele>67.0</ele><time>2026-05-02T12:34:48.997Z</time></trkpt><trkpt lat="49.15504524441319" lon="2.500380875949716"><ele>67.0</ele><time>2026-05-02T12:34:50.997Z</time></trkpt><trkpt lat="49.15513478194291" lon="2.500324524654243"><ele>66.6</ele><time>2026-05-02T12:34:52.997Z</time></trkpt><trkpt lat="49.155218123731004" lon="2.500280774062809"><ele>66.2</ele><time>2026-05-02T12:34:54.997Z</time></trkpt><trkpt lat="49.155303543623035" lon="2.500225144821726"><ele>65.8</ele><time>2026-05-02T12:34:57Z</time></trkpt><trkpt lat="49.155390162436234" lon="2.5001741878488484"><ele>65.4</ele><time>2026-05-02T12:34:59Z</time></trkpt><trkpt lat="49.15548838176666" lon="2.5001226359294564"><ele>65.0</ele><time>2026-05-02T12:35:01Z</time></trkpt><trkpt lat="49.155593483381985" lon="2.5000520327661393"><ele>65.0</ele><time>2026-05-02T12:35:03Z</time></trkpt><trkpt lat="49.15569058524069" lon="2.5000079511569466"><ele>65.0</ele><time>2026-05-02T12:35:05Z</time></trkpt><trkpt lat="49.15581815312695" lon="2.499930351132788"><ele>65.0</ele><time>2026-05-02T12:35:07Z</time></trkpt><trkpt lat="49.15589867770896" lon="2.4998902793855367"><ele>65.0</ele><time>2026-05-02T12:35:08Z</time></trkpt><trkpt lat="49.15598774627406" lon="2.4998311943107483"><ele>65.0</ele><time>2026-05-02T12:35:10Z</time></trkpt><trkpt lat="49.15608382329689" lon="2.4997676358877325"><ele>65.14285714285715</ele><time>2026-05-02T12:35:12Z</time></trkpt><trkpt lat="49.156150718239076" lon="2.499749710651187"><ele>65.28571428571429</ele><time>2026-05-02T12:35:13Z</time></trkpt><trkpt lat="49.15621768290619" lon="2.4997454639019896"><ele>65.42857142857143</ele><time>2026-05-02T12:35:14Z</time></trkpt><trkpt lat="49.156282172913286" lon="2.4997614220469377"><ele>65.57142857142858</ele><time>2026-05-02T12:35:15Z</time></trkpt><trkpt lat="49.15634085906703" lon="2.4997964135064827"><ele>65.71428571428572</ele><time>2026-05-02T12:35:16Z</time></trkpt><trkpt lat="49.15640314396526" lon="2.4998520307566383"><ele>65.85714285714286</ele><time>2026-05-02T12:35:17Z</time></trkpt><trkpt lat="49.15646785602145" lon="2.4999301031128085"><ele>66.0</ele><time>2026-05-02T12:35:18Z</time></trkpt><trkpt lat="49.156546141382954" lon="2.4999925106870537"><ele>65.0</ele><time>2026-05-02T12:35:19Z</time></trkpt><trkpt lat="49.156633154254024" lon="2.500067873495332"><ele>63.99999999999999</ele><time>2026-05-02T12:35:20Z</time></trkpt><trkpt lat="49.15672168965883" lon="2.500146393161911"><ele>62.99999999999999</ele><time>2026-05-02T12:35:21Z</time></trkpt><trkpt lat="49.156818757934666" lon="2.500231562388422"><ele>62.0</ele><time>2026-05-02T12:35:22Z</time></trkpt><trkpt lat="49.15692182691704" lon="2.5003277862364173"><ele>61.0</ele><time>2026-05-02T12:35:23Z</time></trkpt><trkpt lat="49.15702762521556" lon="2.5004248914285263"><ele>60.75</ele><time>2026-05-02T12:35:24Z</time></trkpt><trkpt lat="49.15712765634606" lon="2.5005193136192103"><ele>60.5</ele><time>2026-05-02T12:35:25Z</time></trkpt><trkpt lat="49.157233846251465" lon="2.5006160885913453"><ele>60.25</ele><time>2026-05-02T12:35:26Z</time></trkpt><trkpt lat="49.157341313899" lon="2.5007054703897675"><ele>60.0</ele><time>2026-05-02T12:35:27Z</time></trkpt><trkpt lat="49.157438328905734" lon="2.500788736518484"><ele>57.8</ele><time>2026-05-02T12:35:28Z</time></trkpt><trkpt lat="49.15753460449001" lon="2.5008733686048497"><ele>55.6</ele><time>2026-05-02T12:35:29Z</time></trkpt><trkpt lat="49.1576273541429" lon="2.500959711219232"><ele>53.400000000000006</ele><time>2026-05-02T12:35:30Z</time></trkpt><trkpt lat="49.15771391030701" lon="2.501038026657344"><ele>51.2</ele><time>2026-05-02T12:35:31Z</time></trkpt><trkpt lat="49.157797131306395" lon="2.50111046639034"><ele>49.0</ele><time>2026-05-02T12:35:32Z</time></trkpt><trkpt lat="49.157876747858936" lon="2.501207845527382"><ele>48.99999999999999</ele><time>2026-05-02T12:35:32.999Z</time></trkpt><trkpt lat="49.15794532344589" lon="2.5012702991453932"><ele>49.0</ele><time>2026-05-02T12:35:33.999Z</time></trkpt><trkpt lat="49.158020385993915" lon="2.501339933269966"><ele>49.0</ele><time>2026-05-02T12:35:34.999Z</time></trkpt><trkpt lat="49.15809062303309" lon="2.501379931986255"><ele>49.0</ele><time>2026-05-02T12:35:35.999Z</time></trkpt><trkpt lat="49.15814632860717" lon="2.5014388834607786"><ele>48.99999999999999</ele><time>2026-05-02T12:35:36.999Z</time></trkpt><trkpt lat="49.158241573454745" lon="2.501519322772772"><ele>49.0</ele><time>2026-05-02T12:35:38.999Z</time></trkpt><trkpt lat="49.15830416539044" lon="2.50158997370996"><ele>49.49999999999999</ele><time>2026-05-02T12:35:41.999Z</time></trkpt><trkpt lat="49.158352008112345" lon="2.50144590983343"><ele>50.0</ele><time>2026-05-02T12:35:45.999Z</time></trkpt><trkpt lat="49.15834713320353" lon="2.5013476573868667"><ele>50.5</ele><time>2026-05-02T12:35:47.999Z</time></trkpt><trkpt lat="49.15833821949303" lon="2.5012446981398346"><ele>51.0</ele><time>2026-05-02T12:35:49.999Z</time></trkpt><trkpt lat="49.15834753839547" lon="2.501088121368835"><ele>51.49999999999999</ele><time>2026-05-02T12:35:52.999Z</time></trkpt><trkpt lat="49.15834681706274" lon="2.5009848988447163"><ele>52.0</ele><time>2026-05-02T12:35:54.999Z</time></trkpt><trkpt lat="49.15835416730423" lon="2.500862221186014"><ele>51.99999999999999</ele><time>2026-05-02T12:35:56.999Z</time></trkpt><trkpt lat="49.15835206473315" lon="2.500739175790698"><ele>52.0</ele><time>2026-05-02T12:35:58.999Z</time></trkpt><trkpt lat="49.1583509126383" lon="2.5006033390526174"><ele>52.0</ele><time>2026-05-02T12:36:00.999Z</time></trkpt><trkpt lat="49.15835193590593" lon="2.5004812070192304"><ele>52.0</ele><time>2026-05-02T12:36:02.999Z</time></trkpt><trkpt lat="49.158344009100816" lon="2.5003538542080457"><ele>51.99999999999999</ele><time>2026-05-02T12:36:04.999Z</time></trkpt><trkpt lat="49.15834424843283" lon="2.5002324141328143"><ele>52.0</ele><time>2026-05-02T12:36:06.998Z</time></trkpt><trkpt lat="49.158344362912665" lon="2.500113067486849"><ele>52.33333333333333</ele><time>2026-05-02T12:36:08.998Z</time></trkpt><trkpt lat="49.15835022919214" lon="2.500006492431828"><ele>52.666666666666664</ele><time>2026-05-02T12:36:10.998Z</time></trkpt><trkpt lat="49.15835114842149" lon="2.4998794363702954"><ele>53.0</ele><time>2026-05-02T12:36:12.998Z</time></trkpt><trkpt lat="49.158359003129796" lon="2.4997740906941317"><ele>53.33333333333333</ele><time>2026-05-02T12:36:14.998Z</time></trkpt><trkpt lat="49.158359043253164" lon="2.49964086338845"><ele>53.666666666666664</ele><time>2026-05-02T12:36:16.998Z</time></trkpt><trkpt lat="49.15836027605645" lon="2.499512353243119"><ele>54.0</ele><time>2026-05-02T12:36:18.998Z</time></trkpt><trkpt lat="49.15836034360639" lon="2.499382671953732"><ele>54.0</ele><time>2026-05-02T12:36:20.998Z</time></trkpt><trkpt lat="49.15836377366155" lon="2.4992478898342454"><ele>54.00000000000001</ele><time>2026-05-02T12:36:22.998Z</time></trkpt><trkpt lat="49.15835797914901" lon="2.499105711402802"><ele>54.00000000000001</ele><time>2026-05-02T12:36:24.998Z</time></trkpt><trkpt lat="49.15836447771734" lon="2.49896591774254"><ele>54.0</ele><time>2026-05-02T12:36:26.998Z</time></trkpt><trkpt lat="49.15837014637437" lon="2.498815137316742"><ele>54.0</ele><time>2026-05-02T12:36:28.998Z</time></trkpt><trkpt lat="49.158362771423086" lon="2.4986640158168405"><ele>54.0</ele><time>2026-05-02T12:36:30.998Z</time></trkpt><trkpt lat="49.158366038558434" lon="2.498522164154345"><ele>54.0</ele><time>2026-05-02T12:36:32.998Z</time></trkpt><trkpt lat="49.158367255817886" lon="2.4983806329199765"><ele>54.0</ele><time>2026-05-02T12:36:34.998Z</time></trkpt><trkpt lat="49.15837392907105" lon="2.4982454607024662"><ele>54.0</ele><time>2026-05-02T12:36:36.998Z</time></trkpt><trkpt lat="49.15838102505978" lon="2.498110498652009"><ele>54.0</ele><time>2026-05-02T12:36:38.998Z</time></trkpt><trkpt lat="49.158394553874565" lon="2.497981573050331"><ele>54.0</ele><time>2026-05-02T12:36:40.997Z</time></trkpt><trkpt lat="49.15840466801019" lon="2.497849186350163"><ele>54.333333333333336</ele><time>2026-05-02T12:36:42.997Z</time></trkpt><trkpt lat="49.15841430446441" lon="2.497716888430328"><ele>54.66666666666667</ele><time>2026-05-02T12:36:44.997Z</time></trkpt><trkpt lat="49.158423579429055" lon="2.497588745642537"><ele>55.0</ele><time>2026-05-02T12:36:46.997Z</time></trkpt><trkpt lat="49.15843469326431" lon="2.497458621806152"><ele>55.333333333333336</ele><time>2026-05-02T12:36:48.997Z</time></trkpt><trkpt lat="49.15844447136777" lon="2.4973205842589303"><ele>55.66666666666667</ele><time>2026-05-02T12:36:50.997Z</time></trkpt><trkpt lat="49.158460081098475" lon="2.4971796262337165"><ele>56.0</ele><time>2026-05-02T12:36:52.997Z</time></trkpt><trkpt lat="49.158468218954525" lon="2.4970356391616724"><ele>56.599999999999994</ele><time>2026-05-02T12:36:54.997Z</time></trkpt><trkpt lat="49.15848164800255" lon="2.49689741832668"><ele>57.199999999999996</ele><time>2026-05-02T12:36:56.997Z</time></trkpt><trkpt lat="49.15849223787763" lon="2.496749104850604"><ele>57.800000000000004</ele><time>2026-05-02T12:36:58.997Z</time></trkpt><trkpt lat="49.1585125222619" lon="2.496611525540385"><ele>58.400000000000006</ele><time>2026-05-02T12:37:00.997Z</time></trkpt><trkpt lat="49.15851749564459" lon="2.496455556459416"><ele>59.0</ele><time>2026-05-02T12:37:03Z</time></trkpt><trkpt lat="49.15852756474657" lon="2.496308853542492"><ele>58.800000000000004</ele><time>2026-05-02T12:37:05Z</time></trkpt><trkpt lat="49.15854156306305" lon="2.4961455577817846"><ele>58.60000000000001</ele><time>2026-05-02T12:37:07Z</time></trkpt><trkpt lat="49.15855664035971" lon="2.495975260863937"><ele>58.4</ele><time>2026-05-02T12:37:09Z</time></trkpt><trkpt lat="49.158564071370456" lon="2.4958771665099557"><ele>58.2</ele><time>2026-05-02T12:37:10Z</time></trkpt><trkpt lat="49.15857219893478" lon="2.4957752868687084"><ele>58.0</ele><time>2026-05-02T12:37:11Z</time></trkpt><trkpt lat="49.158574638248524" lon="2.495576977331826"><ele>57.99999999999999</ele><time>2026-05-02T12:37:13Z</time></trkpt><trkpt lat="49.15857936604913" lon="2.495480021711923"><ele>58.0</ele><time>2026-05-02T12:37:14Z</time></trkpt><trkpt lat="49.158578944832854" lon="2.4953779495046513"><ele>58.0</ele><time>2026-05-02T12:37:15Z</time></trkpt><trkpt lat="49.15857978026795" lon="2.495193823608113"><ele>58.0</ele><time>2026-05-02T12:37:17Z</time></trkpt><trkpt lat="49.158561574767795" lon="2.4950078366551818"><ele>57.99999999999999</ele><time>2026-05-02T12:37:19Z</time></trkpt><trkpt lat="49.15855377158822" lon="2.4949121474069216"><ele>58.0</ele><time>2026-05-02T12:37:20Z</time></trkpt><trkpt lat="49.15854293771459" lon="2.494738101281198"><ele>57.49999999999999</ele><time>2026-05-02T12:37:22Z</time></trkpt><trkpt lat="49.158525995319835" lon="2.49455126233284"><ele>57.0</ele><time>2026-05-02T12:37:24Z</time></trkpt><trkpt lat="49.158503027741205" lon="2.4943675508318677"><ele>56.5</ele><time>2026-05-02T12:37:26Z</time></trkpt><trkpt lat="49.158492471057784" lon="2.4942689533592373"><ele>56.0</ele><time>2026-05-02T12:37:27Z</time></trkpt><trkpt lat="49.1584820629345" lon="2.4941728779890897"><ele>55.49999999999999</ele><time>2026-05-02T12:37:28Z</time></trkpt><trkpt lat="49.158471722072115" lon="2.49407367893917"><ele>55.0</ele><time>2026-05-02T12:37:29Z</time></trkpt><trkpt lat="49.15845390682718" lon="2.4938886709954"><ele>55.0</ele><time>2026-05-02T12:37:31Z</time></trkpt><trkpt lat="49.1584379073339" lon="2.493789383146685"><ele>55.0</ele><time>2026-05-02T12:37:32Z</time></trkpt><trkpt lat="49.15842816513448" lon="2.493691013261335"><ele>55.0</ele><time>2026-05-02T12:37:33Z</time></trkpt><trkpt lat="49.158412839611266" lon="2.4934993690010976"><ele>55.0</ele><time>2026-05-02T12:37:35Z</time></trkpt><trkpt lat="49.15839176371376" lon="2.4933235121419752"><ele>55.0</ele><time>2026-05-02T12:37:36.999Z</time></trkpt><trkpt lat="49.15836997448192" lon="2.4931376527460634"><ele>55.25</ele><time>2026-05-02T12:37:38.999Z</time></trkpt><trkpt lat="49.15835242000504" lon="2.492965137379586"><ele>55.5</ele><time>2026-05-02T12:37:40.999Z</time></trkpt><trkpt lat="49.158335369615266" lon="2.4927824851748044"><ele>55.75</ele><time>2026-05-02T12:37:42.999Z</time></trkpt><trkpt lat="49.15831909934451" lon="2.492628913763032"><ele>56.0</ele><time>2026-05-02T12:37:44.999Z</time></trkpt><trkpt lat="49.15830247003412" lon="2.4924559233461374"><ele>56.0</ele><time>2026-05-02T12:37:46.999Z</time></trkpt><trkpt lat="49.15829151141322" lon="2.492304705348301"><ele>55.99999999999999</ele><time>2026-05-02T12:37:48.999Z</time></trkpt><trkpt lat="49.15827187831825" lon="2.4921644678290553"><ele>55.99999999999999</ele><time>2026-05-02T12:37:50.999Z</time></trkpt><trkpt lat="49.15825603172335" lon="2.4920163719327997"><ele>56.0</ele><time>2026-05-02T12:37:52.999Z</time></trkpt><trkpt lat="49.158244018801966" lon="2.4918710861228988"><ele>56.0</ele><time>2026-05-02T12:37:54.999Z</time></trkpt><trkpt lat="49.15823100985329" lon="2.4917259116739854"><ele>56.199999999999996</ele><time>2026-05-02T12:37:56.999Z</time></trkpt><trkpt lat="49.15821179961848" lon="2.491587019954575"><ele>56.39999999999999</ele><time>2026-05-02T12:37:58.999Z</time></trkpt><trkpt lat="49.1582011633598" lon="2.4914451532895265"><ele>56.6</ele><time>2026-05-02T12:38:00.999Z</time></trkpt><trkpt lat="49.15818941793076" lon="2.4912838938293707"><ele>56.8</ele><time>2026-05-02T12:38:02.999Z</time></trkpt><trkpt lat="49.15817904505791" lon="2.4911159342872895"><ele>57.0</ele><time>2026-05-02T12:38:04.999Z</time></trkpt><trkpt lat="49.15816789909324" lon="2.4910211450646265"><ele>55.25</ele><time>2026-05-02T12:38:05.999Z</time></trkpt><trkpt lat="49.15815732586956" lon="2.49085205252513"><ele>53.5</ele><time>2026-05-02T12:38:07.999Z</time></trkpt><trkpt lat="49.15814039663473" lon="2.4906644090988537"><ele>51.75</ele><time>2026-05-02T12:38:09.998Z</time></trkpt><trkpt lat="49.15812106717318" lon="2.490479178969144"><ele>50.0</ele><time>2026-05-02T12:38:11.998Z</time></trkpt><trkpt lat="49.15810254539064" lon="2.490296752110549"><ele>50.0</ele><time>2026-05-02T12:38:13.998Z</time></trkpt><trkpt lat="49.15809702624967" lon="2.4901161455755076"><ele>50.0</ele><time>2026-05-02T12:38:15.998Z</time></trkpt><trkpt lat="49.158103027758465" lon="2.489939600563074"><ele>50.0</ele><time>2026-05-02T12:38:17.998Z</time></trkpt><trkpt lat="49.158113517058396" lon="2.4898406355464053"><ele>50.0</ele><time>2026-05-02T12:38:18.998Z</time></trkpt><trkpt lat="49.15818744870625" lon="2.489683292023495"><ele>50.0</ele><time>2026-05-02T12:38:20.998Z</time></trkpt><trkpt lat="49.15827864488178" lon="2.4895483133876155"><ele>51.6</ele><time>2026-05-02T12:38:22.998Z</time></trkpt><trkpt lat="49.158367534302535" lon="2.489406352868617"><ele>53.2</ele><time>2026-05-02T12:38:24.998Z</time></trkpt><trkpt lat="49.158416750611536" lon="2.4893377568827892"><ele>54.8</ele><time>2026-05-02T12:38:25.998Z</time></trkpt><trkpt lat="49.15850829346643" lon="2.489206576326759"><ele>56.4</ele><time>2026-05-02T12:38:27.998Z</time></trkpt><trkpt lat="49.15859834846413" lon="2.4890723880205896"><ele>58.0</ele><time>2026-05-02T12:38:29.998Z</time></trkpt><trkpt lat="49.15868043644438" lon="2.488944463047099"><ele>58.0</ele><time>2026-05-02T12:38:31.998Z</time></trkpt><trkpt lat="49.158725282351845" lon="2.4888768522064444"><ele>58.0</ele><time>2026-05-02T12:38:32.998Z</time></trkpt><trkpt lat="49.15881026549313" lon="2.4887394364383266"><ele>58.0</ele><time>2026-05-02T12:38:34.998Z</time></trkpt><trkpt lat="49.158896695182406" lon="2.488603504894885"><ele>58.0</ele><time>2026-05-02T12:38:36.998Z</time></trkpt><trkpt lat="49.1589867267849" lon="2.488472361226231"><ele>58.0</ele><time>2026-05-02T12:38:38.998Z</time></trkpt><trkpt lat="49.15907423271196" lon="2.488339724972063"><ele>58.2</ele><time>2026-05-02T12:38:40.998Z</time></trkpt><trkpt lat="49.159160060616095" lon="2.488199979436669"><ele>58.4</ele><time>2026-05-02T12:38:42.998Z</time></trkpt><trkpt lat="49.159205900126665" lon="2.488130769899307"><ele>58.60000000000001</ele><time>2026-05-02T12:38:43.997Z</time></trkpt><trkpt lat="49.159301912054524" lon="2.4880015485614404"><ele>58.800000000000004</ele><time>2026-05-02T12:38:45.997Z</time></trkpt><trkpt lat="49.15935236870598" lon="2.4879372005339486"><ele>59.0</ele><time>2026-05-02T12:38:46.997Z</time></trkpt><trkpt lat="49.159404057207965" lon="2.4878626618028172"><ele>59.0</ele><time>2026-05-02T12:38:47.997Z</time></trkpt><trkpt lat="49.1594710683625" lon="2.4877277559534803"><ele>59.00000000000001</ele><time>2026-05-02T12:38:49.997Z</time></trkpt><trkpt lat="49.1595093841541" lon="2.487641790128591"><ele>59.00000000000001</ele><time>2026-05-02T12:38:50.997Z</time></trkpt><trkpt lat="49.15958772926493" lon="2.487505498396915"><ele>59.0</ele><time>2026-05-02T12:38:52.997Z</time></trkpt><trkpt lat="49.15966702634609" lon="2.4873668544838075"><ele>59.0</ele><time>2026-05-02T12:38:54.997Z</time></trkpt><trkpt lat="49.15973083140645" lon="2.4872254387202957"><ele>59.00000000000001</ele><time>2026-05-02T12:38:56.997Z</time></trkpt><trkpt lat="49.1597900011698" lon="2.487101139191889"><ele>59.0</ele><time>2026-05-02T12:38:58.997Z</time></trkpt><trkpt lat="49.1598237668815" lon="2.487002792843213"><ele>59.0</ele><time>2026-05-02T12:39:00.997Z</time></trkpt><trkpt lat="49.15988948440943" lon="2.486951970370845"><ele>59.0</ele><time>2026-05-02T12:39:03.997Z</time></trkpt><trkpt lat="49.15994830021846" lon="2.486868697712815"><ele>59.00000000000001</ele><time>2026-05-02T12:39:05.997Z</time></trkpt><trkpt lat="49.15999719670752" lon="2.4867594165837694"><ele>59.0</ele><time>2026-05-02T12:39:08Z</time></trkpt><trkpt lat="49.16005323865071" lon="2.4866514596368425"><ele>60.2</ele><time>2026-05-02T12:39:10Z</time></trkpt><trkpt lat="49.160116477174434" lon="2.486548433614079"><ele>61.400000000000006</ele><time>2026-05-02T12:39:12Z</time></trkpt><trkpt lat="49.16018102049147" lon="2.486441385822081"><ele>62.6</ele><time>2026-05-02T12:39:14Z</time></trkpt><trkpt lat="49.1602395353344" lon="2.4863291100468476"><ele>63.8</ele><time>2026-05-02T12:39:16Z</time></trkpt><trkpt lat="49.16030163729896" lon="2.486218616975786"><ele>65.0</ele><time>2026-05-02T12:39:18Z</time></trkpt><trkpt lat="49.16036467560876" lon="2.4861169294360734"><ele>65.4</ele><time>2026-05-02T12:39:20Z</time></trkpt><trkpt lat="49.16042698529564" lon="2.486014312583035"><ele>65.8</ele><time>2026-05-02T12:39:22Z</time></trkpt><trkpt lat="49.16048908578087" lon="2.4859130797622586"><ele>66.2</ele><time>2026-05-02T12:39:24Z</time></trkpt><trkpt lat="49.160551331552696" lon="2.485808039749759"><ele>66.6</ele><time>2026-05-02T12:39:26Z</time></trkpt><trkpt lat="49.160613582962924" lon="2.485708947842894"><ele>67.0</ele><time>2026-05-02T12:39:28Z</time></trkpt><trkpt lat="49.16067486280868" lon="2.4856082682723755"><ele>67.2</ele><time>2026-05-02T12:39:30Z</time></trkpt><trkpt lat="49.16074212587988" lon="2.4855102537638105"><ele>67.4</ele><time>2026-05-02T12:39:32Z</time></trkpt><trkpt lat="49.16080022275449" lon="2.48539727889962"><ele>67.6</ele><time>2026-05-02T12:39:34Z</time></trkpt><trkpt lat="49.16085763651355" lon="2.485289826353341"><ele>67.8</ele><time>2026-05-02T12:39:36Z</time></trkpt><trkpt lat="49.160914839565336" lon="2.4851884377034317"><ele>68.0</ele><time>2026-05-02T12:39:38Z</time></trkpt><trkpt lat="49.160972395052696" lon="2.4850793161628904"><ele>68.2</ele><time>2026-05-02T12:39:40Z</time></trkpt><trkpt lat="49.16103139695252" lon="2.4849672071177547"><ele>68.4</ele><time>2026-05-02T12:39:42Z</time></trkpt><trkpt lat="49.1610968718508" lon="2.4848553628300327"><ele>68.60000000000001</ele><time>2026-05-02T12:39:43.999Z</time></trkpt><trkpt lat="49.16115738762767" lon="2.4847463407019434"><ele>68.8</ele><time>2026-05-02T12:39:45.999Z</time></trkpt><trkpt lat="49.16121823446936" lon="2.4846416861547356"><ele>69.0</ele><time>2026-05-02T12:39:47.999Z</time></trkpt><trkpt lat="49.16128181371018" lon="2.4845396018306696"><ele>69.4</ele><time>2026-05-02T12:39:49.999Z</time></trkpt><trkpt lat="49.16134648889205" lon="2.4844325224877313"><ele>69.80000000000001</ele><time>2026-05-02T12:39:51.999Z</time></trkpt><trkpt lat="49.16141447755" lon="2.4843337543099846"><ele>70.19999999999999</ele><time>2026-05-02T12:39:53.999Z</time></trkpt><trkpt lat="49.16147618031527" lon="2.4842283576655744"><ele>70.6</ele><time>2026-05-02T12:39:55.999Z</time></trkpt><trkpt lat="49.16153464087091" lon="2.4841070599023753"><ele>71.0</ele><time>2026-05-02T12:39:57.999Z</time></trkpt><trkpt lat="49.16159686097191" lon="2.4839935159099613"><ele>71.16666666666667</ele><time>2026-05-02T12:39:59.999Z</time></trkpt><trkpt lat="49.161664627615664" lon="2.4838817061934955"><ele>71.33333333333334</ele><time>2026-05-02T12:40:01.999Z</time></trkpt><trkpt lat="49.161718365453126" lon="2.483777348207012"><ele>71.5</ele><time>2026-05-02T12:40:03.999Z</time></trkpt><trkpt lat="49.161760456986904" lon="2.4836780445438085"><ele>71.66666666666667</ele><time>2026-05-02T12:40:05.999Z</time></trkpt><trkpt lat="49.16181912198095" lon="2.4836037712162002"><ele>71.83333333333333</ele><time>2026-05-02T12:40:07.999Z</time></trkpt><trkpt lat="49.161871060558326" lon="2.4835287554950165"><ele>72.0</ele><time>2026-05-02T12:40:09.999Z</time></trkpt><trkpt lat="49.16191993297793" lon="2.483441465006713"><ele>72.0</ele><time>2026-05-02T12:40:11.999Z</time></trkpt><trkpt lat="49.1619693396172" lon="2.483355004477416"><ele>72.0</ele><time>2026-05-02T12:40:13.999Z</time></trkpt><trkpt lat="49.16201270673923" lon="2.4832766196525777"><ele>72.0</ele><time>2026-05-02T12:40:15.999Z</time></trkpt><trkpt lat="49.162072358508865" lon="2.4831758244061275"><ele>72.0</ele><time>2026-05-02T12:40:18.998Z</time></trkpt><trkpt lat="49.162136043940386" lon="2.4830562128987896"><ele>72.0</ele><time>2026-05-02T12:40:21.998Z</time></trkpt><trkpt lat="49.162185750865845" lon="2.4829712169926257"><ele>72.0</ele><time>2026-05-02T12:40:23.998Z</time></trkpt><trkpt lat="49.16224298461346" lon="2.4828745670346386"><ele>72.0</ele><time>2026-05-02T12:40:25.998Z</time></trkpt><trkpt lat="49.16229573995607" lon="2.4827744847057867"><ele>72.0</ele><time>2026-05-02T12:40:27.998Z</time></trkpt><trkpt lat="49.16235226790277" lon="2.482680602964307"><ele>72.0</ele><time>2026-05-02T12:40:29.998Z</time></trkpt><trkpt lat="49.162413509640345" lon="2.4825864772018873"><ele>72.0</ele><time>2026-05-02T12:40:31.998Z</time></trkpt><trkpt lat="49.16247199481029" lon="2.4824891549119066"><ele>72.0</ele><time>2026-05-02T12:40:33.998Z</time></trkpt><trkpt lat="49.16253617852249" lon="2.48238935430687"><ele>72.0</ele><time>2026-05-02T12:40:35.998Z</time></trkpt><trkpt lat="49.16259382548331" lon="2.4822897268826383"><ele>72.16666666666667</ele><time>2026-05-02T12:40:37.998Z</time></trkpt><trkpt lat="49.162649125643895" lon="2.4821857680951855"><ele>72.33333333333333</ele><time>2026-05-02T12:40:39.998Z</time></trkpt><trkpt lat="49.16270369174766" lon="2.4820837141153156"><ele>72.5</ele><time>2026-05-02T12:40:41.998Z</time></trkpt><trkpt lat="49.16275779301829" lon="2.4819812253427047"><ele>72.66666666666666</ele><time>2026-05-02T12:40:43.998Z</time></trkpt><trkpt lat="49.16281681608825" lon="2.4818844614883866"><ele>72.83333333333333</ele><time>2026-05-02T12:40:45.998Z</time></trkpt><trkpt lat="49.162878433137074" lon="2.4817877772450263"><ele>73.0</ele><time>2026-05-02T12:40:47.998Z</time></trkpt><trkpt lat="49.16293557398854" lon="2.481682696179172"><ele>73.0</ele><time>2026-05-02T12:40:49.998Z</time></trkpt><trkpt lat="49.16298732903098" lon="2.48157801693557"><ele>73.0</ele><time>2026-05-02T12:40:51.997Z</time></trkpt><trkpt lat="49.163054107034505" lon="2.4814754356442887"><ele>73.0</ele><time>2026-05-02T12:40:53.997Z</time></trkpt><trkpt lat="49.163117583923366" lon="2.481374529642853"><ele>73.0</ele><time>2026-05-02T12:40:55.997Z</time></trkpt><trkpt lat="49.163184127937924" lon="2.4812708152789007"><ele>73.0</ele><time>2026-05-02T12:40:57.997Z</time></trkpt><trkpt lat="49.16324429776838" lon="2.4811571722780044"><ele>72.6</ele><time>2026-05-02T12:40:59.997Z</time></trkpt><trkpt lat="49.16330103734262" lon="2.4810417080498293"><ele>72.19999999999999</ele><time>2026-05-02T12:41:01.997Z</time></trkpt><trkpt lat="49.16336465669271" lon="2.480930339147418"><ele>71.8</ele><time>2026-05-02T12:41:03.997Z</time></trkpt><trkpt lat="49.16342705247879" lon="2.4808139017457496"><ele>71.39999999999999</ele><time>2026-05-02T12:41:05.997Z</time></trkpt><trkpt lat="49.163495322208746" lon="2.480703010626674"><ele>71.0</ele><time>2026-05-02T12:41:07.997Z</time></trkpt><trkpt lat="49.16355266509188" lon="2.480593010227038"><ele>71.0</ele><time>2026-05-02T12:41:09.997Z</time></trkpt><trkpt lat="49.16362025594256" lon="2.4804852776693807"><ele>71.0</ele><time>2026-05-02T12:41:11.997Z</time></trkpt><trkpt lat="49.16368512408313" lon="2.480366049188955"><ele>71.0</ele><time>2026-05-02T12:41:14Z</time></trkpt><trkpt lat="49.16374882634237" lon="2.480248935489738"><ele>71.0</ele><time>2026-05-02T12:41:16Z</time></trkpt><trkpt lat="49.163813329509516" lon="2.4801391527188135"><ele>71.0</ele><time>2026-05-02T12:41:18Z</time></trkpt><trkpt lat="49.163883440609325" lon="2.480030149613237"><ele>71.2</ele><time>2026-05-02T12:41:20Z</time></trkpt><trkpt lat="49.16395366492806" lon="2.479926841276257"><ele>71.39999999999999</ele><time>2026-05-02T12:41:22Z</time></trkpt><trkpt lat="49.164027969784996" lon="2.479822693272007"><ele>71.6</ele><time>2026-05-02T12:41:24Z</time></trkpt><trkpt lat="49.164092651049124" lon="2.479704675816049"><ele>71.8</ele><time>2026-05-02T12:41:26Z</time></trkpt><trkpt lat="49.164161238221524" lon="2.4795923610839417"><ele>72.0</ele><time>2026-05-02T12:41:28Z</time></trkpt><trkpt lat="49.16422591232634" lon="2.4794741891859045"><ele>71.4</ele><time>2026-05-02T12:41:30Z</time></trkpt><trkpt lat="49.16429081524801" lon="2.479358911895545"><ele>70.80000000000001</ele><time>2026-05-02T12:41:32Z</time></trkpt><trkpt lat="49.16435454039566" lon="2.479245173133806"><ele>70.2</ele><time>2026-05-02T12:41:34Z</time></trkpt><trkpt lat="49.16441839248717" lon="2.479134255817009"><ele>69.60000000000001</ele><time>2026-05-02T12:41:36Z</time></trkpt><trkpt lat="49.16448675915687" lon="2.479015305972246"><ele>69.0</ele><time>2026-05-02T12:41:38Z</time></trkpt><trkpt lat="49.16455671449638" lon="2.4788987902578117"><ele>69.0</ele><time>2026-05-02T12:41:40Z</time></trkpt><trkpt lat="49.16462434213685" lon="2.478781102104117"><ele>69.0</ele><time>2026-05-02T12:41:42Z</time></trkpt><trkpt lat="49.16468768670703" lon="2.4786651050879493"><ele>69.0</ele><time>2026-05-02T12:41:44Z</time></trkpt><trkpt lat="49.164758417283245" lon="2.478547098872818"><ele>69.0</ele><time>2026-05-02T12:41:46Z</time></trkpt><trkpt lat="49.16482448390071" lon="2.478433012760511"><ele>69.0</ele><time>2026-05-02T12:41:48Z</time></trkpt><trkpt lat="49.164890139057384" lon="2.478313336395753"><ele>69.60000000000001</ele><time>2026-05-02T12:41:49.999Z</time></trkpt><trkpt lat="49.16495491975945" lon="2.47820217280183"><ele>70.2</ele><time>2026-05-02T12:41:51.999Z</time></trkpt><trkpt lat="49.16502491492324" lon="2.4780839906961867"><ele>70.80000000000001</ele><time>2026-05-02T12:41:53.999Z</time></trkpt><trkpt lat="49.1650888950823" lon="2.4779702927362615"><ele>71.4</ele><time>2026-05-02T12:41:55.999Z</time></trkpt><trkpt lat="49.165158823157164" lon="2.477852407559003"><ele>72.0</ele><time>2026-05-02T12:41:57.999Z</time></trkpt><trkpt lat="49.16522905835288" lon="2.477736615436735"><ele>72.0</ele><time>2026-05-02T12:41:59.999Z</time></trkpt><trkpt lat="49.165300100397104" lon="2.477614808892548"><ele>72.0</ele><time>2026-05-02T12:42:01.999Z</time></trkpt><trkpt lat="49.16536981764453" lon="2.4774937385968703"><ele>72.0</ele><time>2026-05-02T12:42:03.999Z</time></trkpt><trkpt lat="49.165441083200136" lon="2.477377036352846"><ele>72.0</ele><time>2026-05-02T12:42:05.999Z</time></trkpt><trkpt lat="49.165515289853275" lon="2.477247476531613"><ele>72.0</ele><time>2026-05-02T12:42:07.999Z</time></trkpt><trkpt lat="49.16558515551053" lon="2.4771196227189898"><ele>72.25</ele><time>2026-05-02T12:42:09.999Z</time></trkpt><trkpt lat="49.16566246244738" lon="2.476985999292002"><ele>72.5</ele><time>2026-05-02T12:42:11.999Z</time></trkpt><trkpt lat="49.16573579224891" lon="2.47685207502837"><ele>72.75</ele><time>2026-05-02T12:42:13.999Z</time></trkpt><trkpt lat="49.16581326418237" lon="2.476720015571021"><ele>73.0</ele><time>2026-05-02T12:42:15.999Z</time></trkpt><trkpt lat="49.1658936694386" lon="2.4765877791660857"><ele>72.5</ele><time>2026-05-02T12:42:17.999Z</time></trkpt><trkpt lat="49.165970061285094" lon="2.4764492288834923"><ele>72.0</ele><time>2026-05-02T12:42:19.999Z</time></trkpt><trkpt lat="49.16604949404756" lon="2.476309844494316"><ele>71.5</ele><time>2026-05-02T12:42:21.999Z</time></trkpt><trkpt lat="49.16613560977067" lon="2.4761739019482496"><ele>71.0</ele><time>2026-05-02T12:42:23.998Z</time></trkpt><trkpt lat="49.16621490346485" lon="2.4760329388856452"><ele>71.0</ele><time>2026-05-02T12:42:25.998Z</time></trkpt><trkpt lat="49.16629251161292" lon="2.475884793304149"><ele>71.0</ele><time>2026-05-02T12:42:27.998Z</time></trkpt><trkpt lat="49.16635597639504" lon="2.475740289367197"><ele>71.0</ele><time>2026-05-02T12:42:29.998Z</time></trkpt><trkpt lat="49.166409989169786" lon="2.47566422801135"><ele>71.0</ele><time>2026-05-02T12:42:30.998Z</time></trkpt><trkpt lat="49.16645527399938" lon="2.4755968900529814"><ele>71.0</ele><time>2026-05-02T12:42:31.998Z</time></trkpt><trkpt lat="49.16653996421022" lon="2.4754622142657525"><ele>70.25</ele><time>2026-05-02T12:42:33.998Z</time></trkpt><trkpt lat="49.16662343734673" lon="2.475317170448114"><ele>69.5</ele><time>2026-05-02T12:42:35.998Z</time></trkpt><trkpt lat="49.166705526334646" lon="2.475171685931614"><ele>68.75</ele><time>2026-05-02T12:42:37.998Z</time></trkpt><trkpt lat="49.16678633677614" lon="2.4750243212600718"><ele>68.0</ele><time>2026-05-02T12:42:39.998Z</time></trkpt><trkpt lat="49.16686620715682" lon="2.4748801331189436"><ele>68.0</ele><time>2026-05-02T12:42:41.998Z</time></trkpt><trkpt lat="49.16694877182821" lon="2.4747458041611776"><ele>68.0</ele><time>2026-05-02T12:42:43.998Z</time></trkpt><trkpt lat="49.16699653835574" lon="2.474676381217419"><ele>68.0</ele><time>2026-05-02T12:42:44.998Z</time></trkpt><trkpt lat="49.16707169104004" lon="2.4745324111233984"><ele>68.0</ele><time>2026-05-02T12:42:46.998Z</time></trkpt><trkpt lat="49.167157614951954" lon="2.4743936507739743"><ele>68.0</ele><time>2026-05-02T12:42:48.998Z</time></trkpt><trkpt lat="49.16723751292409" lon="2.4742540720980175"><ele>68.4</ele><time>2026-05-02T12:42:50.998Z</time></trkpt><trkpt lat="49.16732471724408" lon="2.4741154481679315"><ele>68.8</ele><time>2026-05-02T12:42:52.998Z</time></trkpt><trkpt lat="49.16740415898769" lon="2.4739772065616212"><ele>69.2</ele><time>2026-05-02T12:42:54.998Z</time></trkpt><trkpt lat="49.16745470880418" lon="2.4739081551434596"><ele>69.6</ele><time>2026-05-02T12:42:55.998Z</time></trkpt><trkpt lat="49.16752608809933" lon="2.4737658336782675"><ele>70.0</ele><time>2026-05-02T12:42:57.997Z</time></trkpt><trkpt lat="49.16760568595187" lon="2.4736247447774242"><ele>71.0</ele><time>2026-05-02T12:42:59.997Z</time></trkpt><trkpt lat="49.16768322974239" lon="2.473482113533386"><ele>72.0</ele><time>2026-05-02T12:43:01.997Z</time></trkpt><trkpt lat="49.16776442352241" lon="2.4733384946552732"><ele>73.0</ele><time>2026-05-02T12:43:03.997Z</time></trkpt><trkpt lat="49.16784062471977" lon="2.4732151376811546"><ele>74.0</ele><time>2026-05-02T12:43:05.997Z</time></trkpt><trkpt lat="49.167890232612066" lon="2.473145417082"><ele>75.0</ele><time>2026-05-02T12:43:07.997Z</time></trkpt><trkpt lat="49.16798835482059" lon="2.472970143859068"><ele>75.0</ele><time>2026-05-02T12:43:09.997Z</time></trkpt><trkpt lat="49.168052091541306" lon="2.472878458772787"><ele>75.0</ele><time>2026-05-02T12:43:11.997Z</time></trkpt><trkpt lat="49.1681115167398" lon="2.4728053746511973"><ele>75.0</ele><time>2026-05-02T12:43:13.997Z</time></trkpt><trkpt lat="49.168169997750894" lon="2.4727304521668643"><ele>75.0</ele><time>2026-05-02T12:43:15.997Z</time></trkpt><trkpt lat="49.168226336943206" lon="2.472642092264431"><ele>75.0</ele><time>2026-05-02T12:43:17.997Z</time></trkpt><trkpt lat="49.168285500001" lon="2.4725408325243183"><ele>75.0</ele><time>2026-05-02T12:43:20Z</time></trkpt><trkpt lat="49.16834152273483" lon="2.4724409732363584"><ele>75.0</ele><time>2026-05-02T12:43:22Z</time></trkpt><trkpt lat="49.168394675996154" lon="2.4723470290385463"><ele>75.0</ele><time>2026-05-02T12:43:24Z</time></trkpt><trkpt lat="49.16844707193854" lon="2.4722659492909873"><ele>75.0</ele><time>2026-05-02T12:43:26Z</time></trkpt><trkpt lat="49.16850597242402" lon="2.4721964871650024"><ele>75.0</ele><time>2026-05-02T12:43:28Z</time></trkpt><trkpt lat="49.16859236742728" lon="2.47213595013672"><ele>75.0</ele><time>2026-05-02T12:43:30Z</time></trkpt><trkpt lat="49.16868803001472" lon="2.4720759842929607"><ele>75.0</ele><time>2026-05-02T12:43:32Z</time></trkpt><trkpt lat="49.1687545623984" lon="2.4720136486800715"><ele>75.0</ele><time>2026-05-02T12:43:34Z</time></trkpt><trkpt lat="49.1688203799284" lon="2.471951077780442"><ele>75.0</ele><time>2026-05-02T12:43:36Z</time></trkpt><trkpt lat="49.16888495090354" lon="2.471902815659067"><ele>75.0</ele><time>2026-05-02T12:43:40Z</time></trkpt><trkpt lat="49.168950040666715" lon="2.471884910335383"><ele>75.0</ele><time>2026-05-02T12:43:43Z</time></trkpt><trkpt lat="49.169034434754195" lon="2.471876762217162"><ele>75.0</ele><time>2026-05-02T12:43:46Z</time></trkpt><trkpt lat="49.16911983455423" lon="2.4718838965245595"><ele>75.0</ele><time>2026-05-02T12:43:48Z</time></trkpt><trkpt lat="49.169197767148404" lon="2.471871608569812"><ele>74.6</ele><time>2026-05-02T12:43:50Z</time></trkpt><trkpt lat="49.16928858462047" lon="2.4718862904064336"><ele>74.2</ele><time>2026-05-02T12:43:52Z</time></trkpt><trkpt lat="49.1693675950573" lon="2.471851189083086"><ele>73.8</ele><time>2026-05-02T12:43:54Z</time></trkpt><trkpt lat="49.169454592891874" lon="2.4718095507923428"><ele>73.4</ele><time>2026-05-02T12:43:56Z</time></trkpt><trkpt lat="49.16954824046266" lon="2.4717967011756907"><ele>73.0</ele><time>2026-05-02T12:43:57.999Z</time></trkpt><trkpt lat="49.16965387569095" lon="2.4717867965618785"><ele>73.0</ele><time>2026-05-02T12:43:59.999Z</time></trkpt><trkpt lat="49.16975160194851" lon="2.471766870935449"><ele>73.0</ele><time>2026-05-02T12:44:01.999Z</time></trkpt><trkpt lat="49.16985434858677" lon="2.471758094251314"><ele>73.0</ele><time>2026-05-02T12:44:03.999Z</time></trkpt><trkpt lat="49.16995986173907" lon="2.4717349907790918"><ele>73.0</ele><time>2026-05-02T12:44:05.999Z</time></trkpt><trkpt lat="49.170084852941976" lon="2.471719502373524"><ele>73.0</ele><time>2026-05-02T12:44:07.999Z</time></trkpt><trkpt lat="49.17018937103521" lon="2.471696919491396"><ele>72.8</ele><time>2026-05-02T12:44:09.999Z</time></trkpt><trkpt lat="49.17031096423861" lon="2.4717027809874246"><ele>72.6</ele><time>2026-05-02T12:44:11.999Z</time></trkpt><trkpt lat="49.17042305254253" lon="2.4716644092284015"><ele>72.4</ele><time>2026-05-02T12:44:13.999Z</time></trkpt><trkpt lat="49.17048815676756" lon="2.471655299226155"><ele>72.2</ele><time>2026-05-02T12:44:14.999Z</time></trkpt><trkpt lat="49.17060174756588" lon="2.4716456447057373"><ele>72.0</ele><time>2026-05-02T12:44:16.999Z</time></trkpt><trkpt lat="49.17071163205883" lon="2.4716294052650745"><ele>71.6</ele><time>2026-05-02T12:44:18.999Z</time></trkpt><trkpt lat="49.170828689882654" lon="2.471610033857628"><ele>71.2</ele><time>2026-05-02T12:44:20.999Z</time></trkpt><trkpt lat="49.1709442245217" lon="2.4716159631232344"><ele>70.8</ele><time>2026-05-02T12:44:22.999Z</time></trkpt><trkpt lat="49.171047143618985" lon="2.4716012241604366"><ele>70.4</ele><time>2026-05-02T12:44:24.999Z</time></trkpt><trkpt lat="49.17115512548518" lon="2.4715725106566553"><ele>70.0</ele><time>2026-05-02T12:44:26.999Z</time></trkpt><trkpt lat="49.17126674726307" lon="2.4715667343185075"><ele>70.0</ele><time>2026-05-02T12:44:28.999Z</time></trkpt><trkpt lat="49.17137938774626" lon="2.4715508422081105"><ele>70.0</ele><time>2026-05-02T12:44:30.998Z</time></trkpt><trkpt lat="49.171488102255545" lon="2.471534291741244"><ele>70.0</ele><time>2026-05-02T12:44:32.998Z</time></trkpt><trkpt lat="49.171601738789114" lon="2.471514341394509"><ele>70.0</ele><time>2026-05-02T12:44:34.998Z</time></trkpt><trkpt lat="49.17171161889979" lon="2.4715012794201776"><ele>70.0</ele><time>2026-05-02T12:44:36.998Z</time></trkpt><trkpt lat="49.17182802204783" lon="2.4714858351837314"><ele>70.0</ele><time>2026-05-02T12:44:38.998Z</time></trkpt><trkpt lat="49.1719449022184" lon="2.4714758059714503"><ele>70.0</ele><time>2026-05-02T12:44:40.998Z</time></trkpt><trkpt lat="49.172058371528365" lon="2.471458308754539"><ele>70.0</ele><time>2026-05-02T12:44:42.998Z</time></trkpt><trkpt lat="49.17212137202473" lon="2.4714506627171584"><ele>70.0</ele><time>2026-05-02T12:44:43.998Z</time></trkpt><trkpt lat="49.17223687078439" lon="2.4714385115383473"><ele>70.0</ele><time>2026-05-02T12:44:45.998Z</time></trkpt><trkpt lat="49.172350153606224" lon="2.4714207744451"><ele>70.5</ele><time>2026-05-02T12:44:47.998Z</time></trkpt><trkpt lat="49.172467285744396" lon="2.4714021713151486"><ele>71.0</ele><time>2026-05-02T12:44:49.998Z</time></trkpt><trkpt lat="49.1725871334599" lon="2.4713923270527998"><ele>71.5</ele><time>2026-05-02T12:44:51.998Z</time></trkpt><trkpt lat="49.17270603811931" lon="2.471371367150771"><ele>72.0</ele><time>2026-05-02T12:44:53.998Z</time></trkpt><trkpt lat="49.172825938415535" lon="2.4713602966709494"><ele>72.0</ele><time>2026-05-02T12:44:55.998Z</time></trkpt><trkpt lat="49.17294259181493" lon="2.471343294125983"><ele>72.0</ele><time>2026-05-02T12:44:57.998Z</time></trkpt><trkpt lat="49.17305997522114" lon="2.471322828700094"><ele>72.0</ele><time>2026-05-02T12:44:59.998Z</time></trkpt><trkpt lat="49.17317804709607" lon="2.4713033046547768"><ele>72.0</ele><time>2026-05-02T12:45:01.998Z</time></trkpt><trkpt lat="49.17330241753412" lon="2.4712900243180163"><ele>71.75</ele><time>2026-05-02T12:45:03.998Z</time></trkpt><trkpt lat="49.1734204722781" lon="2.4712705498899696"><ele>71.5</ele><time>2026-05-02T12:45:05.997Z</time></trkpt><trkpt lat="49.17354498778423" lon="2.471252213468068"><ele>71.25</ele><time>2026-05-02T12:45:07.997Z</time></trkpt><trkpt lat="49.173669810229235" lon="2.4712339472479115"><ele>71.0</ele><time>2026-05-02T12:45:09.997Z</time></trkpt><trkpt lat="49.173792441591246" lon="2.4712165558755856"><ele>71.0</ele><time>2026-05-02T12:45:11.997Z</time></trkpt><trkpt lat="49.173916613607204" lon="2.4711982502324457"><ele>71.0</ele><time>2026-05-02T12:45:13.997Z</time></trkpt><trkpt lat="49.17404248443897" lon="2.47118288392446"><ele>71.0</ele><time>2026-05-02T12:45:15.997Z</time></trkpt><trkpt lat="49.174158396694345" lon="2.4711537484978328"><ele>71.0</ele><time>2026-05-02T12:45:17.997Z</time></trkpt><trkpt lat="49.174226881044845" lon="2.471144564558172"><ele>71.0</ele><time>2026-05-02T12:45:18.997Z</time></trkpt><trkpt lat="49.17434626830303" lon="2.4711277674807186"><ele>70.8</ele><time>2026-05-02T12:45:20.997Z</time></trkpt><trkpt lat="49.1744111038494" lon="2.471119272349004"><ele>70.6</ele><time>2026-05-02T12:45:21.997Z</time></trkpt><trkpt lat="49.17453230567197" lon="2.4711111786056654"><ele>70.4</ele><time>2026-05-02T12:45:23.997Z</time></trkpt><trkpt lat="49.174659118057036" lon="2.4710985590415513"><ele>70.2</ele><time>2026-05-02T12:45:26Z</time></trkpt><trkpt lat="49.174724485858285" lon="2.4710931218901306"><ele>70.0</ele><time>2026-05-02T12:45:27Z</time></trkpt><trkpt lat="49.17484697687285" lon="2.4710715294596937"><ele>69.66666666666666</ele><time>2026-05-02T12:45:29Z</time></trkpt><trkpt lat="49.17490948284445" lon="2.471059324352805"><ele>69.33333333333333</ele><time>2026-05-02T12:45:30Z</time></trkpt><trkpt lat="49.17498283915853" lon="2.471063138719874"><ele>69.0</ele><time>2026-05-02T12:45:31Z</time></trkpt><trkpt lat="49.175104902496436" lon="2.4710431023982804"><ele>68.66666666666667</ele><time>2026-05-02T12:45:33Z</time></trkpt><trkpt lat="49.175169093513865" lon="2.4710310914438947"><ele>68.33333333333334</ele><time>2026-05-02T12:45:34Z</time></trkpt><trkpt lat="49.175231614596214" lon="2.4710179373291195"><ele>68.0</ele><time>2026-05-02T12:45:35Z</time></trkpt><trkpt lat="49.1752977467481" lon="2.4710089179728723"><ele>68.0</ele><time>2026-05-02T12:45:36Z</time></trkpt><trkpt lat="49.175362155948726" lon="2.471001007476365"><ele>68.0</ele><time>2026-05-02T12:45:37Z</time></trkpt><trkpt lat="49.17542850812444" lon="2.4709906663624617"><ele>68.0</ele><time>2026-05-02T12:45:38Z</time></trkpt><trkpt lat="49.175494165408765" lon="2.4709831179579655"><ele>68.0</ele><time>2026-05-02T12:45:39Z</time></trkpt><trkpt lat="49.17555807526717" lon="2.470970302394813"><ele>68.0</ele><time>2026-05-02T12:45:40Z</time></trkpt><trkpt lat="49.17568458257912" lon="2.4709554087353762"><ele>68.0</ele><time>2026-05-02T12:45:42Z</time></trkpt><trkpt lat="49.17575116642875" lon="2.4709386662183555"><ele>68.0</ele><time>2026-05-02T12:45:43Z</time></trkpt><trkpt lat="49.17588307641783" lon="2.4709398748974305"><ele>68.0</ele><time>2026-05-02T12:45:45Z</time></trkpt><trkpt lat="49.17594751349939" lon="2.470930105888819"><ele>68.0</ele><time>2026-05-02T12:45:46Z</time></trkpt><trkpt lat="49.17601133149396" lon="2.4709202496128384"><ele>68.0</ele><time>2026-05-02T12:45:47Z</time></trkpt><trkpt lat="49.17614100311037" lon="2.4709002226480004"><ele>68.0</ele><time>2026-05-02T12:45:49Z</time></trkpt><trkpt lat="49.17621365883984" lon="2.4708659092617804"><ele>67.99999999999999</ele><time>2026-05-02T12:45:50Z</time></trkpt><trkpt lat="49.176283848797425" lon="2.470877731016657"><ele>68.0</ele><time>2026-05-02T12:45:51Z</time></trkpt><trkpt lat="49.176349722827894" lon="2.4708440772033153"><ele>68.0</ele><time>2026-05-02T12:45:52Z</time></trkpt><trkpt lat="49.17641591844598" lon="2.470835595147524"><ele>68.0</ele><time>2026-05-02T12:45:53Z</time></trkpt><trkpt lat="49.17648409204712" lon="2.4708214526291656"><ele>68.0</ele><time>2026-05-02T12:45:54Z</time></trkpt><trkpt lat="49.17655270754992" lon="2.4708121391732467"><ele>67.99999999999999</ele><time>2026-05-02T12:45:55Z</time></trkpt><trkpt lat="49.17662300960548" lon="2.4708102600421316"><ele>68.0</ele><time>2026-05-02T12:45:56Z</time></trkpt><trkpt lat="49.17675511889104" lon="2.4707893416296836"><ele>67.99999999999999</ele><time>2026-05-02T12:45:58Z</time></trkpt><trkpt lat="49.17682306420075" lon="2.470778308873278"><ele>68.0</ele><time>2026-05-02T12:45:59Z</time></trkpt><trkpt lat="49.17689197395643" lon="2.470773364923476"><ele>68.0</ele><time>2026-05-02T12:46:00Z</time></trkpt><trkpt lat="49.17695917500595" lon="2.470767198139486"><ele>68.0</ele><time>2026-05-02T12:46:01Z</time></trkpt><trkpt lat="49.17702191329419" lon="2.4707584293243183"><ele>68.0</ele><time>2026-05-02T12:46:02Z</time></trkpt><trkpt lat="49.17708898679934" lon="2.4707520869050943"><ele>67.99999999999999</ele><time>2026-05-02T12:46:03Z</time></trkpt><trkpt lat="49.177152011914345" lon="2.470740158297502"><ele>68.0</ele><time>2026-05-02T12:46:04Z</time></trkpt><trkpt lat="49.17727711592817" lon="2.470719175670209"><ele>68.0</ele><time>2026-05-02T12:46:05.999Z</time></trkpt><trkpt lat="49.1773432656406" lon="2.4707108528262873"><ele>68.0</ele><time>2026-05-02T12:46:06.999Z</time></trkpt><trkpt lat="49.17747762474526" lon="2.4706920239836947"><ele>68.0</ele><time>2026-05-02T12:46:08.999Z</time></trkpt><trkpt lat="49.177540662849786" lon="2.4706810111489483"><ele>68.0</ele><time>2026-05-02T12:46:09.999Z</time></trkpt><trkpt lat="49.17760662552746" lon="2.4706772630678846"><ele>68.0</ele><time>2026-05-02T12:46:10.999Z</time></trkpt><trkpt lat="49.17767130509861" lon="2.470668389545455"><ele>68.0</ele><time>2026-05-02T12:46:11.999Z</time></trkpt><trkpt lat="49.17779485983045" lon="2.4706537607062944"><ele>68.5</ele><time>2026-05-02T12:46:13.999Z</time></trkpt><trkpt lat="49.177922146577195" lon="2.470630540454662"><ele>69.0</ele><time>2026-05-02T12:46:15.999Z</time></trkpt><trkpt lat="49.17809346011478" lon="2.470577049140724"><ele>69.5</ele><time>2026-05-02T12:46:18.999Z</time></trkpt><trkpt lat="49.17819941423811" lon="2.4705621582360155"><ele>70.0</ele><time>2026-05-02T12:46:20.999Z</time></trkpt><trkpt lat="49.178264602652675" lon="2.470550869923123"><ele>70.0</ele><time>2026-05-02T12:46:21.999Z</time></trkpt><trkpt lat="49.17833231820642" lon="2.4705566415495754"><ele>70.0</ele><time>2026-05-02T12:46:22.999Z</time></trkpt><trkpt lat="49.17844854642775" lon="2.4705420360292054"><ele>70.0</ele><time>2026-05-02T12:46:24.999Z</time></trkpt><trkpt lat="49.17857541964582" lon="2.4705530487815723"><ele>70.0</ele><time>2026-05-02T12:46:26.999Z</time></trkpt><trkpt lat="49.178636684247536" lon="2.470524578966246"><ele>70.0</ele><time>2026-05-02T12:46:27.999Z</time></trkpt><trkpt lat="49.17874537330778" lon="2.4705263213595408"><ele>70.0</ele><time>2026-05-02T12:46:29.999Z</time></trkpt><trkpt lat="49.17887835024693" lon="2.470489062880924"><ele>70.0</ele><time>2026-05-02T12:46:31.999Z</time></trkpt><trkpt lat="49.17900188889253" lon="2.4704880387626815"><ele>70.0</ele><time>2026-05-02T12:46:33.999Z</time></trkpt><trkpt lat="49.17906782973242" lon="2.4704786617723524"><ele>70.0</ele><time>2026-05-02T12:46:34.999Z</time></trkpt><trkpt lat="49.17918347013524" lon="2.470447313252897"><ele>70.0</ele><time>2026-05-02T12:46:36.999Z</time></trkpt><trkpt lat="49.179248118578215" lon="2.470443964649168"><ele>69.66666666666666</ele><time>2026-05-02T12:46:37.998Z</time></trkpt><trkpt lat="49.17936783098966" lon="2.470424840462723"><ele>69.33333333333333</ele><time>2026-05-02T12:46:39.998Z</time></trkpt><trkpt lat="49.17949037537481" lon="2.470412009661626"><ele>69.0</ele><time>2026-05-02T12:46:41.998Z</time></trkpt><trkpt lat="49.17955381077215" lon="2.4704068008613893"><ele>68.66666666666667</ele><time>2026-05-02T12:46:42.998Z</time></trkpt><trkpt lat="49.179620273765444" lon="2.470398011392725"><ele>68.33333333333334</ele><time>2026-05-02T12:46:43.998Z</time></trkpt><trkpt lat="49.1796869848695" lon="2.470387644933652"><ele>68.0</ele><time>2026-05-02T12:46:44.998Z</time></trkpt><trkpt lat="49.17975276977216" lon="2.4703821713829885"><ele>67.99999999999999</ele><time>2026-05-02T12:46:45.998Z</time></trkpt><trkpt lat="49.1798204856981" lon="2.4703653410576156"><ele>68.0</ele><time>2026-05-02T12:46:46.998Z</time></trkpt><trkpt lat="49.1798913404298" lon="2.4703611109109342"><ele>68.0</ele><time>2026-05-02T12:46:47.998Z</time></trkpt><trkpt lat="49.17995501794718" lon="2.470355895267789"><ele>68.0</ele><time>2026-05-02T12:46:48.998Z</time></trkpt><trkpt lat="49.180023787567166" lon="2.4703450719788678"><ele>68.0</ele><time>2026-05-02T12:46:49.998Z</time></trkpt><trkpt lat="49.18009799211815" lon="2.470335342055925"><ele>67.99999999999999</ele><time>2026-05-02T12:46:50.998Z</time></trkpt><trkpt lat="49.18016734239644" lon="2.4703209815905223"><ele>68.0</ele><time>2026-05-02T12:46:51.998Z</time></trkpt><trkpt lat="49.18023446287076" lon="2.4703063616373746"><ele>67.71428571428571</ele><time>2026-05-02T12:46:52.998Z</time></trkpt><trkpt lat="49.18031369303358" lon="2.470297189714302"><ele>67.42857142857143</ele><time>2026-05-02T12:46:53.998Z</time></trkpt><trkpt lat="49.180386060012076" lon="2.4702789973620103"><ele>67.14285714285714</ele><time>2026-05-02T12:46:54.998Z</time></trkpt><trkpt lat="49.18045887620424" lon="2.4702648029118572"><ele>66.85714285714286</ele><time>2026-05-02T12:46:55.998Z</time></trkpt><trkpt lat="49.180531678808634" lon="2.4702604839972886"><ele>66.57142857142857</ele><time>2026-05-02T12:46:56.998Z</time></trkpt><trkpt lat="49.18060749275094" lon="2.4702489517515747"><ele>66.28571428571428</ele><time>2026-05-02T12:46:57.998Z</time></trkpt><trkpt lat="49.18067663527869" lon="2.4702439333690953"><ele>66.0</ele><time>2026-05-02T12:46:58.998Z</time></trkpt><trkpt lat="49.18074537401661" lon="2.470234496378574"><ele>65.85714285714286</ele><time>2026-05-02T12:46:59.998Z</time></trkpt><trkpt lat="49.180818433851385" lon="2.4702164036439176"><ele>65.71428571428572</ele><time>2026-05-02T12:47:00.998Z</time></trkpt><trkpt lat="49.18088770627035" lon="2.4702039109155565"><ele>65.57142857142858</ele><time>2026-05-02T12:47:01.998Z</time></trkpt><trkpt lat="49.18095700167555" lon="2.4701972700678927"><ele>65.42857142857143</ele><time>2026-05-02T12:47:02.998Z</time></trkpt><trkpt lat="49.18103234676073" lon="2.47018757120214"><ele>65.28571428571429</ele><time>2026-05-02T12:47:03.998Z</time></trkpt><trkpt lat="49.18110381820341" lon="2.470172000092875"><ele>65.14285714285715</ele><time>2026-05-02T12:47:04.998Z</time></trkpt><trkpt lat="49.18117912201401" lon="2.470164968763449"><ele>65.0</ele><time>2026-05-02T12:47:05.998Z</time></trkpt><trkpt lat="49.18125208124324" lon="2.4701566190183923"><ele>65.00000000000001</ele><time>2026-05-02T12:47:06.998Z</time></trkpt><trkpt lat="49.18132661089359" lon="2.470142429430549"><ele>65.0</ele><time>2026-05-02T12:47:07.998Z</time></trkpt><trkpt lat="49.18140197342493" lon="2.470126211519579"><ele>65.0</ele><time>2026-05-02T12:47:08.998Z</time></trkpt><trkpt lat="49.18147488961927" lon="2.470104710764404"><ele>65.0</ele><time>2026-05-02T12:47:09.998Z</time></trkpt><trkpt lat="49.181549829206375" lon="2.47008899533381"><ele>65.0</ele><time>2026-05-02T12:47:10.998Z</time></trkpt><trkpt lat="49.18162137070057" lon="2.4700701617355487"><ele>65.00000000000001</ele><time>2026-05-02T12:47:11.997Z</time></trkpt><trkpt lat="49.18169304902103" lon="2.4700599098752396"><ele>65.0</ele><time>2026-05-02T12:47:12.997Z</time></trkpt><trkpt lat="49.18176046403375" lon="2.4700513996182853"><ele>65.16666666666667</ele><time>2026-05-02T12:47:13.997Z</time></trkpt><trkpt lat="49.18182697693686" lon="2.470037601217568"><ele>65.33333333333334</ele><time>2026-05-02T12:47:14.997Z</time></trkpt><trkpt lat="49.18196604327193" lon="2.469993889261988"><ele>65.5</ele><time>2026-05-02T12:47:16.997Z</time></trkpt><trkpt lat="49.18203889583799" lon="2.46997995952796"><ele>65.66666666666667</ele><time>2026-05-02T12:47:17.997Z</time></trkpt><trkpt lat="49.18211284887483" lon="2.469964855268932"><ele>65.83333333333333</ele><time>2026-05-02T12:47:18.997Z</time></trkpt><trkpt lat="49.182189178978476" lon="2.469960141119367"><ele>66.0</ele><time>2026-05-02T12:47:19.997Z</time></trkpt><trkpt lat="49.18225600757989" lon="2.4699438310423427"><ele>66.0</ele><time>2026-05-02T12:47:20.997Z</time></trkpt><trkpt lat="49.18233087616671" lon="2.4699186510571116"><ele>66.0</ele><time>2026-05-02T12:47:21.997Z</time></trkpt><trkpt lat="49.182396562830675" lon="2.4698976966667314"><ele>66.0</ele><time>2026-05-02T12:47:22.997Z</time></trkpt><trkpt lat="49.18245943627856" lon="2.469875777349475"><ele>66.0</ele><time>2026-05-02T12:47:23.997Z</time></trkpt><trkpt lat="49.18258229031888" lon="2.4698608309080408"><ele>66.0</ele><time>2026-05-02T12:47:25.997Z</time></trkpt><trkpt lat="49.18265421008434" lon="2.469847300940656"><ele>66.0</ele><time>2026-05-02T12:47:26.997Z</time></trkpt><trkpt lat="49.1827300140006" lon="2.4698280145115956"><ele>65.83333333333333</ele><time>2026-05-02T12:47:27.997Z</time></trkpt><trkpt lat="49.1827942269168" lon="2.4698131140720263"><ele>65.66666666666667</ele><time>2026-05-02T12:47:28.997Z</time></trkpt><trkpt lat="49.18292048083868" lon="2.469779858799325"><ele>65.5</ele><time>2026-05-02T12:47:30.997Z</time></trkpt><trkpt lat="49.18299032856873" lon="2.4697667091044013"><ele>65.33333333333334</ele><time>2026-05-02T12:47:32Z</time></trkpt><trkpt lat="49.183060031496936" lon="2.469754086538104"><ele>65.16666666666667</ele><time>2026-05-02T12:47:33Z</time></trkpt><trkpt lat="49.18312532470125" lon="2.46973685511233"><ele>65.0</ele><time>2026-05-02T12:47:34Z</time></trkpt><trkpt lat="49.18319290165969" lon="2.4697244445657165"><ele>65.14285714285715</ele><time>2026-05-02T12:47:35Z</time></trkpt><trkpt lat="49.18326065083068" lon="2.469701845677297"><ele>65.28571428571429</ele><time>2026-05-02T12:47:36Z</time></trkpt><trkpt lat="49.18332711051132" lon="2.469683357680467"><ele>65.42857142857143</ele><time>2026-05-02T12:47:37Z</time></trkpt><trkpt lat="49.18339373483849" lon="2.4696719604941904"><ele>65.57142857142858</ele><time>2026-05-02T12:47:38Z</time></trkpt><trkpt lat="49.18346086664319" lon="2.4696543587178525"><ele>65.71428571428572</ele><time>2026-05-02T12:47:39Z</time></trkpt><trkpt lat="49.18352620905058" lon="2.4696333868275056"><ele>65.85714285714286</ele><time>2026-05-02T12:47:40Z</time></trkpt><trkpt lat="49.18359294094836" lon="2.469618312996784"><ele>66.0</ele><time>2026-05-02T12:47:41Z</time></trkpt><trkpt lat="49.18366136732074" lon="2.4696016981975117"><ele>66.0</ele><time>2026-05-02T12:47:42Z</time></trkpt><trkpt lat="49.183729969719025" lon="2.4695899339762084"><ele>66.0</ele><time>2026-05-02T12:47:43Z</time></trkpt><trkpt lat="49.183792755311266" lon="2.4695759749801494"><ele>66.0</ele><time>2026-05-02T12:47:44Z</time></trkpt><trkpt lat="49.18386524624977" lon="2.4695520299855445"><ele>66.0</ele><time>2026-05-02T12:47:45Z</time></trkpt><trkpt lat="49.18393150315264" lon="2.46953638628355"><ele>66.0</ele><time>2026-05-02T12:47:46Z</time></trkpt><trkpt lat="49.18400060262399" lon="2.4695204544526037"><ele>66.0</ele><time>2026-05-02T12:47:47Z</time></trkpt><trkpt lat="49.184067728288134" lon="2.4695060158505284"><ele>66.0</ele><time>2026-05-02T12:47:48Z</time></trkpt><trkpt lat="49.18413663418158" lon="2.469490183118141"><ele>66.14285714285714</ele><time>2026-05-02T12:47:49Z</time></trkpt><trkpt lat="49.18420211076682" lon="2.4694759846601375"><ele>66.28571428571429</ele><time>2026-05-02T12:47:50Z</time></trkpt><trkpt lat="49.18426881179216" lon="2.469459885690101"><ele>66.42857142857143</ele><time>2026-05-02T12:47:51Z</time></trkpt><trkpt lat="49.1843329889883" lon="2.469443448451385"><ele>66.57142857142857</ele><time>2026-05-02T12:47:52Z</time></trkpt><trkpt lat="49.18439945840565" lon="2.4694249196181697"><ele>66.71428571428571</ele><time>2026-05-02T12:47:53Z</time></trkpt><trkpt lat="49.18446606820598" lon="2.4694148049113123"><ele>66.85714285714286</ele><time>2026-05-02T12:47:54Z</time></trkpt><trkpt lat="49.18453228217692" lon="2.469403901609652"><ele>67.0</ele><time>2026-05-02T12:47:55Z</time></trkpt><trkpt lat="49.18460233410894" lon="2.4693918492268825"><ele>67.0</ele><time>2026-05-02T12:47:56Z</time></trkpt><trkpt lat="49.18466627702204" lon="2.4693716858134724"><ele>67.0</ele><time>2026-05-02T12:47:57Z</time></trkpt><trkpt lat="49.184732210219515" lon="2.469349192153856"><ele>67.0</ele><time>2026-05-02T12:47:58Z</time></trkpt><trkpt lat="49.18479739272563" lon="2.469350629396583"><ele>67.0</ele><time>2026-05-02T12:47:59Z</time></trkpt><trkpt lat="49.184926514288705" lon="2.4692982167685122"><ele>67.0</ele><time>2026-05-02T12:48:01Z</time></trkpt><trkpt lat="49.18499440044439" lon="2.4693089647303497"><ele>67.0</ele><time>2026-05-02T12:48:02Z</time></trkpt><trkpt lat="49.18505959978429" lon="2.4693006282583942"><ele>66.71428571428572</ele><time>2026-05-02T12:48:03Z</time></trkpt><trkpt lat="49.185123684670494" lon="2.4692784683867113"><ele>66.42857142857143</ele><time>2026-05-02T12:48:04Z</time></trkpt><trkpt lat="49.18518730850089" lon="2.4692556649751847"><ele>66.14285714285714</ele><time>2026-05-02T12:48:04.999Z</time></trkpt><trkpt lat="49.18530966808088" lon="2.4692104877586725"><ele>65.85714285714286</ele><time>2026-05-02T12:48:06.999Z</time></trkpt><trkpt lat="49.1853724040843" lon="2.46918854074842"><ele>65.57142857142857</ele><time>2026-05-02T12:48:07.999Z</time></trkpt><trkpt lat="49.18543291044613" lon="2.4691618962000783"><ele>65.28571428571429</ele><time>2026-05-02T12:48:08.999Z</time></trkpt><trkpt lat="49.185492429929894" lon="2.469127560048207"><ele>65.0</ele><time>2026-05-02T12:48:09.999Z</time></trkpt><trkpt lat="49.185614892936314" lon="2.4691157471996195"><ele>65.0</ele><time>2026-05-02T12:48:11.999Z</time></trkpt><trkpt lat="49.18567785571139" lon="2.4691281716008664"><ele>65.0</ele><time>2026-05-02T12:48:12.999Z</time></trkpt><trkpt lat="49.18574292159223" lon="2.4691289984968265"><ele>65.0</ele><time>2026-05-02T12:48:13.999Z</time></trkpt><trkpt lat="49.185867535252136" lon="2.469099161236317"><ele>65.0</ele><time>2026-05-02T12:48:15.999Z</time></trkpt><trkpt lat="49.1859312921093" lon="2.4690808330314833"><ele>65.0</ele><time>2026-05-02T12:48:16.999Z</time></trkpt><trkpt lat="49.186055874009384" lon="2.4690501913571135"><ele>65.0</ele><time>2026-05-02T12:48:18.999Z</time></trkpt><trkpt lat="49.186183276838335" lon="2.4690209131133902"><ele>65.0</ele><time>2026-05-02T12:48:20.999Z</time></trkpt><trkpt lat="49.18624650347006" lon="2.4690070895947596"><ele>65.0</ele><time>2026-05-02T12:48:21.999Z</time></trkpt><trkpt lat="49.18630839485011" lon="2.4689880439558918"><ele>65.0</ele><time>2026-05-02T12:48:22.999Z</time></trkpt><trkpt lat="49.18637370543849" lon="2.468973396048715"><ele>65.0</ele><time>2026-05-02T12:48:23.999Z</time></trkpt><trkpt lat="49.186499124196345" lon="2.468950057151262"><ele>65.0</ele><time>2026-05-02T12:48:25.999Z</time></trkpt><trkpt lat="49.18656663425625" lon="2.4689360363764536"><ele>65.0</ele><time>2026-05-02T12:48:26.999Z</time></trkpt><trkpt lat="49.186765405801125" lon="2.468889464383265"><ele>65.00000000000001</ele><time>2026-05-02T12:48:29.999Z</time></trkpt><trkpt lat="49.1868292959716" lon="2.468878121857987"><ele>65.0</ele><time>2026-05-02T12:48:30.999Z</time></trkpt><trkpt lat="49.186897001976696" lon="2.4688639032887174"><ele>65.0</ele><time>2026-05-02T12:48:31.999Z</time></trkpt><trkpt lat="49.186963055271484" lon="2.4688471625571586"><ele>65.0</ele><time>2026-05-02T12:48:32.999Z</time></trkpt><trkpt lat="49.187027575110335" lon="2.468830049281368"><ele>65.0</ele><time>2026-05-02T12:48:33.999Z</time></trkpt><trkpt lat="49.18709276070742" lon="2.468809534533357"><ele>65.00000000000001</ele><time>2026-05-02T12:48:34.999Z</time></trkpt><trkpt lat="49.18715691104787" lon="2.468785289357574"><ele>65.0</ele><time>2026-05-02T12:48:35.999Z</time></trkpt><trkpt lat="49.187221221797756" lon="2.4687645816843804"><ele>65.16666666666667</ele><time>2026-05-02T12:48:36.998Z</time></trkpt><trkpt lat="49.18729381510763" lon="2.4687686929041712"><ele>65.33333333333334</ele><time>2026-05-02T12:48:37.998Z</time></trkpt><trkpt lat="49.1873507627685" lon="2.468838790608811"><ele>65.5</ele><time>2026-05-02T12:48:38.998Z</time></trkpt><trkpt lat="49.18740320199546" lon="2.4688935567156367"><ele>65.66666666666667</ele><time>2026-05-02T12:48:39.998Z</time></trkpt><trkpt lat="49.18749316981587" lon="2.468776802712857"><ele>65.83333333333333</ele><time>2026-05-02T12:48:41.998Z</time></trkpt><trkpt lat="49.187502907090646" lon="2.468676092648663"><ele>66.0</ele><time>2026-05-02T12:48:42.998Z</time></trkpt><trkpt lat="49.1874748897995" lon="2.4685848196443163"><ele>65.0</ele><time>2026-05-02T12:48:43.998Z</time></trkpt><trkpt lat="49.187503993043606" lon="2.468445732593542"><ele>64.0</ele><time>2026-05-02T12:48:45.998Z</time></trkpt><trkpt lat="49.18756450428461" lon="2.4683582485786317"><ele>63.0</ele><time>2026-05-02T12:48:47.998Z</time></trkpt><trkpt lat="49.18758627657238" lon="2.4682279853158757"><ele>62.0</ele><time>2026-05-02T12:48:50.998Z</time></trkpt><trkpt lat="49.18762591038582" lon="2.4681205738287453"><ele>61.0</ele><time>2026-05-02T12:48:52.998Z</time></trkpt><trkpt lat="49.187663940743256" lon="2.4680173403901793"><ele>60.0</ele><time>2026-05-02T12:48:54.998Z</time></trkpt><trkpt lat="49.18769686484839" lon="2.467904830205539"><ele>60.0</ele><time>2026-05-02T12:48:56.998Z</time></trkpt><trkpt lat="49.18776989014095" lon="2.467870732809764"><ele>60.0</ele><time>2026-05-02T12:48:58.998Z</time></trkpt><trkpt lat="49.18783919506604" lon="2.4678445034547103"><ele>60.0</ele><time>2026-05-02T12:49:01.998Z</time></trkpt><trkpt lat="49.18779473464509" lon="2.4676714345346222"><ele>60.0</ele><time>2026-05-02T12:49:02.998Z</time></trkpt><trkpt lat="49.18777396471904" lon="2.4675410359808785"><ele>60.0</ele><time>2026-05-02T12:49:04.998Z</time></trkpt><trkpt lat="49.18775132311423" lon="2.467417963763542"><ele>60.0</ele><time>2026-05-02T12:49:06.998Z</time></trkpt><trkpt lat="49.18771612620839" lon="2.4672884520632694"><ele>60.0</ele><time>2026-05-02T12:49:08.998Z</time></trkpt><trkpt lat="49.18768650244006" lon="2.467154306239792"><ele>60.0</ele><time>2026-05-02T12:49:10.997Z</time></trkpt><trkpt lat="49.18766196842725" lon="2.46701908767442"><ele>60.0</ele><time>2026-05-02T12:49:12.997Z</time></trkpt><trkpt lat="49.18763613400426" lon="2.4668779739440887"><ele>60.0</ele><time>2026-05-02T12:49:14.997Z</time></trkpt><trkpt lat="49.18761099890394" lon="2.4667377399428507"><ele>60.0</ele><time>2026-05-02T12:49:16.997Z</time></trkpt><trkpt lat="49.18758797203229" lon="2.466598320855295"><ele>60.0</ele><time>2026-05-02T12:49:18.997Z</time></trkpt><trkpt lat="49.187562504321136" lon="2.466453347672762"><ele>60.0</ele><time>2026-05-02T12:49:20.997Z</time></trkpt><trkpt lat="49.1875400182266" lon="2.4663102769102188"><ele>60.0</ele><time>2026-05-02T12:49:22.997Z</time></trkpt><trkpt lat="49.18751359747341" lon="2.466168642789285"><ele>60.0</ele><time>2026-05-02T12:49:24.997Z</time></trkpt><trkpt lat="49.187487429569956" lon="2.4660199121717947"><ele>60.0</ele><time>2026-05-02T12:49:26.997Z</time></trkpt><trkpt lat="49.187474701378044" lon="2.4658746149217494"><ele>60.0</ele><time>2026-05-02T12:49:28.997Z</time></trkpt><trkpt lat="49.18743439530192" lon="2.4657364587018984"><ele>60.0</ele><time>2026-05-02T12:49:30.997Z</time></trkpt><trkpt lat="49.18741615953675" lon="2.465578196418615"><ele>60.0</ele><time>2026-05-02T12:49:32.997Z</time></trkpt><trkpt lat="49.18736960846194" lon="2.4654359723052335"><ele>60.0</ele><time>2026-05-02T12:49:34.997Z</time></trkpt><trkpt lat="49.18734717700941" lon="2.4652899974618685"><ele>60.0</ele><time>2026-05-02T12:49:36.997Z</time></trkpt><trkpt lat="49.187294023938534" lon="2.4651521495999957"><ele>60.2</ele><time>2026-05-02T12:49:39Z</time></trkpt><trkpt lat="49.18726152556413" lon="2.4649995365137696"><ele>60.4</ele><time>2026-05-02T12:49:41Z</time></trkpt><trkpt lat="49.18722708628013" lon="2.464865306241686"><ele>60.599999999999994</ele><time>2026-05-02T12:49:43Z</time></trkpt><trkpt lat="49.187199633672904" lon="2.4647727527939858"><ele>60.8</ele><time>2026-05-02T12:49:44Z</time></trkpt><trkpt lat="49.18715505515711" lon="2.464621451883344"><ele>61.0</ele><time>2026-05-02T12:49:46Z</time></trkpt><trkpt lat="49.18711776507795" lon="2.464463172559636"><ele>61.0</ele><time>2026-05-02T12:49:48Z</time></trkpt><trkpt lat="49.187076007223915" lon="2.4643100887886944"><ele>60.99999999999999</ele><time>2026-05-02T12:49:50Z</time></trkpt><trkpt lat="49.18704015162386" lon="2.464152061206351"><ele>60.99999999999999</ele><time>2026-05-02T12:49:52Z</time></trkpt><trkpt lat="49.187015238957756" lon="2.4639912443371434"><ele>61.0</ele><time>2026-05-02T12:49:54Z</time></trkpt><trkpt lat="49.18697810865184" lon="2.46382345419757"><ele>61.0</ele><time>2026-05-02T12:49:56Z</time></trkpt><trkpt lat="49.186957699427296" lon="2.4636895735219384"><ele>60.83333333333333</ele><time>2026-05-02T12:49:58Z</time></trkpt><trkpt lat="49.186944892247205" lon="2.4635828474630945"><ele>60.666666666666664</ele><time>2026-05-02T12:50:00Z</time></trkpt><trkpt lat="49.18693342403466" lon="2.463485677068388"><ele>60.5</ele><time>2026-05-02T12:50:05Z</time></trkpt><trkpt lat="49.18692165481773" lon="2.4633856671703103"><ele>60.33333333333333</ele><time>2026-05-02T12:50:06.999Z</time></trkpt><trkpt lat="49.18690839695143" lon="2.4632730074891627"><ele>60.166666666666664</ele><time>2026-05-02T12:50:08.999Z</time></trkpt><trkpt lat="49.18689383651953" lon="2.4631510064623203"><ele>60.0</ele><time>2026-05-02T12:50:10.999Z</time></trkpt><trkpt lat="49.18678518356027" lon="2.463054182930418"><ele>59.833333333333336</ele><time>2026-05-02T12:50:12.999Z</time></trkpt><trkpt lat="49.186755078778866" lon="2.4629247132431553"><ele>59.66666666666667</ele><time>2026-05-02T12:50:14.999Z</time></trkpt><trkpt lat="49.18672197999378" lon="2.462801334723948"><ele>59.5</ele><time>2026-05-02T12:50:16.999Z</time></trkpt><trkpt lat="49.18669732688208" lon="2.462667825279915"><ele>59.333333333333336</ele><time>2026-05-02T12:50:18.999Z</time></trkpt><trkpt lat="49.18667317365014" lon="2.462531621300608"><ele>59.16666666666667</ele><time>2026-05-02T12:50:20.999Z</time></trkpt><trkpt lat="49.18663752438183" lon="2.462416683746207"><ele>59.0</ele><time>2026-05-02T12:50:22.999Z</time></trkpt><trkpt lat="49.186619811673545" lon="2.4622989787632137"><ele>59.00000000000001</ele><time>2026-05-02T12:50:24.999Z</time></trkpt><trkpt lat="49.186603472743734" lon="2.4622023709342855"><ele>59.0</ele><time>2026-05-02T12:50:26.999Z</time></trkpt><trkpt lat="49.186568961176555" lon="2.462117788661078"><ele>59.0</ele><time>2026-05-02T12:50:28.999Z</time></trkpt><trkpt lat="49.186587352463704" lon="2.4619895410903214"><ele>59.0</ele><time>2026-05-02T12:50:31.999Z</time></trkpt><trkpt lat="49.18662138335198" lon="2.4618912450093773"><ele>59.00000000000001</ele><time>2026-05-02T12:50:33.999Z</time></trkpt><trkpt lat="49.186518284185205" lon="2.4618363882842123"><ele>59.0</ele><time>2026-05-02T12:50:35.999Z</time></trkpt><trkpt lat="49.186496471139705" lon="2.461738662831674"><ele>58.75</ele><time>2026-05-02T12:50:37.999Z</time></trkpt><trkpt lat="49.18647487421915" lon="2.461641905402886"><ele>58.5</ele><time>2026-05-02T12:50:39.998Z</time></trkpt><trkpt lat="49.18667584323076" lon="2.461493818728659"><ele>58.25</ele><time>2026-05-02T12:50:40.998Z</time></trkpt><trkpt lat="49.18670028277548" lon="2.461375397945905"><ele>58.0</ele><time>2026-05-02T12:50:42.998Z</time></trkpt><trkpt lat="49.186794539364634" lon="2.461383725916462"><ele>57.99999999999999</ele><time>2026-05-02T12:50:45.998Z</time></trkpt><trkpt lat="49.18686021216904" lon="2.46138615286739"><ele>58.0</ele><time>2026-05-02T12:50:47.998Z</time></trkpt><trkpt lat="49.18693717973958" lon="2.4613968586071877"><ele>58.0</ele><time>2026-05-02T12:50:49.998Z</time></trkpt><trkpt lat="49.18701330145619" lon="2.4614676875315533"><ele>58.0</ele><time>2026-05-02T12:50:51.998Z</time></trkpt><trkpt lat="49.18709645256497" lon="2.461533603836786"><ele>57.99999999999999</ele><time>2026-05-02T12:50:53.998Z</time></trkpt><trkpt lat="49.1871727107648" lon="2.461582784000371"><ele>58.0</ele><time>2026-05-02T12:50:55.998Z</time></trkpt><trkpt lat="49.187276950108576" lon="2.461639287107776"><ele>58.2</ele><time>2026-05-02T12:50:57.998Z</time></trkpt><trkpt lat="49.1873775437307" lon="2.461686305968342"><ele>58.4</ele><time>2026-05-02T12:50:59.998Z</time></trkpt><trkpt lat="49.187476331827874" lon="2.461755190313653"><ele>58.60000000000001</ele><time>2026-05-02T12:51:01.998Z</time></trkpt><trkpt lat="49.18756716333242" lon="2.461815520490927"><ele>58.800000000000004</ele><time>2026-05-02T12:51:03.998Z</time></trkpt><trkpt lat="49.18764769046741" lon="2.461867462965608"><ele>59.0</ele><time>2026-05-02T12:51:05.998Z</time></trkpt><trkpt lat="49.18772779895332" lon="2.4617653679017706"><ele>59.0</ele><time>2026-05-02T12:51:06.998Z</time></trkpt><trkpt lat="49.187810024654766" lon="2.461817904350379"><ele>59.00000000000001</ele><time>2026-05-02T12:51:08.998Z</time></trkpt><trkpt lat="49.18789839717683" lon="2.461874368410866"><ele>59.00000000000001</ele><time>2026-05-02T12:51:10.998Z</time></trkpt><trkpt lat="49.18799642839981" lon="2.4619375565838473"><ele>59.0</ele><time>2026-05-02T12:51:12.997Z</time></trkpt><trkpt lat="49.188087326675436" lon="2.4619969813188525"><ele>59.0</ele><time>2026-05-02T12:51:14.997Z</time></trkpt><trkpt lat="49.188186287562495" lon="2.4620616767984185"><ele>58.6</ele><time>2026-05-02T12:51:16.997Z</time></trkpt><trkpt lat="49.18827116884453" lon="2.4621171678176004"><ele>58.2</ele><time>2026-05-02T12:51:18.997Z</time></trkpt><trkpt lat="49.18837303078132" lon="2.4621837598912393"><ele>57.800000000000004</ele><time>2026-05-02T12:51:20.997Z</time></trkpt><trkpt lat="49.1884681987965" lon="2.46224597595892"><ele>57.400000000000006</ele><time>2026-05-02T12:51:22.997Z</time></trkpt><trkpt lat="49.18854039178618" lon="2.462293171990424"><ele>57.0</ele><time>2026-05-02T12:51:24.997Z</time></trkpt><trkpt lat="49.18863530200456" lon="2.4623534616021536"><ele>57.0</ele><time>2026-05-02T12:51:26.997Z</time></trkpt><trkpt lat="49.18873916615508" lon="2.4624192195219408"><ele>57.0</ele><time>2026-05-02T12:51:28.997Z</time></trkpt><trkpt lat="49.18882522070136" lon="2.462473701973568"><ele>57.0</ele><time>2026-05-02T12:51:30.997Z</time></trkpt><trkpt lat="49.18891067879764" lon="2.4625276154922244"><ele>57.0</ele><time>2026-05-02T12:51:32.997Z</time></trkpt><trkpt lat="49.18900692547426" lon="2.4625882167094053"><ele>57.0</ele><time>2026-05-02T12:51:34.997Z</time></trkpt><trkpt lat="49.18909714880081" lon="2.4626450252509673"><ele>56.8</ele><time>2026-05-02T12:51:36.997Z</time></trkpt><trkpt lat="49.18917547063909" lon="2.4626943402198673"><ele>56.6</ele><time>2026-05-02T12:51:38.997Z</time></trkpt><trkpt lat="49.189265548035195" lon="2.4627510569646596"><ele>56.39999999999999</ele><time>2026-05-02T12:51:40.997Z</time></trkpt><trkpt lat="49.18935222829335" lon="2.462805634674415"><ele>56.199999999999996</ele><time>2026-05-02T12:51:42.997Z</time></trkpt><trkpt lat="49.18943600717603" lon="2.4628601351703647"><ele>56.0</ele><time>2026-05-02T12:51:45Z</time></trkpt><trkpt lat="49.189525819839965" lon="2.462918042030699"><ele>56.00000000000001</ele><time>2026-05-02T12:51:47Z</time></trkpt><trkpt lat="49.1895848064479" lon="2.462956073655425"><ele>56.0</ele><time>2026-05-02T12:51:48Z</time></trkpt><trkpt lat="49.189657947473584" lon="2.4630032315551293"><ele>56.0</ele><time>2026-05-02T12:51:50Z</time></trkpt><trkpt lat="49.189732907735504" lon="2.463051562060943"><ele>56.0</ele><time>2026-05-02T12:51:52Z</time></trkpt><trkpt lat="49.1898007484422" lon="2.463040944050796"><ele>56.00000000000001</ele><time>2026-05-02T12:51:55Z</time></trkpt><trkpt lat="49.18989514006879" lon="2.4630756208188522"><ele>56.0</ele><time>2026-05-02T12:51:57Z</time></trkpt><trkpt lat="49.18998410617988" lon="2.4631499455847368"><ele>56.0</ele><time>2026-05-02T12:51:59Z</time></trkpt><trkpt lat="49.190084035776074" lon="2.46320512981404"><ele>55.99999999999999</ele><time>2026-05-02T12:52:01Z</time></trkpt><trkpt lat="49.19017657134593" lon="2.4632597933296614"><ele>55.99999999999999</ele><time>2026-05-02T12:52:03Z</time></trkpt><trkpt lat="49.1902712955308" lon="2.463322892433933"><ele>56.0</ele><time>2026-05-02T12:52:05Z</time></trkpt><trkpt lat="49.19036971476198" lon="2.4633854306417104"><ele>56.0</ele><time>2026-05-02T12:52:07Z</time></trkpt><trkpt lat="49.19046135245136" lon="2.4634472303741983"><ele>56.0</ele><time>2026-05-02T12:52:09Z</time></trkpt><trkpt lat="49.19055830407589" lon="2.463506308806251"><ele>55.99999999999999</ele><time>2026-05-02T12:52:11Z</time></trkpt><trkpt lat="49.190655826662585" lon="2.46356444071077"><ele>55.99999999999999</ele><time>2026-05-02T12:52:13Z</time></trkpt><trkpt lat="49.190747752784006" lon="2.4636242951675316"><ele>56.0</ele><time>2026-05-02T12:52:15Z</time></trkpt><trkpt lat="49.19085249060871" lon="2.4636893931137593"><ele>56.0</ele><time>2026-05-02T12:52:17Z</time></trkpt><trkpt lat="49.19094993721867" lon="2.4637559388588635"><ele>56.199999999999996</ele><time>2026-05-02T12:52:18.999Z</time></trkpt><trkpt lat="49.191050391361124" lon="2.4638209261197406"><ele>56.39999999999999</ele><time>2026-05-02T12:52:20.999Z</time></trkpt><trkpt lat="49.19115312215709" lon="2.463879656051193"><ele>56.6</ele><time>2026-05-02T12:52:22.999Z</time></trkpt><trkpt lat="49.191253935415446" lon="2.4639454247218153"><ele>56.8</ele><time>2026-05-02T12:52:24.999Z</time></trkpt><trkpt lat="49.191357566311375" lon="2.4640105249452406"><ele>57.0</ele><time>2026-05-02T12:52:26.999Z</time></trkpt><trkpt lat="49.19146013719135" lon="2.464079336116965"><ele>57.0</ele><time>2026-05-02T12:52:28.999Z</time></trkpt><trkpt lat="49.1915618961934" lon="2.4641457484011067"><ele>57.0</ele><time>2026-05-02T12:52:30.999Z</time></trkpt><trkpt lat="49.19161965887115" lon="2.4641847659263134"><ele>57.0</ele><time>2026-05-02T12:52:31.999Z</time></trkpt><trkpt lat="49.1917223441401" lon="2.464248264119414"><ele>57.0</ele><time>2026-05-02T12:52:33.999Z</time></trkpt><trkpt lat="49.19183477731351" lon="2.4643160468504686"><ele>57.0</ele><time>2026-05-02T12:52:35.999Z</time></trkpt><trkpt lat="49.19194086189979" lon="2.464388911944277"><ele>57.0</ele><time>2026-05-02T12:52:37.999Z</time></trkpt><trkpt lat="49.192046631809355" lon="2.464453568364829"><ele>57.0</ele><time>2026-05-02T12:52:39.999Z</time></trkpt><trkpt lat="49.192155048258854" lon="2.464518282719054"><ele>57.0</ele><time>2026-05-02T12:52:41.999Z</time></trkpt><trkpt lat="49.19226775197201" lon="2.464548755071447"><ele>57.0</ele><time>2026-05-02T12:52:43.999Z</time></trkpt><trkpt lat="49.19236183203586" lon="2.464625047336057"><ele>56.8</ele><time>2026-05-02T12:52:45.999Z</time></trkpt><trkpt lat="49.1924096117172" lon="2.4647047090317384"><ele>56.6</ele><time>2026-05-02T12:52:47.999Z</time></trkpt><trkpt lat="49.1925014123208" lon="2.4647361985615572"><ele>56.39999999999999</ele><time>2026-05-02T12:52:49.999Z</time></trkpt><trkpt lat="49.192587029426335" lon="2.4647589433260646"><ele>56.199999999999996</ele><time>2026-05-02T12:52:51.998Z</time></trkpt><trkpt lat="49.19267623420145" lon="2.464826959350485"><ele>56.0</ele><time>2026-05-02T12:52:53.998Z</time></trkpt><trkpt lat="49.19277162819345" lon="2.4648807639639885"><ele>56.0</ele><time>2026-05-02T12:52:55.998Z</time></trkpt><trkpt lat="49.19287155917685" lon="2.4649453210907724"><ele>56.0</ele><time>2026-05-02T12:52:57.998Z</time></trkpt><trkpt lat="49.192977001737084" lon="2.465017602692706"><ele>56.0</ele><time>2026-05-02T12:52:59.998Z</time></trkpt><trkpt lat="49.193084473717256" lon="2.4650918528558705"><ele>56.0</ele><time>2026-05-02T12:53:01.998Z</time></trkpt><trkpt lat="49.19318934990505" lon="2.4651794800408533"><ele>55.8</ele><time>2026-05-02T12:53:03.998Z</time></trkpt><trkpt lat="49.19328562930644" lon="2.465243722710614"><ele>55.599999999999994</ele><time>2026-05-02T12:53:05.998Z</time></trkpt><trkpt lat="49.193370306687896" lon="2.4652988186458757"><ele>55.4</ele><time>2026-05-02T12:53:07.998Z</time></trkpt><trkpt lat="49.19346106385695" lon="2.4653566125893933"><ele>55.2</ele><time>2026-05-02T12:53:09.998Z</time></trkpt><trkpt lat="49.193551039090075" lon="2.4654192163472795"><ele>55.0</ele><time>2026-05-02T12:53:11.998Z</time></trkpt><trkpt lat="49.193641320206694" lon="2.465482577155648"><ele>55.0</ele><time>2026-05-02T12:53:13.998Z</time></trkpt><trkpt lat="49.19372372166056" lon="2.4655408558536807"><ele>55.0</ele><time>2026-05-02T12:53:15.998Z</time></trkpt><trkpt lat="49.193827992698345" lon="2.465599095159262"><ele>55.0</ele><time>2026-05-02T12:53:17.998Z</time></trkpt><trkpt lat="49.19389150113479" lon="2.465626247832094"><ele>55.0</ele><time>2026-05-02T12:53:18.998Z</time></trkpt><trkpt lat="49.19400770779796" lon="2.4656808538225152"><ele>55.0</ele><time>2026-05-02T12:53:20.998Z</time></trkpt><trkpt lat="49.194071779412425" lon="2.465715120823597"><ele>54.83333333333333</ele><time>2026-05-02T12:53:21.998Z</time></trkpt><trkpt lat="49.19413971182298" lon="2.465751995524428"><ele>54.666666666666664</ele><time>2026-05-02T12:53:22.998Z</time></trkpt><trkpt lat="49.19419628109382" lon="2.465828057762434"><ele>54.5</ele><time>2026-05-02T12:53:23.998Z</time></trkpt><trkpt lat="49.1941857287807" lon="2.465939301267412"><ele>54.33333333333333</ele><time>2026-05-02T12:53:24.997Z</time></trkpt><trkpt lat="49.19424393006209" lon="2.4660410037995804"><ele>54.166666666666664</ele><time>2026-05-02T12:53:25.997Z</time></trkpt><trkpt lat="49.19419155766612" lon="2.46613535817072"><ele>54.0</ele><time>2026-05-02T12:53:26.997Z</time></trkpt><trkpt lat="49.194194416304626" lon="2.4663261274420623"><ele>54.0</ele><time>2026-05-02T12:53:28.997Z</time></trkpt><trkpt lat="49.19419679700803" lon="2.466508233835568"><ele>54.0</ele><time>2026-05-02T12:53:30.997Z</time></trkpt><trkpt lat="49.19419988573418" lon="2.4666868754385063"><ele>54.0</ele><time>2026-05-02T12:53:32.997Z</time></trkpt><trkpt lat="49.19420613296453" lon="2.4668507898803336"><ele>54.0</ele><time>2026-05-02T12:53:34.997Z</time></trkpt><trkpt lat="49.19420962909826" lon="2.4670142797013916"><ele>54.6</ele><time>2026-05-02T12:53:36.997Z</time></trkpt><trkpt lat="49.19422138551612" lon="2.4671911805092823"><ele>55.2</ele><time>2026-05-02T12:53:38.997Z</time></trkpt><trkpt lat="49.19423521315552" lon="2.4673653721854514"><ele>55.800000000000004</ele><time>2026-05-02T12:53:40.997Z</time></trkpt><trkpt lat="49.19424152408764" lon="2.467531919925917"><ele>56.400000000000006</ele><time>2026-05-02T12:53:42.997Z</time></trkpt><trkpt lat="49.19424718277291" lon="2.4676992910896574"><ele>57.0</ele><time>2026-05-02T12:53:44.997Z</time></trkpt><trkpt lat="49.19425130772471" lon="2.467867681588534"><ele>57.0</ele><time>2026-05-02T12:53:46.997Z</time></trkpt><trkpt lat="49.194252865040035" lon="2.4680258467230876"><ele>57.0</ele><time>2026-05-02T12:53:49Z</time></trkpt><trkpt lat="49.19425897463348" lon="2.468188116762036"><ele>57.0</ele><time>2026-05-02T12:53:51Z</time></trkpt><trkpt lat="49.194269169141855" lon="2.4683469006420755"><ele>57.0</ele><time>2026-05-02T12:53:53Z</time></trkpt><trkpt lat="49.194270878591" lon="2.468507110981284"><ele>57.0</ele><time>2026-05-02T12:53:55Z</time></trkpt><trkpt lat="49.194280183451355" lon="2.4686694263913305"><ele>56.8</ele><time>2026-05-02T12:53:57Z</time></trkpt><trkpt lat="49.194271287178324" lon="2.468838401791042"><ele>56.6</ele><time>2026-05-02T12:53:59Z</time></trkpt><trkpt lat="49.1942766061614" lon="2.4689914257983294"><ele>56.39999999999999</ele><time>2026-05-02T12:54:01Z</time></trkpt><trkpt lat="49.19428219604901" lon="2.4691522436795386"><ele>56.199999999999996</ele><time>2026-05-02T12:54:03Z</time></trkpt><trkpt lat="49.194301650813316" lon="2.4693173026434154"><ele>56.0</ele><time>2026-05-02T12:54:05Z</time></trkpt><trkpt lat="49.1942934135175" lon="2.4694786632807446"><ele>56.0</ele><time>2026-05-02T12:54:07Z</time></trkpt><trkpt lat="49.19431395135403" lon="2.4696491578518613"><ele>55.99999999999999</ele><time>2026-05-02T12:54:09Z</time></trkpt><trkpt lat="49.19431403809727" lon="2.4698013592045793"><ele>55.99999999999999</ele><time>2026-05-02T12:54:11Z</time></trkpt><trkpt lat="49.19430629519078" lon="2.469966897995352"><ele>56.0</ele><time>2026-05-02T12:54:13Z</time></trkpt><trkpt lat="49.19432535712322" lon="2.470127084285372"><ele>56.0</ele><time>2026-05-02T12:54:15Z</time></trkpt><trkpt lat="49.19431612983888" lon="2.4703038873543504"><ele>56.0</ele><time>2026-05-02T12:54:17Z</time></trkpt><trkpt lat="49.19432102629539" lon="2.4704718203228073"><ele>55.99999999999999</ele><time>2026-05-02T12:54:19Z</time></trkpt><trkpt lat="49.194325961557766" lon="2.470641084230343"><ele>55.99999999999999</ele><time>2026-05-02T12:54:21Z</time></trkpt><trkpt lat="49.19434522148354" lon="2.470816422645288"><ele>56.0</ele><time>2026-05-02T12:54:23Z</time></trkpt><trkpt lat="49.19433591260149" lon="2.470933075363423"><ele>56.0</ele><time>2026-05-02T12:54:24.999Z</time></trkpt><trkpt lat="49.19434261219876" lon="2.471087784820844"><ele>56.0</ele><time>2026-05-02T12:54:26.999Z</time></trkpt><trkpt lat="49.19433052708192" lon="2.471251004529442"><ele>55.99999999999999</ele><time>2026-05-02T12:54:28.999Z</time></trkpt><trkpt lat="49.194302380681684" lon="2.4713458538574504"><ele>55.99999999999999</ele><time>2026-05-02T12:54:29.999Z</time></trkpt><trkpt lat="49.194330333341775" lon="2.471434265430452"><ele>56.0</ele><time>2026-05-02T12:54:30.999Z</time></trkpt><trkpt lat="49.19433543959417" lon="2.471612607175899"><ele>56.0</ele><time>2026-05-02T12:54:32.999Z</time></trkpt><trkpt lat="49.1943407710333" lon="2.4717988139235216"><ele>56.0</ele><time>2026-05-02T12:54:34.999Z</time></trkpt><trkpt lat="49.19434636203289" lon="2.471981859953646"><ele>55.99999999999999</ele><time>2026-05-02T12:54:36.999Z</time></trkpt><trkpt lat="49.19435260430329" lon="2.4721612806759348"><ele>55.99999999999999</ele><time>2026-05-02T12:54:38.999Z</time></trkpt><trkpt lat="49.194356428096846" lon="2.4722711873474372"><ele>56.0</ele><time>2026-05-02T12:54:39.999Z</time></trkpt><trkpt lat="49.194362278044245" lon="2.472439331679179"><ele>56.0</ele><time>2026-05-02T12:54:41.999Z</time></trkpt><trkpt lat="49.19436811951724" lon="2.4726317354748235"><ele>56.0</ele><time>2026-05-02T12:54:43.999Z</time></trkpt><trkpt lat="49.19437080022757" lon="2.472732792775156"><ele>55.99999999999999</ele><time>2026-05-02T12:54:44.999Z</time></trkpt><trkpt lat="49.194375247367" lon="2.472909278858914"><ele>55.99999999999999</ele><time>2026-05-02T12:54:46.999Z</time></trkpt><trkpt lat="49.194380677252475" lon="2.473104370166575"><ele>56.0</ele><time>2026-05-02T12:54:48.999Z</time></trkpt><trkpt lat="49.19438839391308" lon="2.4732900625730103"><ele>56.0</ele><time>2026-05-02T12:54:50.999Z</time></trkpt><trkpt lat="49.19439244079526" lon="2.4733874461672105"><ele>56.0</ele><time>2026-05-02T12:54:51.999Z</time></trkpt><trkpt lat="49.19439578412259" lon="2.4734847876211776"><ele>55.99999999999999</ele><time>2026-05-02T12:54:52.999Z</time></trkpt><trkpt lat="49.194401838414656" lon="2.473675761741128"><ele>55.99999999999999</ele><time>2026-05-02T12:54:54.999Z</time></trkpt><trkpt lat="49.19440776553809" lon="2.4738650917503637"><ele>56.0</ele><time>2026-05-02T12:54:56.998Z</time></trkpt><trkpt lat="49.19441347910582" lon="2.4740476001883507"><ele>56.0</ele><time>2026-05-02T12:54:58.998Z</time></trkpt><trkpt lat="49.194419059495765" lon="2.4742258544591254"><ele>56.25</ele><time>2026-05-02T12:55:00.998Z</time></trkpt><trkpt lat="49.19442417275945" lon="2.474397003206964"><ele>56.5</ele><time>2026-05-02T12:55:02.998Z</time></trkpt><trkpt lat="49.19442842312505" lon="2.4745699978958684"><ele>56.75</ele><time>2026-05-02T12:55:04.998Z</time></trkpt><trkpt lat="49.194433232777605" lon="2.4747441463423194"><ele>57.0</ele><time>2026-05-02T12:55:06.998Z</time></trkpt><trkpt lat="49.194441122839436" lon="2.4749258019799414"><ele>57.0</ele><time>2026-05-02T12:55:08.998Z</time></trkpt><trkpt lat="49.19444827492616" lon="2.4750990085570814"><ele>57.0</ele><time>2026-05-02T12:55:10.998Z</time></trkpt><trkpt lat="49.19445347373852" lon="2.4752748234624846"><ele>57.0</ele><time>2026-05-02T12:55:12.998Z</time></trkpt><trkpt lat="49.19445855522167" lon="2.4754569236831174"><ele>57.0</ele><time>2026-05-02T12:55:14.998Z</time></trkpt><trkpt lat="49.1944635743176" lon="2.4756367882105232"><ele>56.400000000000006</ele><time>2026-05-02T12:55:16.998Z</time></trkpt><trkpt lat="49.19446706546935" lon="2.475814127576037"><ele>55.800000000000004</ele><time>2026-05-02T12:55:18.998Z</time></trkpt><trkpt lat="49.19446561547358" lon="2.4759843405872224"><ele>55.2</ele><time>2026-05-02T12:55:20.998Z</time></trkpt><trkpt lat="49.19446383767157" lon="2.4760824094563643"><ele>54.6</ele><time>2026-05-02T12:55:21.998Z</time></trkpt><trkpt lat="49.19445629301857" lon="2.4762635746609063"><ele>54.0</ele><time>2026-05-02T12:55:23.998Z</time></trkpt><trkpt lat="49.19444879928224" lon="2.47644858289672"><ele>53.800000000000004</ele><time>2026-05-02T12:55:25.998Z</time></trkpt><trkpt lat="49.19444450213624" lon="2.4766389797540715"><ele>53.60000000000001</ele><time>2026-05-02T12:55:27.998Z</time></trkpt><trkpt lat="49.194441229292785" lon="2.4768278932427177"><ele>53.4</ele><time>2026-05-02T12:55:29.997Z</time></trkpt><trkpt lat="49.194439520664446" lon="2.476926517777757"><ele>53.2</ele><time>2026-05-02T12:55:30.997Z</time></trkpt><trkpt lat="49.19443769911263" lon="2.477104459636533"><ele>53.0</ele><time>2026-05-02T12:55:32.997Z</time></trkpt><trkpt lat="49.194436228624085" lon="2.4772736777034807"><ele>53.0</ele><time>2026-05-02T12:55:34.997Z</time></trkpt><trkpt lat="49.19438054862119" lon="2.4773942792955124"><ele>53.0</ele><time>2026-05-02T12:55:36.997Z</time></trkpt><trkpt lat="49.194242089625575" lon="2.477452946011456"><ele>53.0</ele><time>2026-05-02T12:55:39.997Z</time></trkpt><trkpt lat="49.19415608056681" lon="2.477326232321317"><ele>53.0</ele><time>2026-05-02T12:55:41.997Z</time></trkpt><trkpt lat="49.19411034693252" lon="2.4772558314895705"><ele>53.0</ele><time>2026-05-02T12:55:42.997Z</time></trkpt><trkpt lat="49.19402104437611" lon="2.477242921903589"><ele>53.2</ele><time>2026-05-02T12:55:44.997Z</time></trkpt><trkpt lat="49.19393049155915" lon="2.4772617721775965"><ele>53.4</ele><time>2026-05-02T12:55:46.997Z</time></trkpt><trkpt lat="49.193843045704604" lon="2.477230765027431"><ele>53.60000000000001</ele><time>2026-05-02T12:55:48.997Z</time></trkpt><trkpt lat="49.193749627774764" lon="2.4772135129298736"><ele>53.800000000000004</ele><time>2026-05-02T12:55:50.997Z</time></trkpt><trkpt lat="49.19365960091402" lon="2.477283499080449"><ele>54.0</ele><time>2026-05-02T12:55:52.997Z</time></trkpt><trkpt lat="49.1935673235176" lon="2.4772892807959743"><ele>54.0</ele><time>2026-05-02T12:55:55Z</time></trkpt><trkpt lat="49.19348533983715" lon="2.4773643084822714"><ele>54.00000000000001</ele><time>2026-05-02T12:55:57Z</time></trkpt><trkpt lat="49.1934552327563" lon="2.477509160201907"><ele>54.00000000000001</ele><time>2026-05-02T12:55:59Z</time></trkpt><trkpt lat="49.19344171343768" lon="2.4776675437831304"><ele>54.0</ele><time>2026-05-02T12:56:01Z</time></trkpt><trkpt lat="49.19340221103579" lon="2.4778190800948083"><ele>54.0</ele><time>2026-05-02T12:56:03Z</time></trkpt><trkpt lat="49.19340513559702" lon="2.4779793563460655"><ele>54.2</ele><time>2026-05-02T12:56:05Z</time></trkpt><trkpt lat="49.193418899156434" lon="2.4781312418540136"><ele>54.400000000000006</ele><time>2026-05-02T12:56:07Z</time></trkpt><trkpt lat="49.193443480741905" lon="2.4782892455800316"><ele>54.6</ele><time>2026-05-02T12:56:09Z</time></trkpt><trkpt lat="49.19345369500128" lon="2.4784567322735196"><ele>54.8</ele><time>2026-05-02T12:56:11Z</time></trkpt><trkpt lat="49.193451595125765" lon="2.4786066662867285"><ele>55.0</ele><time>2026-05-02T12:56:13Z</time></trkpt><trkpt lat="49.193445277504914" lon="2.4787610027979694"><ele>55.2</ele><time>2026-05-02T12:56:15Z</time></trkpt><trkpt lat="49.19341358946864" lon="2.4789222296128353"><ele>55.4</ele><time>2026-05-02T12:56:17Z</time></trkpt><trkpt lat="49.19342959811877" lon="2.4790961074628095"><ele>55.599999999999994</ele><time>2026-05-02T12:56:19Z</time></trkpt><trkpt lat="49.19343446471734" lon="2.4792614252153142"><ele>55.8</ele><time>2026-05-02T12:56:21Z</time></trkpt><trkpt lat="49.19345019512657" lon="2.4794189455878253"><ele>56.0</ele><time>2026-05-02T12:56:23Z</time></trkpt><trkpt lat="49.19348473449385" lon="2.4795744439101215"><ele>55.4</ele><time>2026-05-02T12:56:25Z</time></trkpt><trkpt lat="49.19348483404176" lon="2.4797410245463616"><ele>54.8</ele><time>2026-05-02T12:56:27Z</time></trkpt><trkpt lat="49.193486811386336" lon="2.4798999366556895"><ele>54.199999999999996</ele><time>2026-05-02T12:56:28.999Z</time></trkpt><trkpt lat="49.1934916753161" lon="2.4800466695594303"><ele>53.599999999999994</ele><time>2026-05-02T12:56:30.999Z</time></trkpt><trkpt lat="49.19349747470097" lon="2.4801795805413116"><ele>53.0</ele><time>2026-05-02T12:56:32.999Z</time></trkpt><trkpt lat="49.193498685130464" lon="2.4803062481093834"><ele>53.0</ele><time>2026-05-02T12:56:34.999Z</time></trkpt><trkpt lat="49.19351712879215" lon="2.4804082464921766"><ele>53.0</ele><time>2026-05-02T12:56:36.999Z</time></trkpt><trkpt lat="49.19358364957154" lon="2.480472693271636"><ele>53.0</ele><time>2026-05-02T12:56:39.999Z</time></trkpt><trkpt lat="49.193629937000615" lon="2.480400867104639"><ele>53.0</ele><time>2026-05-02T12:56:44.999Z</time></trkpt><trkpt lat="49.19357147887489" lon="2.4803431724742437"><ele>53.0</ele><time>2026-05-02T12:56:47.999Z</time></trkpt><trkpt lat="49.19350129616131" lon="2.4803911855560763"><ele>53.0</ele><time>2026-05-02T12:56:50.999Z</time></trkpt><trkpt lat="49.193485220293226" lon="2.480520150276129"><ele>53.0</ele><time>2026-05-02T12:56:53.999Z</time></trkpt><trkpt lat="49.19348845067092" lon="2.4806354198928915"><ele>52.599999999999994</ele><time>2026-05-02T12:56:55.999Z</time></trkpt><trkpt lat="49.19345798402533" lon="2.4807492654036736"><ele>52.199999999999996</ele><time>2026-05-02T12:56:57.999Z</time></trkpt><trkpt lat="49.19343823156827" lon="2.4808804497297534"><ele>51.8</ele><time>2026-05-02T12:56:59.999Z</time></trkpt><trkpt lat="49.19340953249765" lon="2.481009337088916"><ele>51.4</ele><time>2026-05-02T12:57:01.998Z</time></trkpt><trkpt lat="49.19338662728808" lon="2.4811621110371296"><ele>51.0</ele><time>2026-05-02T12:57:03.998Z</time></trkpt><trkpt lat="49.19330982237603" lon="2.481288946329477"><ele>50.599999999999994</ele><time>2026-05-02T12:57:05.998Z</time></trkpt><trkpt lat="49.19325832006388" lon="2.4814294167537363"><ele>50.2</ele><time>2026-05-02T12:57:07.998Z</time></trkpt><trkpt lat="49.19320144002436" lon="2.4815680685434924"><ele>49.8</ele><time>2026-05-02T12:57:09.998Z</time></trkpt><trkpt lat="49.19313724353226" lon="2.481710859388838"><ele>49.400000000000006</ele><time>2026-05-02T12:57:11.998Z</time></trkpt><trkpt lat="49.1930640267613" lon="2.4818524312307257"><ele>49.0</ele><time>2026-05-02T12:57:13.998Z</time></trkpt><trkpt lat="49.192986350898735" lon="2.481978958227257"><ele>48.5</ele><time>2026-05-02T12:57:15.998Z</time></trkpt><trkpt lat="49.192901744110145" lon="2.482093557986932"><ele>48.0</ele><time>2026-05-02T12:57:17.998Z</time></trkpt><trkpt lat="49.19280997374727" lon="2.482190180331529"><ele>47.5</ele><time>2026-05-02T12:57:19.998Z</time></trkpt><trkpt lat="49.19271187962722" lon="2.48227824889389"><ele>47.0</ele><time>2026-05-02T12:57:21.998Z</time></trkpt><trkpt lat="49.19260756402313" lon="2.48235506353548"><ele>47.5</ele><time>2026-05-02T12:57:23.998Z</time></trkpt><trkpt lat="49.192507958369596" lon="2.4824358302042744"><ele>48.0</ele><time>2026-05-02T12:57:25.998Z</time></trkpt><trkpt lat="49.19240810430299" lon="2.482509001852394"><ele>48.5</ele><time>2026-05-02T12:57:27.998Z</time></trkpt><trkpt lat="49.19230333684334" lon="2.482579751961058"><ele>49.0</ele><time>2026-05-02T12:57:29.998Z</time></trkpt><trkpt lat="49.192195219721654" lon="2.4826527639484337"><ele>49.0</ele><time>2026-05-02T12:57:31.998Z</time></trkpt><trkpt lat="49.19209300943958" lon="2.482721022162381"><ele>49.0</ele><time>2026-05-02T12:57:33.997Z</time></trkpt><trkpt lat="49.191983146287384" lon="2.4827929748508555"><ele>49.0</ele><time>2026-05-02T12:57:35.997Z</time></trkpt><trkpt lat="49.19188444842124" lon="2.482859120329061"><ele>49.0</ele><time>2026-05-02T12:57:37.997Z</time></trkpt><trkpt lat="49.19182378943038" lon="2.4829022712781206"><ele>49.0</ele><time>2026-05-02T12:57:38.997Z</time></trkpt><trkpt lat="49.191728040380504" lon="2.482973411425136"><ele>48.800000000000004</ele><time>2026-05-02T12:57:40.997Z</time></trkpt><trkpt lat="49.1916332557108" lon="2.483067759072027"><ele>48.6</ele><time>2026-05-02T12:57:42.997Z</time></trkpt><trkpt lat="49.191570672046964" lon="2.4832157890332915"><ele>48.4</ele><time>2026-05-02T12:57:44.997Z</time></trkpt><trkpt lat="49.19154657450373" lon="2.483354889571295"><ele>48.2</ele><time>2026-05-02T12:57:46.997Z</time></trkpt><trkpt lat="49.19152435716309" lon="2.4834731965916017"><ele>48.0</ele><time>2026-05-02T12:57:48.997Z</time></trkpt><trkpt lat="49.191506605077585" lon="2.483612175728352"><ele>48.0</ele><time>2026-05-02T12:57:50.997Z</time></trkpt><trkpt lat="49.191515765452266" lon="2.483762996073507"><ele>48.0</ele><time>2026-05-02T12:57:52.997Z</time></trkpt><trkpt lat="49.19151250735413" lon="2.483896896995025"><ele>48.0</ele><time>2026-05-02T12:57:54.997Z</time></trkpt><trkpt lat="49.1914287348002" lon="2.483987973419339"><ele>48.0</ele><time>2026-05-02T12:57:56.997Z</time></trkpt><trkpt lat="49.19139267330656" lon="2.484127102339245"><ele>48.0</ele><time>2026-05-02T12:57:58.997Z</time></trkpt><trkpt lat="49.19138877260013" lon="2.4842554606148415"><ele>48.0</ele><time>2026-05-02T12:58:01Z</time></trkpt><trkpt lat="49.19144012625192" lon="2.4843903753263246"><ele>48.0</ele><time>2026-05-02T12:58:04Z</time></trkpt><trkpt lat="49.191482953328844" lon="2.4844982153451354"><ele>48.0</ele><time>2026-05-02T12:58:06Z</time></trkpt><trkpt lat="49.19149072075153" lon="2.484687813650388"><ele>48.0</ele><time>2026-05-02T12:58:08Z</time></trkpt><trkpt lat="49.19151334849233" lon="2.4848505910381364"><ele>48.0</ele><time>2026-05-02T12:58:11Z</time></trkpt><trkpt lat="49.19154252573885" lon="2.4849712192080857"><ele>47.71428571428571</ele><time>2026-05-02T12:58:13Z</time></trkpt><trkpt lat="49.191580060168214" lon="2.4850591735916843"><ele>47.42857142857143</ele><time>2026-05-02T12:58:15Z</time></trkpt><trkpt lat="49.19163449963378" lon="2.4851146287262598"><ele>47.14285714285714</ele><time>2026-05-02T12:58:19Z</time></trkpt><trkpt lat="49.191629080790904" lon="2.4852214113612847"><ele>46.857142857142854</ele><time>2026-05-02T12:58:26Z</time></trkpt><trkpt lat="49.19164577572304" lon="2.4853146200025407"><ele>46.57142857142857</ele><time>2026-05-02T12:58:31Z</time></trkpt><trkpt lat="49.19165066463657" lon="2.4854119878056853"><ele>46.285714285714285</ele><time>2026-05-02T13:00:14Z</time></trkpt><trkpt lat="49.19160866555799" lon="2.485515181951414"><ele>46.0</ele><time>2026-05-02T13:00:17Z</time></trkpt><trkpt lat="49.191547253821156" lon="2.485563164472088"><ele>46.66666666666667</ele><time>2026-05-02T13:00:19Z</time></trkpt><trkpt lat="49.191490217879895" lon="2.485634612943069"><ele>47.333333333333336</ele><time>2026-05-02T13:00:22Z</time></trkpt><trkpt lat="49.1914727819688" lon="2.4857572848033858"><ele>48.0</ele><time>2026-05-02T13:00:25Z</time></trkpt><trkpt lat="49.191445871160745" lon="2.4858903703947868"><ele>48.66666666666667</ele><time>2026-05-02T13:00:28Z</time></trkpt><trkpt lat="49.19139735298583" lon="2.4859723860468415"><ele>49.333333333333336</ele><time>2026-05-02T13:00:30Z</time></trkpt><trkpt lat="49.191326435410275" lon="2.486019609964766"><ele>50.0</ele><time>2026-05-02T13:00:32Z</time></trkpt><trkpt lat="49.191256036481995" lon="2.4860149468441888"><ele>50.00000000000001</ele><time>2026-05-02T13:00:33.999Z</time></trkpt><trkpt lat="49.19119501045078" lon="2.4861287928992164"><ele>50.0</ele><time>2026-05-02T13:00:36.999Z</time></trkpt><trkpt lat="49.191145122011825" lon="2.48620669488443"><ele>50.0</ele><time>2026-05-02T13:00:38.999Z</time></trkpt><trkpt lat="49.19107508860727" lon="2.4863110144595777"><ele>50.0</ele><time>2026-05-02T13:00:41.999Z</time></trkpt><trkpt lat="49.19101907192394" lon="2.4864094268124015"><ele>50.00000000000001</ele><time>2026-05-02T13:00:44.999Z</time></trkpt><trkpt lat="49.1909729863424" lon="2.486487069913651"><ele>50.0</ele><time>2026-05-02T13:00:46.999Z</time></trkpt><trkpt lat="49.19092518453855" lon="2.4865519899650357"><ele>50.57142857142858</ele><time>2026-05-02T13:00:48.999Z</time></trkpt><trkpt lat="49.19088180031101" lon="2.4866257657100093"><ele>51.142857142857146</ele><time>2026-05-02T13:00:50.999Z</time></trkpt><trkpt lat="49.19083894140694" lon="2.4867056717181653"><ele>51.714285714285715</ele><time>2026-05-02T13:00:52.999Z</time></trkpt><trkpt lat="49.19079164913776" lon="2.4867862649419323"><ele>52.28571428571429</ele><time>2026-05-02T13:00:54.999Z</time></trkpt><trkpt lat="49.19073968367752" lon="2.486861554680478"><ele>52.857142857142854</ele><time>2026-05-02T13:00:56.999Z</time></trkpt><trkpt lat="49.19069065953908" lon="2.4869244951701575"><ele>53.42857142857143</ele><time>2026-05-02T13:00:58.999Z</time></trkpt><trkpt lat="49.19064267044939" lon="2.487006360853588"><ele>54.0</ele><time>2026-05-02T13:01:00.999Z</time></trkpt><trkpt lat="49.190591835802636" lon="2.487078524699528"><ele>54.666666666666664</ele><time>2026-05-02T13:01:02.999Z</time></trkpt><trkpt lat="49.19054300083769" lon="2.4871452184294554"><ele>55.33333333333333</ele><time>2026-05-02T13:01:04.999Z</time></trkpt><trkpt lat="49.19047295762316" lon="2.487247591596684"><ele>56.0</ele><time>2026-05-02T13:01:07.998Z</time></trkpt><trkpt lat="49.19041961270398" lon="2.4873056030295277"><ele>56.666666666666664</ele><time>2026-05-02T13:01:09.998Z</time></trkpt><trkpt lat="49.19038186471904" lon="2.4873961182793076"><ele>57.33333333333333</ele><time>2026-05-02T13:01:11.998Z</time></trkpt><trkpt lat="49.19034249648801" lon="2.48749166966413"><ele>58.0</ele><time>2026-05-02T13:01:13.998Z</time></trkpt><trkpt lat="49.19029106527138" lon="2.4876235457159637"><ele>57.99999999999999</ele><time>2026-05-02T13:01:16.998Z</time></trkpt><trkpt lat="49.190254591023894" lon="2.4877163950323"><ele>58.0</ele><time>2026-05-02T13:01:18.998Z</time></trkpt><trkpt lat="49.19019882523828" lon="2.487842181620071"><ele>58.0</ele><time>2026-05-02T13:01:20.998Z</time></trkpt><trkpt lat="49.19016207457351" lon="2.4879474705800297"><ele>58.0</ele><time>2026-05-02T13:01:22.998Z</time></trkpt><trkpt lat="49.19012604458791" lon="2.4880623754521114"><ele>57.99999999999999</ele><time>2026-05-02T13:01:24.998Z</time></trkpt><trkpt lat="49.190067209265194" lon="2.488183161942113"><ele>58.0</ele><time>2026-05-02T13:01:26.998Z</time></trkpt><trkpt lat="49.190034109585504" lon="2.4883045420663192"><ele>57.5</ele><time>2026-05-02T13:01:28.998Z</time></trkpt><trkpt lat="49.18999324816368" lon="2.48845226859429"><ele>57.0</ele><time>2026-05-02T13:01:30.998Z</time></trkpt><trkpt lat="49.18992986783365" lon="2.4886152778152213"><ele>56.5</ele><time>2026-05-02T13:01:32.998Z</time></trkpt><trkpt lat="49.19003006935934" lon="2.4888621639833852"><ele>56.0</ele><time>2026-05-02T13:01:33.998Z</time></trkpt><trkpt lat="49.18999031001299" lon="2.488946900045994"><ele>55.333333333333336</ele><time>2026-05-02T13:01:34.998Z</time></trkpt><trkpt lat="49.18994626706046" lon="2.4890456650682773"><ele>54.66666666666667</ele><time>2026-05-02T13:01:35.998Z</time></trkpt><trkpt lat="49.18989940459858" lon="2.489150752868942"><ele>54.0</ele><time>2026-05-02T13:01:36.998Z</time></trkpt><trkpt lat="49.189854610323486" lon="2.489253120341096"><ele>53.33333333333333</ele><time>2026-05-02T13:01:37.998Z</time></trkpt><trkpt lat="49.18980859999991" lon="2.489361539535213"><ele>52.666666666666664</ele><time>2026-05-02T13:01:38.997Z</time></trkpt><trkpt lat="49.18976525093455" lon="2.489468685668285"><ele>52.0</ele><time>2026-05-02T13:01:39.997Z</time></trkpt><trkpt lat="49.189724908741354" lon="2.4895760336552777"><ele>52.49999999999999</ele><time>2026-05-02T13:01:40.997Z</time></trkpt><trkpt lat="49.189686500354995" lon="2.489684352102529"><ele>53.0</ele><time>2026-05-02T13:01:41.997Z</time></trkpt><trkpt lat="49.18964796162946" lon="2.4897971254271236"><ele>53.5</ele><time>2026-05-02T13:01:42.997Z</time></trkpt><trkpt lat="49.18962531695126" lon="2.48989171223863"><ele>54.0</ele><time>2026-05-02T13:01:43.997Z</time></trkpt><trkpt lat="49.18959868903267" lon="2.4900583071467497"><ele>54.49999999999999</ele><time>2026-05-02T13:01:45.997Z</time></trkpt><trkpt lat="49.18960332856795" lon="2.490157518250503"><ele>55.0</ele><time>2026-05-02T13:01:47.997Z</time></trkpt><trkpt lat="49.18962769936303" lon="2.4902771563963526"><ele>54.99999999999999</ele><time>2026-05-02T13:01:52.997Z</time></trkpt><trkpt lat="49.18965060189732" lon="2.4904008559890283"><ele>55.0</ele><time>2026-05-02T13:01:57.997Z</time></trkpt><trkpt lat="49.189674027900274" lon="2.4904926642379177"><ele>55.0</ele><time>2026-05-02T13:02:01.997Z</time></trkpt><trkpt lat="49.18970826193735" lon="2.490613396225231"><ele>55.0</ele><time>2026-05-02T13:02:05.997Z</time></trkpt><trkpt lat="49.189738364974325" lon="2.490722884434287"><ele>54.99999999999999</ele><time>2026-05-02T13:02:08.997Z</time></trkpt><trkpt lat="49.18978295059255" lon="2.490878053251503"><ele>55.0</ele><time>2026-05-02T13:02:12Z</time></trkpt><trkpt lat="49.189811244913024" lon="2.4910099687323073"><ele>55.166666666666664</ele><time>2026-05-02T13:02:14Z</time></trkpt><trkpt lat="49.189835712342955" lon="2.491202247829342"><ele>55.33333333333333</ele><time>2026-05-02T13:02:16Z</time></trkpt><trkpt lat="49.189847360117035" lon="2.49134069040273"><ele>55.5</ele><time>2026-05-02T13:02:19Z</time></trkpt><trkpt lat="49.189855156419455" lon="2.491447746637823"><ele>55.66666666666667</ele><time>2026-05-02T13:02:21Z</time></trkpt><trkpt lat="49.18986339596404" lon="2.491560013774079"><ele>55.833333333333336</ele><time>2026-05-02T13:02:24Z</time></trkpt><trkpt lat="49.189871618251786" lon="2.491672045680292"><ele>56.0</ele><time>2026-05-02T13:02:27Z</time></trkpt><trkpt lat="49.18987992714465" lon="2.4917852582896693"><ele>56.285714285714285</ele><time>2026-05-02T13:02:30Z</time></trkpt><trkpt lat="49.18989001547837" lon="2.4918974065501907"><ele>56.57142857142857</ele><time>2026-05-02T13:02:34Z</time></trkpt><trkpt lat="49.18989942042159" lon="2.4920050814040353"><ele>56.85714285714286</ele><time>2026-05-02T13:02:37Z</time></trkpt><trkpt lat="49.189910888601936" lon="2.4921363776702568"><ele>57.142857142857146</ele><time>2026-05-02T13:02:39.999Z</time></trkpt><trkpt lat="49.18991939487907" lon="2.4922337639098084"><ele>57.42857142857143</ele><time>2026-05-02T13:02:41.999Z</time></trkpt><trkpt lat="49.189928152901345" lon="2.4923340322250427"><ele>57.71428571428572</ele><time>2026-05-02T13:02:43.999Z</time></trkpt><trkpt lat="49.18993891275016" lon="2.492457219078776"><ele>58.00000000000001</ele><time>2026-05-02T13:02:45.999Z</time></trkpt><trkpt lat="49.1899481708649" lon="2.4925632127577075"><ele>57.99999999999999</ele><time>2026-05-02T13:02:47.999Z</time></trkpt><trkpt lat="49.18995905917699" lon="2.4926878703204447"><ele>58.0</ele><time>2026-05-02T13:02:49.999Z</time></trkpt><trkpt lat="49.189968958171725" lon="2.4928012013600416"><ele>58.0</ele><time>2026-05-02T13:02:51.999Z</time></trkpt><trkpt lat="49.18997919648579" lon="2.492913043496046"><ele>58.0</ele><time>2026-05-02T13:02:53.999Z</time></trkpt><trkpt lat="49.18999078839474" lon="2.4930337097064474"><ele>57.99999999999999</ele><time>2026-05-02T13:02:55.999Z</time></trkpt><trkpt lat="49.19000191087099" lon="2.493144396138589"><ele>58.0</ele><time>2026-05-02T13:02:57.999Z</time></trkpt><trkpt lat="49.18943111426436" lon="2.4934051111217777"><ele>58.166666666666664</ele><time>2026-05-02T13:02:59.999Z</time></trkpt><trkpt lat="49.18942539275119" lon="2.493531458806289"><ele>58.33333333333333</ele><time>2026-05-02T13:03:01.999Z</time></trkpt><trkpt lat="49.1894694397831" lon="2.493641198339209"><ele>58.5</ele><time>2026-05-02T13:03:03.999Z</time></trkpt><trkpt lat="49.18950909201625" lon="2.4937519243163724"><ele>58.66666666666667</ele><time>2026-05-02T13:03:05.999Z</time></trkpt><trkpt lat="49.189519888165485" lon="2.4938737434500453"><ele>58.833333333333336</ele><time>2026-05-02T13:03:07.999Z</time></trkpt><trkpt lat="49.1895308099873" lon="2.4939835713668064"><ele>59.0</ele><time>2026-05-02T13:03:09.999Z</time></trkpt><trkpt lat="49.1895389991251" lon="2.4941130294160168"><ele>59.16666666666667</ele><time>2026-05-02T13:03:11.999Z</time></trkpt><trkpt lat="49.18954079996622" lon="2.4942487394983104"><ele>59.333333333333336</ele><time>2026-05-02T13:03:13.998Z</time></trkpt><trkpt lat="49.18953171673799" lon="2.494379903230809"><ele>59.5</ele><time>2026-05-02T13:03:15.998Z</time></trkpt><trkpt lat="49.189521999866514" lon="2.4945223111472776"><ele>59.66666666666667</ele><time>2026-05-02T13:03:17.998Z</time></trkpt><trkpt lat="49.18951765692995" lon="2.494652637204267"><ele>59.833333333333336</ele><time>2026-05-02T13:03:19.998Z</time></trkpt><trkpt lat="49.18950603884425" lon="2.494783689402895"><ele>60.0</ele><time>2026-05-02T13:03:21.998Z</time></trkpt><trkpt lat="49.18950102757271" lon="2.494901804692433"><ele>60.0</ele><time>2026-05-02T13:03:23.998Z</time></trkpt><trkpt lat="49.189492036834224" lon="2.4950192016257753"><ele>60.0</ele><time>2026-05-02T13:03:25.998Z</time></trkpt><trkpt lat="49.18947782481242" lon="2.495151061518411"><ele>60.0</ele><time>2026-05-02T13:03:27.998Z</time></trkpt><trkpt lat="49.18946728563094" lon="2.4952878324283465"><ele>60.0</ele><time>2026-05-02T13:03:29.998Z</time></trkpt><trkpt lat="49.18945824656067" lon="2.4954191809344732"><ele>60.0</ele><time>2026-05-02T13:03:31.998Z</time></trkpt><trkpt lat="49.189460211962405" lon="2.4955604300886365"><ele>60.0</ele><time>2026-05-02T13:03:33.998Z</time></trkpt><trkpt lat="49.189451351024466" lon="2.495690247579294"><ele>60.0</ele><time>2026-05-02T13:03:35.998Z</time></trkpt><trkpt lat="49.189442598064566" lon="2.495821730479865"><ele>60.0</ele><time>2026-05-02T13:03:37.998Z</time></trkpt><trkpt lat="49.189435619102035" lon="2.4959572091955753"><ele>60.0</ele><time>2026-05-02T13:03:39.998Z</time></trkpt><trkpt lat="49.18942258389625" lon="2.4960969181760904"><ele>60.0</ele><time>2026-05-02T13:03:41.998Z</time></trkpt><trkpt lat="49.18942237509292" lon="2.4962332543984838"><ele>60.0</ele><time>2026-05-02T13:03:43.998Z</time></trkpt><trkpt lat="49.18940727077548" lon="2.496367984063681"><ele>60.0</ele><time>2026-05-02T13:03:45.997Z</time></trkpt><trkpt lat="49.18939884324223" lon="2.496505284492753"><ele>60.142857142857146</ele><time>2026-05-02T13:03:47.997Z</time></trkpt><trkpt lat="49.189387881118975" lon="2.4966321779702576"><ele>60.28571428571428</ele><time>2026-05-02T13:03:49.997Z</time></trkpt><trkpt lat="49.1893809509632" lon="2.496747240200567"><ele>60.42857142857142</ele><time>2026-05-02T13:03:51.997Z</time></trkpt><trkpt lat="49.18937723988114" lon="2.496858003023861"><ele>60.57142857142857</ele><time>2026-05-02T13:03:53.997Z</time></trkpt><trkpt lat="49.18937300907261" lon="2.4969654999299093"><ele>60.71428571428571</ele><time>2026-05-02T13:03:55.997Z</time></trkpt><trkpt lat="49.18936896781338" lon="2.497076774610667"><ele>60.85714285714285</ele><time>2026-05-02T13:03:57.997Z</time></trkpt><trkpt lat="49.189367080083294" lon="2.4971807102951913"><ele>60.99999999999999</ele><time>2026-05-02T13:03:59.997Z</time></trkpt><trkpt lat="49.189364870116876" lon="2.497279285653892"><ele>61.166666666666664</ele><time>2026-05-02T13:04:01.997Z</time></trkpt><trkpt lat="49.1893531169926" lon="2.4973744022981768"><ele>61.33333333333333</ele><time>2026-05-02T13:04:03.997Z</time></trkpt><trkpt lat="49.18934993629959" lon="2.497477373661892"><ele>61.5</ele><time>2026-05-02T13:04:05.997Z</time></trkpt><trkpt lat="49.18935108434449" lon="2.4976079777307914"><ele>61.66666666666667</ele><time>2026-05-02T13:04:07.997Z</time></trkpt><trkpt lat="49.18937262819874" lon="2.4977313396672716"><ele>61.833333333333336</ele><time>2026-05-02T13:04:09.997Z</time></trkpt><trkpt lat="49.189402347438026" lon="2.4978411877341613"><ele>62.0</ele><time>2026-05-02T13:04:11.997Z</time></trkpt><trkpt lat="49.189431517538836" lon="2.497970188328225"><ele>62.00000000000001</ele><time>2026-05-02T13:04:13.997Z</time></trkpt><trkpt lat="49.189456697476615" lon="2.498100568093999"><ele>62.0</ele><time>2026-05-02T13:04:15.997Z</time></trkpt><trkpt lat="49.189484825129874" lon="2.4982260451341163"><ele>62.0</ele><time>2026-05-02T13:04:18Z</time></trkpt><trkpt lat="49.18951881105929" lon="2.4983605839091196"><ele>62.0</ele><time>2026-05-02T13:04:20Z</time></trkpt><trkpt lat="49.18954687975763" lon="2.4984841167487213"><ele>62.00000000000001</ele><time>2026-05-02T13:04:22Z</time></trkpt><trkpt lat="49.18956968636517" lon="2.498609952358518"><ele>62.0</ele><time>2026-05-02T13:04:24Z</time></trkpt><trkpt lat="49.18959446131478" lon="2.498735501956113"><ele>61.833333333333336</ele><time>2026-05-02T13:04:26Z</time></trkpt><trkpt lat="49.189623675669075" lon="2.4988631431578128"><ele>61.66666666666667</ele><time>2026-05-02T13:04:28Z</time></trkpt><trkpt lat="49.18965113445424" lon="2.4989875788625158"><ele>61.5</ele><time>2026-05-02T13:04:30Z</time></trkpt><trkpt lat="49.189675371921126" lon="2.499105153400632"><ele>61.33333333333333</ele><time>2026-05-02T13:04:32Z</time></trkpt><trkpt lat="49.189699298407334" lon="2.4992338186700396"><ele>61.166666666666664</ele><time>2026-05-02T13:04:34Z</time></trkpt><trkpt lat="49.18972367923084" lon="2.499362667958433"><ele>61.0</ele><time>2026-05-02T13:04:36Z</time></trkpt><trkpt lat="49.189751481579556" lon="2.499497300959012"><ele>61.0</ele><time>2026-05-02T13:04:38Z</time></trkpt><trkpt lat="49.189781710084816" lon="2.4996375084302813"><ele>60.99999999999999</ele><time>2026-05-02T13:04:40Z</time></trkpt><trkpt lat="49.189812398423165" lon="2.4997752042552497"><ele>60.99999999999999</ele><time>2026-05-02T13:04:42Z</time></trkpt><trkpt lat="49.18984362154823" lon="2.499912123452712"><ele>61.0</ele><time>2026-05-02T13:04:44Z</time></trkpt><trkpt lat="49.189875975162835" lon="2.5000469701952523"><ele>61.0</ele><time>2026-05-02T13:04:45.999Z</time></trkpt><trkpt lat="49.1899009525678" lon="2.500183614274506"><ele>61.33333333333333</ele><time>2026-05-02T13:04:47.999Z</time></trkpt><trkpt lat="49.189934968024644" lon="2.5003179523978822"><ele>61.666666666666664</ele><time>2026-05-02T13:04:49.999Z</time></trkpt><trkpt lat="49.18996592982155" lon="2.500448803422737"><ele>62.0</ele><time>2026-05-02T13:04:51.999Z</time></trkpt><trkpt lat="49.189991954648335" lon="2.5005691374834487"><ele>62.33333333333333</ele><time>2026-05-02T13:04:53.999Z</time></trkpt><trkpt lat="49.19000805689496" lon="2.500690310014633"><ele>62.666666666666664</ele><time>2026-05-02T13:04:55.999Z</time></trkpt><trkpt lat="49.19002385228603" lon="2.500804691139022"><ele>63.0</ele><time>2026-05-02T13:04:57.999Z</time></trkpt><trkpt lat="49.19005576121212" lon="2.5009207819284622"><ele>63.166666666666664</ele><time>2026-05-02T13:04:59.999Z</time></trkpt><trkpt lat="49.19008985865129" lon="2.5010386057438683"><ele>63.33333333333333</ele><time>2026-05-02T13:05:01.999Z</time></trkpt><trkpt lat="49.19011622194046" lon="2.501165452637977"><ele>63.5</ele><time>2026-05-02T13:05:03.999Z</time></trkpt><trkpt lat="49.190135348768145" lon="2.5012950818229203"><ele>63.666666666666664</ele><time>2026-05-02T13:05:05.999Z</time></trkpt><trkpt lat="49.190166776226725" lon="2.501436588096881"><ele>63.83333333333333</ele><time>2026-05-02T13:05:07.999Z</time></trkpt><trkpt lat="49.19020747433081" lon="2.501557776372161"><ele>64.0</ele><time>2026-05-02T13:05:09.999Z</time></trkpt><trkpt lat="49.19022167095243" lon="2.5016813052507807"><ele>64.0</ele><time>2026-05-02T13:05:11.999Z</time></trkpt><trkpt lat="49.19025655650175" lon="2.501814804700618"><ele>64.0</ele><time>2026-05-02T13:05:13.999Z</time></trkpt><trkpt lat="49.19029012851218" lon="2.5019503822972218"><ele>64.0</ele><time>2026-05-02T13:05:15.999Z</time></trkpt><trkpt lat="49.190318568732565" lon="2.502072946210375"><ele>64.0</ele><time>2026-05-02T13:05:17.999Z</time></trkpt><trkpt lat="49.190347024504305" lon="2.502204830158757"><ele>64.0</ele><time>2026-05-02T13:05:19.998Z</time></trkpt><trkpt lat="49.190375140738844" lon="2.5023347925919137"><ele>63.6</ele><time>2026-05-02T13:05:21.998Z</time></trkpt><trkpt lat="49.19040129272248" lon="2.5024656108696814"><ele>63.2</ele><time>2026-05-02T13:05:23.998Z</time></trkpt><trkpt lat="49.190429505475834" lon="2.502601933148305"><ele>62.800000000000004</ele><time>2026-05-02T13:05:25.998Z</time></trkpt><trkpt lat="49.1904576522434" lon="2.502752550373095"><ele>62.400000000000006</ele><time>2026-05-02T13:05:27.998Z</time></trkpt><trkpt lat="49.19049209330809" lon="2.502909994060233"><ele>62.0</ele><time>2026-05-02T13:05:29.998Z</time></trkpt><trkpt lat="49.19052264129066" lon="2.5030495081152955"><ele>61.8</ele><time>2026-05-02T13:05:31.998Z</time></trkpt><trkpt lat="49.190555712502224" lon="2.5031921956856524"><ele>61.6</ele><time>2026-05-02T13:05:33.998Z</time></trkpt><trkpt lat="49.19059006497975" lon="2.503335588876995"><ele>61.39999999999999</ele><time>2026-05-02T13:05:35.998Z</time></trkpt><trkpt lat="49.190643179833415" lon="2.50347138225314"><ele>61.199999999999996</ele><time>2026-05-02T13:05:37.998Z</time></trkpt><trkpt lat="49.19070601546977" lon="2.5035919072070385"><ele>61.0</ele><time>2026-05-02T13:05:39.998Z</time></trkpt><trkpt lat="49.19075960068118" lon="2.5037191996986947"><ele>60.8</ele><time>2026-05-02T13:05:41.998Z</time></trkpt><trkpt lat="49.19081733988017" lon="2.5038437602550894"><ele>60.599999999999994</ele><time>2026-05-02T13:05:43.998Z</time></trkpt><trkpt lat="49.190870088045266" lon="2.5039819165367554"><ele>60.4</ele><time>2026-05-02T13:05:45.998Z</time></trkpt><trkpt lat="49.190921026871735" lon="2.504118446442373"><ele>60.2</ele><time>2026-05-02T13:05:47.998Z</time></trkpt><trkpt lat="49.19098713204178" lon="2.504266000531859"><ele>60.0</ele><time>2026-05-02T13:05:49.998Z</time></trkpt><trkpt lat="49.19104945708415" lon="2.5044185560741035"><ele>60.0</ele><time>2026-05-02T13:05:51.998Z</time></trkpt><trkpt lat="49.1911163416472" lon="2.5045785346320004"><ele>60.0</ele><time>2026-05-02T13:05:53.997Z</time></trkpt><trkpt lat="49.19118170634331" lon="2.5047308245250415"><ele>60.0</ele><time>2026-05-02T13:05:55.997Z</time></trkpt><trkpt lat="49.191246500028306" lon="2.504902534431662"><ele>60.0</ele><time>2026-05-02T13:05:57.997Z</time></trkpt><trkpt lat="49.19131546380111" lon="2.5050611557771094"><ele>60.166666666666664</ele><time>2026-05-02T13:05:59.997Z</time></trkpt><trkpt lat="49.191348972209255" lon="2.5051492463926066"><ele>60.33333333333333</ele><time>2026-05-02T13:06:00.997Z</time></trkpt><trkpt lat="49.191382670147334" lon="2.5052364821744995"><ele>60.5</ele><time>2026-05-02T13:06:01.997Z</time></trkpt><trkpt lat="49.19142486413352" lon="2.505315327921015"><ele>60.666666666666664</ele><time>2026-05-02T13:06:02.997Z</time></trkpt><trkpt lat="49.19149166752946" lon="2.505465837192274"><ele>60.83333333333333</ele><time>2026-05-02T13:06:04.997Z</time></trkpt><trkpt lat="49.1915291173317" lon="2.505565037222033"><ele>61.0</ele><time>2026-05-02T13:06:05.997Z</time></trkpt><trkpt lat="49.191598684233284" lon="2.5057327728795222"><ele>60.49999999999999</ele><time>2026-05-02T13:06:07.997Z</time></trkpt><trkpt lat="49.19167097250014" lon="2.5058966832600884"><ele>60.0</ele><time>2026-05-02T13:06:09.997Z</time></trkpt><trkpt lat="49.19170629570374" lon="2.505980365889898"><ele>59.5</ele><time>2026-05-02T13:06:10.997Z</time></trkpt><trkpt lat="49.191747899303934" lon="2.50606042761101"><ele>59.0</ele><time>2026-05-02T13:06:11.997Z</time></trkpt><trkpt lat="49.191782092023296" lon="2.5061423337891733"><ele>58.49999999999999</ele><time>2026-05-02T13:06:12.997Z</time></trkpt><trkpt lat="49.19181651708212" lon="2.5062240423176383"><ele>58.0</ele><time>2026-05-02T13:06:13.997Z</time></trkpt><trkpt lat="49.191881692062715" lon="2.506375561384859"><ele>57.599999999999994</ele><time>2026-05-02T13:06:15.997Z</time></trkpt><trkpt lat="49.191946089253605" lon="2.5065252494330457"><ele>57.199999999999996</ele><time>2026-05-02T13:06:17.997Z</time></trkpt><trkpt lat="49.19199843757952" lon="2.5066554711731124"><ele>56.8</ele><time>2026-05-02T13:06:19.997Z</time></trkpt><trkpt lat="49.19206575073804" lon="2.50678248049331"><ele>56.4</ele><time>2026-05-02T13:06:21.997Z</time></trkpt><trkpt lat="49.19210842068302" lon="2.50689383699428"><ele>56.0</ele><time>2026-05-02T13:06:24Z</time></trkpt><trkpt lat="49.19206316124856" lon="2.5070173825203903"><ele>55.0</ele><time>2026-05-02T13:06:26Z</time></trkpt><trkpt lat="49.192051212521214" lon="2.507134142653815"><ele>54.0</ele><time>2026-05-02T13:06:28Z</time></trkpt><trkpt lat="49.19203906893396" lon="2.5072528103697067"><ele>53.0</ele><time>2026-05-02T13:06:30Z</time></trkpt><trkpt lat="49.19224047942289" lon="2.5075247986459703"><ele>52.0</ele><time>2026-05-02T13:06:34Z</time></trkpt><trkpt lat="49.192293882115145" lon="2.50761188119359"><ele>51.400000000000006</ele><time>2026-05-02T13:06:36Z</time></trkpt><trkpt lat="49.192375005601214" lon="2.5076875408410904"><ele>50.800000000000004</ele><time>2026-05-02T13:06:38Z</time></trkpt><trkpt lat="49.192446329678994" lon="2.5077831230683336"><ele>50.2</ele><time>2026-05-02T13:06:40Z</time></trkpt><trkpt lat="49.19251534432344" lon="2.5078754854291314"><ele>49.6</ele><time>2026-05-02T13:06:42Z</time></trkpt><trkpt lat="49.19258187159158" lon="2.507958132922707"><ele>49.0</ele><time>2026-05-02T13:06:44Z</time></trkpt><trkpt lat="49.192646104782476" lon="2.508048881181103"><ele>48.99999999999999</ele><time>2026-05-02T13:06:46Z</time></trkpt><trkpt lat="49.19270454291133" lon="2.5081192893617694"><ele>49.0</ele><time>2026-05-02T13:06:48Z</time></trkpt><trkpt lat="49.19274784240656" lon="2.508209791433734"><ele>49.0</ele><time>2026-05-02T13:06:50Z</time></trkpt><trkpt lat="49.19281949983339" lon="2.5082543456346555"><ele>49.0</ele><time>2026-05-02T13:06:52.999Z</time></trkpt><trkpt lat="49.1928894996089" lon="2.508340901362804"><ele>48.99999999999999</ele><time>2026-05-02T13:06:54.999Z</time></trkpt><trkpt lat="49.19296372106299" lon="2.508419402648647"><ele>49.0</ele><time>2026-05-02T13:06:56.999Z</time></trkpt><trkpt lat="49.19303364201006" lon="2.5084955743376804"><ele>48.99999999999999</ele><time>2026-05-02T13:06:58.999Z</time></trkpt><trkpt lat="49.19310213202214" lon="2.508566093815233"><ele>49.0</ele><time>2026-05-02T13:07:00.999Z</time></trkpt><trkpt lat="49.193162970432006" lon="2.5086489372815386"><ele>49.0</ele><time>2026-05-02T13:07:02.999Z</time></trkpt><trkpt lat="49.19322264421523" lon="2.5087280323681767"><ele>49.0</ele><time>2026-05-02T13:07:04.999Z</time></trkpt><trkpt lat="49.19328892523122" lon="2.5088047170295003"><ele>48.99999999999999</ele><time>2026-05-02T13:07:06.999Z</time></trkpt><trkpt lat="49.193348832107446" lon="2.5088793666373594"><ele>49.0</ele><time>2026-05-02T13:07:08.999Z</time></trkpt><trkpt lat="49.19341545673054" lon="2.5089507683675256"><ele>49.166666666666664</ele><time>2026-05-02T13:07:10.999Z</time></trkpt><trkpt lat="49.19346112726253" lon="2.509053112860821"><ele>49.33333333333333</ele><time>2026-05-02T13:07:12.999Z</time></trkpt><trkpt lat="49.19352565268138" lon="2.5091314844446706"><ele>49.5</ele><time>2026-05-02T13:07:14.999Z</time></trkpt><trkpt lat="49.1935571532776" lon="2.5092497441690984"><ele>49.66666666666667</ele><time>2026-05-02T13:07:16.999Z</time></trkpt><trkpt lat="49.19360377294949" lon="2.5093592933972024"><ele>49.833333333333336</ele><time>2026-05-02T13:07:18.999Z</time></trkpt><trkpt lat="49.19364455487356" lon="2.509464570035489"><ele>50.0</ele><time>2026-05-02T13:07:20.999Z</time></trkpt><trkpt lat="49.19368357703791" lon="2.509581853719063"><ele>50.16666666666667</ele><time>2026-05-02T13:07:22.999Z</time></trkpt><trkpt lat="49.19371436670269" lon="2.50969920496785"><ele>50.333333333333336</ele><time>2026-05-02T13:07:24.999Z</time></trkpt><trkpt lat="49.19374062687609" lon="2.5098242419324057"><ele>50.5</ele><time>2026-05-02T13:07:26.998Z</time></trkpt><trkpt lat="49.19376468913277" lon="2.509954521346167"><ele>50.66666666666667</ele><time>2026-05-02T13:07:28.998Z</time></trkpt><trkpt lat="49.193780557115595" lon="2.5100772485708536"><ele>50.833333333333336</ele><time>2026-05-02T13:07:30.998Z</time></trkpt><trkpt lat="49.19379886103959" lon="2.5102058612763973"><ele>51.0</ele><time>2026-05-02T13:07:32.998Z</time></trkpt><trkpt lat="49.193799131295734" lon="2.5103271817713435"><ele>50.833333333333336</ele><time>2026-05-02T13:07:34.998Z</time></trkpt><trkpt lat="49.19379772725853" lon="2.5104606664505957"><ele>50.66666666666667</ele><time>2026-05-02T13:07:36.998Z</time></trkpt><trkpt lat="49.193786653751026" lon="2.510606730027852"><ele>50.5</ele><time>2026-05-02T13:07:39.998Z</time></trkpt><trkpt lat="49.19378596546042" lon="2.510731849556517"><ele>50.333333333333336</ele><time>2026-05-02T13:07:41.998Z</time></trkpt><trkpt lat="49.19378596546049" lon="2.510854975221782"><ele>50.16666666666667</ele><time>2026-05-02T13:07:43.998Z</time></trkpt><trkpt lat="49.19379863117692" lon="2.5109799359867866"><ele>50.0</ele><time>2026-05-02T13:07:45.998Z</time></trkpt><trkpt lat="49.193800365433034" lon="2.511100663345335"><ele>50.00000000000001</ele><time>2026-05-02T13:07:47.998Z</time></trkpt><trkpt lat="49.19379304658197" lon="2.511225852692474"><ele>50.0</ele><time>2026-05-02T13:07:49.998Z</time></trkpt><trkpt lat="49.19379871042079" lon="2.511346143875914"><ele>50.0</ele><time>2026-05-02T13:07:51.998Z</time></trkpt><trkpt lat="49.19380734709525" lon="2.511470846488208"><ele>50.0</ele><time>2026-05-02T13:07:53.998Z</time></trkpt><trkpt lat="49.19381565028003" lon="2.511584316058256"><ele>50.00000000000001</ele><time>2026-05-02T13:07:55.998Z</time></trkpt><trkpt lat="49.193819795250086" lon="2.5117050781796486"><ele>50.0</ele><time>2026-05-02T13:07:57.998Z</time></trkpt><trkpt lat="49.19382137419454" lon="2.5118288877301795"><ele>50.16666666666667</ele><time>2026-05-02T13:07:59.997Z</time></trkpt><trkpt lat="49.19383726599434" lon="2.511960004706892"><ele>50.333333333333336</ele><time>2026-05-02T13:08:01.997Z</time></trkpt><trkpt lat="49.19381978022636" lon="2.5120920212904214"><ele>50.5</ele><time>2026-05-02T13:08:03.997Z</time></trkpt><trkpt lat="49.193819099516425" lon="2.5122256873200235"><ele>50.66666666666667</ele><time>2026-05-02T13:08:05.997Z</time></trkpt><trkpt lat="49.19382213293723" lon="2.512356507372445"><ele>50.833333333333336</ele><time>2026-05-02T13:08:07.997Z</time></trkpt><trkpt lat="49.193825139540586" lon="2.5124729008383206"><ele>51.0</ele><time>2026-05-02T13:08:09.997Z</time></trkpt><trkpt lat="49.1938382801184" lon="2.5125712807772347"><ele>51.0</ele><time>2026-05-02T13:08:11.997Z</time></trkpt><trkpt lat="49.19384681428705" lon="2.5126899387368646"><ele>51.0</ele><time>2026-05-02T13:08:13.997Z</time></trkpt><trkpt lat="49.19384519672074" lon="2.5128008130659714"><ele>51.0</ele><time>2026-05-02T13:08:15.997Z</time></trkpt><trkpt lat="49.1938366688361" lon="2.5129192303752985"><ele>51.0</ele><time>2026-05-02T13:08:18.997Z</time></trkpt><trkpt lat="49.193939813730694" lon="2.512941798513862"><ele>51.0</ele><time>2026-05-02T13:08:22.997Z</time></trkpt><trkpt lat="49.19399934381782" lon="2.512993374204183"><ele>51.0</ele><time>2026-05-02T13:08:24.997Z</time></trkpt><trkpt lat="49.19407395228525" lon="2.5130521941729844"><ele>50.833333333333336</ele><time>2026-05-02T13:08:26.997Z</time></trkpt><trkpt lat="49.19414643961537" lon="2.5131087872826123"><ele>50.66666666666667</ele><time>2026-05-02T13:08:29Z</time></trkpt><trkpt lat="49.19420720482215" lon="2.5131526472781682"><ele>50.5</ele><time>2026-05-02T13:08:31Z</time></trkpt><trkpt lat="49.19419782052009" lon="2.5132657079373164"><ele>50.333333333333336</ele><time>2026-05-02T13:08:32Z</time></trkpt><trkpt lat="49.19419962673477" lon="2.513375191880693"><ele>50.16666666666667</ele><time>2026-05-02T13:08:34Z</time></trkpt><trkpt lat="49.19419590780372" lon="2.513494798252326"><ele>50.0</ele><time>2026-05-02T13:08:36Z</time></trkpt><trkpt lat="49.19418722004149" lon="2.513623733620018"><ele>49.8</ele><time>2026-05-02T13:08:38Z</time></trkpt><trkpt lat="49.19417304897283" lon="2.51376251597416"><ele>49.6</ele><time>2026-05-02T13:08:40Z</time></trkpt><trkpt lat="49.19415562744339" lon="2.5139079458405327"><ele>49.400000000000006</ele><time>2026-05-02T13:08:42Z</time></trkpt><trkpt lat="49.19413368461437" lon="2.5140643962153275"><ele>49.2</ele><time>2026-05-02T13:08:44Z</time></trkpt><trkpt lat="49.19410957346602" lon="2.5142255648672505"><ele>49.0</ele><time>2026-05-02T13:08:46Z</time></trkpt><trkpt lat="49.194084649024774" lon="2.5143916762188976"><ele>49.0</ele><time>2026-05-02T13:08:48Z</time></trkpt><trkpt lat="49.1940579381355" lon="2.514558931390102"><ele>49.0</ele><time>2026-05-02T13:08:50Z</time></trkpt><trkpt lat="49.194042383762614" lon="2.5147262961024937"><ele>49.0</ele><time>2026-05-02T13:08:52Z</time></trkpt><trkpt lat="49.19400487591172" lon="2.5148786567953696"><ele>49.0</ele><time>2026-05-02T13:08:54Z</time></trkpt><trkpt lat="49.193949174353605" lon="2.5150155041831415"><ele>49.0</ele><time>2026-05-02T13:08:56Z</time></trkpt><trkpt lat="49.19384828771061" lon="2.5150578009781226"><ele>49.166666666666664</ele><time>2026-05-02T13:08:57.999Z</time></trkpt><trkpt lat="49.19375605687623" lon="2.5150731314596944"><ele>49.33333333333333</ele><time>2026-05-02T13:08:59.999Z</time></trkpt><trkpt lat="49.19368428041181" lon="2.515135334238191"><ele>49.5</ele><time>2026-05-02T13:09:01.999Z</time></trkpt><trkpt lat="49.19362974238581" lon="2.515216758725174"><ele>49.66666666666667</ele><time>2026-05-02T13:09:03.999Z</time></trkpt><trkpt lat="49.19359077135674" lon="2.5153130047179095"><ele>49.833333333333336</ele><time>2026-05-02T13:09:05.999Z</time></trkpt><trkpt lat="49.19356333684558" lon="2.5154262103331706"><ele>50.0</ele><time>2026-05-02T13:09:07.999Z</time></trkpt><trkpt lat="49.1935367161268" lon="2.515531524072085"><ele>49.66666666666667</ele><time>2026-05-02T13:09:09.999Z</time></trkpt><trkpt lat="49.19350673877213" lon="2.515652465623258"><ele>49.333333333333336</ele><time>2026-05-02T13:09:11.999Z</time></trkpt><trkpt lat="49.193473702606816" lon="2.5157719048075022"><ele>49.0</ele><time>2026-05-02T13:09:13.999Z</time></trkpt><trkpt lat="49.193435060049524" lon="2.5158858504599846"><ele>48.66666666666667</ele><time>2026-05-02T13:09:15.999Z</time></trkpt><trkpt lat="49.1933984009294" lon="2.5160036574051965"><ele>48.333333333333336</ele><time>2026-05-02T13:09:17.999Z</time></trkpt><trkpt lat="49.193359916693566" lon="2.5161331220534042"><ele>48.0</ele><time>2026-05-02T13:09:19.999Z</time></trkpt><trkpt lat="49.193320126685215" lon="2.516264949736793"><ele>48.0</ele><time>2026-05-02T13:09:21.999Z</time></trkpt><trkpt lat="49.19328459429246" lon="2.516384293058739"><ele>48.0</ele><time>2026-05-02T13:09:23.999Z</time></trkpt><trkpt lat="49.193231976055664" lon="2.5164980182560193"><ele>48.0</ele><time>2026-05-02T13:09:25.999Z</time></trkpt><trkpt lat="49.19319236006088" lon="2.5166201327620876"><ele>48.0</ele><time>2026-05-02T13:09:27.999Z</time></trkpt><trkpt lat="49.193151893699884" lon="2.5167396972539393"><ele>48.0</ele><time>2026-05-02T13:09:29.999Z</time></trkpt><trkpt lat="49.19310854536519" lon="2.516867316392082"><ele>48.0</ele><time>2026-05-02T13:09:31.998Z</time></trkpt><trkpt lat="49.19306861460347" lon="2.516993129798129"><ele>48.4</ele><time>2026-05-02T13:09:33.998Z</time></trkpt><trkpt lat="49.19303225763951" lon="2.5171209300774944"><ele>48.8</ele><time>2026-05-02T13:09:35.998Z</time></trkpt><trkpt lat="49.19299721013195" lon="2.5172520717768627"><ele>49.2</ele><time>2026-05-02T13:09:37.998Z</time></trkpt><trkpt lat="49.19296377149049" lon="2.517383142922725"><ele>49.6</ele><time>2026-05-02T13:09:39.998Z</time></trkpt><trkpt lat="49.192931566329925" lon="2.5175214895930043"><ele>50.0</ele><time>2026-05-02T13:09:41.998Z</time></trkpt><trkpt lat="49.19290406157507" lon="2.517647656235142"><ele>50.0</ele><time>2026-05-02T13:09:43.998Z</time></trkpt><trkpt lat="49.192877299155526" lon="2.5177833842151087"><ele>50.0</ele><time>2026-05-02T13:09:45.998Z</time></trkpt><trkpt lat="49.19285182784855" lon="2.5179172197435125"><ele>50.0</ele><time>2026-05-02T13:09:47.998Z</time></trkpt><trkpt lat="49.19282683631297" lon="2.5180566374575606"><ele>50.0</ele><time>2026-05-02T13:09:49.998Z</time></trkpt><trkpt lat="49.192802255506244" lon="2.518193763823921"><ele>50.0</ele><time>2026-05-02T13:09:51.998Z</time></trkpt><trkpt lat="49.192777504506104" lon="2.518331839752943"><ele>49.833333333333336</ele><time>2026-05-02T13:09:53.998Z</time></trkpt><trkpt lat="49.19275378493149" lon="2.5184641615591037"><ele>49.66666666666667</ele><time>2026-05-02T13:09:55.998Z</time></trkpt><trkpt lat="49.19273090533536" lon="2.518591797666099"><ele>49.5</ele><time>2026-05-02T13:09:57.998Z</time></trkpt><trkpt lat="49.19270750462741" lon="2.5187223407754407"><ele>49.33333333333333</ele><time>2026-05-02T13:09:59.998Z</time></trkpt><trkpt lat="49.192683092891215" lon="2.5188585239877024"><ele>49.166666666666664</ele><time>2026-05-02T13:10:01.998Z</time></trkpt><trkpt lat="49.192659955287006" lon="2.5189875994066777"><ele>49.0</ele><time>2026-05-02T13:10:03.998Z</time></trkpt><trkpt lat="49.192635835428426" lon="2.5191221543784073"><ele>49.0</ele><time>2026-05-02T13:10:05.997Z</time></trkpt><trkpt lat="49.19262702144031" lon="2.5192665841088813"><ele>49.0</ele><time>2026-05-02T13:10:07.997Z</time></trkpt><trkpt lat="49.19260112138001" lon="2.5194008543408515"><ele>49.0</ele><time>2026-05-02T13:10:09.997Z</time></trkpt><trkpt lat="49.192556855668805" lon="2.5195407167256736"><ele>49.0</ele><time>2026-05-02T13:10:11.997Z</time></trkpt><trkpt lat="49.192526804835616" lon="2.5196815689543537"><ele>49.0</ele><time>2026-05-02T13:10:13.997Z</time></trkpt><trkpt lat="49.19249714158876" lon="2.5198206045935096"><ele>48.800000000000004</ele><time>2026-05-02T13:10:15.997Z</time></trkpt><trkpt lat="49.19247395482136" lon="2.519962751631493"><ele>48.6</ele><time>2026-05-02T13:10:17.997Z</time></trkpt><trkpt lat="49.19245473000129" lon="2.520108624709638"><ele>48.4</ele><time>2026-05-02T13:10:19.997Z</time></trkpt><trkpt lat="49.192453336577636" lon="2.5202549234130256"><ele>48.2</ele><time>2026-05-02T13:10:21.997Z</time></trkpt><trkpt lat="49.19244101171045" lon="2.5203931707849017"><ele>48.0</ele><time>2026-05-02T13:10:23.997Z</time></trkpt><trkpt lat="49.19242614427449" lon="2.520529672168053"><ele>48.0</ele><time>2026-05-02T13:10:25.997Z</time></trkpt><trkpt lat="49.192410153927575" lon="2.520665626144106"><ele>48.0</ele><time>2026-05-02T13:10:27.997Z</time></trkpt><trkpt lat="49.1923958207869" lon="2.5208073758823586"><ele>48.0</ele><time>2026-05-02T13:10:29.997Z</time></trkpt><trkpt lat="49.19237402352718" lon="2.5209414745947436"><ele>48.0</ele><time>2026-05-02T13:10:31.997Z</time></trkpt><trkpt lat="49.192356514375454" lon="2.5210837942205635"><ele>48.0</ele><time>2026-05-02T13:10:34Z</time></trkpt><trkpt lat="49.19234422487983" lon="2.521234709931523"><ele>48.0</ele><time>2026-05-02T13:10:36Z</time></trkpt><trkpt lat="49.19232742761867" lon="2.5213898728335815"><ele>48.0</ele><time>2026-05-02T13:10:38Z</time></trkpt><trkpt lat="49.19230915153881" lon="2.521543170743806"><ele>48.0</ele><time>2026-05-02T13:10:40Z</time></trkpt><trkpt lat="49.19229292365338" lon="2.5217056889382254"><ele>48.0</ele><time>2026-05-02T13:10:42Z</time></trkpt><trkpt lat="49.192283741254094" lon="2.5218687098280097"><ele>48.0</ele><time>2026-05-02T13:10:44Z</time></trkpt><trkpt lat="49.192274583848494" lon="2.5220294409641504"><ele>48.2</ele><time>2026-05-02T13:10:46Z</time></trkpt><trkpt lat="49.19227355640068" lon="2.5221905764309063"><ele>48.4</ele><time>2026-05-02T13:10:48Z</time></trkpt><trkpt lat="49.19228625427373" lon="2.522349744212679"><ele>48.6</ele><time>2026-05-02T13:10:50Z</time></trkpt><trkpt lat="49.19229996974971" lon="2.522508352011489"><ele>48.800000000000004</ele><time>2026-05-02T13:10:52Z</time></trkpt><trkpt lat="49.19231728965092" lon="2.5226691300445747"><ele>49.0</ele><time>2026-05-02T13:10:54Z</time></trkpt><trkpt lat="49.19233887833477" lon="2.522809170639375"><ele>48.49999999999999</ele><time>2026-05-02T13:10:56Z</time></trkpt><trkpt lat="49.19235502492937" lon="2.522956508270659"><ele>48.0</ele><time>2026-05-02T13:10:58Z</time></trkpt><trkpt lat="49.19237235777201" lon="2.5230954617848096"><ele>47.5</ele><time>2026-05-02T13:11:00Z</time></trkpt><trkpt lat="49.19238962083597" lon="2.5232123073306942"><ele>47.0</ele><time>2026-05-02T13:11:01.999Z</time></trkpt><trkpt lat="49.19240396615399" lon="2.523353622831188"><ele>46.5</ele><time>2026-05-02T13:11:03.999Z</time></trkpt><trkpt lat="49.192418344329525" lon="2.523478785894603"><ele>46.0</ele><time>2026-05-02T13:11:05.999Z</time></trkpt><trkpt lat="49.19243888825255" lon="2.5236092229120226"><ele>46.0</ele><time>2026-05-02T13:11:07.999Z</time></trkpt><trkpt lat="49.192452695247596" lon="2.523748207008252"><ele>46.0</ele><time>2026-05-02T13:11:09.999Z</time></trkpt><trkpt lat="49.19247040608144" lon="2.5238891477743546"><ele>46.0</ele><time>2026-05-02T13:11:11.999Z</time></trkpt><trkpt lat="49.19248910460589" lon="2.5240356540708313"><ele>46.0</ele><time>2026-05-02T13:11:13.999Z</time></trkpt><trkpt lat="49.19249798145995" lon="2.5241770191395343"><ele>46.0</ele><time>2026-05-02T13:11:15.999Z</time></trkpt><trkpt lat="49.1925228008603" lon="2.524333221438776"><ele>46.0</ele><time>2026-05-02T13:11:17.999Z</time></trkpt><trkpt lat="49.19254301568172" lon="2.5244936308348613"><ele>46.0</ele><time>2026-05-02T13:11:19.999Z</time></trkpt><trkpt lat="49.19255648283249" lon="2.5246500580361686"><ele>46.0</ele><time>2026-05-02T13:11:21.999Z</time></trkpt><trkpt lat="49.192574950383474" lon="2.5248013595710477"><ele>46.0</ele><time>2026-05-02T13:11:23.999Z</time></trkpt><trkpt lat="49.192591644947406" lon="2.524948038405292"><ele>46.0</ele><time>2026-05-02T13:11:25.999Z</time></trkpt><trkpt lat="49.192609636255995" lon="2.5250886185493426"><ele>46.16666666666667</ele><time>2026-05-02T13:11:27.999Z</time></trkpt><trkpt lat="49.192627134921345" lon="2.5252246482724123"><ele>46.333333333333336</ele><time>2026-05-02T13:11:29.999Z</time></trkpt><trkpt lat="49.192643586075576" lon="2.5253558881257754"><ele>46.5</ele><time>2026-05-02T13:11:31.999Z</time></trkpt><trkpt lat="49.192659639365594" lon="2.525488221229398"><ele>46.666666666666664</ele><time>2026-05-02T13:11:33.999Z</time></trkpt><trkpt lat="49.192673708881195" lon="2.5256190814596735"><ele>46.83333333333333</ele><time>2026-05-02T13:11:35.998Z</time></trkpt><trkpt lat="49.1926888912339" lon="2.525743054767302"><ele>47.0</ele><time>2026-05-02T13:11:37.998Z</time></trkpt><trkpt lat="49.192704195462596" lon="2.5258536277738926"><ele>47.33333333333333</ele><time>2026-05-02T13:11:39.998Z</time></trkpt><trkpt lat="49.19271755039353" lon="2.5259841440679915"><ele>47.666666666666664</ele><time>2026-05-02T13:11:41.998Z</time></trkpt><trkpt lat="49.1927336880995" lon="2.526107604224955"><ele>48.0</ele><time>2026-05-02T13:11:43.998Z</time></trkpt><trkpt lat="49.19274738755489" lon="2.526229101010917"><ele>48.33333333333333</ele><time>2026-05-02T13:11:45.998Z</time></trkpt><trkpt lat="49.19276496793461" lon="2.526348637541101"><ele>48.666666666666664</ele><time>2026-05-02T13:11:47.998Z</time></trkpt><trkpt lat="49.19278384634764" lon="2.5264754461911023"><ele>49.0</ele><time>2026-05-02T13:11:49.998Z</time></trkpt><trkpt lat="49.19279770490591" lon="2.5265966390023795"><ele>49.33333333333333</ele><time>2026-05-02T13:11:51.998Z</time></trkpt><trkpt lat="49.19280935239965" lon="2.5267165070059043"><ele>49.666666666666664</ele><time>2026-05-02T13:11:53.998Z</time></trkpt><trkpt lat="49.19282220722201" lon="2.5268480093405636"><ele>50.0</ele><time>2026-05-02T13:11:55.998Z</time></trkpt><trkpt lat="49.19283896611715" lon="2.5269696710491685"><ele>50.33333333333333</ele><time>2026-05-02T13:11:57.998Z</time></trkpt><trkpt lat="49.19285530894164" lon="2.5270965756254307"><ele>50.666666666666664</ele><time>2026-05-02T13:11:59.998Z</time></trkpt><trkpt lat="49.192871263823704" lon="2.52723165080461"><ele>51.0</ele><time>2026-05-02T13:12:01.998Z</time></trkpt><trkpt lat="49.19288986818773" lon="2.5273632438364593"><ele>51.199999999999996</ele><time>2026-05-02T13:12:03.998Z</time></trkpt><trkpt lat="49.19290509480785" lon="2.527496599572359"><ele>51.4</ele><time>2026-05-02T13:12:05.998Z</time></trkpt><trkpt lat="49.19292102717791" lon="2.527635211606261"><ele>51.6</ele><time>2026-05-02T13:12:07.998Z</time></trkpt><trkpt lat="49.192939527268884" lon="2.5277713612648283"><ele>51.8</ele><time>2026-05-02T13:12:09.997Z</time></trkpt><trkpt lat="49.19295425794395" lon="2.527910908325702"><ele>52.0</ele><time>2026-05-02T13:12:11.997Z</time></trkpt><trkpt lat="49.192967026686674" lon="2.52804887613283"><ele>52.0</ele><time>2026-05-02T13:12:13.997Z</time></trkpt><trkpt lat="49.192982981520416" lon="2.5281971532627634"><ele>52.0</ele><time>2026-05-02T13:12:15.997Z</time></trkpt><trkpt lat="49.19300071873604" lon="2.528338677550556"><ele>52.0</ele><time>2026-05-02T13:12:17.997Z</time></trkpt><trkpt lat="49.193022250329214" lon="2.5284824383936177"><ele>52.0</ele><time>2026-05-02T13:12:19.997Z</time></trkpt><trkpt lat="49.193042269126" lon="2.5286286677382432"><ele>52.0</ele><time>2026-05-02T13:12:21.997Z</time></trkpt><trkpt lat="49.19306043768156" lon="2.528771264831099"><ele>52.0</ele><time>2026-05-02T13:12:23.997Z</time></trkpt><trkpt lat="49.19308016704804" lon="2.528917222280839"><ele>52.0</ele><time>2026-05-02T13:12:25.997Z</time></trkpt><trkpt lat="49.193099770087294" lon="2.529055376771664"><ele>52.0</ele><time>2026-05-02T13:12:27.997Z</time></trkpt><trkpt lat="49.19312060835279" lon="2.529191937755976"><ele>52.0</ele><time>2026-05-02T13:12:29.997Z</time></trkpt><trkpt lat="49.19314519984186" lon="2.5293231609231728"><ele>52.0</ele><time>2026-05-02T13:12:31.997Z</time></trkpt><trkpt lat="49.19316922345379" lon="2.5294583325127284"><ele>51.99999999999999</ele><time>2026-05-02T13:12:33.997Z</time></trkpt><trkpt lat="49.193193711003325" lon="2.529583163089151"><ele>52.0</ele><time>2026-05-02T13:12:35.997Z</time></trkpt><trkpt lat="49.19321780909624" lon="2.5297102766337813"><ele>52.0</ele><time>2026-05-02T13:12:37.997Z</time></trkpt><trkpt lat="49.1932454742949" lon="2.529837003483539"><ele>52.0</ele><time>2026-05-02T13:12:40Z</time></trkpt><trkpt lat="49.193268861096044" lon="2.5299589117883188"><ele>51.99999999999999</ele><time>2026-05-02T13:12:42Z</time></trkpt><trkpt lat="49.193294374144635" lon="2.530083391931133"><ele>52.0</ele><time>2026-05-02T13:12:44Z</time></trkpt><trkpt lat="49.193323487580344" lon="2.530212774257014"><ele>51.99999999999999</ele><time>2026-05-02T13:12:46Z</time></trkpt><trkpt lat="49.19335051617145" lon="2.5303413583205057"><ele>52.0</ele><time>2026-05-02T13:12:48Z</time></trkpt><trkpt lat="49.193378322275414" lon="2.5304680455992203"><ele>52.0</ele><time>2026-05-02T13:12:50Z</time></trkpt><trkpt lat="49.193408687197625" lon="2.5305970172645265"><ele>52.0</ele><time>2026-05-02T13:12:52Z</time></trkpt><trkpt lat="49.19343804928337" lon="2.5307217378620366"><ele>51.99999999999999</ele><time>2026-05-02T13:12:54Z</time></trkpt><trkpt lat="49.193462909301" lon="2.530845986736257"><ele>52.0</ele><time>2026-05-02T13:12:56Z</time></trkpt><trkpt lat="49.19349008772733" lon="2.530972880936981"><ele>52.0</ele><time>2026-05-02T13:12:58Z</time></trkpt><trkpt lat="49.19352144965795" lon="2.5311008971935096"><ele>52.0</ele><time>2026-05-02T13:13:00Z</time></trkpt><trkpt lat="49.19355018160554" lon="2.531227424295393"><ele>52.0</ele><time>2026-05-02T13:13:02Z</time></trkpt><trkpt lat="49.19358285572191" lon="2.531361387313702"><ele>52.0</ele><time>2026-05-02T13:13:04Z</time></trkpt><trkpt lat="49.19361030361586" lon="2.5314960136620437"><ele>52.0</ele><time>2026-05-02T13:13:05.999Z</time></trkpt><trkpt lat="49.193648628668356" lon="2.531631958488426"><ele>52.400000000000006</ele><time>2026-05-02T13:13:07.999Z</time></trkpt><trkpt lat="49.19369149307622" lon="2.5317630555626103"><ele>52.800000000000004</ele><time>2026-05-02T13:13:09.999Z</time></trkpt><trkpt lat="49.193736701858164" lon="2.5318981569464087"><ele>53.2</ele><time>2026-05-02T13:13:11.999Z</time></trkpt><trkpt lat="49.193778814422934" lon="2.5320251282340904"><ele>53.6</ele><time>2026-05-02T13:13:13.999Z</time></trkpt><trkpt lat="49.193827835866884" lon="2.5321518328326453"><ele>54.0</ele><time>2026-05-02T13:13:15.999Z</time></trkpt><trkpt lat="49.19387810783049" lon="2.5322719774128184"><ele>54.0</ele><time>2026-05-02T13:13:17.999Z</time></trkpt><trkpt lat="49.19391588475105" lon="2.532405592001584"><ele>54.00000000000001</ele><time>2026-05-02T13:13:19.999Z</time></trkpt><trkpt lat="49.19396433414781" lon="2.5325331971168596"><ele>54.00000000000001</ele><time>2026-05-02T13:13:21.999Z</time></trkpt><trkpt lat="49.19401224086397" lon="2.5326647648787906"><ele>54.0</ele><time>2026-05-02T13:13:23.999Z</time></trkpt><trkpt lat="49.19405897066748" lon="2.5328038595345723"><ele>54.0</ele><time>2026-05-02T13:13:25.999Z</time></trkpt><trkpt lat="49.19410465372272" lon="2.5329387481576235"><ele>53.800000000000004</ele><time>2026-05-02T13:13:27.999Z</time></trkpt><trkpt lat="49.194154958191966" lon="2.5330683675799506"><ele>53.60000000000001</ele><time>2026-05-02T13:13:29.999Z</time></trkpt><trkpt lat="49.19419864116524" lon="2.5332177303089134"><ele>53.4</ele><time>2026-05-02T13:13:31.999Z</time></trkpt><trkpt lat="49.19422959881458" lon="2.533375237636927"><ele>53.2</ele><time>2026-05-02T13:13:33.999Z</time></trkpt><trkpt lat="49.194246747099825" lon="2.5335361314074554"><ele>53.0</ele><time>2026-05-02T13:13:35.999Z</time></trkpt><trkpt lat="49.19426087957772" lon="2.533699589567454"><ele>53.0</ele><time>2026-05-02T13:13:37.999Z</time></trkpt><trkpt lat="49.19425075625047" lon="2.5338465762244167"><ele>53.0</ele><time>2026-05-02T13:13:39.998Z</time></trkpt><trkpt lat="49.19424194005232" lon="2.533995788713454"><ele>53.0</ele><time>2026-05-02T13:13:41.998Z</time></trkpt><trkpt lat="49.19423662377866" lon="2.5341548537164584"><ele>53.0</ele><time>2026-05-02T13:13:43.998Z</time></trkpt><trkpt lat="49.194232678570756" lon="2.5342982932944063"><ele>53.0</ele><time>2026-05-02T13:13:45.998Z</time></trkpt><trkpt lat="49.194228102766125" lon="2.534445776343706"><ele>53.333333333333336</ele><time>2026-05-02T13:13:47.998Z</time></trkpt><trkpt lat="49.19421576652719" lon="2.534586180260651"><ele>53.66666666666667</ele><time>2026-05-02T13:13:49.998Z</time></trkpt><trkpt lat="49.19420565943397" lon="2.5347197618439727"><ele>54.0</ele><time>2026-05-02T13:13:51.998Z</time></trkpt><trkpt lat="49.194199114610555" lon="2.534859988868944"><ele>54.33333333333333</ele><time>2026-05-02T13:13:53.998Z</time></trkpt><trkpt lat="49.19418732901127" lon="2.534992144573743"><ele>54.666666666666664</ele><time>2026-05-02T13:13:55.998Z</time></trkpt><trkpt lat="49.19417939051993" lon="2.535120692130784"><ele>55.0</ele><time>2026-05-02T13:13:57.998Z</time></trkpt><trkpt lat="49.19417420624584" lon="2.53525272902315"><ele>54.99999999999999</ele><time>2026-05-02T13:13:59.998Z</time></trkpt><trkpt lat="49.194168692469724" lon="2.5353789460916274"><ele>55.0</ele><time>2026-05-02T13:14:01.998Z</time></trkpt><trkpt lat="49.19416544867581" lon="2.5355013853926383"><ele>55.0</ele><time>2026-05-02T13:14:03.998Z</time></trkpt><trkpt lat="49.194160898226" lon="2.5356233594071003"><ele>55.0</ele><time>2026-05-02T13:14:05.998Z</time></trkpt><trkpt lat="49.194167410237924" lon="2.5357416892724483"><ele>54.99999999999999</ele><time>2026-05-02T13:14:07.998Z</time></trkpt><trkpt lat="49.194173989404725" lon="2.5358636418364733"><ele>55.0</ele><time>2026-05-02T13:14:09.998Z</time></trkpt><trkpt lat="49.194182971835176" lon="2.535978985585091"><ele>54.99999999999999</ele><time>2026-05-02T13:14:11.998Z</time></trkpt><trkpt lat="49.19418325088279" lon="2.5360991248235187"><ele>55.0</ele><time>2026-05-02T13:14:13.997Z</time></trkpt><trkpt lat="49.19418790828403" lon="2.5362237838006907"><ele>55.0</ele><time>2026-05-02T13:14:15.997Z</time></trkpt><trkpt lat="49.19418616293719" lon="2.5363540649518557"><ele>55.0</ele><time>2026-05-02T13:14:17.997Z</time></trkpt><trkpt lat="49.194148038060085" lon="2.5364744425581502"><ele>54.99999999999999</ele><time>2026-05-02T13:14:19.997Z</time></trkpt><trkpt lat="49.19410373038722" lon="2.5365871713689145"><ele>55.0</ele><time>2026-05-02T13:14:21.997Z</time></trkpt><trkpt lat="49.194057878884905" lon="2.5366889601902565"><ele>55.166666666666664</ele><time>2026-05-02T13:14:23.997Z</time></trkpt><trkpt lat="49.193995460265505" lon="2.536771466648183"><ele>55.33333333333333</ele><time>2026-05-02T13:14:25.997Z</time></trkpt><trkpt lat="49.19393102386411" lon="2.5368646162057833"><ele>55.5</ele><time>2026-05-02T13:14:27.997Z</time></trkpt><trkpt lat="49.193878777407534" lon="2.5369573442572118"><ele>55.66666666666667</ele><time>2026-05-02T13:14:29.997Z</time></trkpt><trkpt lat="49.193819190736626" lon="2.537020163247419"><ele>55.833333333333336</ele><time>2026-05-02T13:14:31.997Z</time></trkpt><trkpt lat="49.19377018668584" lon="2.537102683669364"><ele>56.0</ele><time>2026-05-02T13:14:33.997Z</time></trkpt><trkpt lat="49.19374027759031" lon="2.5372035678686307"><ele>56.00000000000001</ele><time>2026-05-02T13:14:35.997Z</time></trkpt><trkpt lat="49.19375390494964" lon="2.537336006747641"><ele>56.0</ele><time>2026-05-02T13:14:37.997Z</time></trkpt><trkpt lat="49.1937550863454" lon="2.5374640627160465"><ele>56.0</ele><time>2026-05-02T13:14:39.997Z</time></trkpt><trkpt lat="49.19378094662696" lon="2.5375905809610275"><ele>56.0</ele><time>2026-05-02T13:14:41.997Z</time></trkpt><trkpt lat="49.19377778937962" lon="2.53772056837603"><ele>56.00000000000001</ele><time>2026-05-02T13:14:43.997Z</time></trkpt><trkpt lat="49.19377228236968" lon="2.537839642447072"><ele>56.0</ele><time>2026-05-02T13:14:46Z</time></trkpt><trkpt lat="49.19376481366897" lon="2.5379770061329223"><ele>55.8</ele><time>2026-05-02T13:14:48Z</time></trkpt><trkpt lat="49.19375877021763" lon="2.538107545270492"><ele>55.599999999999994</ele><time>2026-05-02T13:14:50Z</time></trkpt><trkpt lat="49.1937575534058" lon="2.5382427942460217"><ele>55.4</ele><time>2026-05-02T13:14:52Z</time></trkpt><trkpt lat="49.19376341254078" lon="2.5383852531426094"><ele>55.2</ele><time>2026-05-02T13:14:54Z</time></trkpt><trkpt lat="49.193785407795765" lon="2.5385448500798784"><ele>55.0</ele><time>2026-05-02T13:14:56Z</time></trkpt><trkpt lat="49.193805130635845" lon="2.5387141791685632"><ele>54.6</ele><time>2026-05-02T13:14:58Z</time></trkpt><trkpt lat="49.19381398830334" lon="2.5388126470364902"><ele>54.2</ele><time>2026-05-02T13:14:59Z</time></trkpt><trkpt lat="49.19384615589529" lon="2.5390049967259567"><ele>53.8</ele><time>2026-05-02T13:15:01Z</time></trkpt><trkpt lat="49.19387075898476" lon="2.5391028429987057"><ele>53.4</ele><time>2026-05-02T13:15:02Z</time></trkpt><trkpt lat="49.193895174253015" lon="2.5392012893202156"><ele>53.0</ele><time>2026-05-02T13:15:03Z</time></trkpt><trkpt lat="49.1939458584508" lon="2.5394199847156442"><ele>53.00000000000001</ele><time>2026-05-02T13:15:05Z</time></trkpt><trkpt lat="49.19397422111213" lon="2.5395370094834377"><ele>53.0</ele><time>2026-05-02T13:15:06Z</time></trkpt><trkpt lat="49.194007224248935" lon="2.5396615628023866"><ele>53.0</ele><time>2026-05-02T13:15:07Z</time></trkpt><trkpt lat="49.19403250258271" lon="2.5397802297672634"><ele>53.0</ele><time>2026-05-02T13:15:08Z</time></trkpt><trkpt lat="49.194055300842436" lon="2.5399046011875566"><ele>53.00000000000001</ele><time>2026-05-02T13:15:09Z</time></trkpt><trkpt lat="49.19408006619607" lon="2.5400328040898956"><ele>53.0</ele><time>2026-05-02T13:15:10Z</time></trkpt><trkpt lat="49.19410818626678" lon="2.540151897176248"><ele>52.50000000000001</ele><time>2026-05-02T13:15:11Z</time></trkpt><trkpt lat="49.19413293357444" lon="2.540270422784981"><ele>52.0</ele><time>2026-05-02T13:15:12Z</time></trkpt><trkpt lat="49.19415493874409" lon="2.5403897923145906"><ele>51.5</ele><time>2026-05-02T13:15:12.999Z</time></trkpt><trkpt lat="49.194173722807314" lon="2.5405110073368635"><ele>51.0</ele><time>2026-05-02T13:15:13.999Z</time></trkpt><trkpt lat="49.19417970714068" lon="2.5406430728670664"><ele>50.50000000000001</ele><time>2026-05-02T13:15:14.999Z</time></trkpt><trkpt lat="49.1942051981932" lon="2.5407680510385875"><ele>50.0</ele><time>2026-05-02T13:15:15.999Z</time></trkpt><trkpt lat="49.19423046596636" lon="2.540891934570192"><ele>50.00000000000001</ele><time>2026-05-02T13:15:16.999Z</time></trkpt><trkpt lat="49.19425602238599" lon="2.5410172331496876"><ele>50.0</ele><time>2026-05-02T13:15:17.999Z</time></trkpt><trkpt lat="49.19429232461187" lon="2.5411220173609093"><ele>50.0</ele><time>2026-05-02T13:15:18.999Z</time></trkpt><trkpt lat="49.19430228334978" lon="2.541244151978338"><ele>50.0</ele><time>2026-05-02T13:15:19.999Z</time></trkpt><trkpt lat="49.19432295497167" lon="2.5413454216425397"><ele>50.00000000000001</ele><time>2026-05-02T13:15:20.999Z</time></trkpt><trkpt lat="49.19434921742962" lon="2.5414368417238533"><ele>50.0</ele><time>2026-05-02T13:15:21.999Z</time></trkpt><trkpt lat="49.19439536945278" lon="2.541600061052162"><ele>50.00000000000001</ele><time>2026-05-02T13:15:23.999Z</time></trkpt><trkpt lat="49.19445293402425" lon="2.5417275151569467"><ele>50.0</ele><time>2026-05-02T13:15:25.999Z</time></trkpt><trkpt lat="49.19452117910049" lon="2.541832315812175"><ele>50.0</ele><time>2026-05-02T13:15:27.999Z</time></trkpt><trkpt lat="49.194590845624425" lon="2.541901543236279"><ele>50.0</ele><time>2026-05-02T13:15:29.999Z</time></trkpt><trkpt lat="49.19465394552228" lon="2.5419950445074018"><ele>50.00000000000001</ele><time>2026-05-02T13:15:31.999Z</time></trkpt><trkpt lat="49.194717305311485" lon="2.542065041283894"><ele>50.0</ele><time>2026-05-02T13:15:33.999Z</time></trkpt><trkpt lat="49.19478145805868" lon="2.5421358941491445"><ele>50.714285714285715</ele><time>2026-05-02T13:15:35.999Z</time></trkpt><trkpt lat="49.19484379232648" lon="2.542193514003919"><ele>51.42857142857143</ele><time>2026-05-02T13:15:37.999Z</time></trkpt><trkpt lat="49.19489777923063" lon="2.542252496983473"><ele>52.14285714285714</ele><time>2026-05-02T13:15:39.999Z</time></trkpt><trkpt lat="49.194960417453345" lon="2.542319581731767"><ele>52.85714285714286</ele><time>2026-05-02T13:15:41.999Z</time></trkpt><trkpt lat="49.19501753150075" lon="2.542376640431237"><ele>53.57142857142857</ele><time>2026-05-02T13:15:43.999Z</time></trkpt><trkpt lat="49.195068105364165" lon="2.542468196112023"><ele>54.285714285714285</ele><time>2026-05-02T13:15:45.999Z</time></trkpt><trkpt lat="49.19512195155114" lon="2.5425339892233785"><ele>55.0</ele><time>2026-05-02T13:15:47.998Z</time></trkpt><trkpt lat="49.19516864907661" lon="2.542623951236657"><ele>54.99999999999999</ele><time>2026-05-02T13:15:49.998Z</time></trkpt><trkpt lat="49.1952010591298" lon="2.5427260883401512"><ele>55.0</ele><time>2026-05-02T13:15:51.998Z</time></trkpt><trkpt lat="49.19521107512726" lon="2.5428360012056994"><ele>55.0</ele><time>2026-05-02T13:15:53.998Z</time></trkpt><trkpt lat="49.195222986906174" lon="2.5429450381234426"><ele>55.0</ele><time>2026-05-02T13:15:55.998Z</time></trkpt><trkpt lat="49.19521145623228" lon="2.543051680731087"><ele>55.0</ele><time>2026-05-02T13:15:57.998Z</time></trkpt><trkpt lat="49.19523001991167" lon="2.5431554723580074"><ele>54.99999999999999</ele><time>2026-05-02T13:15:59.998Z</time></trkpt><trkpt lat="49.195217007374374" lon="2.543265175276472"><ele>55.0</ele><time>2026-05-02T13:16:01.998Z</time></trkpt><trkpt lat="49.1952363148645" lon="2.54337838260813"><ele>55.166666666666664</ele><time>2026-05-02T13:16:03.998Z</time></trkpt><trkpt lat="49.195238110938405" lon="2.54349524644733"><ele>55.33333333333333</ele><time>2026-05-02T13:16:05.998Z</time></trkpt><trkpt lat="49.195226272160646" lon="2.5436214949009064"><ele>55.5</ele><time>2026-05-02T13:16:07.998Z</time></trkpt><trkpt lat="49.19524459919841" lon="2.543737253416346"><ele>55.66666666666667</ele><time>2026-05-02T13:16:09.998Z</time></trkpt><trkpt lat="49.195245807649684" lon="2.5438560891728863"><ele>55.833333333333336</ele><time>2026-05-02T13:16:11.998Z</time></trkpt><trkpt lat="49.19524831016199" lon="2.543980792316615"><ele>56.0</ele><time>2026-05-02T13:16:13.998Z</time></trkpt><trkpt lat="49.19525447579709" lon="2.544104029269788"><ele>56.00000000000001</ele><time>2026-05-02T13:16:15.998Z</time></trkpt><trkpt lat="49.19525952389321" lon="2.5442280982538388"><ele>56.0</ele><time>2026-05-02T13:16:17.998Z</time></trkpt><trkpt lat="49.19524903842857" lon="2.5443566795511683"><ele>56.0</ele><time>2026-05-02T13:16:19.998Z</time></trkpt><trkpt lat="49.19526477008931" lon="2.5444810073287454"><ele>56.0</ele><time>2026-05-02T13:16:21.997Z</time></trkpt><trkpt lat="49.19527338819648" lon="2.544618755541785"><ele>56.00000000000001</ele><time>2026-05-02T13:16:23.997Z</time></trkpt><trkpt lat="49.19526297349714" lon="2.5447570915304687"><ele>56.0</ele><time>2026-05-02T13:16:25.997Z</time></trkpt><trkpt lat="49.19528324128218" lon="2.5448910640954794"><ele>55.833333333333336</ele><time>2026-05-02T13:16:27.997Z</time></trkpt><trkpt lat="49.195282678570344" lon="2.5450141410924596"><ele>55.66666666666667</ele><time>2026-05-02T13:16:29.997Z</time></trkpt><trkpt lat="49.1952910381033" lon="2.5451381231822268"><ele>55.5</ele><time>2026-05-02T13:16:31.997Z</time></trkpt><trkpt lat="49.19529092783719" lon="2.5452749211118255"><ele>55.33333333333333</ele><time>2026-05-02T13:16:33.997Z</time></trkpt><trkpt lat="49.195290948246445" lon="2.5454125957877802"><ele>55.166666666666664</ele><time>2026-05-02T13:16:35.997Z</time></trkpt><trkpt lat="49.195296710942735" lon="2.5455502359175504"><ele>55.0</ele><time>2026-05-02T13:16:37.997Z</time></trkpt><trkpt lat="49.195295954303084" lon="2.5456893990942504"><ele>54.99999999999999</ele><time>2026-05-02T13:16:39.997Z</time></trkpt><trkpt lat="49.195297743113436" lon="2.5458239485327208"><ele>55.0</ele><time>2026-05-02T13:16:41.997Z</time></trkpt><trkpt lat="49.19529802457009" lon="2.5459674330372257"><ele>55.0</ele><time>2026-05-02T13:16:43.997Z</time></trkpt><trkpt lat="49.19530633759362" lon="2.546102848302165"><ele>55.0</ele><time>2026-05-02T13:16:45.997Z</time></trkpt><trkpt lat="49.19530818105387" lon="2.5462350895471983"><ele>54.99999999999999</ele><time>2026-05-02T13:16:47.997Z</time></trkpt><trkpt lat="49.19531194760438" lon="2.546375216439206"><ele>55.0</ele><time>2026-05-02T13:16:49.997Z</time></trkpt><trkpt lat="49.19531888156111" lon="2.5465156043797923"><ele>55.4</ele><time>2026-05-02T13:16:52Z</time></trkpt><trkpt lat="49.19531989384923" lon="2.546651270806687"><ele>55.8</ele><time>2026-05-02T13:16:54Z</time></trkpt><trkpt lat="49.19532296320236" lon="2.546791213484789"><ele>56.2</ele><time>2026-05-02T13:16:56Z</time></trkpt><trkpt lat="49.195323815776206" lon="2.5469262171280285"><ele>56.6</ele><time>2026-05-02T13:16:58Z</time></trkpt><trkpt lat="49.19533162918665" lon="2.547071771661903"><ele>57.0</ele><time>2026-05-02T13:17:00Z</time></trkpt><trkpt lat="49.195334010727976" lon="2.547209158768754"><ele>57.0</ele><time>2026-05-02T13:17:02Z</time></trkpt><trkpt lat="49.195341454376894" lon="2.5473441686384763"><ele>57.0</ele><time>2026-05-02T13:17:04Z</time></trkpt><trkpt lat="49.19534536210145" lon="2.5474865795052666"><ele>57.0</ele><time>2026-05-02T13:17:06Z</time></trkpt><trkpt lat="49.19535202485365" lon="2.547620544371407"><ele>57.0</ele><time>2026-05-02T13:17:08Z</time></trkpt><trkpt lat="49.19535727645814" lon="2.5477646055664267"><ele>57.0</ele><time>2026-05-02T13:17:10Z</time></trkpt><trkpt lat="49.19536378402582" lon="2.5479087835299286"><ele>56.6</ele><time>2026-05-02T13:17:12Z</time></trkpt><trkpt lat="49.19536964612699" lon="2.5480501106465017"><ele>56.2</ele><time>2026-05-02T13:17:14Z</time></trkpt><trkpt lat="49.19537637591392" lon="2.5481965279583574"><ele>55.8</ele><time>2026-05-02T13:17:16Z</time></trkpt><trkpt lat="49.195385357008604" lon="2.548338138323228"><ele>55.4</ele><time>2026-05-02T13:17:18Z</time></trkpt><trkpt lat="49.19539035710242" lon="2.548484867891199"><ele>55.0</ele><time>2026-05-02T13:17:19.999Z</time></trkpt><trkpt lat="49.195393425077235" lon="2.5486349952798473"><ele>55.2</ele><time>2026-05-02T13:17:21.999Z</time></trkpt><trkpt lat="49.19540082720711" lon="2.5487839897656985"><ele>55.4</ele><time>2026-05-02T13:17:23.999Z</time></trkpt><trkpt lat="49.195401651157496" lon="2.548929878302488"><ele>55.599999999999994</ele><time>2026-05-02T13:17:25.999Z</time></trkpt><trkpt lat="49.195416497433136" lon="2.5490776680666505"><ele>55.8</ele><time>2026-05-02T13:17:27.999Z</time></trkpt><trkpt lat="49.195420693050785" lon="2.549221358974823"><ele>56.0</ele><time>2026-05-02T13:17:29.999Z</time></trkpt><trkpt lat="49.19542803876628" lon="2.549359552209464"><ele>56.0</ele><time>2026-05-02T13:17:31.999Z</time></trkpt><trkpt lat="49.19543453492133" lon="2.549502689499389"><ele>55.99999999999999</ele><time>2026-05-02T13:17:33.999Z</time></trkpt><trkpt lat="49.195444918802494" lon="2.549650757317722"><ele>55.99999999999999</ele><time>2026-05-02T13:17:35.999Z</time></trkpt><trkpt lat="49.19545516175615" lon="2.549788766167078"><ele>56.0</ele><time>2026-05-02T13:17:37.999Z</time></trkpt><trkpt lat="49.19546161368684" lon="2.5499295484260904"><ele>56.0</ele><time>2026-05-02T13:17:39.999Z</time></trkpt><trkpt lat="49.195468797487166" lon="2.550069997822048"><ele>56.0</ele><time>2026-05-02T13:17:41.999Z</time></trkpt><trkpt lat="49.19547246070418" lon="2.5502155274944727"><ele>55.99999999999999</ele><time>2026-05-02T13:17:43.999Z</time></trkpt><trkpt lat="49.195481108442095" lon="2.550354444591083"><ele>55.99999999999999</ele><time>2026-05-02T13:17:45.999Z</time></trkpt><trkpt lat="49.195493015703114" lon="2.55049367172967"><ele>56.0</ele><time>2026-05-02T13:17:47.999Z</time></trkpt><trkpt lat="49.195504761210245" lon="2.550636506530951"><ele>56.0</ele><time>2026-05-02T13:17:49.999Z</time></trkpt><trkpt lat="49.19551785062732" lon="2.5507816429785986"><ele>56.0</ele><time>2026-05-02T13:17:51.999Z</time></trkpt><trkpt lat="49.195530807609636" lon="2.550930694259587"><ele>55.99999999999999</ele><time>2026-05-02T13:17:53.998Z</time></trkpt><trkpt lat="49.19554634489157" lon="2.551078641005101"><ele>55.99999999999999</ele><time>2026-05-02T13:17:55.998Z</time></trkpt><trkpt lat="49.195563420393235" lon="2.551231416269123"><ele>56.0</ele><time>2026-05-02T13:17:57.998Z</time></trkpt><trkpt lat="49.195597151488755" lon="2.551376075033959"><ele>56.0</ele><time>2026-05-02T13:17:59.998Z</time></trkpt><trkpt lat="49.19561736375025" lon="2.551537664393917"><ele>56.0</ele><time>2026-05-02T13:18:01.998Z</time></trkpt><trkpt lat="49.19563806165795" lon="2.5517154471663535"><ele>56.0</ele><time>2026-05-02T13:18:03.998Z</time></trkpt><trkpt lat="49.1956696632556" lon="2.551868219835042"><ele>56.0</ele><time>2026-05-02T13:18:05.998Z</time></trkpt><trkpt lat="49.19570355539084" lon="2.5520416387944205"><ele>56.0</ele><time>2026-05-02T13:18:07.998Z</time></trkpt><trkpt lat="49.19575168222147" lon="2.5522195075812655"><ele>55.57142857142857</ele><time>2026-05-02T13:18:09.998Z</time></trkpt><trkpt lat="49.19577562678414" lon="2.5523147918141915"><ele>55.14285714285714</ele><time>2026-05-02T13:18:10.998Z</time></trkpt><trkpt lat="49.19580577929797" lon="2.55241358459978"><ele>54.714285714285715</ele><time>2026-05-02T13:18:11.998Z</time></trkpt><trkpt lat="49.19583482355596" lon="2.5525089543828643"><ele>54.285714285714285</ele><time>2026-05-02T13:18:12.998Z</time></trkpt><trkpt lat="49.195863485748156" lon="2.552609967889668"><ele>53.857142857142854</ele><time>2026-05-02T13:18:13.998Z</time></trkpt><trkpt lat="49.19589611812713" lon="2.552713317258682"><ele>53.42857142857143</ele><time>2026-05-02T13:18:14.998Z</time></trkpt><trkpt lat="49.195929788118235" lon="2.5528133792470116"><ele>53.0</ele><time>2026-05-02T13:18:15.998Z</time></trkpt><trkpt lat="49.195958070519204" lon="2.5529221068952395"><ele>52.833333333333336</ele><time>2026-05-02T13:18:16.998Z</time></trkpt><trkpt lat="49.19598765565149" lon="2.5530306868647012"><ele>52.66666666666667</ele><time>2026-05-02T13:18:17.998Z</time></trkpt><trkpt lat="49.19601815279647" lon="2.5531406995591106"><ele>52.5</ele><time>2026-05-02T13:18:18.998Z</time></trkpt><trkpt lat="49.196036705769195" lon="2.5532661159576073"><ele>52.33333333333333</ele><time>2026-05-02T13:18:19.998Z</time></trkpt><trkpt lat="49.19605622569152" lon="2.5533919868800297"><ele>52.166666666666664</ele><time>2026-05-02T13:18:20.998Z</time></trkpt><trkpt lat="49.1960659442491" lon="2.553509042068083"><ele>52.0</ele><time>2026-05-02T13:18:21.998Z</time></trkpt><trkpt lat="49.19605954564038" lon="2.553638790268982"><ele>51.714285714285715</ele><time>2026-05-02T13:18:22.998Z</time></trkpt><trkpt lat="49.1960571287851" lon="2.553753542037928"><ele>51.42857142857143</ele><time>2026-05-02T13:18:23.998Z</time></trkpt><trkpt lat="49.19604146753599" lon="2.5538680887566025"><ele>51.142857142857146</ele><time>2026-05-02T13:18:24.998Z</time></trkpt><trkpt lat="49.19603295323175" lon="2.553982535682953"><ele>50.85714285714286</ele><time>2026-05-02T13:18:25.998Z</time></trkpt><trkpt lat="49.19602371236135" lon="2.554093218677274"><ele>50.57142857142857</ele><time>2026-05-02T13:18:26.998Z</time></trkpt><trkpt lat="49.19601155511871" lon="2.554204620559958"><ele>50.28571428571429</ele><time>2026-05-02T13:18:27.997Z</time></trkpt><trkpt lat="49.195999808685244" lon="2.5543071981142713"><ele>50.0</ele><time>2026-05-02T13:18:28.997Z</time></trkpt><trkpt lat="49.19598781696438" lon="2.554413534542172"><ele>50.00000000000001</ele><time>2026-05-02T13:18:29.997Z</time></trkpt><trkpt lat="49.19597592663239" lon="2.554521922439097"><ele>50.0</ele><time>2026-05-02T13:18:30.997Z</time></trkpt><trkpt lat="49.19596217817828" lon="2.554629012574732"><ele>50.0</ele><time>2026-05-02T13:18:31.997Z</time></trkpt><trkpt lat="49.19594792270626" lon="2.5547315544794857"><ele>50.0</ele><time>2026-05-02T13:18:32.997Z</time></trkpt><trkpt lat="49.19593220792237" lon="2.5548275129397346"><ele>50.00000000000001</ele><time>2026-05-02T13:18:33.997Z</time></trkpt><trkpt lat="49.19591616663208" lon="2.5549355048480122"><ele>50.0</ele><time>2026-05-02T13:18:34.997Z</time></trkpt><trkpt lat="49.19589153821867" lon="2.5551240421511676"><ele>50.2</ele><time>2026-05-02T13:18:36.997Z</time></trkpt><trkpt lat="49.19588157125918" lon="2.555226639794402"><ele>50.4</ele><time>2026-05-02T13:18:37.997Z</time></trkpt><trkpt lat="49.195860394368495" lon="2.5554136677514494"><ele>50.599999999999994</ele><time>2026-05-02T13:18:39.997Z</time></trkpt><trkpt lat="49.195838967960626" lon="2.5555983819816706"><ele>50.8</ele><time>2026-05-02T13:18:41.997Z</time></trkpt><trkpt lat="49.19581568911137" lon="2.555777782103847"><ele>51.0</ele><time>2026-05-02T13:18:43.997Z</time></trkpt><trkpt lat="49.19579764337836" lon="2.5559500450919326"><ele>50.25</ele><time>2026-05-02T13:18:45.997Z</time></trkpt><trkpt lat="49.195777417433156" lon="2.5561320563891172"><ele>49.5</ele><time>2026-05-02T13:18:47.997Z</time></trkpt><trkpt lat="49.195756691794536" lon="2.5563108895828504"><ele>48.75</ele><time>2026-05-02T13:18:49.997Z</time></trkpt><trkpt lat="49.195730699459" lon="2.5564812972849102"><ele>48.0</ele><time>2026-05-02T13:18:51.997Z</time></trkpt><trkpt lat="49.195703417720324" lon="2.5566605495822117"><ele>47.75</ele><time>2026-05-02T13:18:53.997Z</time></trkpt><trkpt lat="49.19568866170537" lon="2.5568456483889213"><ele>47.5</ele><time>2026-05-02T13:18:56Z</time></trkpt><trkpt lat="49.195654960302505" lon="2.5570108833522234"><ele>47.25</ele><time>2026-05-02T13:18:58Z</time></trkpt><trkpt lat="49.19563185121435" lon="2.557189468101265"><ele>47.0</ele><time>2026-05-02T13:19:00Z</time></trkpt><trkpt lat="49.19561135959895" lon="2.5573659388029193"><ele>48.5</ele><time>2026-05-02T13:19:02Z</time></trkpt><trkpt lat="49.195598040420556" lon="2.5575442192411324"><ele>50.0</ele><time>2026-05-02T13:19:04Z</time></trkpt><trkpt lat="49.19559068335244" lon="2.5577282475397163"><ele>51.5</ele><time>2026-05-02T13:19:06Z</time></trkpt><trkpt lat="49.195595047661435" lon="2.5579126580053235"><ele>53.0</ele><time>2026-05-02T13:19:08Z</time></trkpt><trkpt lat="49.19558663022164" lon="2.5580848907880687"><ele>53.0</ele><time>2026-05-02T13:19:10Z</time></trkpt><trkpt lat="49.195608584311536" lon="2.5582602282940003"><ele>53.0</ele><time>2026-05-02T13:19:12Z</time></trkpt><trkpt lat="49.19561433748264" lon="2.558434993133636"><ele>53.0</ele><time>2026-05-02T13:19:14Z</time></trkpt><trkpt lat="49.19562195703762" lon="2.5586021673343753"><ele>53.0</ele><time>2026-05-02T13:19:16Z</time></trkpt><trkpt lat="49.19561427296339" lon="2.5587706474960505"><ele>53.0</ele><time>2026-05-02T13:19:18Z</time></trkpt><trkpt lat="49.19562833393638" lon="2.5589341651296116"><ele>53.0</ele><time>2026-05-02T13:19:20Z</time></trkpt><trkpt lat="49.19563906990295" lon="2.559101129069396"><ele>53.0</ele><time>2026-05-02T13:19:22Z</time></trkpt><trkpt lat="49.195644375018276" lon="2.559259475974758"><ele>53.0</ele><time>2026-05-02T13:19:23.999Z</time></trkpt><trkpt lat="49.195647545116486" lon="2.5594245384885648"><ele>53.0</ele><time>2026-05-02T13:19:25.999Z</time></trkpt><trkpt lat="49.19565144719614" lon="2.5595906191203226"><ele>53.0</ele><time>2026-05-02T13:19:27.999Z</time></trkpt><trkpt lat="49.19565193516834" lon="2.5597590186019215"><ele>53.0</ele><time>2026-05-02T13:19:29.999Z</time></trkpt><trkpt lat="49.19565648164481" lon="2.559923568142372"><ele>53.0</ele><time>2026-05-02T13:19:31.999Z</time></trkpt><trkpt lat="49.19566279650515" lon="2.5600963063827993"><ele>53.0</ele><time>2026-05-02T13:19:33.999Z</time></trkpt><trkpt lat="49.195672278587374" lon="2.5602509763675325"><ele>53.0</ele><time>2026-05-02T13:19:35.999Z</time></trkpt><trkpt lat="49.19567330116454" lon="2.5604135536690085"><ele>53.25</ele><time>2026-05-02T13:19:37.999Z</time></trkpt><trkpt lat="49.19567901565603" lon="2.560583592179771"><ele>53.5</ele><time>2026-05-02T13:19:39.999Z</time></trkpt><trkpt lat="49.19568505872425" lon="2.560759625348131"><ele>53.75</ele><time>2026-05-02T13:19:41.999Z</time></trkpt><trkpt lat="49.195674031150155" lon="2.560937372822532"><ele>54.0</ele><time>2026-05-02T13:19:43.999Z</time></trkpt><trkpt lat="49.195684411808585" lon="2.561118728682173"><ele>54.0</ele><time>2026-05-02T13:19:45.999Z</time></trkpt><trkpt lat="49.19572445204973" lon="2.5612931216062242"><ele>54.0</ele><time>2026-05-02T13:19:47.999Z</time></trkpt><trkpt lat="49.1957400283102" lon="2.5613869998615506"><ele>54.0</ele><time>2026-05-02T13:19:48.999Z</time></trkpt><trkpt lat="49.1957744804868" lon="2.5614758844614447"><ele>54.0</ele><time>2026-05-02T13:19:49.999Z</time></trkpt><trkpt lat="49.19580429575763" lon="2.561631220908615"><ele>54.0</ele><time>2026-05-02T13:19:51.999Z</time></trkpt><trkpt lat="49.1958422574909" lon="2.5617261315963815"><ele>54.0</ele><time>2026-05-02T13:19:52.999Z</time></trkpt><trkpt lat="49.195888947318814" lon="2.5618698276891214"><ele>54.0</ele><time>2026-05-02T13:19:54.999Z</time></trkpt><trkpt lat="49.195941881569254" lon="2.5620295515243363"><ele>54.00000000000001</ele><time>2026-05-02T13:19:56.998Z</time></trkpt><trkpt lat="49.19599244077964" lon="2.5621791696965244"><ele>54.00000000000001</ele><time>2026-05-02T13:19:58.998Z</time></trkpt><trkpt lat="49.196041916169" lon="2.562329302076264"><ele>54.0</ele><time>2026-05-02T13:20:00.998Z</time></trkpt><trkpt lat="49.19608897912026" lon="2.5624711715314508"><ele>54.0</ele><time>2026-05-02T13:20:02.998Z</time></trkpt><trkpt lat="49.19612454778287" lon="2.562604377676956"><ele>54.0</ele><time>2026-05-02T13:20:04.998Z</time></trkpt><trkpt lat="49.19617205657724" lon="2.562737308513356"><ele>54.0</ele><time>2026-05-02T13:20:06.998Z</time></trkpt><trkpt lat="49.19620497388007" lon="2.562878966882059"><ele>54.0</ele><time>2026-05-02T13:20:08.998Z</time></trkpt><trkpt lat="49.19624389650343" lon="2.5630523273397636"><ele>54.0</ele><time>2026-05-02T13:20:10.998Z</time></trkpt><trkpt lat="49.196288667280676" lon="2.563258976497933"><ele>54.400000000000006</ele><time>2026-05-02T13:20:13.998Z</time></trkpt><trkpt lat="49.19634000729036" lon="2.563399992080219"><ele>54.800000000000004</ele><time>2026-05-02T13:20:15.998Z</time></trkpt><trkpt lat="49.19636592055147" lon="2.563543126369847"><ele>55.199999999999996</ele><time>2026-05-02T13:20:17.998Z</time></trkpt><trkpt lat="49.19640083629006" lon="2.5636744956752247"><ele>55.599999999999994</ele><time>2026-05-02T13:20:19.998Z</time></trkpt><trkpt lat="49.19642836029456" lon="2.5638138788102305"><ele>56.0</ele><time>2026-05-02T13:20:21.998Z</time></trkpt><trkpt lat="49.19646335241559" lon="2.563956912406856"><ele>56.0</ele><time>2026-05-02T13:20:23.998Z</time></trkpt><trkpt lat="49.19649477488792" lon="2.5641038231746975"><ele>55.99999999999999</ele><time>2026-05-02T13:20:25.998Z</time></trkpt><trkpt lat="49.19651981733312" lon="2.5642576472018996"><ele>55.99999999999999</ele><time>2026-05-02T13:20:27.998Z</time></trkpt><trkpt lat="49.1965435466481" lon="2.5644097490511646"><ele>56.0</ele><time>2026-05-02T13:20:29.998Z</time></trkpt><trkpt lat="49.19655686676776" lon="2.564569826631998"><ele>56.0</ele><time>2026-05-02T13:20:31.997Z</time></trkpt><trkpt lat="49.196567508356495" lon="2.5647206253552466"><ele>55.4</ele><time>2026-05-02T13:20:33.997Z</time></trkpt><trkpt lat="49.19657525421139" lon="2.5648817677908538"><ele>54.8</ele><time>2026-05-02T13:20:35.997Z</time></trkpt><trkpt lat="49.196545750710335" lon="2.5650291657944075"><ele>54.199999999999996</ele><time>2026-05-02T13:20:37.997Z</time></trkpt><trkpt lat="49.19651292376891" lon="2.5651897173931073"><ele>53.599999999999994</ele><time>2026-05-02T13:20:39.997Z</time></trkpt><trkpt lat="49.196475214744254" lon="2.5653333332337263"><ele>53.0</ele><time>2026-05-02T13:20:41.997Z</time></trkpt><trkpt lat="49.1964477546357" lon="2.565485150983717"><ele>52.8</ele><time>2026-05-02T13:20:43.997Z</time></trkpt><trkpt lat="49.196410385633406" lon="2.5656328030580164"><ele>52.599999999999994</ele><time>2026-05-02T13:20:45.997Z</time></trkpt><trkpt lat="49.19637070446697" lon="2.5657772601477262"><ele>52.400000000000006</ele><time>2026-05-02T13:20:47.997Z</time></trkpt><trkpt lat="49.196328865904654" lon="2.5659154198995653"><ele>52.2</ele><time>2026-05-02T13:20:49.997Z</time></trkpt><trkpt lat="49.19628860171715" lon="2.5660474514102773"><ele>52.0</ele><time>2026-05-02T13:20:51.997Z</time></trkpt><trkpt lat="49.19623684139455" lon="2.566197916831659"><ele>52.0</ele><time>2026-05-02T13:20:53.997Z</time></trkpt><trkpt lat="49.19620330549348" lon="2.5663502926804016"><ele>52.0</ele><time>2026-05-02T13:20:55.997Z</time></trkpt><trkpt lat="49.19615247129009" lon="2.5665063495445315"><ele>52.0</ele><time>2026-05-02T13:20:57.997Z</time></trkpt><trkpt lat="49.1961106311643" lon="2.5666631698478897"><ele>52.0</ele><time>2026-05-02T13:20:59.997Z</time></trkpt><trkpt lat="49.19607048942877" lon="2.566808672091981"><ele>52.0</ele><time>2026-05-02T13:21:02Z</time></trkpt><trkpt lat="49.19602684331495" lon="2.5669568828198988"><ele>52.0</ele><time>2026-05-02T13:21:04Z</time></trkpt><trkpt lat="49.19599424377419" lon="2.5671087803720933"><ele>52.0</ele><time>2026-05-02T13:21:06Z</time></trkpt><trkpt lat="49.19597424737535" lon="2.567266347562086"><ele>52.0</ele><time>2026-05-02T13:21:08Z</time></trkpt><trkpt lat="49.19598043013609" lon="2.5674267865174376"><ele>52.0</ele><time>2026-05-02T13:21:10Z</time></trkpt><trkpt lat="49.19600438570948" lon="2.5675800209505"><ele>52.0</ele><time>2026-05-02T13:21:12Z</time></trkpt><trkpt lat="49.196038266900075" lon="2.5677235047752713"><ele>52.400000000000006</ele><time>2026-05-02T13:21:14Z</time></trkpt><trkpt lat="49.196075197727524" lon="2.5678734533206673"><ele>52.800000000000004</ele><time>2026-05-02T13:21:16Z</time></trkpt><trkpt lat="49.19611128006833" lon="2.5680183591736525"><ele>53.2</ele><time>2026-05-02T13:21:18Z</time></trkpt><trkpt lat="49.19614774801016" lon="2.5681712466466142"><ele>53.6</ele><time>2026-05-02T13:21:20Z</time></trkpt><trkpt lat="49.19617349764039" lon="2.5682649917702975"><ele>54.0</ele><time>2026-05-02T13:21:21Z</time></trkpt><trkpt lat="49.19620594950394" lon="2.5683934297752855"><ele>54.0</ele><time>2026-05-02T13:21:23Z</time></trkpt><trkpt lat="49.196244814061586" lon="2.568547829569823"><ele>54.00000000000001</ele><time>2026-05-02T13:21:25Z</time></trkpt><trkpt lat="49.19628310005222" lon="2.568702446005512"><ele>54.00000000000001</ele><time>2026-05-02T13:21:27Z</time></trkpt><trkpt lat="49.196322000489516" lon="2.568854054813596"><ele>54.0</ele><time>2026-05-02T13:21:29Z</time></trkpt><trkpt lat="49.19636224194631" lon="2.5690049196449305"><ele>54.0</ele><time>2026-05-02T13:21:31Z</time></trkpt><trkpt lat="49.196400128868156" lon="2.5691550232189213"><ele>54.0</ele><time>2026-05-02T13:21:33Z</time></trkpt><trkpt lat="49.196437291868776" lon="2.5693067323302747"><ele>54.00000000000001</ele><time>2026-05-02T13:21:34.999Z</time></trkpt><trkpt lat="49.19647458399515" lon="2.5694497304042905"><ele>54.00000000000001</ele><time>2026-05-02T13:21:36.999Z</time></trkpt><trkpt lat="49.19651705744784" lon="2.56959317555762"><ele>54.0</ele><time>2026-05-02T13:21:38.999Z</time></trkpt><trkpt lat="49.19655580649836" lon="2.5697251334632183"><ele>54.0</ele><time>2026-05-02T13:21:40.999Z</time></trkpt><trkpt lat="49.19664381522256" lon="2.5698091992177656"><ele>53.400000000000006</ele><time>2026-05-02T13:21:42.999Z</time></trkpt><trkpt lat="49.19674249861455" lon="2.5698648553833427"><ele>52.800000000000004</ele><time>2026-05-02T13:21:44.999Z</time></trkpt><trkpt lat="49.1968224343852" lon="2.5699692553175324"><ele>52.2</ele><time>2026-05-02T13:21:46.999Z</time></trkpt><trkpt lat="49.19688974525186" lon="2.5700996589286036"><ele>51.599999999999994</ele><time>2026-05-02T13:21:48.999Z</time></trkpt><trkpt lat="49.19695729474356" lon="2.5702188042721366"><ele>51.0</ele><time>2026-05-02T13:21:50.999Z</time></trkpt><trkpt lat="49.197034786445975" lon="2.570348335974937"><ele>51.199999999999996</ele><time>2026-05-02T13:21:52.999Z</time></trkpt><trkpt lat="49.197105671222744" lon="2.5704628786318846"><ele>51.4</ele><time>2026-05-02T13:21:54.999Z</time></trkpt><trkpt lat="49.19716958969124" lon="2.5705832448947668"><ele>51.6</ele><time>2026-05-02T13:21:56.999Z</time></trkpt><trkpt lat="49.19723040309165" lon="2.57071705350905"><ele>51.8</ele><time>2026-05-02T13:21:58.999Z</time></trkpt><trkpt lat="49.197279395999516" lon="2.570849664132491"><ele>52.0</ele><time>2026-05-02T13:22:00.999Z</time></trkpt><trkpt lat="49.19733239357354" lon="2.570970486879356"><ele>52.0</ele><time>2026-05-02T13:22:02.999Z</time></trkpt><trkpt lat="49.19737364929766" lon="2.5710925619045497"><ele>52.0</ele><time>2026-05-02T13:22:04.999Z</time></trkpt><trkpt lat="49.19742364696837" lon="2.571222734989802"><ele>52.0</ele><time>2026-05-02T13:22:06.999Z</time></trkpt><trkpt lat="49.19747109250296" lon="2.571349290504813"><ele>52.0</ele><time>2026-05-02T13:22:08.998Z</time></trkpt><trkpt lat="49.19751363788362" lon="2.571458771032375"><ele>52.0</ele><time>2026-05-02T13:22:10.998Z</time></trkpt><trkpt lat="49.197554795434826" lon="2.5715746390553647"><ele>51.99999999999999</ele><time>2026-05-02T13:22:12.998Z</time></trkpt><trkpt lat="49.19759638752872" lon="2.5716819996882334"><ele>52.0</ele><time>2026-05-02T13:22:14.998Z</time></trkpt><trkpt lat="49.19763659730934" lon="2.571795271013656"><ele>52.0</ele><time>2026-05-02T13:22:16.998Z</time></trkpt><trkpt lat="49.19767660350072" lon="2.571901102275512"><ele>52.0</ele><time>2026-05-02T13:22:18.998Z</time></trkpt><trkpt lat="49.197715387043914" lon="2.572012014580049"><ele>51.99999999999999</ele><time>2026-05-02T13:22:20.998Z</time></trkpt><trkpt lat="49.19775564808089" lon="2.572118167187051"><ele>52.0</ele><time>2026-05-02T13:22:22.998Z</time></trkpt><trkpt lat="49.197798880760345" lon="2.5722209509419365"><ele>51.99999999999999</ele><time>2026-05-02T13:22:24.998Z</time></trkpt><trkpt lat="49.1978408621312" lon="2.572322689627574"><ele>52.0</ele><time>2026-05-02T13:22:26.998Z</time></trkpt><trkpt lat="49.19787946577688" lon="2.5724282770083318"><ele>52.0</ele><time>2026-05-02T13:22:28.998Z</time></trkpt><trkpt lat="49.19791761963116" lon="2.572526382833896"><ele>52.0</ele><time>2026-05-02T13:22:30.998Z</time></trkpt><trkpt lat="49.197954319899395" lon="2.5726213819057073"><ele>51.99999999999999</ele><time>2026-05-02T13:22:32.998Z</time></trkpt><trkpt lat="49.197992491857775" lon="2.5727180554473716"><ele>52.0</ele><time>2026-05-02T13:22:34.998Z</time></trkpt><trkpt lat="49.19802736601141" lon="2.5728155569704145"><ele>52.0</ele><time>2026-05-02T13:22:36.998Z</time></trkpt><trkpt lat="49.19806252577986" lon="2.572916926598183"><ele>52.0</ele><time>2026-05-02T13:22:38.998Z</time></trkpt><trkpt lat="49.198103461902484" lon="2.573001870953414"><ele>52.0</ele><time>2026-05-02T13:22:40.997Z</time></trkpt><trkpt lat="49.19813864391905" lon="2.573097322260805"><ele>52.0</ele><time>2026-05-02T13:22:42.997Z</time></trkpt><trkpt lat="49.1981727554727" lon="2.573186208149438"><ele>52.0</ele><time>2026-05-02T13:22:44.997Z</time></trkpt><trkpt lat="49.19820853566652" lon="2.5732727313173713"><ele>52.0</ele><time>2026-05-02T13:22:46.997Z</time></trkpt><trkpt lat="49.19823386782959" lon="2.5733824666149467"><ele>52.0</ele><time>2026-05-02T13:22:48.997Z</time></trkpt><trkpt lat="49.19827013124747" lon="2.573476309826811"><ele>53.166666666666664</ele><time>2026-05-02T13:22:50.997Z</time></trkpt><trkpt lat="49.198308924866296" lon="2.5735778039216632"><ele>54.33333333333333</ele><time>2026-05-02T13:22:52.997Z</time></trkpt><trkpt lat="49.19835161026231" lon="2.573678291880729"><ele>55.5</ele><time>2026-05-02T13:22:54.997Z</time></trkpt><trkpt lat="49.19838715277554" lon="2.5737829255222966"><ele>56.66666666666667</ele><time>2026-05-02T13:22:56.997Z</time></trkpt><trkpt lat="49.19844147589755" lon="2.573880197456792"><ele>57.833333333333336</ele><time>2026-05-02T13:22:58.997Z</time></trkpt><trkpt lat="49.19847021593956" lon="2.5740044042548824"><ele>59.0</ele><time>2026-05-02T13:23:00.997Z</time></trkpt><trkpt lat="49.19851461907915" lon="2.5740874780076144"><ele>59.00000000000001</ele><time>2026-05-02T13:23:02.997Z</time></trkpt><trkpt lat="49.19853860752519" lon="2.574186148843875"><ele>59.0</ele><time>2026-05-02T13:23:04.997Z</time></trkpt><trkpt lat="49.19856497265181" lon="2.5742971476652285"><ele>59.0</ele><time>2026-05-02T13:23:06.997Z</time></trkpt><trkpt lat="49.19861486974176" lon="2.5743901205405524"><ele>59.0</ele><time>2026-05-02T13:23:09Z</time></trkpt><trkpt lat="49.19867061174092" lon="2.5744903813240594"><ele>59.00000000000001</ele><time>2026-05-02T13:23:11Z</time></trkpt><trkpt lat="49.19869567567517" lon="2.5746067136926842"><ele>59.0</ele><time>2026-05-02T13:23:13Z</time></trkpt><trkpt lat="49.19873584874201" lon="2.574710514099869"><ele>59.16666666666667</ele><time>2026-05-02T13:23:15Z</time></trkpt><trkpt lat="49.198774108177524" lon="2.5748039780993333"><ele>59.333333333333336</ele><time>2026-05-02T13:23:17Z</time></trkpt><trkpt lat="49.19880280895307" lon="2.5748897387866947"><ele>59.5</ele><time>2026-05-02T13:23:19Z</time></trkpt><trkpt lat="49.19874130852284" lon="2.5750012599149907"><ele>59.66666666666667</ele><time>2026-05-02T13:23:21Z</time></trkpt><trkpt lat="49.1987026370409" lon="2.57511816419204"><ele>59.833333333333336</ele><time>2026-05-02T13:23:23Z</time></trkpt><trkpt lat="49.19866644094474" lon="2.575247330304711"><ele>60.0</ele><time>2026-05-02T13:23:25Z</time></trkpt><trkpt lat="49.19862844353327" lon="2.5753642779890757"><ele>60.2</ele><time>2026-05-02T13:23:27Z</time></trkpt><trkpt lat="49.19858440230372" lon="2.5754799411961993"><ele>60.4</ele><time>2026-05-02T13:23:29Z</time></trkpt><trkpt lat="49.19854985918109" lon="2.5755968895255483"><ele>60.599999999999994</ele><time>2026-05-02T13:23:31Z</time></trkpt><trkpt lat="49.19851122632449" lon="2.5757310768628416"><ele>60.8</ele><time>2026-05-02T13:23:33Z</time></trkpt><trkpt lat="49.19847060251114" lon="2.5758617711444955"><ele>61.0</ele><time>2026-05-02T13:23:35Z</time></trkpt><trkpt lat="49.19843072951234" lon="2.575988787037104"><ele>60.99999999999999</ele><time>2026-05-02T13:23:37Z</time></trkpt><trkpt lat="49.198399108663764" lon="2.5761167139334087"><ele>61.0</ele><time>2026-05-02T13:23:38.999Z</time></trkpt><trkpt lat="49.19836527606193" lon="2.5762443458307884"><ele>61.0</ele><time>2026-05-02T13:23:40.999Z</time></trkpt><trkpt lat="49.198348999999766" lon="2.57637843322456"><ele>61.0</ele><time>2026-05-02T13:23:42.999Z</time></trkpt><trkpt lat="49.19832892169109" lon="2.5765116659065574"><ele>60.99999999999999</ele><time>2026-05-02T13:23:44.999Z</time></trkpt><trkpt lat="49.19831630531929" lon="2.576644731190069"><ele>61.0</ele><time>2026-05-02T13:23:46.999Z</time></trkpt><trkpt lat="49.1983090760117" lon="2.576777631560312"><ele>60.666666666666664</ele><time>2026-05-02T13:23:48.999Z</time></trkpt><trkpt lat="49.198296517531006" lon="2.5769172594532663"><ele>60.33333333333333</ele><time>2026-05-02T13:23:50.999Z</time></trkpt><trkpt lat="49.1982918299906" lon="2.577057934263329"><ele>60.0</ele><time>2026-05-02T13:23:52.999Z</time></trkpt><trkpt lat="49.198291874369325" lon="2.577194050327566"><ele>59.66666666666667</ele><time>2026-05-02T13:23:54.999Z</time></trkpt><trkpt lat="49.19829495514018" lon="2.577329191084142"><ele>59.333333333333336</ele><time>2026-05-02T13:23:56.999Z</time></trkpt><trkpt lat="49.198303026306064" lon="2.577454531271595"><ele>59.0</ele><time>2026-05-02T13:23:58.999Z</time></trkpt><trkpt lat="49.1983150956384" lon="2.5775818283628023"><ele>59.00000000000001</ele><time>2026-05-02T13:24:00.999Z</time></trkpt><trkpt lat="49.19833553403129" lon="2.5776981551759803"><ele>59.0</ele><time>2026-05-02T13:24:02.999Z</time></trkpt><trkpt lat="49.198367187203985" lon="2.5778103487149697"><ele>59.0</ele><time>2026-05-02T13:24:04.999Z</time></trkpt><trkpt lat="49.19840893232875" lon="2.5779083030879"><ele>59.0</ele><time>2026-05-02T13:24:06.999Z</time></trkpt><trkpt lat="49.19845880208991" lon="2.5779990275352405"><ele>59.00000000000001</ele><time>2026-05-02T13:24:08.999Z</time></trkpt><trkpt lat="49.19851716800176" lon="2.5780732769860633"><ele>59.0</ele><time>2026-05-02T13:24:10.998Z</time></trkpt><trkpt lat="49.19858088487844" lon="2.5781479041375217"><ele>59.00000000000001</ele><time>2026-05-02T13:24:12.998Z</time></trkpt><trkpt lat="49.19864858855894" lon="2.578208899007617"><ele>59.0</ele><time>2026-05-02T13:24:14.998Z</time></trkpt><trkpt lat="49.19871903054014" lon="2.578268675460804"><ele>59.0</ele><time>2026-05-02T13:24:16.998Z</time></trkpt><trkpt lat="49.1987922352486" lon="2.5783113092882886"><ele>59.0</ele><time>2026-05-02T13:24:18.998Z</time></trkpt><trkpt lat="49.1988652387358" lon="2.578357514793016"><ele>59.00000000000001</ele><time>2026-05-02T13:24:20.998Z</time></trkpt><trkpt lat="49.19894073136037" lon="2.5783993006486203"><ele>59.0</ele><time>2026-05-02T13:24:22.998Z</time></trkpt><trkpt lat="49.19902079561405" lon="2.5784446137089327"><ele>59.0</ele><time>2026-05-02T13:24:24.998Z</time></trkpt><trkpt lat="49.19908371403089" lon="2.578480660988091"><ele>59.0</ele><time>2026-05-02T13:24:26.998Z</time></trkpt><trkpt lat="49.19906567009896" lon="2.5785871643142735"><ele>59.0</ele><time>2026-05-02T13:24:27.998Z</time></trkpt><trkpt lat="49.19905248634821" lon="2.5787151227338416"><ele>59.0</ele><time>2026-05-02T13:24:29.998Z</time></trkpt><trkpt lat="49.19903991817419" lon="2.5788371064010405"><ele>59.0</ele><time>2026-05-02T13:24:31.998Z</time></trkpt><trkpt lat="49.1990285162247" lon="2.578947771124889"><ele>59.0</ele><time>2026-05-02T13:24:33.998Z</time></trkpt><trkpt lat="49.199018385361796" lon="2.579046098290575"><ele>59.0</ele><time>2026-05-02T13:24:35.998Z</time></trkpt><trkpt lat="49.19900639962498" lon="2.5791624293609696"><ele>58.833333333333336</ele><time>2026-05-02T13:24:38.998Z</time></trkpt><trkpt lat="49.198995814382144" lon="2.5792651670354996"><ele>58.66666666666667</ele><time>2026-05-02T13:24:41.998Z</time></trkpt><trkpt lat="49.19910546251967" lon="2.579460157707442"><ele>58.5</ele><time>2026-05-02T13:24:45.997Z</time></trkpt><trkpt lat="49.19916509425908" lon="2.5795016652184803"><ele>58.33333333333333</ele><time>2026-05-02T13:25:10.997Z</time></trkpt><trkpt lat="49.199227936125325" lon="2.5795454064961394"><ele>58.166666666666664</ele><time>2026-05-02T13:25:54.999Z</time></trkpt><trkpt lat="49.19929319913423" lon="2.579592195613547"><ele>58.0</ele><time>2026-05-02T13:25:57.999Z</time></trkpt><trkpt lat="49.19937998021907" lon="2.5796541977332086"><ele>58.49999999999999</ele><time>2026-05-02T13:26:00.999Z</time></trkpt><trkpt lat="49.199449183228516" lon="2.5797036409006044"><ele>59.0</ele><time>2026-05-02T13:26:02.999Z</time></trkpt><trkpt lat="49.19952090555813" lon="2.579754884114712"><ele>59.5</ele><time>2026-05-02T13:26:04.999Z</time></trkpt><trkpt lat="49.199589923074896" lon="2.5798050445075607"><ele>60.0</ele><time>2026-05-02T13:26:06.999Z</time></trkpt><trkpt lat="49.199660905255875" lon="2.579856885355611"><ele>60.49999999999999</ele><time>2026-05-02T13:26:08.999Z</time></trkpt><trkpt lat="49.19972989301697" lon="2.57990726970486"><ele>61.0</ele><time>2026-05-02T13:26:10.999Z</time></trkpt><trkpt lat="49.1998001693959" lon="2.579958593091006"><ele>61.0</ele><time>2026-05-02T13:26:12.999Z</time></trkpt><trkpt lat="49.19986118136604" lon="2.580004891306892"><ele>60.99999999999999</ele><time>2026-05-02T13:26:14.998Z</time></trkpt><trkpt lat="49.19978224208765" lon="2.5800025132214564"><ele>60.99999999999999</ele><time>2026-05-02T13:26:19.998Z</time></trkpt><trkpt lat="49.19967979809899" lon="2.5801781625487665"><ele>61.0</ele><time>2026-05-02T13:26:28.998Z</time></trkpt><trkpt lat="49.19957234219573" lon="2.5801289413630113"><ele>61.0</ele><time>2026-05-02T13:26:35.998Z</time></trkpt><trkpt lat="49.19949852389198" lon="2.5801512034349097"><ele>60.99999999999999</ele><time>2026-05-02T13:26:38.998Z</time></trkpt><trkpt lat="49.19951130877309" lon="2.580020236517544"><ele>61.0</ele><time>2026-05-02T13:26:39.998Z</time></trkpt><trkpt lat="49.19943608127744" lon="2.5799691468073656"><ele>61.0</ele><time>2026-05-02T13:26:42.998Z</time></trkpt><trkpt lat="49.19937421175051" lon="2.5799348237081965"><ele>61.0</ele><time>2026-05-02T13:26:44.998Z</time></trkpt><trkpt lat="49.19929751923524" lon="2.5799521219224055"><ele>60.99999999999999</ele><time>2026-05-02T13:26:46.997Z</time></trkpt><trkpt lat="49.19925760380381" lon="2.5800653144208474"><ele>61.0</ele><time>2026-05-02T13:26:48.997Z</time></trkpt><trkpt lat="49.19922927501741" lon="2.5801938651709584"><ele>60.99999999999999</ele><time>2026-05-02T13:26:51.997Z</time></trkpt><trkpt lat="49.199176021769006" lon="2.5803041880757185"><ele>61.0</ele><time>2026-05-02T13:26:54.997Z</time></trkpt><trkpt lat="49.199141556502084" lon="2.580412248619758"><ele>61.0</ele><time>2026-05-02T13:26:57.997Z</time></trkpt><trkpt lat="49.19910560830101" lon="2.5805231400857673"><ele>61.0</ele><time>2026-05-02T13:27:00.997Z</time></trkpt><trkpt lat="49.19907281325565" lon="2.5806228224673684"><ele>60.99999999999999</ele><time>2026-05-02T13:27:03.997Z</time></trkpt><trkpt lat="49.19903832547515" lon="2.580727649498363"><ele>61.0</ele><time>2026-05-02T13:27:08.997Z</time></trkpt><trkpt lat="49.19900491542165" lon="2.5808292008923854"><ele>60.99999999999999</ele><time>2026-05-02T13:27:11.997Z</time></trkpt><trkpt lat="49.19896813197901" lon="2.5809412453850538"><ele>61.0</ele><time>2026-05-02T13:27:14.997Z</time></trkpt><trkpt lat="49.19893285413603" lon="2.581048811920605"><ele>61.0</ele><time>2026-05-02T13:27:17.997Z</time></trkpt><trkpt lat="49.19889833628292" lon="2.581154061163677"><ele>61.0</ele><time>2026-05-02T13:27:20.999Z</time></trkpt><trkpt lat="49.19886634621298" lon="2.5812530408050907"><ele>60.99999999999999</ele><time>2026-05-02T13:27:23.999Z</time></trkpt><trkpt lat="49.198836339407016" lon="2.581391924431833"><ele>61.0</ele><time>2026-05-02T13:27:26.999Z</time></trkpt><trkpt lat="49.19881378877089" lon="2.5814826045486554"><ele>60.99999999999999</ele><time>2026-05-02T13:27:28.999Z</time></trkpt><trkpt lat="49.19878032681452" lon="2.581572620513929"><ele>61.0</ele><time>2026-05-02T13:27:30.999Z</time></trkpt><trkpt lat="49.198755449792266" lon="2.581661749610568"><ele>61.0</ele><time>2026-05-02T13:27:32.999Z</time></trkpt><trkpt lat="49.19871197203701" lon="2.5817400035490294"><ele>61.0</ele><time>2026-05-02T13:27:34.999Z</time></trkpt><trkpt lat="49.19866144030777" lon="2.5818636512070494"><ele>60.99999999999999</ele><time>2026-05-02T13:27:37.999Z</time></trkpt><trkpt lat="49.19862822667375" lon="2.581983586889321"><ele>61.0</ele><time>2026-05-02T13:27:40.999Z</time></trkpt><trkpt lat="49.19873911481276" lon="2.582036438091323"><ele>60.83333333333333</ele><time>2026-05-02T13:27:45.999Z</time></trkpt><trkpt lat="49.19882060651774" lon="2.582101825022291"><ele>60.666666666666664</ele><time>2026-05-02T13:27:48.999Z</time></trkpt><trkpt lat="49.198876997496335" lon="2.582147071735948"><ele>60.5</ele><time>2026-05-02T13:27:50.999Z</time></trkpt><trkpt lat="49.19895019901373" lon="2.5822002208444084"><ele>60.33333333333333</ele><time>2026-05-02T13:27:53.999Z</time></trkpt><trkpt lat="49.19902955267276" lon="2.5822576081022777"><ele>60.166666666666664</ele><time>2026-05-02T13:27:56.999Z</time></trkpt><trkpt lat="49.19910504335741" lon="2.5823122016710194"><ele>60.0</ele><time>2026-05-02T13:27:59.999Z</time></trkpt><trkpt lat="49.199181613375536" lon="2.5823675756919995"><ele>59.833333333333336</ele><time>2026-05-02T13:28:02.999Z</time></trkpt><trkpt lat="49.19925017933441" lon="2.582426660762657"><ele>59.66666666666667</ele><time>2026-05-02T13:28:05.999Z</time></trkpt><trkpt lat="49.199335481931996" lon="2.582460394367882"><ele>59.5</ele><time>2026-05-02T13:28:08.998Z</time></trkpt><trkpt lat="49.19940135296025" lon="2.582524799519355"><ele>59.333333333333336</ele><time>2026-05-02T13:28:11.998Z</time></trkpt><trkpt lat="49.1994783036877" lon="2.582580514473754"><ele>59.16666666666667</ele><time>2026-05-02T13:28:14.998Z</time></trkpt><trkpt lat="49.19954707880679" lon="2.5826410433104416"><ele>59.0</ele><time>2026-05-02T13:28:17.998Z</time></trkpt><trkpt lat="49.19961944419181" lon="2.5826890418695543"><ele>59.00000000000001</ele><time>2026-05-02T13:28:20.998Z</time></trkpt><trkpt lat="49.19969912594741" lon="2.5827508313900966"><ele>59.0</ele><time>2026-05-02T13:28:23.998Z</time></trkpt><trkpt lat="49.199766880665535" lon="2.5828066958667955"><ele>59.0</ele><time>2026-05-02T13:28:26.998Z</time></trkpt><trkpt lat="49.19980733068158" lon="2.5826830503751985"><ele>59.0</ele><time>2026-05-02T13:28:28.998Z</time></trkpt><trkpt lat="49.199835372623184" lon="2.5825852482286002"><ele>59.00000000000001</ele><time>2026-05-02T13:28:30.998Z</time></trkpt><trkpt lat="49.19985908315287" lon="2.5824830196493442"><ele>59.0</ele><time>2026-05-02T13:28:32.998Z</time></trkpt><trkpt lat="49.19989142716991" lon="2.582384206764006"><ele>59.0</ele><time>2026-05-02T13:28:34.998Z</time></trkpt><trkpt lat="49.19991833632033" lon="2.58229390179439"><ele>59.0</ele><time>2026-05-02T13:28:36.998Z</time></trkpt><trkpt lat="49.19996514218989" lon="2.5822078678170044"><ele>59.0</ele><time>2026-05-02T13:28:38.998Z</time></trkpt><trkpt lat="49.19999799544305" lon="2.582111265993824"><ele>59.0</ele><time>2026-05-02T13:28:40.998Z</time></trkpt><trkpt lat="49.20003122827769" lon="2.5820135482408677"><ele>59.0</ele><time>2026-05-02T13:28:42.998Z</time></trkpt><trkpt lat="49.20006442486566" lon="2.581915936897788"><ele>59.0</ele><time>2026-05-02T13:28:44.997Z</time></trkpt><trkpt lat="49.20009618121806" lon="2.581822560640912"><ele>59.0</ele><time>2026-05-02T13:28:46.997Z</time></trkpt><trkpt lat="49.20016402505099" lon="2.5817958137874557"><ele>59.0</ele><time>2026-05-02T13:28:49.997Z</time></trkpt><trkpt lat="49.20024054987577" lon="2.5818742974334965"><ele>59.0</ele><time>2026-05-02T13:28:52.997Z</time></trkpt><trkpt lat="49.20030168786192" lon="2.5819215569507246"><ele>59.0</ele><time>2026-05-02T13:28:54.997Z</time></trkpt><trkpt lat="49.20036407051441" lon="2.5819767354208003"><ele>59.0</ele><time>2026-05-02T13:28:56.997Z</time></trkpt><trkpt lat="49.20042876114227" lon="2.5820172756762885"><ele>59.0</ele><time>2026-05-02T13:28:58.997Z</time></trkpt><trkpt lat="49.20049411061648" lon="2.582059929746495"><ele>59.0</ele><time>2026-05-02T13:29:00.997Z</time></trkpt><trkpt lat="49.20055557624983" lon="2.5821163527368247"><ele>59.0</ele><time>2026-05-02T13:29:02.997Z</time></trkpt><trkpt lat="49.20062907047316" lon="2.5821569953492656"><ele>58.25</ele><time>2026-05-02T13:29:04.997Z</time></trkpt><trkpt lat="49.20070501552298" lon="2.582234245748783"><ele>57.5</ele><time>2026-05-02T13:29:06.997Z</time></trkpt><trkpt lat="49.200784077205576" lon="2.582301237715693"><ele>56.75</ele><time>2026-05-02T13:29:08.997Z</time></trkpt><trkpt lat="49.20072548101255" lon="2.582474592002968"><ele>56.0</ele><time>2026-05-02T13:29:11.997Z</time></trkpt><trkpt lat="49.200875321286155" lon="2.5825851533968462"><ele>56.0</ele><time>2026-05-02T13:29:12.997Z</time></trkpt><trkpt lat="49.20099101137859" lon="2.5826518698386245"><ele>55.99999999999999</ele><time>2026-05-02T13:29:14.997Z</time></trkpt><trkpt lat="49.20109775103291" lon="2.5827466477069687"><ele>55.99999999999999</ele><time>2026-05-02T13:29:16.997Z</time></trkpt><trkpt lat="49.20118780956926" lon="2.582832687275139"><ele>56.0</ele><time>2026-05-02T13:29:18.996Z</time></trkpt><trkpt lat="49.20125074038926" lon="2.5829327876181405"><ele>56.0</ele><time>2026-05-02T13:29:20.996Z</time></trkpt><trkpt lat="49.20128605955043" lon="2.583031750338459"><ele>55.599999999999994</ele><time>2026-05-02T13:29:24.996Z</time></trkpt><trkpt lat="49.20131667953287" lon="2.5829361067433902"><ele>55.199999999999996</ele><time>2026-05-02T13:29:25.999Z</time></trkpt><trkpt lat="49.20110010417521" lon="2.5830224824476855"><ele>54.800000000000004</ele><time>2026-05-02T13:29:27.999Z</time></trkpt><trkpt lat="49.201060709624365" lon="2.5831085096900535"><ele>54.400000000000006</ele><time>2026-05-02T13:29:30Z</time></trkpt><trkpt lat="49.20101532296697" lon="2.5832026057945665"><ele>54.0</ele><time>2026-05-02T13:29:32Z</time></trkpt><trkpt lat="49.20096484409478" lon="2.5832613905141177"><ele>54.0</ele><time>2026-05-02T13:29:34Z</time></trkpt><trkpt lat="49.20087712946468" lon="2.5832315282877056"><ele>54.0</ele><time>2026-05-02T13:29:39Z</time></trkpt><trkpt lat="49.2008638793979" lon="2.583349168215701"><ele>54.0</ele><time>2026-05-02T13:29:41Z</time></trkpt><trkpt lat="49.200617190361974" lon="2.583771219859251"><ele>53.66666666666667</ele><time>2026-05-02T13:29:43Z</time></trkpt><trkpt lat="49.2005481069571" lon="2.5838817124177638"><ele>53.333333333333336</ele><time>2026-05-02T13:29:44.999Z</time></trkpt><trkpt lat="49.2004816069502" lon="2.58399105339944"><ele>53.0</ele><time>2026-05-02T13:29:46.999Z</time></trkpt><trkpt lat="49.20069457160913" lon="2.584347094300388"><ele>53.4</ele><time>2026-05-02T13:29:48.999Z</time></trkpt><trkpt lat="49.20065408979986" lon="2.5844731576165154"><ele>53.8</ele><time>2026-05-02T13:29:50.999Z</time></trkpt><trkpt lat="49.20058679872535" lon="2.584570170765962"><ele>54.2</ele><time>2026-05-02T13:29:52.999Z</time></trkpt><trkpt lat="49.20053799045885" lon="2.5846855410125533"><ele>54.6</ele><time>2026-05-02T13:29:54.999Z</time></trkpt><trkpt lat="49.20049959489309" lon="2.5848036351129684"><ele>55.0</ele><time>2026-05-02T13:29:56.999Z</time></trkpt><trkpt lat="49.20045205530316" lon="2.584925216600438"><ele>54.99999999999999</ele><time>2026-05-02T13:29:58.999Z</time></trkpt><trkpt lat="49.20039421227876" lon="2.5850313392658553"><ele>55.0</ele><time>2026-05-02T13:30:00.999Z</time></trkpt><trkpt lat="49.20036022792833" lon="2.5851597370204042"><ele>55.0</ele><time>2026-05-02T13:30:02.999Z</time></trkpt><trkpt lat="49.200300218504175" lon="2.585251257811879"><ele>55.0</ele><time>2026-05-02T13:30:04.999Z</time></trkpt><trkpt lat="49.20025104101732" lon="2.5853635552884855"><ele>54.99999999999999</ele><time>2026-05-02T13:30:06.999Z</time></trkpt><trkpt lat="49.20021485198075" lon="2.5854846056468985"><ele>55.0</ele><time>2026-05-02T13:30:08.999Z</time></trkpt><trkpt lat="49.20015473436746" lon="2.585574045618368"><ele>54.666666666666664</ele><time>2026-05-02T13:30:10.999Z</time></trkpt><trkpt lat="49.20010662057805" lon="2.585678630172314"><ele>54.33333333333333</ele><time>2026-05-02T13:30:12.999Z</time></trkpt><trkpt lat="49.20006091517189" lon="2.5857791799127856"><ele>54.0</ele><time>2026-05-02T13:30:14.999Z</time></trkpt><trkpt lat="49.20001527985705" lon="2.5858796768109538"><ele>53.66666666666667</ele><time>2026-05-02T13:30:16.999Z</time></trkpt><trkpt lat="49.19996596916546" lon="2.585990190112293"><ele>53.333333333333336</ele><time>2026-05-02T13:30:18.999Z</time></trkpt><trkpt lat="49.19992007214663" lon="2.5860932235261918"><ele>53.0</ele><time>2026-05-02T13:30:20.999Z</time></trkpt><trkpt lat="49.1998747719097" lon="2.586194917400163"><ele>53.333333333333336</ele><time>2026-05-02T13:30:22.998Z</time></trkpt><trkpt lat="49.19983066125392" lon="2.5862954744876068"><ele>53.66666666666667</ele><time>2026-05-02T13:30:24.998Z</time></trkpt><trkpt lat="49.199787073139795" lon="2.5863948635283323"><ele>54.0</ele><time>2026-05-02T13:30:26.998Z</time></trkpt><trkpt lat="49.1997419705461" lon="2.5864977059275396"><ele>54.33333333333333</ele><time>2026-05-02T13:30:28.998Z</time></trkpt><trkpt lat="49.19969488391031" lon="2.58660507229814"><ele>54.666666666666664</ele><time>2026-05-02T13:30:30.998Z</time></trkpt><trkpt lat="49.199650745379685" lon="2.586705716394609"><ele>55.0</ele><time>2026-05-02T13:30:32.998Z</time></trkpt><trkpt lat="49.19960356711945" lon="2.5868121633995584"><ele>54.99999999999999</ele><time>2026-05-02T13:30:34.998Z</time></trkpt><trkpt lat="49.19956414394487" lon="2.586895691520168"><ele>55.0</ele><time>2026-05-02T13:30:36.998Z</time></trkpt><trkpt lat="49.199511863896426" lon="2.587016095185739"><ele>55.0</ele><time>2026-05-02T13:30:38.998Z</time></trkpt><trkpt lat="49.199451845288706" lon="2.5870744294212433"><ele>55.0</ele><time>2026-05-02T13:30:40.998Z</time></trkpt><trkpt lat="49.199511246122334" lon="2.5871898337971264"><ele>54.99999999999999</ele><time>2026-05-02T13:30:41.998Z</time></trkpt><trkpt lat="49.19952306837926" lon="2.5873206153837534"><ele>55.0</ele><time>2026-05-02T13:30:43.998Z</time></trkpt><trkpt lat="49.1995495743329" lon="2.5874512042293913"><ele>54.8</ele><time>2026-05-02T13:30:45.998Z</time></trkpt><trkpt lat="49.199578128393675" lon="2.5875865905454396"><ele>54.6</ele><time>2026-05-02T13:30:47.998Z</time></trkpt><trkpt lat="49.19960629236094" lon="2.587720127288963"><ele>54.400000000000006</ele><time>2026-05-02T13:30:49.998Z</time></trkpt><trkpt lat="49.199634395170754" lon="2.5878583572868328"><ele>54.2</ele><time>2026-05-02T13:30:51.998Z</time></trkpt><trkpt lat="49.199661630831436" lon="2.5879934816456363"><ele>54.0</ele><time>2026-05-02T13:30:53.998Z</time></trkpt><trkpt lat="49.1996901969448" lon="2.5881352091464014"><ele>54.0</ele><time>2026-05-02T13:30:55.998Z</time></trkpt><trkpt lat="49.199716787551196" lon="2.5882734120340842"><ele>54.00000000000001</ele><time>2026-05-02T13:30:57.998Z</time></trkpt><trkpt lat="49.199742849387626" lon="2.588405506304872"><ele>54.00000000000001</ele><time>2026-05-02T13:30:59.997Z</time></trkpt><trkpt lat="49.19978309806061" lon="2.588527929210839"><ele>54.0</ele><time>2026-05-02T13:31:01.997Z</time></trkpt><trkpt lat="49.19979350748627" lon="2.588664709265101"><ele>54.0</ele><time>2026-05-02T13:31:03.997Z</time></trkpt><trkpt lat="49.19983237360926" lon="2.588783440815744"><ele>53.833333333333336</ele><time>2026-05-02T13:31:05.997Z</time></trkpt><trkpt lat="49.19985068709817" lon="2.588911952500454"><ele>53.66666666666667</ele><time>2026-05-02T13:31:07.997Z</time></trkpt><trkpt lat="49.199873180428085" lon="2.589035819169034"><ele>53.5</ele><time>2026-05-02T13:31:09.997Z</time></trkpt><trkpt lat="49.19989010456828" lon="2.589159969778868"><ele>53.333333333333336</ele><time>2026-05-02T13:31:11.997Z</time></trkpt><trkpt lat="49.19988447282057" lon="2.58928713776288"><ele>53.16666666666667</ele><time>2026-05-02T13:31:13.997Z</time></trkpt><trkpt lat="49.199870410069494" lon="2.589418977313666"><ele>53.0</ele><time>2026-05-02T13:31:15.997Z</time></trkpt><trkpt lat="49.199864800046946" lon="2.589554212952567"><ele>53.0</ele><time>2026-05-02T13:31:17.997Z</time></trkpt><trkpt lat="49.19986232490155" lon="2.589688287699012"><ele>53.0</ele><time>2026-05-02T13:31:19.997Z</time></trkpt><trkpt lat="49.19984176758363" lon="2.589824571493366"><ele>53.0</ele><time>2026-05-02T13:31:21.997Z</time></trkpt><trkpt lat="49.199835260094105" lon="2.5899652463858467"><ele>53.0</ele><time>2026-05-02T13:31:23.997Z</time></trkpt><trkpt lat="49.19982643118697" lon="2.5901049445635413"><ele>53.0</ele><time>2026-05-02T13:31:25.997Z</time></trkpt><trkpt lat="49.1998174208857" lon="2.5902475129213047"><ele>53.66666666666667</ele><time>2026-05-02T13:31:27.997Z</time></trkpt><trkpt lat="49.19980851030794" lon="2.590388503331907"><ele>54.333333333333336</ele><time>2026-05-02T13:31:29.997Z</time></trkpt><trkpt lat="49.19979962906859" lon="2.590529029485217"><ele>55.0</ele><time>2026-05-02T13:31:32Z</time></trkpt><trkpt lat="49.19980376786421" lon="2.5906677577956345"><ele>55.66666666666667</ele><time>2026-05-02T13:31:34Z</time></trkpt><trkpt lat="49.199794960455144" lon="2.5908032657457016"><ele>56.333333333333336</ele><time>2026-05-02T13:31:36Z</time></trkpt><trkpt lat="49.199788542471325" lon="2.5909304001978666"><ele>57.0</ele><time>2026-05-02T13:31:38Z</time></trkpt><trkpt lat="49.199781206514054" lon="2.5910578554484673"><ele>57.166666666666664</ele><time>2026-05-02T13:31:40Z</time></trkpt><trkpt lat="49.19977662452002" lon="2.59118500490879"><ele>57.33333333333333</ele><time>2026-05-02T13:31:42Z</time></trkpt><trkpt lat="49.19975465822981" lon="2.591306546185811"><ele>57.5</ele><time>2026-05-02T13:31:44Z</time></trkpt><trkpt lat="49.19974691223173" lon="2.59143019205226"><ele>57.666666666666664</ele><time>2026-05-02T13:31:46Z</time></trkpt><trkpt lat="49.19975367464687" lon="2.591552184520525"><ele>57.83333333333333</ele><time>2026-05-02T13:31:48Z</time></trkpt><trkpt lat="49.19974718608683" lon="2.591664687989128"><ele>58.0</ele><time>2026-05-02T13:31:50Z</time></trkpt><trkpt lat="49.19972297047061" lon="2.5917805903170494"><ele>58.0</ele><time>2026-05-02T13:31:52Z</time></trkpt><trkpt lat="49.19972732933276" lon="2.5918986495337584"><ele>58.0</ele><time>2026-05-02T13:31:54Z</time></trkpt><trkpt lat="49.1997183161876" lon="2.59201667008332"><ele>58.0</ele><time>2026-05-02T13:31:56Z</time></trkpt><trkpt lat="49.199702334552406" lon="2.592130823774316"><ele>58.0</ele><time>2026-05-02T13:31:58Z</time></trkpt><trkpt lat="49.19985760463008" lon="2.5921978684865086"><ele>58.0</ele><time>2026-05-02T13:32:01.999Z</time></trkpt><trkpt lat="49.19992682225119" lon="2.5921518267442747"><ele>57.2</ele><time>2026-05-02T13:32:03.999Z</time></trkpt><trkpt lat="49.20000598376744" lon="2.5921120025360387"><ele>56.4</ele><time>2026-05-02T13:32:05.999Z</time></trkpt><trkpt lat="49.20009420591867" lon="2.592069715527444"><ele>55.60000000000001</ele><time>2026-05-02T13:32:07.999Z</time></trkpt><trkpt lat="49.200179534551985" lon="2.5920114996564694"><ele>54.800000000000004</ele><time>2026-05-02T13:32:09.999Z</time></trkpt><trkpt lat="49.20027170779183" lon="2.5919780972847195"><ele>54.0</ele><time>2026-05-02T13:32:11.999Z</time></trkpt><trkpt lat="49.20037095403442" lon="2.5919202179109364"><ele>54.0</ele><time>2026-05-02T13:32:13.999Z</time></trkpt><trkpt lat="49.200468894712444" lon="2.591873661293101"><ele>54.00000000000001</ele><time>2026-05-02T13:32:15.999Z</time></trkpt><trkpt lat="49.2005682627765" lon="2.59182618728855"><ele>54.00000000000001</ele><time>2026-05-02T13:32:17.999Z</time></trkpt><trkpt lat="49.200667030877945" lon="2.591775882207691"><ele>54.0</ele><time>2026-05-02T13:32:19.999Z</time></trkpt><trkpt lat="49.20075246749292" lon="2.5917314611131395"><ele>54.0</ele><time>2026-05-02T13:32:21.999Z</time></trkpt><trkpt lat="49.20084864296649" lon="2.5916597394401584"><ele>53.6</ele><time>2026-05-02T13:32:23.999Z</time></trkpt><trkpt lat="49.20094631270706" lon="2.5915999245434334"><ele>53.2</ele><time>2026-05-02T13:32:25.999Z</time></trkpt><trkpt lat="49.201042432724236" lon="2.5915622970578336"><ele>52.800000000000004</ele><time>2026-05-02T13:32:27.999Z</time></trkpt><trkpt lat="49.20112671053377" lon="2.5914754060477967"><ele>52.400000000000006</ele><time>2026-05-02T13:32:29.999Z</time></trkpt><trkpt lat="49.20120298278704" lon="2.591383336000005"><ele>52.0</ele><time>2026-05-02T13:32:31.999Z</time></trkpt><trkpt lat="49.20128834168732" lon="2.5913610215621383"><ele>52.0</ele><time>2026-05-02T13:32:33.999Z</time></trkpt><trkpt lat="49.20135198224163" lon="2.5914573356129025"><ele>52.0</ele><time>2026-05-02T13:32:34.998Z</time></trkpt><trkpt lat="49.20141270164018" lon="2.5915831194452768"><ele>52.0</ele><time>2026-05-02T13:32:36.998Z</time></trkpt><trkpt lat="49.20143923746867" lon="2.5917438082084967"><ele>52.0</ele><time>2026-05-02T13:32:38.998Z</time></trkpt><trkpt lat="49.20146263562008" lon="2.591912866726524"><ele>52.0</ele><time>2026-05-02T13:32:40.998Z</time></trkpt><trkpt lat="49.201514962321994" lon="2.5920641948479446"><ele>52.25</ele><time>2026-05-02T13:32:42.998Z</time></trkpt><trkpt lat="49.20161007529356" lon="2.592183732315065"><ele>52.5</ele><time>2026-05-02T13:32:44.998Z</time></trkpt><trkpt lat="49.20172638735825" lon="2.592238936487253"><ele>52.75</ele><time>2026-05-02T13:32:46.998Z</time></trkpt><trkpt lat="49.2018332971662" lon="2.5922529286314004"><ele>53.0</ele><time>2026-05-02T13:32:48.998Z</time></trkpt><trkpt lat="49.201931704600675" lon="2.592263586465704"><ele>53.00000000000001</ele><time>2026-05-02T13:32:50.998Z</time></trkpt><trkpt lat="49.202025696854456" lon="2.5922731853250416"><ele>53.0</ele><time>2026-05-02T13:32:52.998Z</time></trkpt><trkpt lat="49.20211120099695" lon="2.592276594065306"><ele>53.0</ele><time>2026-05-02T13:32:54.998Z</time></trkpt><trkpt lat="49.20217651702875" lon="2.5922878511565166"><ele>53.0</ele><time>2026-05-02T13:32:56.998Z</time></trkpt><trkpt lat="49.20224618213699" lon="2.592289876965767"><ele>53.00000000000001</ele><time>2026-05-02T13:32:59.998Z</time></trkpt><trkpt lat="49.20231038501321" lon="2.5922933895505333"><ele>53.0</ele><time>2026-05-02T13:34:00Z</time></trkpt><trkpt lat="49.202385809310414" lon="2.592295333710126"><ele>53.66666666666667</ele><time>2026-05-02T13:35:08.998Z</time></trkpt><trkpt lat="49.202486796827664" lon="2.5922910472502476"><ele>54.333333333333336</ele><time>2026-05-02T13:35:11.998Z</time></trkpt><trkpt lat="49.2025688474153" lon="2.5922592634645993"><ele>55.0</ele><time>2026-05-02T13:35:13.998Z</time></trkpt><trkpt lat="49.202661123395174" lon="2.5922353536932206"><ele>55.66666666666667</ele><time>2026-05-02T13:35:15.997Z</time></trkpt><trkpt lat="49.202728122029065" lon="2.5922113110608964"><ele>56.333333333333336</ele><time>2026-05-02T13:35:17.997Z</time></trkpt><trkpt lat="49.202784273639566" lon="2.592148088609655"><ele>57.0</ele><time>2026-05-02T13:35:19.997Z</time></trkpt><trkpt lat="49.20284224603088" lon="2.5920987825994697"><ele>57.0</ele><time>2026-05-02T13:35:21.997Z</time></trkpt><trkpt lat="49.20289910919336" lon="2.5920423057885484"><ele>57.0</ele><time>2026-05-02T13:35:23.997Z</time></trkpt><trkpt lat="49.20297591759674" lon="2.591978872747408"><ele>57.0</ele><time>2026-05-02T13:35:26.997Z</time></trkpt><trkpt lat="49.203024278664316" lon="2.591914547112421"><ele>57.0</ele><time>2026-05-02T13:35:28.997Z</time></trkpt><trkpt lat="49.20310586060267" lon="2.591857770094702"><ele>57.0</ele><time>2026-05-02T13:35:31.997Z</time></trkpt><trkpt lat="49.20319104177698" lon="2.591823540361581"><ele>57.0</ele><time>2026-05-02T13:35:34.997Z</time></trkpt><trkpt lat="49.203267638150095" lon="2.591776255499157"><ele>57.333333333333336</ele><time>2026-05-02T13:35:37.997Z</time></trkpt><trkpt lat="49.203352899094526" lon="2.5917281407931476"><ele>57.66666666666667</ele><time>2026-05-02T13:35:40.997Z</time></trkpt><trkpt lat="49.2034379313734" lon="2.591684667101378"><ele>58.0</ele><time>2026-05-02T13:35:43.999Z</time></trkpt><trkpt lat="49.20352087533008" lon="2.591646036861666"><ele>58.333333333333336</ele><time>2026-05-02T13:35:46.999Z</time></trkpt><trkpt lat="49.20360496032251" lon="2.5916118839879094"><ele>58.66666666666667</ele><time>2026-05-02T13:35:49.999Z</time></trkpt><trkpt lat="49.20369435018703" lon="2.591581251421312"><ele>59.0</ele><time>2026-05-02T13:35:52.999Z</time></trkpt><trkpt lat="49.203780148954195" lon="2.5915541283538497"><ele>59.00000000000001</ele><time>2026-05-02T13:35:55.999Z</time></trkpt><trkpt lat="49.20386844642184" lon="2.5915092485210764"><ele>59.0</ele><time>2026-05-02T13:35:58.999Z</time></trkpt><trkpt lat="49.20393094970238" lon="2.5914880749355507"><ele>59.0</ele><time>2026-05-02T13:36:00.999Z</time></trkpt><trkpt lat="49.20399501546963" lon="2.591482976046413"><ele>59.0</ele><time>2026-05-02T13:36:02.999Z</time></trkpt><trkpt lat="49.20408369916411" lon="2.591479314091767"><ele>59.00000000000001</ele><time>2026-05-02T13:36:05.999Z</time></trkpt><trkpt lat="49.20416940986083" lon="2.5915098378504364"><ele>59.0</ele><time>2026-05-02T13:36:08.999Z</time></trkpt><trkpt lat="49.20425867606685" lon="2.591499519443386"><ele>59.42857142857143</ele><time>2026-05-02T13:36:11.999Z</time></trkpt><trkpt lat="49.204323109513034" lon="2.5914968035202754"><ele>59.85714285714286</ele><time>2026-05-02T13:36:13.999Z</time></trkpt><trkpt lat="49.20440791958757" lon="2.591523720248871"><ele>60.28571428571429</ele><time>2026-05-02T13:36:16.999Z</time></trkpt><trkpt lat="49.20447512014842" lon="2.591502113243115"><ele>60.714285714285715</ele><time>2026-05-02T13:36:18.999Z</time></trkpt><trkpt lat="49.20454071423038" lon="2.591527856025157"><ele>61.14285714285715</ele><time>2026-05-02T13:36:20.999Z</time></trkpt><trkpt lat="49.20460591097439" lon="2.591508709753269"><ele>61.57142857142858</ele><time>2026-05-02T13:36:22.999Z</time></trkpt><trkpt lat="49.20469850882364" lon="2.5915134520353513"><ele>62.0</ele><time>2026-05-02T13:36:25.999Z</time></trkpt><trkpt lat="49.20477447683936" lon="2.5915259849076797"><ele>63.00000000000001</ele><time>2026-05-02T13:36:28.999Z</time></trkpt><trkpt lat="49.204878965637874" lon="2.5915554861416177"><ele>64.0</ele><time>2026-05-02T13:36:29.999Z</time></trkpt><trkpt lat="49.20494021956092" lon="2.591469488541478"><ele>65.0</ele><time>2026-05-02T13:36:32.999Z</time></trkpt><trkpt lat="49.204996268135964" lon="2.5913964492707726"><ele>66.0</ele><time>2026-05-02T13:36:35.998Z</time></trkpt><trkpt lat="49.20505768304444" lon="2.591319159601593"><ele>67.0</ele><time>2026-05-02T13:36:38.998Z</time></trkpt><trkpt lat="49.20510786749622" lon="2.591258169213639"><ele>68.0</ele><time>2026-05-02T13:36:40.998Z</time></trkpt><trkpt lat="49.20517394992482" lon="2.5911950965240784"><ele>68.14285714285714</ele><time>2026-05-02T13:36:42.998Z</time></trkpt><trkpt lat="49.20523264828925" lon="2.591120716600525"><ele>68.28571428571428</ele><time>2026-05-02T13:36:44.998Z</time></trkpt><trkpt lat="49.20528393153212" lon="2.591048615303229"><ele>68.42857142857143</ele><time>2026-05-02T13:36:46.998Z</time></trkpt><trkpt lat="49.20533531768358" lon="2.5909848883100364"><ele>68.57142857142857</ele><time>2026-05-02T13:36:48.998Z</time></trkpt><trkpt lat="49.20540249385066" lon="2.59095995712227"><ele>68.71428571428572</ele><time>2026-05-02T13:36:50.998Z</time></trkpt><trkpt lat="49.20548128307155" lon="2.5908932989679196"><ele>68.85714285714286</ele><time>2026-05-02T13:36:53.998Z</time></trkpt><trkpt lat="49.20553299898418" lon="2.590833895633519"><ele>69.0</ele><time>2026-05-02T13:36:55.998Z</time></trkpt><trkpt lat="49.20560689869015" lon="2.590759220085249"><ele>69.0</ele><time>2026-05-02T13:36:58.998Z</time></trkpt><trkpt lat="49.205658621276875" lon="2.590697466084345"><ele>69.0</ele><time>2026-05-02T13:37:00.998Z</time></trkpt><trkpt lat="49.2057235873303" lon="2.5906107697107306"><ele>69.0</ele><time>2026-05-02T13:37:03.998Z</time></trkpt><trkpt lat="49.205782133976825" lon="2.5905373746012343"><ele>69.0</ele><time>2026-05-02T13:37:06.998Z</time></trkpt><trkpt lat="49.20583747809259" lon="2.5904679942188555"><ele>69.0</ele><time>2026-05-02T13:37:09.998Z</time></trkpt><trkpt lat="49.20590707637473" lon="2.590380744509068"><ele>69.0</ele><time>2026-05-02T13:37:12.997Z</time></trkpt><trkpt lat="49.205971427604396" lon="2.590300072677274"><ele>69.16666666666667</ele><time>2026-05-02T13:37:15.997Z</time></trkpt><trkpt lat="49.206022365388264" lon="2.590236216154126"><ele>69.33333333333333</ele><time>2026-05-02T13:37:17.997Z</time></trkpt><trkpt lat="49.206104538913515" lon="2.590221463025993"><ele>69.5</ele><time>2026-05-02T13:37:19.997Z</time></trkpt><trkpt lat="49.206135799559064" lon="2.590118366638202"><ele>69.66666666666666</ele><time>2026-05-02T13:37:21.997Z</time></trkpt><trkpt lat="49.20618294643496" lon="2.5900283387832954"><ele>69.83333333333333</ele><time>2026-05-02T13:37:23.997Z</time></trkpt><trkpt lat="49.20625451166743" lon="2.589962885696145"><ele>70.0</ele><time>2026-05-02T13:37:25.997Z</time></trkpt><trkpt lat="49.20630465082542" lon="2.5898812026405884"><ele>70.0</ele><time>2026-05-02T13:37:27.997Z</time></trkpt><trkpt lat="49.206355986094" lon="2.5898004055086368"><ele>70.0</ele><time>2026-05-02T13:37:29.997Z</time></trkpt><trkpt lat="49.20641390940919" lon="2.589711082658918"><ele>70.0</ele><time>2026-05-02T13:37:31.997Z</time></trkpt><trkpt lat="49.20649857093616" lon="2.5896623309963487"><ele>70.0</ele><time>2026-05-02T13:37:34.997Z</time></trkpt><trkpt lat="49.20657255216758" lon="2.5897148512685857"><ele>70.0</ele><time>2026-05-02T13:37:36.997Z</time></trkpt><trkpt lat="49.206640698690954" lon="2.589749942759458"><ele>70.0</ele><time>2026-05-02T13:37:38.997Z</time></trkpt><trkpt lat="49.206706200079836" lon="2.58978294642895"><ele>70.5</ele><time>2026-05-02T13:37:40.997Z</time></trkpt><trkpt lat="49.20677803848376" lon="2.5898136065023953"><ele>71.0</ele><time>2026-05-02T13:37:42.997Z</time></trkpt><trkpt lat="49.20685780403246" lon="2.5898300836945003"><ele>71.5</ele><time>2026-05-02T13:37:44.997Z</time></trkpt><trkpt lat="49.20693272738247" lon="2.589876018914939"><ele>72.0</ele><time>2026-05-02T13:37:46.997Z</time></trkpt><trkpt lat="49.20700338634031" lon="2.5899190844310644"><ele>72.5</ele><time>2026-05-02T13:37:48.999Z</time></trkpt><trkpt lat="49.207058083826816" lon="2.5899686441480982"><ele>73.0</ele><time>2026-05-02T13:37:50.999Z</time></trkpt><trkpt lat="49.20717377552956" lon="2.589919885599441"><ele>73.0</ele><time>2026-05-02T13:37:53.999Z</time></trkpt><trkpt lat="49.207225321399704" lon="2.5899760548655193"><ele>73.0</ele><time>2026-05-02T13:37:56.999Z</time></trkpt><trkpt lat="49.20725658346027" lon="2.5898803286864256"><ele>73.0</ele><time>2026-05-02T13:38:10.999Z</time></trkpt><trkpt lat="49.20727170787195" lon="2.5897424213294538"><ele>73.0</ele><time>2026-05-02T13:38:18.999Z</time></trkpt><trkpt lat="49.20719871590273" lon="2.589855624907277"><ele>73.0</ele><time>2026-05-02T13:38:29.999Z</time></trkpt><trkpt lat="49.207165955457214" lon="2.5899540010164936"><ele>73.0</ele><time>2026-05-02T13:38:31.999Z</time></trkpt><trkpt lat="49.20710993594864" lon="2.5900104199604326"><ele>73.0</ele><time>2026-05-02T13:38:33.999Z</time></trkpt><trkpt lat="49.207067686999665" lon="2.589902998587692"><ele>73.0</ele><time>2026-05-02T13:38:35.999Z</time></trkpt><trkpt lat="49.207049320673654" lon="2.5898085460668527"><ele>73.0</ele><time>2026-05-02T13:38:36.999Z</time></trkpt><trkpt lat="49.20716901284354" lon="2.590003015047112"><ele>73.0</ele><time>2026-05-02T13:38:55.998Z</time></trkpt><trkpt lat="49.20708222315744" lon="2.589990456991798"><ele>73.0</ele><time>2026-05-02T13:38:59.998Z</time></trkpt><trkpt lat="49.20716485297571" lon="2.5900256720162447"><ele>73.0</ele><time>2026-05-02T13:39:15.998Z</time></trkpt><trkpt lat="49.20710133023449" lon="2.5899351689405483"><ele>73.0</ele><time>2026-05-02T13:39:22.998Z</time></trkpt><trkpt lat="49.20725345398934" lon="2.5897884884290177"><ele>73.0</ele><time>2026-05-02T13:39:35.997Z</time></trkpt><trkpt lat="49.20722739663364" lon="2.5899046588705894"><ele>73.0</ele><time>2026-05-02T13:39:43.997Z</time></trkpt><trkpt lat="49.20725236136883" lon="2.5898147841750716"><ele>73.0</ele><time>2026-05-02T13:39:58Z</time></trkpt><trkpt lat="49.20729099463723" lon="2.5897375222396644"><ele>73.0</ele><time>2026-05-02T13:40:02Z</time></trkpt><trkpt lat="49.20722667760515" lon="2.5898275874021595"><ele>73.0</ele><time>2026-05-02T13:40:58.998Z</time></trkpt><trkpt lat="49.2072535121662" lon="2.589934568860535"><ele>73.0</ele><time>2026-05-02T13:41:03.998Z</time></trkpt><trkpt lat="49.20718758945354" lon="2.5899356035872834"><ele>73.0</ele><time>2026-05-02T13:42:48.999Z</time></trkpt><trkpt lat="49.20709579047722" lon="2.589871950841043"><ele>73.0</ele><time>2026-05-02T13:42:53.999Z</time></trkpt><trkpt lat="49.20706623588017" lon="2.589766279519062"><ele>73.0</ele><time>2026-05-02T13:42:57.998Z</time></trkpt><trkpt lat="49.20698441921263" lon="2.589796454327231"><ele>73.0</ele><time>2026-05-02T13:43:01.998Z</time></trkpt><trkpt lat="49.20691747667717" lon="2.5897559071816674"><ele>73.0</ele><time>2026-05-02T13:43:06.998Z</time></trkpt><trkpt lat="49.20684810191755" lon="2.589694788805468"><ele>73.0</ele><time>2026-05-02T13:44:33.999Z</time></trkpt><trkpt lat="49.206763477941074" lon="2.5896666934654733"><ele>73.0</ele><time>2026-05-02T13:44:37.999Z</time></trkpt><trkpt lat="49.20669144076028" lon="2.5895964364451465"><ele>73.0</ele><time>2026-05-02T13:44:40.999Z</time></trkpt><trkpt lat="49.206608090734136" lon="2.5895485833171827"><ele>73.0</ele><time>2026-05-02T13:44:43.999Z</time></trkpt><trkpt lat="49.206564567010666" lon="2.5894757861371"><ele>73.0</ele><time>2026-05-02T13:44:45.999Z</time></trkpt><trkpt lat="49.20652876786724" lon="2.5893707063486415"><ele>73.0</ele><time>2026-05-02T13:44:47.999Z</time></trkpt><trkpt lat="49.20647420635498" lon="2.589265667844057"><ele>73.0</ele><time>2026-05-02T13:44:49.999Z</time></trkpt><trkpt lat="49.206415757613016" lon="2.5891482824435847"><ele>73.0</ele><time>2026-05-02T13:44:51.999Z</time></trkpt><trkpt lat="49.20636746095841" lon="2.5890325035304302"><ele>73.0</ele><time>2026-05-02T13:44:53.999Z</time></trkpt><trkpt lat="49.20632684957978" lon="2.5889159000836726"><ele>73.0</ele><time>2026-05-02T13:44:55.999Z</time></trkpt><trkpt lat="49.20628905554691" lon="2.588803808001934"><ele>72.66666666666666</ele><time>2026-05-02T13:44:57.999Z</time></trkpt><trkpt lat="49.206246414403864" lon="2.588700299949666"><ele>72.33333333333333</ele><time>2026-05-02T13:44:59.998Z</time></trkpt><trkpt lat="49.20620876154625" lon="2.588600188631056"><ele>72.0</ele><time>2026-05-02T13:45:01.998Z</time></trkpt><trkpt lat="49.206179343397984" lon="2.5884979767666785"><ele>71.66666666666667</ele><time>2026-05-02T13:45:03.998Z</time></trkpt><trkpt lat="49.206166352512355" lon="2.588383208472597"><ele>71.33333333333334</ele><time>2026-05-02T13:45:05.998Z</time></trkpt><trkpt lat="49.206165656212676" lon="2.5882738709659554"><ele>71.0</ele><time>2026-05-02T13:45:07.998Z</time></trkpt><trkpt lat="49.206161949382356" lon="2.5881602284030816"><ele>71.0</ele><time>2026-05-02T13:45:09.998Z</time></trkpt><trkpt lat="49.206175972578954" lon="2.5880492653108895"><ele>71.0</ele><time>2026-05-02T13:45:11.998Z</time></trkpt><trkpt lat="49.20619591788812" lon="2.587905983671307"><ele>71.0</ele><time>2026-05-02T13:45:14.998Z</time></trkpt><trkpt lat="49.20617077495476" lon="2.5877618757117777"><ele>71.0</ele><time>2026-05-02T13:45:17.998Z</time></trkpt><trkpt lat="49.2061905273575" lon="2.587659228305471"><ele>71.0</ele><time>2026-05-02T13:45:19.998Z</time></trkpt><trkpt lat="49.20615666322314" lon="2.5875556938620186"><ele>71.0</ele><time>2026-05-02T13:45:21.998Z</time></trkpt><trkpt lat="49.20610683202776" lon="2.5874652400255966"><ele>71.14285714285714</ele><time>2026-05-02T13:45:23.998Z</time></trkpt><trkpt lat="49.20606242910004" lon="2.5873869276519694"><ele>71.28571428571428</ele><time>2026-05-02T13:45:25.998Z</time></trkpt><trkpt lat="49.206019300995216" lon="2.5872661336506013"><ele>71.42857142857143</ele><time>2026-05-02T13:45:28.998Z</time></trkpt><trkpt lat="49.20600681492096" lon="2.5871659445767095"><ele>71.57142857142857</ele><time>2026-05-02T13:45:31.998Z</time></trkpt><trkpt lat="49.2060500132574" lon="2.5870918405527803"><ele>71.71428571428572</ele><time>2026-05-02T13:45:34.998Z</time></trkpt><trkpt lat="49.20606333961369" lon="2.586993296680744"><ele>71.85714285714286</ele><time>2026-05-02T13:45:39.998Z</time></trkpt><trkpt lat="49.20604279277721" lon="2.5868990512688"><ele>72.0</ele><time>2026-05-02T13:45:47.997Z</time></trkpt><trkpt lat="49.20598194911583" lon="2.5868499361344894"><ele>72.42857142857143</ele><time>2026-05-02T13:45:56.997Z</time></trkpt><trkpt lat="49.205923401952475" lon="2.5868041651809164"><ele>72.85714285714286</ele><time>2026-05-02T13:46:03.997Z</time></trkpt><trkpt lat="49.205870236064804" lon="2.586748139059127"><ele>73.28571428571428</ele><time>2026-05-02T13:46:10.999Z</time></trkpt><trkpt lat="49.20581238233934" lon="2.58669789295628"><ele>73.71428571428572</ele><time>2026-05-02T13:46:19.999Z</time></trkpt><trkpt lat="49.205754933651235" lon="2.5866475565866596"><ele>74.14285714285714</ele><time>2026-05-02T13:46:27.999Z</time></trkpt><trkpt lat="49.20569935710886" lon="2.5865927916620133"><ele>74.57142857142857</ele><time>2026-05-02T13:46:34.999Z</time></trkpt><trkpt lat="49.2056414138124" lon="2.5865433029835145"><ele>75.0</ele><time>2026-05-02T13:46:40.999Z</time></trkpt><trkpt lat="49.205575916568804" lon="2.58648507974935"><ele>74.0</ele><time>2026-05-02T13:46:44.999Z</time></trkpt><trkpt lat="49.20549456878069" lon="2.586436391137549"><ele>73.0</ele><time>2026-05-02T13:46:48.999Z</time></trkpt><trkpt lat="49.20543353777777" lon="2.5863933471199454"><ele>72.0</ele><time>2026-05-02T13:46:51.999Z</time></trkpt><trkpt lat="49.205364289804" lon="2.586317973021832"><ele>71.0</ele><time>2026-05-02T13:46:54.999Z</time></trkpt><trkpt lat="49.205295411618636" lon="2.586266649567647"><ele>70.0</ele><time>2026-05-02T13:46:57.999Z</time></trkpt><trkpt lat="49.205230344448864" lon="2.5862453651355075"><ele>69.0</ele><time>2026-05-02T13:47:42.998Z</time></trkpt><trkpt lat="49.20516561248679" lon="2.586211557544302"><ele>69.16666666666667</ele><time>2026-05-02T13:48:05.997Z</time></trkpt><trkpt lat="49.20520363042424" lon="2.5861214105398065"><ele>69.33333333333333</ele><time>2026-05-02T13:48:10.997Z</time></trkpt><trkpt lat="49.205131180691644" lon="2.5860724087153995"><ele>69.5</ele><time>2026-05-02T13:48:21Z</time></trkpt><trkpt lat="49.20510185165689" lon="2.585964057871398"><ele>69.66666666666666</ele><time>2026-05-02T13:48:24Z</time></trkpt><trkpt lat="49.205082072298055" lon="2.585844287853203"><ele>69.83333333333333</ele><time>2026-05-02T13:48:27Z</time></trkpt><trkpt lat="49.20506998072289" lon="2.585728249111566"><ele>70.0</ele><time>2026-05-02T13:48:30Z</time></trkpt><trkpt lat="49.2050651707401" lon="2.585625670459585"><ele>70.0</ele><time>2026-05-02T13:48:33Z</time></trkpt><trkpt lat="49.20506306663008" lon="2.585502938861143"><ele>70.0</ele><time>2026-05-02T13:48:36Z</time></trkpt><trkpt lat="49.20504265217124" lon="2.5853704509289672"><ele>70.0</ele><time>2026-05-02T13:48:39Z</time></trkpt><trkpt lat="49.20504692192309" lon="2.5852507099260524"><ele>70.0</ele><time>2026-05-02T13:48:41.999Z</time></trkpt><trkpt lat="49.205051470987335" lon="2.5851226882500717"><ele>70.0</ele><time>2026-05-02T13:48:44.999Z</time></trkpt><trkpt lat="49.20505041713409" lon="2.5849979913224637"><ele>70.0</ele><time>2026-05-02T13:48:47.999Z</time></trkpt><trkpt lat="49.205057229667254" lon="2.584890161989457"><ele>70.28571428571429</ele><time>2026-05-02T13:48:50.999Z</time></trkpt><trkpt lat="49.205053541035774" lon="2.584783163495387"><ele>70.57142857142857</ele><time>2026-05-02T13:48:53.999Z</time></trkpt><trkpt lat="49.20504832190432" lon="2.584678921316871"><ele>70.85714285714286</ele><time>2026-05-02T13:48:58.999Z</time></trkpt><trkpt lat="49.2050570066043" lon="2.5845751881854517"><ele>71.14285714285714</ele><time>2026-05-02T13:49:01.999Z</time></trkpt><trkpt lat="49.20508240881705" lon="2.58444983884567"><ele>71.42857142857143</ele><time>2026-05-02T13:49:04.999Z</time></trkpt><trkpt lat="49.205106516715716" lon="2.584355538386047"><ele>71.71428571428572</ele><time>2026-05-02T13:49:06.999Z</time></trkpt><trkpt lat="49.20512380261771" lon="2.584255668431405"><ele>72.0</ele><time>2026-05-02T13:49:08.999Z</time></trkpt><trkpt lat="49.20513487047222" lon="2.5841567504853065"><ele>72.16666666666667</ele><time>2026-05-02T13:49:10.999Z</time></trkpt><trkpt lat="49.20515538285978" lon="2.584062558535102"><ele>72.33333333333333</ele><time>2026-05-02T13:49:12.999Z</time></trkpt><trkpt lat="49.205184348010356" lon="2.583929551930319"><ele>72.5</ele><time>2026-05-02T13:49:15.999Z</time></trkpt><trkpt lat="49.20520531426438" lon="2.5838380327137282"><ele>72.66666666666666</ele><time>2026-05-02T13:49:17.999Z</time></trkpt><trkpt lat="49.20513363430742" lon="2.583715534546386"><ele>72.83333333333333</ele><time>2026-05-02T13:49:22.999Z</time></trkpt><trkpt lat="49.20506181878091" lon="2.583673093740513"><ele>73.0</ele><time>2026-05-02T13:49:24.998Z</time></trkpt><trkpt lat="49.204961227712005" lon="2.5836148616057906"><ele>72.6</ele><time>2026-05-02T13:49:26.998Z</time></trkpt><trkpt lat="49.2048356029115" lon="2.583533257203856"><ele>72.19999999999999</ele><time>2026-05-02T13:49:28.998Z</time></trkpt><trkpt lat="49.2047240508506" lon="2.58345293908922"><ele>71.8</ele><time>2026-05-02T13:49:30.998Z</time></trkpt><trkpt lat="49.20465256242496" lon="2.5833989783750733"><ele>71.39999999999999</ele><time>2026-05-02T13:49:31.998Z</time></trkpt><trkpt lat="49.20457733563884" lon="2.583340982302829"><ele>71.0</ele><time>2026-05-02T13:49:32.998Z</time></trkpt><trkpt lat="49.20449318535289" lon="2.5833026557219516"><ele>69.2</ele><time>2026-05-02T13:49:33.998Z</time></trkpt><trkpt lat="49.20441060252278" lon="2.5832233176038675"><ele>67.39999999999999</ele><time>2026-05-02T13:49:34.998Z</time></trkpt><trkpt lat="49.20432927340648" lon="2.58316421390668"><ele>65.6</ele><time>2026-05-02T13:49:35.998Z</time></trkpt><trkpt lat="49.204245173472096" lon="2.583068751459923"><ele>63.8</ele><time>2026-05-02T13:49:36.998Z</time></trkpt><trkpt lat="49.204145952610006" lon="2.5830107574870915"><ele>62.0</ele><time>2026-05-02T13:49:37.998Z</time></trkpt><trkpt lat="49.20406687218652" lon="2.5829316271036253"><ele>61.0</ele><time>2026-05-02T13:49:38.998Z</time></trkpt><trkpt lat="49.20397927963016" lon="2.5828785660635485"><ele>60.0</ele><time>2026-05-02T13:49:39.998Z</time></trkpt><trkpt lat="49.20389167018622" lon="2.582806981189354"><ele>59.0</ele><time>2026-05-02T13:49:40.998Z</time></trkpt><trkpt lat="49.20380202837077" lon="2.582735762960701"><ele>58.0</ele><time>2026-05-02T13:49:41.998Z</time></trkpt><trkpt lat="49.2037067335809" lon="2.5826617053767715"><ele>57.0</ele><time>2026-05-02T13:49:42.998Z</time></trkpt><trkpt lat="49.20360399211634" lon="2.5825978348042904"><ele>56.75</ele><time>2026-05-02T13:49:43.998Z</time></trkpt><trkpt lat="49.20350821889601" lon="2.5825304159487277"><ele>56.5</ele><time>2026-05-02T13:49:44.998Z</time></trkpt><trkpt lat="49.20339849716375" lon="2.5824728812667637"><ele>56.25</ele><time>2026-05-02T13:49:45.998Z</time></trkpt><trkpt lat="49.20327936596158" lon="2.582388778436247"><ele>56.0</ele><time>2026-05-02T13:49:46.998Z</time></trkpt><trkpt lat="49.203210489018424" lon="2.582277995724961"><ele>55.4</ele><time>2026-05-02T13:49:47.998Z</time></trkpt><trkpt lat="49.20311999167533" lon="2.5822219189988647"><ele>54.8</ele><time>2026-05-02T13:49:48.998Z</time></trkpt><trkpt lat="49.20302421871907" lon="2.5821566336502"><ele>54.199999999999996</ele><time>2026-05-02T13:49:49.998Z</time></trkpt><trkpt lat="49.20294208653582" lon="2.582100646414808"><ele>53.599999999999994</ele><time>2026-05-02T13:49:50.998Z</time></trkpt><trkpt lat="49.202868060869925" lon="2.582044760798474"><ele>53.0</ele><time>2026-05-02T13:49:51.998Z</time></trkpt><trkpt lat="49.20280023526999" lon="2.5819954948891635"><ele>53.0</ele><time>2026-05-02T13:49:52.998Z</time></trkpt><trkpt lat="49.20270744737267" lon="2.582001054644836"><ele>53.0</ele><time>2026-05-02T13:49:53.998Z</time></trkpt><trkpt lat="49.202583937641755" lon="2.5819303887934817"><ele>53.0</ele><time>2026-05-02T13:49:54.998Z</time></trkpt><trkpt lat="49.20260198566184" lon="2.581806308316365"><ele>53.0</ele><time>2026-05-02T13:49:55.998Z</time></trkpt><trkpt lat="49.20254231767443" lon="2.5818491767117577"><ele>53.0</ele><time>2026-05-02T13:49:56.998Z</time></trkpt><trkpt lat="49.20246305677929" lon="2.581835930167322"><ele>53.0</ele><time>2026-05-02T13:49:57.998Z</time></trkpt><trkpt lat="49.20240798657067" lon="2.5817735723270014"><ele>53.0</ele><time>2026-05-02T13:49:58.998Z</time></trkpt><trkpt lat="49.20237343711716" lon="2.581667534294939"><ele>53.0</ele><time>2026-05-02T13:49:59.998Z</time></trkpt><trkpt lat="49.20231512507248" lon="2.581621950338294"><ele>53.0</ele><time>2026-05-02T13:50:00.998Z</time></trkpt><trkpt lat="49.20225696216741" lon="2.5815764830066157"><ele>53.0</ele><time>2026-05-02T13:50:01.998Z</time></trkpt><trkpt lat="49.202198589790456" lon="2.5815313426007958"><ele>53.0</ele><time>2026-05-02T13:50:02.998Z</time></trkpt><trkpt lat="49.2021387864467" lon="2.581487976435757"><ele>53.0</ele><time>2026-05-02T13:50:03.998Z</time></trkpt><trkpt lat="49.20202445247507" lon="2.5814118325888042"><ele>53.4</ele><time>2026-05-02T13:50:05.998Z</time></trkpt><trkpt lat="49.20190895625643" lon="2.5813879919351974"><ele>53.8</ele><time>2026-05-02T13:50:07.998Z</time></trkpt><trkpt lat="49.20184588385169" lon="2.5813584345830503"><ele>54.2</ele><time>2026-05-02T13:50:08.997Z</time></trkpt><trkpt lat="49.20174143892329" lon="2.581278770460719"><ele>54.6</ele><time>2026-05-02T13:50:10.997Z</time></trkpt><trkpt lat="49.201633459459664" lon="2.5812179805626525"><ele>55.0</ele><time>2026-05-02T13:50:12.997Z</time></trkpt><trkpt lat="49.201528112086535" lon="2.5811687978176754"><ele>56.0</ele><time>2026-05-02T13:50:14.997Z</time></trkpt><trkpt lat="49.20142548692197" lon="2.581104937871221"><ele>57.0</ele><time>2026-05-02T13:50:16.997Z</time></trkpt><trkpt lat="49.20133366925165" lon="2.581049277075409"><ele>58.0</ele><time>2026-05-02T13:50:18.997Z</time></trkpt><trkpt lat="49.20124181803706" lon="2.5809891999814663"><ele>59.0</ele><time>2026-05-02T13:50:20.997Z</time></trkpt><trkpt lat="49.201154258274755" lon="2.580933140087616"><ele>60.0</ele><time>2026-05-02T13:50:23Z</time></trkpt><trkpt lat="49.20106360462548" lon="2.5808748456809893"><ele>60.0</ele><time>2026-05-02T13:50:25Z</time></trkpt><trkpt lat="49.200976016651985" lon="2.580817488047269"><ele>60.0</ele><time>2026-05-02T13:50:27Z</time></trkpt><trkpt lat="49.2008910515855" lon="2.5807612804219677"><ele>60.0</ele><time>2026-05-02T13:50:29Z</time></trkpt><trkpt lat="49.20080828471588" lon="2.580701053273138"><ele>60.0</ele><time>2026-05-02T13:50:31Z</time></trkpt><trkpt lat="49.20072608346224" lon="2.580640267528273"><ele>60.0</ele><time>2026-05-02T13:50:33Z</time></trkpt><trkpt lat="49.20064361624025" lon="2.580567755619858"><ele>60.0</ele><time>2026-05-02T13:50:35Z</time></trkpt><trkpt lat="49.20055991263527" lon="2.5804926445905583"><ele>60.0</ele><time>2026-05-02T13:50:37Z</time></trkpt><trkpt lat="49.200474029309646" lon="2.580426914572759"><ele>60.0</ele><time>2026-05-02T13:50:39Z</time></trkpt><trkpt lat="49.20038719712805" lon="2.5803668369555397"><ele>60.0</ele><time>2026-05-02T13:50:41Z</time></trkpt><trkpt lat="49.20029649573168" lon="2.5803057170322155"><ele>60.0</ele><time>2026-05-02T13:50:43Z</time></trkpt><trkpt lat="49.20020612811285" lon="2.580243281189949"><ele>60.0</ele><time>2026-05-02T13:50:45Z</time></trkpt><trkpt lat="49.200115402477564" lon="2.580183549984982"><ele>60.0</ele><time>2026-05-02T13:50:47Z</time></trkpt><trkpt lat="49.20002452365363" lon="2.5801188549716696"><ele>60.0</ele><time>2026-05-02T13:50:49Z</time></trkpt><trkpt lat="49.19993306132584" lon="2.5800539759011945"><ele>60.0</ele><time>2026-05-02T13:50:51Z</time></trkpt><trkpt lat="49.199840552776365" lon="2.579996955093744"><ele>60.0</ele><time>2026-05-02T13:50:53Z</time></trkpt><trkpt lat="49.199752209114976" lon="2.5799234323222016"><ele>60.2</ele><time>2026-05-02T13:50:55Z</time></trkpt><trkpt lat="49.19966493858922" lon="2.579861926793686"><ele>60.4</ele><time>2026-05-02T13:50:57Z</time></trkpt><trkpt lat="49.1995784132769" lon="2.5797929906137256"><ele>60.599999999999994</ele><time>2026-05-02T13:50:58.999Z</time></trkpt><trkpt lat="49.19948880647117" lon="2.5797303867179555"><ele>60.8</ele><time>2026-05-02T13:51:00.999Z</time></trkpt><trkpt lat="49.199398440319435" lon="2.579667619689187"><ele>61.0</ele><time>2026-05-02T13:51:02.999Z</time></trkpt><trkpt lat="49.1993115764493" lon="2.579602259305113"><ele>61.0</ele><time>2026-05-02T13:51:04.999Z</time></trkpt><trkpt lat="49.199223303515794" lon="2.5795342386173274"><ele>60.99999999999999</ele><time>2026-05-02T13:51:06.999Z</time></trkpt><trkpt lat="49.19913102656306" lon="2.5794704553570225"><ele>60.99999999999999</ele><time>2026-05-02T13:51:08.999Z</time></trkpt><trkpt lat="49.19903619059701" lon="2.579406685841117"><ele>61.0</ele><time>2026-05-02T13:51:10.999Z</time></trkpt><trkpt lat="49.19893550154511" lon="2.579338456152139"><ele>61.0</ele><time>2026-05-02T13:51:12.999Z</time></trkpt><trkpt lat="49.198834954780054" lon="2.5792609698922386"><ele>60.25</ele><time>2026-05-02T13:51:14.999Z</time></trkpt><trkpt lat="49.198728164683715" lon="2.579188581597393"><ele>59.5</ele><time>2026-05-02T13:51:16.999Z</time></trkpt><trkpt lat="49.19862086212891" lon="2.5791150895230883"><ele>58.75</ele><time>2026-05-02T13:51:18.999Z</time></trkpt><trkpt lat="49.19850996823813" lon="2.5790424521755986"><ele>58.0</ele><time>2026-05-02T13:51:20.999Z</time></trkpt><trkpt lat="49.19839989071378" lon="2.578968910173959"><ele>57.99999999999999</ele><time>2026-05-02T13:51:22.999Z</time></trkpt><trkpt lat="49.198284800161396" lon="2.578900308815391"><ele>58.0</ele><time>2026-05-02T13:51:24.999Z</time></trkpt><trkpt lat="49.19822495057269" lon="2.578866467871404"><ele>58.0</ele><time>2026-05-02T13:51:25.999Z</time></trkpt><trkpt lat="49.19816343620455" lon="2.578834964075874"><ele>58.0</ele><time>2026-05-02T13:51:26.999Z</time></trkpt><trkpt lat="49.19812119936657" lon="2.578737472353718"><ele>57.99999999999999</ele><time>2026-05-02T13:51:27.999Z</time></trkpt><trkpt lat="49.19806157790028" lon="2.578697332490092"><ele>58.0</ele><time>2026-05-02T13:51:28.999Z</time></trkpt><trkpt lat="49.19800146879347" lon="2.5786568642721903"><ele>57.71428571428572</ele><time>2026-05-02T13:51:29.999Z</time></trkpt><trkpt lat="49.19794046712257" lon="2.5786161203335567"><ele>57.42857142857143</ele><time>2026-05-02T13:51:30.999Z</time></trkpt><trkpt lat="49.19787930363507" lon="2.5785753575276567"><ele>57.142857142857146</ele><time>2026-05-02T13:51:31.999Z</time></trkpt><trkpt lat="49.19781817139726" lon="2.578534615416758"><ele>56.85714285714286</ele><time>2026-05-02T13:51:32.999Z</time></trkpt><trkpt lat="49.19775544435715" lon="2.5784928103610714"><ele>56.57142857142857</ele><time>2026-05-02T13:51:33.999Z</time></trkpt><trkpt lat="49.19769246464093" lon="2.5784508370898003"><ele>56.285714285714285</ele><time>2026-05-02T13:51:34.999Z</time></trkpt><trkpt lat="49.197628004126386" lon="2.57840880721757"><ele>56.0</ele><time>2026-05-02T13:51:35.999Z</time></trkpt><trkpt lat="49.19756370682893" lon="2.5783663941946493"><ele>56.0</ele><time>2026-05-02T13:51:36.999Z</time></trkpt><trkpt lat="49.19749994348653" lon="2.5783243331432986"><ele>56.0</ele><time>2026-05-02T13:51:37.999Z</time></trkpt><trkpt lat="49.197434862137115" lon="2.5782814029179257"><ele>56.0</ele><time>2026-05-02T13:51:38.999Z</time></trkpt><trkpt lat="49.197370221097785" lon="2.57823876299547"><ele>56.0</ele><time>2026-05-02T13:51:39.999Z</time></trkpt><trkpt lat="49.1973059119823" lon="2.578196341956323"><ele>56.0</ele><time>2026-05-02T13:51:40.999Z</time></trkpt><trkpt lat="49.19724169467708" lon="2.5781539814822416"><ele>56.0</ele><time>2026-05-02T13:51:41.999Z</time></trkpt><trkpt lat="49.1971797503476" lon="2.5781130352994306"><ele>56.0</ele><time>2026-05-02T13:51:42.998Z</time></trkpt><trkpt lat="49.1971168835468" lon="2.578071459885129"><ele>55.857142857142854</ele><time>2026-05-02T13:51:43.998Z</time></trkpt><trkpt lat="49.197055366714814" lon="2.5780307770591486"><ele>55.714285714285715</ele><time>2026-05-02T13:51:44.998Z</time></trkpt><trkpt lat="49.196992688330134" lon="2.5779893260796896"><ele>55.57142857142857</ele><time>2026-05-02T13:51:45.998Z</time></trkpt><trkpt lat="49.19693214815414" lon="2.5779492891150038"><ele>55.42857142857143</ele><time>2026-05-02T13:51:46.998Z</time></trkpt><trkpt lat="49.19686941268853" lon="2.5779078004357765"><ele>55.285714285714285</ele><time>2026-05-02T13:51:47.998Z</time></trkpt><trkpt lat="49.19680862224633" lon="2.5778675979634915"><ele>55.14285714285714</ele><time>2026-05-02T13:51:48.998Z</time></trkpt><trkpt lat="49.19674600954911" lon="2.5778261904403243"><ele>55.0</ele><time>2026-05-02T13:51:49.998Z</time></trkpt><trkpt lat="49.196684574855425" lon="2.577785561981399"><ele>54.99999999999999</ele><time>2026-05-02T13:51:50.998Z</time></trkpt><trkpt lat="49.19662218970901" lon="2.5777454520981844"><ele>55.0</ele><time>2026-05-02T13:51:51.998Z</time></trkpt><trkpt lat="49.196559743292724" lon="2.5777055261122332"><ele>55.0</ele><time>2026-05-02T13:51:52.998Z</time></trkpt><trkpt lat="49.19649436320283" lon="2.577663724417611"><ele>55.0</ele><time>2026-05-02T13:51:53.998Z</time></trkpt><trkpt lat="49.19643021274538" lon="2.577622708856972"><ele>55.0</ele><time>2026-05-02T13:51:54.998Z</time></trkpt><trkpt lat="49.196369348796075" lon="2.5775848918115294"><ele>54.99999999999999</ele><time>2026-05-02T13:51:55.998Z</time></trkpt><trkpt lat="49.19630413531557" lon="2.577544399087701"><ele>55.0</ele><time>2026-05-02T13:51:56.998Z</time></trkpt><trkpt lat="49.19624487784412" lon="2.5775076046242487"><ele>55.0</ele><time>2026-05-02T13:51:57.998Z</time></trkpt><trkpt lat="49.19618095201713" lon="2.5774692448743264"><ele>55.0</ele><time>2026-05-02T13:51:58.998Z</time></trkpt><trkpt lat="49.19612214461737" lon="2.577434093255141"><ele>55.0</ele><time>2026-05-02T13:51:59.998Z</time></trkpt><trkpt lat="49.19600786614631" lon="2.5773655313254245"><ele>55.0</ele><time>2026-05-02T13:52:01.998Z</time></trkpt><trkpt lat="49.19589623362249" lon="2.577298350309405"><ele>55.0</ele><time>2026-05-02T13:52:03.998Z</time></trkpt><trkpt lat="49.195788878945976" lon="2.5772337436631303"><ele>55.0</ele><time>2026-05-02T13:52:05.998Z</time></trkpt><trkpt lat="49.19568607755777" lon="2.5771718772264487"><ele>55.0</ele><time>2026-05-02T13:52:07.998Z</time></trkpt><trkpt lat="49.19558572347353" lon="2.5771316877360815"><ele>55.0</ele><time>2026-05-02T13:52:09.998Z</time></trkpt><trkpt lat="49.195509666196756" lon="2.577007658223239"><ele>55.0</ele><time>2026-05-02T13:52:11.998Z</time></trkpt><trkpt lat="49.19543093868682" lon="2.5769079707549536"><ele>55.0</ele><time>2026-05-02T13:52:13.998Z</time></trkpt><trkpt lat="49.19533986901207" lon="2.576865657908705"><ele>55.0</ele><time>2026-05-02T13:52:15.998Z</time></trkpt><trkpt lat="49.19524342931591" lon="2.576824574675337"><ele>55.0</ele><time>2026-05-02T13:52:17.998Z</time></trkpt><trkpt lat="49.195156005610286" lon="2.576765919936924"><ele>55.0</ele><time>2026-05-02T13:52:19.998Z</time></trkpt><trkpt lat="49.19506370227186" lon="2.576719482755893"><ele>55.0</ele><time>2026-05-02T13:52:21.998Z</time></trkpt><trkpt lat="49.194977443618" lon="2.5766590316743847"><ele>55.0</ele><time>2026-05-02T13:52:23.998Z</time></trkpt><trkpt lat="49.1948910670585" lon="2.576598644372882"><ele>55.0</ele><time>2026-05-02T13:52:25.998Z</time></trkpt><trkpt lat="49.194807503760345" lon="2.5765348779751442"><ele>55.0</ele><time>2026-05-02T13:52:27.997Z</time></trkpt><trkpt lat="49.19472031130095" lon="2.5764729603448826"><ele>55.0</ele><time>2026-05-02T13:52:30.001Z</time></trkpt><trkpt lat="49.194635319266" lon="2.5764146314999588"><ele>55.0</ele><time>2026-05-02T13:52:32.001Z</time></trkpt><trkpt lat="49.19455242418671" lon="2.576352499031324"><ele>55.0</ele><time>2026-05-02T13:52:34.001Z</time></trkpt><trkpt lat="49.194471530953905" lon="2.5762916191782783"><ele>54.99999999999999</ele><time>2026-05-02T13:52:36.001Z</time></trkpt><trkpt lat="49.19439413111858" lon="2.576233268258432"><ele>55.0</ele><time>2026-05-02T13:52:38Z</time></trkpt><trkpt lat="49.194310833726526" lon="2.5761771262453914"><ele>55.0</ele><time>2026-05-02T13:52:40Z</time></trkpt><trkpt lat="49.194235594370525" lon="2.5761157984729306"><ele>55.0</ele><time>2026-05-02T13:52:42Z</time></trkpt><trkpt lat="49.19416151224286" lon="2.576056065595008"><ele>54.99999999999999</ele><time>2026-05-02T13:52:44Z</time></trkpt><trkpt lat="49.194081685723646" lon="2.576007728621134"><ele>55.0</ele><time>2026-05-02T13:52:46Z</time></trkpt><trkpt lat="49.19400505126433" lon="2.5759524682080883"><ele>55.33333333333333</ele><time>2026-05-02T13:52:48Z</time></trkpt><trkpt lat="49.19392589202534" lon="2.5759007258650666"><ele>55.666666666666664</ele><time>2026-05-02T13:52:50Z</time></trkpt><trkpt lat="49.19385070543964" lon="2.575845211627433"><ele>56.0</ele><time>2026-05-02T13:52:52Z</time></trkpt><trkpt lat="49.19377555733271" lon="2.575792769109896"><ele>56.33333333333333</ele><time>2026-05-02T13:52:54Z</time></trkpt><trkpt lat="49.19370095609863" lon="2.575747467415107"><ele>56.666666666666664</ele><time>2026-05-02T13:52:56Z</time></trkpt><trkpt lat="49.19362463930063" lon="2.5756996564807704"><ele>57.0</ele><time>2026-05-02T13:52:58Z</time></trkpt><trkpt lat="49.193556931271004" lon="2.5756420142272147"><ele>57.0</ele><time>2026-05-02T13:53:00Z</time></trkpt><trkpt lat="49.19348910579044" lon="2.5755820415042376"><ele>56.99999999999999</ele><time>2026-05-02T13:53:02Z</time></trkpt><trkpt lat="49.193418164184465" lon="2.5755380974282094"><ele>57.0</ele><time>2026-05-02T13:53:04Z</time></trkpt><trkpt lat="49.19334745288424" lon="2.575493474611037"><ele>57.0</ele><time>2026-05-02T13:53:06Z</time></trkpt><trkpt lat="49.19328331368488" lon="2.5754452000230703"><ele>56.99999999999999</ele><time>2026-05-02T13:53:08Z</time></trkpt><trkpt lat="49.19321702605412" lon="2.575401109883333"><ele>57.0</ele><time>2026-05-02T13:53:10Z</time></trkpt><trkpt lat="49.193154506068915" lon="2.575361997578541"><ele>57.0</ele><time>2026-05-02T13:53:12Z</time></trkpt><trkpt lat="49.193093154208924" lon="2.5753169296849237"><ele>57.285714285714285</ele><time>2026-05-02T13:53:13.999Z</time></trkpt><trkpt lat="49.1930350307199" lon="2.575256691253933"><ele>57.57142857142857</ele><time>2026-05-02T13:53:15.999Z</time></trkpt><trkpt lat="49.19297610199379" lon="2.575201911384305"><ele>57.857142857142854</ele><time>2026-05-02T13:53:17.999Z</time></trkpt><trkpt lat="49.19291429729564" lon="2.575156720649901"><ele>58.14285714285714</ele><time>2026-05-02T13:53:19.999Z</time></trkpt><trkpt lat="49.19284907380503" lon="2.575106901094694"><ele>58.42857142857143</ele><time>2026-05-02T13:53:21.999Z</time></trkpt><trkpt lat="49.19278320350713" lon="2.5750596687557903"><ele>58.71428571428571</ele><time>2026-05-02T13:53:23.999Z</time></trkpt><trkpt lat="49.192714829073864" lon="2.57501059157579"><ele>59.0</ele><time>2026-05-02T13:53:25.999Z</time></trkpt><trkpt lat="49.19264490147884" lon="2.574970086237177"><ele>59.00000000000001</ele><time>2026-05-02T13:53:27.999Z</time></trkpt><trkpt lat="49.19257755002976" lon="2.5749182391164447"><ele>59.0</ele><time>2026-05-02T13:53:29.999Z</time></trkpt><trkpt lat="49.1925049192227" lon="2.5748735665555063"><ele>59.0</ele><time>2026-05-02T13:53:31.999Z</time></trkpt><trkpt lat="49.19243181947655" lon="2.5748184535132594"><ele>59.0</ele><time>2026-05-02T13:53:33.999Z</time></trkpt><trkpt lat="49.19235489974975" lon="2.574770664222485"><ele>59.00000000000001</ele><time>2026-05-02T13:53:35.999Z</time></trkpt><trkpt lat="49.19228169292099" lon="2.5747183235713003"><ele>59.0</ele><time>2026-05-02T13:53:37.999Z</time></trkpt><trkpt lat="49.1922103897037" lon="2.574661969283363"><ele>59.16666666666667</ele><time>2026-05-02T13:53:39.999Z</time></trkpt><trkpt lat="49.19213745507295" lon="2.5746133699108373"><ele>59.333333333333336</ele><time>2026-05-02T13:53:41.999Z</time></trkpt><trkpt lat="49.19206885832056" lon="2.5745578271167036"><ele>59.5</ele><time>2026-05-02T13:53:43.999Z</time></trkpt><trkpt lat="49.19199911887181" lon="2.5745106889768565"><ele>59.66666666666667</ele><time>2026-05-02T13:53:45.999Z</time></trkpt><trkpt lat="49.19193205710086" lon="2.5744721508696067"><ele>59.833333333333336</ele><time>2026-05-02T13:53:47.999Z</time></trkpt><trkpt lat="49.1918600431556" lon="2.574435642652968"><ele>60.0</ele><time>2026-05-02T13:53:49.999Z</time></trkpt><trkpt lat="49.191796628733975" lon="2.5743857499043448"><ele>60.166666666666664</ele><time>2026-05-02T13:53:51.999Z</time></trkpt><trkpt lat="49.19173191447171" lon="2.5743298619228643"><ele>60.33333333333333</ele><time>2026-05-02T13:53:53.998Z</time></trkpt><trkpt lat="49.19167351190479" lon="2.5742602099109257"><ele>60.5</ele><time>2026-05-02T13:53:55.998Z</time></trkpt><trkpt lat="49.19162833037528" lon="2.5741582162514174"><ele>60.666666666666664</ele><time>2026-05-02T13:53:57.998Z</time></trkpt><trkpt lat="49.19158281555935" lon="2.5740455750687734"><ele>60.83333333333333</ele><time>2026-05-02T13:53:59.998Z</time></trkpt><trkpt lat="49.191531000773665" lon="2.5739337972698633"><ele>61.0</ele><time>2026-05-02T13:54:01.998Z</time></trkpt><trkpt lat="49.19148324883405" lon="2.5738449119256837"><ele>61.4</ele><time>2026-05-02T13:54:03.998Z</time></trkpt><trkpt lat="49.1913557360912" lon="2.5738534648135105"><ele>61.8</ele><time>2026-05-02T13:54:05.998Z</time></trkpt><trkpt lat="49.191267732946066" lon="2.573864999967419"><ele>62.199999999999996</ele><time>2026-05-02T13:54:07.998Z</time></trkpt><trkpt lat="49.19119028786475" lon="2.5739191571198106"><ele>62.599999999999994</ele><time>2026-05-02T13:54:09.998Z</time></trkpt><trkpt lat="49.19112247497367" lon="2.5739768779898804"><ele>63.0</ele><time>2026-05-02T13:54:11.998Z</time></trkpt><trkpt lat="49.191098175487205" lon="2.574121711720851"><ele>63.0</ele><time>2026-05-02T13:54:13.998Z</time></trkpt><trkpt lat="49.191076635097204" lon="2.5742443870661362"><ele>63.0</ele><time>2026-05-02T13:54:15.998Z</time></trkpt><trkpt lat="49.1911153566684" lon="2.5743661366370434"><ele>63.0</ele><time>2026-05-02T13:54:17.998Z</time></trkpt><trkpt lat="49.191096175173946" lon="2.5744661029843585"><ele>63.0</ele><time>2026-05-02T13:54:20.998Z</time></trkpt><trkpt lat="49.190929842627696" lon="2.574522542022362"><ele>63.0</ele><time>2026-05-02T13:54:25.998Z</time></trkpt><trkpt lat="49.19086844064285" lon="2.5744857038088664"><ele>63.0</ele><time>2026-05-02T13:54:27.998Z</time></trkpt><trkpt lat="49.190795172882694" lon="2.5744837290657787"><ele>63.0</ele><time>2026-05-02T13:54:30.998Z</time></trkpt><trkpt lat="49.1907141075075" lon="2.5744787717116555"><ele>63.0</ele><time>2026-05-02T13:54:33.998Z</time></trkpt><trkpt lat="49.190650636085095" lon="2.574482960314986"><ele>63.0</ele><time>2026-05-02T13:54:36.001Z</time></trkpt><trkpt lat="49.19057857299666" lon="2.574504259395416"><ele>63.0</ele><time>2026-05-02T13:54:38.001Z</time></trkpt><trkpt lat="49.19050528267492" lon="2.574485620555074"><ele>63.0</ele><time>2026-05-02T13:54:40.001Z</time></trkpt><trkpt lat="49.19043522259933" lon="2.5744884712839733"><ele>63.0</ele><time>2026-05-02T13:54:42.001Z</time></trkpt><trkpt lat="49.19034232914699" lon="2.5744761877992914"><ele>63.666666666666664</ele><time>2026-05-02T13:54:45.001Z</time></trkpt><trkpt lat="49.19026949875807" lon="2.574489261105992"><ele>64.33333333333333</ele><time>2026-05-02T13:54:47.001Z</time></trkpt><trkpt lat="49.190190249827396" lon="2.574482935675971"><ele>65.0</ele><time>2026-05-02T13:54:49.001Z</time></trkpt><trkpt lat="49.19011187849635" lon="2.574485480267783"><ele>65.66666666666666</ele><time>2026-05-02T13:54:51Z</time></trkpt><trkpt lat="49.19002820233217" lon="2.574485062798746"><ele>66.33333333333333</ele><time>2026-05-02T13:54:53Z</time></trkpt><trkpt lat="49.18994156733143" lon="2.574495217491157"><ele>67.0</ele><time>2026-05-02T13:54:55Z</time></trkpt><trkpt lat="49.18985620969936" lon="2.574495219420358"><ele>67.66666666666666</ele><time>2026-05-02T13:54:57Z</time></trkpt><trkpt lat="49.18977026725324" lon="2.5744683195915554"><ele>68.33333333333333</ele><time>2026-05-02T13:54:59Z</time></trkpt><trkpt lat="49.189676127878435" lon="2.574474447432247"><ele>69.0</ele><time>2026-05-02T13:55:01Z</time></trkpt><trkpt lat="49.18959682628272" lon="2.574455849583632"><ele>69.66666666666667</ele><time>2026-05-02T13:55:03Z</time></trkpt><trkpt lat="49.18950328557025" lon="2.5744517976031993"><ele>70.33333333333334</ele><time>2026-05-02T13:55:05Z</time></trkpt><trkpt lat="49.18941529330584" lon="2.5744663714502853"><ele>71.0</ele><time>2026-05-02T13:55:07Z</time></trkpt><trkpt lat="49.18932354874816" lon="2.574489670002561"><ele>71.0</ele><time>2026-05-02T13:55:09Z</time></trkpt><trkpt lat="49.18924228507931" lon="2.5744752354624842"><ele>71.0</ele><time>2026-05-02T13:55:11Z</time></trkpt><trkpt lat="49.18915873382079" lon="2.5744797278581597"><ele>71.0</ele><time>2026-05-02T13:55:13Z</time></trkpt><trkpt lat="49.18908051432472" lon="2.5744772130195175"><ele>71.0</ele><time>2026-05-02T13:55:15Z</time></trkpt><trkpt lat="49.18901250584021" lon="2.574455281900154"><ele>71.0</ele><time>2026-05-02T13:55:17Z</time></trkpt><trkpt lat="49.188941475420044" lon="2.5744699841985494"><ele>71.0</ele><time>2026-05-02T13:55:19Z</time></trkpt><trkpt lat="49.18885019694527" lon="2.5744737653191287"><ele>71.16666666666667</ele><time>2026-05-02T13:55:20.999Z</time></trkpt><trkpt lat="49.18876065976122" lon="2.5744705231327902"><ele>71.33333333333334</ele><time>2026-05-02T13:55:22.999Z</time></trkpt><trkpt lat="49.18867105754943" lon="2.574497428183081"><ele>71.5</ele><time>2026-05-02T13:55:24.999Z</time></trkpt><trkpt lat="49.188581225609035" lon="2.5745045181919286"><ele>71.66666666666667</ele><time>2026-05-02T13:55:26.999Z</time></trkpt><trkpt lat="49.188494133812064" lon="2.5745113315641204"><ele>71.83333333333333</ele><time>2026-05-02T13:55:28.999Z</time></trkpt><trkpt lat="49.188420731640946" lon="2.574483422539034"><ele>72.0</ele><time>2026-05-02T13:55:30.999Z</time></trkpt><trkpt lat="49.188351630680266" lon="2.574467288336695"><ele>72.00000000000001</ele><time>2026-05-02T13:55:32.999Z</time></trkpt><trkpt lat="49.188285101616415" lon="2.5744778012712937"><ele>72.0</ele><time>2026-05-02T13:55:34.999Z</time></trkpt><trkpt lat="49.188211075914936" lon="2.574481606276961"><ele>72.0</ele><time>2026-05-02T13:55:36.999Z</time></trkpt><trkpt lat="49.18814024867875" lon="2.5744712615042697"><ele>72.0</ele><time>2026-05-02T13:55:38.999Z</time></trkpt><trkpt lat="49.18806548724067" lon="2.574457031848753"><ele>72.0</ele><time>2026-05-02T13:55:40.999Z</time></trkpt><trkpt lat="49.18798869028953" lon="2.5744617240970036"><ele>72.00000000000001</ele><time>2026-05-02T13:55:42.999Z</time></trkpt><trkpt lat="49.187909192883325" lon="2.574464286955532"><ele>72.0</ele><time>2026-05-02T13:55:44.999Z</time></trkpt><trkpt lat="49.18782254785802" lon="2.5744493093363707"><ele>71.33333333333333</ele><time>2026-05-02T13:55:46.999Z</time></trkpt><trkpt lat="49.18774503611473" lon="2.5744554752591937"><ele>70.66666666666667</ele><time>2026-05-02T13:55:48.999Z</time></trkpt><trkpt lat="49.18766630016485" lon="2.574473577206692"><ele>70.0</ele><time>2026-05-02T13:55:50.999Z</time></trkpt><trkpt lat="49.18759181391857" lon="2.574474743111239"><ele>69.33333333333334</ele><time>2026-05-02T13:55:52.999Z</time></trkpt><trkpt lat="49.18750688983629" lon="2.5744773554065477"><ele>68.66666666666667</ele><time>2026-05-02T13:55:54.999Z</time></trkpt><trkpt lat="49.1874322677282" lon="2.574473772152714"><ele>68.0</ele><time>2026-05-02T13:55:56.999Z</time></trkpt><trkpt lat="49.18735198394409" lon="2.574468347323416"><ele>67.66666666666667</ele><time>2026-05-02T13:55:58.998Z</time></trkpt><trkpt lat="49.18727185485358" lon="2.574462962292944"><ele>67.33333333333334</ele><time>2026-05-02T13:56:00.998Z</time></trkpt><trkpt lat="49.187191301219784" lon="2.574456387570106"><ele>67.0</ele><time>2026-05-02T13:56:02.998Z</time></trkpt><trkpt lat="49.187124917665855" lon="2.574437858959236"><ele>66.66666666666667</ele><time>2026-05-02T13:56:04.998Z</time></trkpt><trkpt lat="49.18704419027399" lon="2.574444398329502"><ele>66.33333333333333</ele><time>2026-05-02T13:56:06.998Z</time></trkpt><trkpt lat="49.186967394014594" lon="2.574442632193879"><ele>66.0</ele><time>2026-05-02T13:56:08.998Z</time></trkpt><trkpt lat="49.18688903326203" lon="2.5744377377580445"><ele>66.0</ele><time>2026-05-02T13:56:10.998Z</time></trkpt><trkpt lat="49.186806420816005" lon="2.574417635273463"><ele>66.0</ele><time>2026-05-02T13:56:12.998Z</time></trkpt><trkpt lat="49.18672496726595" lon="2.5743948728078894"><ele>66.0</ele><time>2026-05-02T13:56:14.998Z</time></trkpt><trkpt lat="49.1866440138442" lon="2.574354401998852"><ele>66.0</ele><time>2026-05-02T13:56:16.998Z</time></trkpt><trkpt lat="49.186583977633596" lon="2.5742711363273876"><ele>66.0</ele><time>2026-05-02T13:56:18.998Z</time></trkpt><trkpt lat="49.18652884580939" lon="2.5741810145880324"><ele>66.0</ele><time>2026-05-02T13:56:20.998Z</time></trkpt><trkpt lat="49.18646544213727" lon="2.5741283803963926"><ele>65.83333333333333</ele><time>2026-05-02T13:56:22.998Z</time></trkpt><trkpt lat="49.18640613337793" lon="2.57409037601569"><ele>65.66666666666667</ele><time>2026-05-02T13:56:24.998Z</time></trkpt><trkpt lat="49.18636154687947" lon="2.5743205181217874"><ele>65.5</ele><time>2026-05-02T13:56:25.998Z</time></trkpt><trkpt lat="49.18629278401362" lon="2.5743066361940827"><ele>65.33333333333334</ele><time>2026-05-02T13:56:27.998Z</time></trkpt><trkpt lat="49.18622240072023" lon="2.5742829057855476"><ele>65.16666666666667</ele><time>2026-05-02T13:56:29.998Z</time></trkpt><trkpt lat="49.186153449042735" lon="2.5742596580618717"><ele>65.0</ele><time>2026-05-02T13:56:31.998Z</time></trkpt><trkpt lat="49.1860747620226" lon="2.5742331272428496"><ele>65.0</ele><time>2026-05-02T13:56:33.998Z</time></trkpt><trkpt lat="49.18600978722583" lon="2.574211219693185"><ele>65.0</ele><time>2026-05-02T13:56:35.998Z</time></trkpt><trkpt lat="49.18592917676111" lon="2.5741840402805503"><ele>65.0</ele><time>2026-05-02T13:56:37.997Z</time></trkpt><trkpt lat="49.18589527818245" lon="2.5738843215291545"><ele>65.0</ele><time>2026-05-02T13:56:39.997Z</time></trkpt><trkpt lat="49.18582691195847" lon="2.573828246576672"><ele>65.0</ele><time>2026-05-02T13:56:42.001Z</time></trkpt><trkpt lat="49.18575390265483" lon="2.5737955281260523"><ele>64.66666666666667</ele><time>2026-05-02T13:56:44.001Z</time></trkpt><trkpt lat="49.185675621263556" lon="2.5737747627488003"><ele>64.33333333333334</ele><time>2026-05-02T13:56:46.001Z</time></trkpt><trkpt lat="49.18559304721899" lon="2.5737667561280144"><ele>64.0</ele><time>2026-05-02T13:56:48.001Z</time></trkpt><trkpt lat="49.18551704059704" lon="2.573759312638962"><ele>63.66666666666667</ele><time>2026-05-02T13:56:50.001Z</time></trkpt><trkpt lat="49.18543159241508" lon="2.5737903083867746"><ele>63.333333333333336</ele><time>2026-05-02T13:56:52.001Z</time></trkpt><trkpt lat="49.1853516770046" lon="2.5738156007177238"><ele>63.0</ele><time>2026-05-02T13:56:54.001Z</time></trkpt><trkpt lat="49.18527137671723" lon="2.5738383361194086"><ele>63.0</ele><time>2026-05-02T13:56:56Z</time></trkpt><trkpt lat="49.18519284404122" lon="2.5738711714594453"><ele>63.0</ele><time>2026-05-02T13:56:58Z</time></trkpt><trkpt lat="49.18510592567052" lon="2.5739136692532774"><ele>63.0</ele><time>2026-05-02T13:57:00Z</time></trkpt><trkpt lat="49.18502284181949" lon="2.573966054899063"><ele>63.0</ele><time>2026-05-02T13:57:02Z</time></trkpt><trkpt lat="49.18494165250146" lon="2.574025214978622"><ele>63.0</ele><time>2026-05-02T13:57:04Z</time></trkpt><trkpt lat="49.184868161704856" lon="2.574080973150481"><ele>63.0</ele><time>2026-05-02T13:57:06Z</time></trkpt><trkpt lat="49.18478658902665" lon="2.5741525805922363"><ele>62.5</ele><time>2026-05-02T13:57:08Z</time></trkpt><trkpt lat="49.184710445249344" lon="2.574224453045254"><ele>62.0</ele><time>2026-05-02T13:57:10Z</time></trkpt><trkpt lat="49.18464077505764" lon="2.574269649784063"><ele>61.5</ele><time>2026-05-02T13:57:12Z</time></trkpt><trkpt lat="49.18455740292092" lon="2.5743354153183424"><ele>61.0</ele><time>2026-05-02T13:57:14Z</time></trkpt><trkpt lat="49.18447748274974" lon="2.5743910044255007"><ele>60.5</ele><time>2026-05-02T13:57:16Z</time></trkpt><trkpt lat="49.18439277306578" lon="2.5744472986269376"><ele>60.0</ele><time>2026-05-02T13:57:18Z</time></trkpt><trkpt lat="49.18430875397454" lon="2.5744904332120817"><ele>60.6</ele><time>2026-05-02T13:57:20Z</time></trkpt><trkpt lat="49.1842203129509" lon="2.574523089765809"><ele>61.2</ele><time>2026-05-02T13:57:22Z</time></trkpt><trkpt lat="49.184137247443374" lon="2.5745580143748796"><ele>61.8</ele><time>2026-05-02T13:57:23.999Z</time></trkpt><trkpt lat="49.184050447229346" lon="2.574587350399847"><ele>62.4</ele><time>2026-05-02T13:57:25.999Z</time></trkpt><trkpt lat="49.183958189148456" lon="2.5746294705920967"><ele>63.0</ele><time>2026-05-02T13:57:27.999Z</time></trkpt><trkpt lat="49.18387447994452" lon="2.574668719149574"><ele>63.166666666666664</ele><time>2026-05-02T13:57:29.999Z</time></trkpt><trkpt lat="49.183785808366615" lon="2.5746988042675616"><ele>63.33333333333333</ele><time>2026-05-02T13:57:31.999Z</time></trkpt><trkpt lat="49.183703607089626" lon="2.574744141119979"><ele>63.5</ele><time>2026-05-02T13:57:33.999Z</time></trkpt><trkpt lat="49.183630301445874" lon="2.574764582485769"><ele>63.666666666666664</ele><time>2026-05-02T13:57:35.999Z</time></trkpt><trkpt lat="49.18354549616101" lon="2.5748167091114755"><ele>63.83333333333333</ele><time>2026-05-02T13:57:37.999Z</time></trkpt><trkpt lat="49.18347099025954" lon="2.574849480369916"><ele>64.0</ele><time>2026-05-02T13:57:39.999Z</time></trkpt><trkpt lat="49.18337632976441" lon="2.5749039899302493"><ele>63.99999999999999</ele><time>2026-05-02T13:57:41.999Z</time></trkpt><trkpt lat="49.183312741152115" lon="2.574905557501951"><ele>64.0</ele><time>2026-05-02T13:57:43.999Z</time></trkpt><trkpt lat="49.18324323310922" lon="2.5748902020849562"><ele>64.0</ele><time>2026-05-02T13:57:45.999Z</time></trkpt><trkpt lat="49.18314746990072" lon="2.574905349767802"><ele>64.0</ele><time>2026-05-02T13:57:46.999Z</time></trkpt><trkpt lat="49.18306366111444" lon="2.574857685914254"><ele>63.99999999999999</ele><time>2026-05-02T13:57:48.999Z</time></trkpt><trkpt lat="49.18298986656287" lon="2.574786268215089"><ele>64.0</ele><time>2026-05-02T13:57:50.999Z</time></trkpt><trkpt lat="49.182907364938785" lon="2.5747552442391766"><ele>64.14285714285714</ele><time>2026-05-02T13:57:52.999Z</time></trkpt><trkpt lat="49.1828337521394" lon="2.5747493582555623"><ele>64.28571428571428</ele><time>2026-05-02T13:57:54.999Z</time></trkpt><trkpt lat="49.18276464251813" lon="2.5747204556757732"><ele>64.42857142857143</ele><time>2026-05-02T13:57:56.999Z</time></trkpt><trkpt lat="49.18269418608228" lon="2.5747188265934295"><ele>64.57142857142857</ele><time>2026-05-02T13:57:58.998Z</time></trkpt><trkpt lat="49.1826152365677" lon="2.5747329914334873"><ele>64.71428571428572</ele><time>2026-05-02T13:58:00.998Z</time></trkpt><trkpt lat="49.18254346926579" lon="2.5747234501710965"><ele>64.85714285714286</ele><time>2026-05-02T13:58:02.998Z</time></trkpt><trkpt lat="49.18246553723463" lon="2.574735375575229"><ele>65.0</ele><time>2026-05-02T13:58:04.998Z</time></trkpt><trkpt lat="49.182400776933456" lon="2.574747020029424"><ele>64.66666666666667</ele><time>2026-05-02T13:58:06.998Z</time></trkpt><trkpt lat="49.18232400215622" lon="2.574699901524144"><ele>64.33333333333334</ele><time>2026-05-02T13:58:09.998Z</time></trkpt><trkpt lat="49.18225435084257" lon="2.574654234715064"><ele>64.0</ele><time>2026-05-02T13:58:11.998Z</time></trkpt><trkpt lat="49.1821818872183" lon="2.5746008611326823"><ele>63.66666666666667</ele><time>2026-05-02T13:58:13.998Z</time></trkpt><trkpt lat="49.182103525134316" lon="2.5745523208136296"><ele>63.333333333333336</ele><time>2026-05-02T13:58:15.998Z</time></trkpt><trkpt lat="49.182030138897716" lon="2.57449654919851"><ele>63.0</ele><time>2026-05-02T13:58:17.998Z</time></trkpt><trkpt lat="49.18196330539749" lon="2.574447068789051"><ele>63.0</ele><time>2026-05-02T13:58:19.998Z</time></trkpt><trkpt lat="49.181903342691555" lon="2.5744171860361043"><ele>63.0</ele><time>2026-05-02T13:58:21.998Z</time></trkpt><trkpt lat="49.181821672800986" lon="2.574358334511146"><ele>63.0</ele><time>2026-05-02T13:58:24.998Z</time></trkpt><trkpt lat="49.18176027605685" lon="2.574313299432293"><ele>63.0</ele><time>2026-05-02T13:58:26.998Z</time></trkpt><trkpt lat="49.18169456581204" lon="2.5742770875070224"><ele>63.0</ele><time>2026-05-02T13:58:28.998Z</time></trkpt><trkpt lat="49.18163069248558" lon="2.5742421737655463"><ele>63.0</ele><time>2026-05-02T13:58:30.998Z</time></trkpt><trkpt lat="49.18156507066527" lon="2.574196927947071"><ele>63.0</ele><time>2026-05-02T13:58:32.998Z</time></trkpt><trkpt lat="49.181489875709886" lon="2.574144149432578"><ele>62.333333333333336</ele><time>2026-05-02T13:58:34.998Z</time></trkpt><trkpt lat="49.181420046733024" lon="2.574099466235931"><ele>61.66666666666667</ele><time>2026-05-02T13:58:36.997Z</time></trkpt><trkpt lat="49.18134392442356" lon="2.574037787405394"><ele>61.0</ele><time>2026-05-02T13:58:38.997Z</time></trkpt><trkpt lat="49.18126689243493" lon="2.573985533887828"><ele>60.333333333333336</ele><time>2026-05-02T13:58:40.997Z</time></trkpt><trkpt lat="49.18118117187662" lon="2.57392629044715"><ele>59.66666666666667</ele><time>2026-05-02T13:58:42.997Z</time></trkpt><trkpt lat="49.18109131029899" lon="2.573860984301786"><ele>59.0</ele><time>2026-05-02T13:58:44.997Z</time></trkpt><trkpt lat="49.180998677416966" lon="2.5738028229035543"><ele>59.00000000000001</ele><time>2026-05-02T13:58:47Z</time></trkpt><trkpt lat="49.180910483922105" lon="2.57374287602275"><ele>59.0</ele><time>2026-05-02T13:58:49Z</time></trkpt><trkpt lat="49.18082456188035" lon="2.573687928181779"><ele>59.0</ele><time>2026-05-02T13:58:51Z</time></trkpt><trkpt lat="49.180743449249604" lon="2.573636780109049"><ele>59.0</ele><time>2026-05-02T13:58:53Z</time></trkpt><trkpt lat="49.180666929214254" lon="2.5735942286908156"><ele>59.00000000000001</ele><time>2026-05-02T13:58:55Z</time></trkpt><trkpt lat="49.1805945524911" lon="2.5735453810953004"><ele>59.0</ele><time>2026-05-02T13:58:57Z</time></trkpt><trkpt lat="49.18052335063092" lon="2.57350494298141"><ele>59.66666666666667</ele><time>2026-05-02T13:58:59Z</time></trkpt><trkpt lat="49.18045152325533" lon="2.573475408620366"><ele>60.333333333333336</ele><time>2026-05-02T13:59:01Z</time></trkpt><trkpt lat="49.18039295622447" lon="2.573418735019264"><ele>61.0</ele><time>2026-05-02T13:59:03Z</time></trkpt><trkpt lat="49.180307661065925" lon="2.573368918262188"><ele>61.66666666666667</ele><time>2026-05-02T13:59:07Z</time></trkpt><trkpt lat="49.18024292160019" lon="2.5732947017597394"><ele>62.333333333333336</ele><time>2026-05-02T13:59:10Z</time></trkpt><trkpt lat="49.18014992929742" lon="2.5732236944365185"><ele>63.0</ele><time>2026-05-02T13:59:13Z</time></trkpt><trkpt lat="49.180063273756666" lon="2.573151689602516"><ele>63.0</ele><time>2026-05-02T13:59:15Z</time></trkpt><trkpt lat="49.179993546146875" lon="2.573088038332939"><ele>63.0</ele><time>2026-05-02T13:59:17Z</time></trkpt><trkpt lat="49.179912210050304" lon="2.573042657629343"><ele>63.0</ele><time>2026-05-02T13:59:19Z</time></trkpt><trkpt lat="49.17982508819679" lon="2.5729740871840185"><ele>63.0</ele><time>2026-05-02T13:59:22Z</time></trkpt><trkpt lat="49.179765077891034" lon="2.5729274309679897"><ele>63.0</ele><time>2026-05-02T13:59:23.999Z</time></trkpt><trkpt lat="49.17967970186088" lon="2.572868320090523"><ele>63.0</ele><time>2026-05-02T13:59:26.999Z</time></trkpt><trkpt lat="49.17961519777209" lon="2.572820195063538"><ele>63.0</ele><time>2026-05-02T13:59:28.999Z</time></trkpt><trkpt lat="49.17954606392404" lon="2.5727663138340064"><ele>63.0</ele><time>2026-05-02T13:59:30.999Z</time></trkpt><trkpt lat="49.179484440736125" lon="2.572731069850393"><ele>63.0</ele><time>2026-05-02T13:59:32.999Z</time></trkpt><trkpt lat="49.179403231705805" lon="2.5726707689971944"><ele>63.0</ele><time>2026-05-02T13:59:35.999Z</time></trkpt><trkpt lat="49.17931858727438" lon="2.5726019882881683"><ele>63.0</ele><time>2026-05-02T13:59:38.999Z</time></trkpt><trkpt lat="49.179256159829706" lon="2.5725617785190344"><ele>63.0</ele><time>2026-05-02T13:59:40.999Z</time></trkpt><trkpt lat="49.17920081716041" lon="2.5725137620934473"><ele>63.0</ele><time>2026-05-02T13:59:42.999Z</time></trkpt><trkpt lat="49.17912904100237" lon="2.572470642699592"><ele>63.0</ele><time>2026-05-02T13:59:44.999Z</time></trkpt><trkpt lat="49.17905549850259" lon="2.5724206826022886"><ele>63.0</ele><time>2026-05-02T13:59:46.999Z</time></trkpt><trkpt lat="49.178989346305094" lon="2.572369476182543"><ele>63.0</ele><time>2026-05-02T13:59:48.999Z</time></trkpt><trkpt lat="49.178924022456265" lon="2.572326565449637"><ele>63.0</ele><time>2026-05-02T13:59:50.999Z</time></trkpt><trkpt lat="49.17884492671269" lon="2.5722662766061895"><ele>63.0</ele><time>2026-05-02T13:59:52.999Z</time></trkpt><trkpt lat="49.17876783791622" lon="2.5722110422933224"><ele>63.0</ele><time>2026-05-02T13:59:54.999Z</time></trkpt><trkpt lat="49.17869425133649" lon="2.5721640123207514"><ele>63.0</ele><time>2026-05-02T13:59:56.999Z</time></trkpt><trkpt lat="49.17861416949496" lon="2.5721058507075516"><ele>63.0</ele><time>2026-05-02T13:59:58.998Z</time></trkpt><trkpt lat="49.17854953872749" lon="2.5720594073472838"><ele>63.0</ele><time>2026-05-02T14:00:00.998Z</time></trkpt><trkpt lat="49.17845614203799" lon="2.5720019758767902"><ele>63.0</ele><time>2026-05-02T14:00:03.998Z</time></trkpt><trkpt lat="49.17839280114246" lon="2.571958549919654"><ele>63.0</ele><time>2026-05-02T14:00:05.998Z</time></trkpt><trkpt lat="49.178323890155276" lon="2.571917166452482"><ele>63.166666666666664</ele><time>2026-05-02T14:00:07.998Z</time></trkpt><trkpt lat="49.17825940271717" lon="2.5718741521295962"><ele>63.33333333333333</ele><time>2026-05-02T14:00:09.998Z</time></trkpt><trkpt lat="49.17819098660713" lon="2.5718295174708783"><ele>63.5</ele><time>2026-05-02T14:00:11.998Z</time></trkpt><trkpt lat="49.178119381629664" lon="2.5717819673246236"><ele>63.666666666666664</ele><time>2026-05-02T14:00:13.998Z</time></trkpt><trkpt lat="49.178041250101224" lon="2.5717283604252033"><ele>63.83333333333333</ele><time>2026-05-02T14:00:15.998Z</time></trkpt><trkpt lat="49.177965126106464" lon="2.5716699916000283"><ele>64.0</ele><time>2026-05-02T14:00:17.998Z</time></trkpt><trkpt lat="49.17789170894722" lon="2.5716162216253653"><ele>63.2</ele><time>2026-05-02T14:00:19.998Z</time></trkpt><trkpt lat="49.17780795839277" lon="2.5715619240557035"><ele>62.400000000000006</ele><time>2026-05-02T14:00:21.998Z</time></trkpt><trkpt lat="49.17772552113155" lon="2.571499928483193"><ele>61.6</ele><time>2026-05-02T14:00:23.998Z</time></trkpt><trkpt lat="49.17763974590583" lon="2.5714448966850796"><ele>60.8</ele><time>2026-05-02T14:00:25.998Z</time></trkpt><trkpt lat="49.17755565742859" lon="2.571383806143403"><ele>60.0</ele><time>2026-05-02T14:00:27.998Z</time></trkpt><trkpt lat="49.17746867259175" lon="2.5713309711479684"><ele>60.0</ele><time>2026-05-02T14:00:29.998Z</time></trkpt><trkpt lat="49.17739052729338" lon="2.571274149511573"><ele>60.0</ele><time>2026-05-02T14:00:31.998Z</time></trkpt><trkpt lat="49.177297069218895" lon="2.571210207422812"><ele>60.0</ele><time>2026-05-02T14:00:33.997Z</time></trkpt><trkpt lat="49.17721399831533" lon="2.571146732289839"><ele>60.0</ele><time>2026-05-02T14:00:35.997Z</time></trkpt><trkpt lat="49.17712834147559" lon="2.5710914754029712"><ele>60.0</ele><time>2026-05-02T14:00:37.997Z</time></trkpt><trkpt lat="49.17703410206989" lon="2.571027849286125"><ele>60.0</ele><time>2026-05-02T14:00:39.997Z</time></trkpt><trkpt lat="49.176942443859986" lon="2.57095711364326"><ele>60.0</ele><time>2026-05-02T14:00:41.997Z</time></trkpt><trkpt lat="49.17685395054301" lon="2.570889453570997"><ele>60.0</ele><time>2026-05-02T14:00:43.997Z</time></trkpt><trkpt lat="49.176765721621145" lon="2.5708299328752338"><ele>60.0</ele><time>2026-05-02T14:00:45.997Z</time></trkpt><trkpt lat="49.176679205864495" lon="2.5707601209962405"><ele>60.0</ele><time>2026-05-02T14:00:47.997Z</time></trkpt><trkpt lat="49.17659529990494" lon="2.570688895605712"><ele>60.6</ele><time>2026-05-02T14:00:49.997Z</time></trkpt><trkpt lat="49.17651347509848" lon="2.5706304790781793"><ele>61.2</ele><time>2026-05-02T14:00:52Z</time></trkpt><trkpt lat="49.17642561189372" lon="2.5705642834917706"><ele>61.8</ele><time>2026-05-02T14:00:54Z</time></trkpt><trkpt lat="49.176346512944676" lon="2.5704957835597244"><ele>62.4</ele><time>2026-05-02T14:00:56Z</time></trkpt><trkpt lat="49.17625775214631" lon="2.5704396297539507"><ele>63.0</ele><time>2026-05-02T14:00:58Z</time></trkpt><trkpt lat="49.1761756709117" lon="2.570378162378445"><ele>63.0</ele><time>2026-05-02T14:01:00Z</time></trkpt><trkpt lat="49.17609781423865" lon="2.570302082804814"><ele>63.0</ele><time>2026-05-02T14:01:02Z</time></trkpt><trkpt lat="49.17600628832521" lon="2.5702493443059775"><ele>63.0</ele><time>2026-05-02T14:01:04Z</time></trkpt><trkpt lat="49.175918383764404" lon="2.5701787664202698"><ele>63.0</ele><time>2026-05-02T14:01:06Z</time></trkpt><trkpt lat="49.17582986054575" lon="2.570130570508906"><ele>63.0</ele><time>2026-05-02T14:01:08Z</time></trkpt><trkpt lat="49.17575385323598" lon="2.570072292165527"><ele>63.8</ele><time>2026-05-02T14:01:10Z</time></trkpt><trkpt lat="49.17565954616092" lon="2.570021865462843"><ele>64.6</ele><time>2026-05-02T14:01:12Z</time></trkpt><trkpt lat="49.17557220323285" lon="2.569954194226867"><ele>65.4</ele><time>2026-05-02T14:01:14Z</time></trkpt><trkpt lat="49.17549264733764" lon="2.5699114042383235"><ele>66.2</ele><time>2026-05-02T14:01:16Z</time></trkpt><trkpt lat="49.17541560260494" lon="2.569833826147408"><ele>67.0</ele><time>2026-05-02T14:01:17.999Z</time></trkpt><trkpt lat="49.17533446909033" lon="2.5697942741382542"><ele>67.0</ele><time>2026-05-02T14:01:19.999Z</time></trkpt><trkpt lat="49.175258863221195" lon="2.5697445360850613"><ele>67.0</ele><time>2026-05-02T14:01:21.999Z</time></trkpt><trkpt lat="49.17519858635412" lon="2.5696885168133945"><ele>67.0</ele><time>2026-05-02T14:01:23.999Z</time></trkpt><trkpt lat="49.175118554375736" lon="2.569634242529133"><ele>67.0</ele><time>2026-05-02T14:01:25.999Z</time></trkpt><trkpt lat="49.1750369750398" lon="2.569583478795552"><ele>67.0</ele><time>2026-05-02T14:01:27.999Z</time></trkpt><trkpt lat="49.17497017632506" lon="2.5695172310886245"><ele>67.0</ele><time>2026-05-02T14:01:29.999Z</time></trkpt><trkpt lat="49.17488095546065" lon="2.5694614637489535"><ele>67.2</ele><time>2026-05-02T14:01:31.999Z</time></trkpt><trkpt lat="49.174794270220055" lon="2.5693912118855304"><ele>67.4</ele><time>2026-05-02T14:01:33.999Z</time></trkpt><trkpt lat="49.1747051596759" lon="2.569338543174976"><ele>67.6</ele><time>2026-05-02T14:01:35.999Z</time></trkpt><trkpt lat="49.17462393523843" lon="2.5692689299759386"><ele>67.8</ele><time>2026-05-02T14:01:37.999Z</time></trkpt><trkpt lat="49.17453318032131" lon="2.569216346139595"><ele>68.0</ele><time>2026-05-02T14:01:39.999Z</time></trkpt><trkpt lat="49.174443935583824" lon="2.5691628250302005"><ele>68.0</ele><time>2026-05-02T14:01:41.999Z</time></trkpt><trkpt lat="49.174361947327036" lon="2.569102515415101"><ele>68.0</ele><time>2026-05-02T14:01:43.999Z</time></trkpt><trkpt lat="49.174292738838524" lon="2.5690623877420093"><ele>68.0</ele><time>2026-05-02T14:01:45.999Z</time></trkpt><trkpt lat="49.17422479929129" lon="2.569017970676104"><ele>68.0</ele><time>2026-05-02T14:01:47.999Z</time></trkpt><trkpt lat="49.17416478136804" lon="2.5689768471483814"><ele>68.0</ele><time>2026-05-02T14:01:49.999Z</time></trkpt><trkpt lat="49.174093876479475" lon="2.5689310057642554"><ele>68.0</ele><time>2026-05-02T14:01:51.999Z</time></trkpt><trkpt lat="49.174009613610195" lon="2.5688668473347134"><ele>67.99999999999999</ele><time>2026-05-02T14:01:54.998Z</time></trkpt><trkpt lat="49.173946230605154" lon="2.5688311728380673"><ele>68.0</ele><time>2026-05-02T14:01:56.998Z</time></trkpt><trkpt lat="49.17386359509988" lon="2.56881349097069"><ele>68.0</ele><time>2026-05-02T14:01:59.998Z</time></trkpt><trkpt lat="49.17380520811953" lon="2.568729519004827"><ele>68.0</ele><time>2026-05-02T14:02:02.998Z</time></trkpt><trkpt lat="49.173750122922065" lon="2.568681801772438"><ele>68.0</ele><time>2026-05-02T14:02:04.998Z</time></trkpt><trkpt lat="49.17369098624177" lon="2.568630633879153"><ele>67.99999999999999</ele><time>2026-05-02T14:02:06.998Z</time></trkpt><trkpt lat="49.173623529462525" lon="2.568582251108979"><ele>68.0</ele><time>2026-05-02T14:02:08.998Z</time></trkpt><trkpt lat="49.17356110167945" lon="2.5685327448904274"><ele>68.0</ele><time>2026-05-02T14:02:10.998Z</time></trkpt><trkpt lat="49.173493414506254" lon="2.568476112274224"><ele>68.0</ele><time>2026-05-02T14:02:12.998Z</time></trkpt><trkpt lat="49.17339781232795" lon="2.568414388565316"><ele>68.0</ele><time>2026-05-02T14:02:15.998Z</time></trkpt><trkpt lat="49.17332126410101" lon="2.5683572248141227"><ele>68.0</ele><time>2026-05-02T14:02:17.998Z</time></trkpt><trkpt lat="49.17324522946114" lon="2.5683134492243553"><ele>68.0</ele><time>2026-05-02T14:02:19.998Z</time></trkpt><trkpt lat="49.173174206720134" lon="2.568261504994427"><ele>68.0</ele><time>2026-05-02T14:02:21.998Z</time></trkpt><trkpt lat="49.17310864032123" lon="2.568195859146564"><ele>67.99999999999999</ele><time>2026-05-02T14:02:23.998Z</time></trkpt><trkpt lat="49.17304537194648" lon="2.568155276727239"><ele>68.0</ele><time>2026-05-02T14:02:25.998Z</time></trkpt><trkpt lat="49.172982152362074" lon="2.5681084227215996"><ele>68.0</ele><time>2026-05-02T14:02:27.998Z</time></trkpt><trkpt lat="49.17290628645561" lon="2.5680657126394077"><ele>68.0</ele><time>2026-05-02T14:02:29.997Z</time></trkpt><trkpt lat="49.17283381344491" lon="2.568021761221358"><ele>68.0</ele><time>2026-05-02T14:02:31.997Z</time></trkpt><trkpt lat="49.17276754622197" lon="2.5679804293136286"><ele>67.99999999999999</ele><time>2026-05-02T14:02:33.997Z</time></trkpt><trkpt lat="49.17270375069583" lon="2.567934924962426"><ele>68.0</ele><time>2026-05-02T14:02:35.997Z</time></trkpt><trkpt lat="49.17263782118836" lon="2.5678946716973896"><ele>67.99999999999999</ele><time>2026-05-02T14:02:37.997Z</time></trkpt><trkpt lat="49.17257471901342" lon="2.5678516124318804"><ele>68.0</ele><time>2026-05-02T14:02:39.997Z</time></trkpt><trkpt lat="49.1725105001568" lon="2.567802520260756"><ele>68.0</ele><time>2026-05-02T14:02:41.997Z</time></trkpt><trkpt lat="49.17244473902493" lon="2.5677545394851853"><ele>68.0</ele><time>2026-05-02T14:02:43.997Z</time></trkpt><trkpt lat="49.17237841326457" lon="2.5677092713458767"><ele>68.0</ele><time>2026-05-02T14:02:45.997Z</time></trkpt><trkpt lat="49.17231953472094" lon="2.5676668701240843"><ele>67.99999999999999</ele><time>2026-05-02T14:02:47.997Z</time></trkpt><trkpt lat="49.17226093610866" lon="2.567625813905695"><ele>68.0</ele><time>2026-05-02T14:02:49.997Z</time></trkpt><trkpt lat="49.172181149273655" lon="2.567570632291333"><ele>68.33333333333334</ele><time>2026-05-02T14:02:52.997Z</time></trkpt><trkpt lat="49.17210475132781" lon="2.5675147121168593"><ele>68.66666666666667</ele><time>2026-05-02T14:02:55.997Z</time></trkpt><trkpt lat="49.17202776781205" lon="2.567466076014031"><ele>69.0</ele><time>2026-05-02T14:02:59Z</time></trkpt><trkpt lat="49.17195104576688" lon="2.5674139277989165"><ele>69.33333333333333</ele><time>2026-05-02T14:03:02Z</time></trkpt><trkpt lat="49.1718847227789" lon="2.5673671973858294"><ele>69.66666666666666</ele><time>2026-05-02T14:03:05Z</time></trkpt><trkpt lat="49.171816942305604" lon="2.5673119469509365"><ele>70.0</ele><time>2026-05-02T14:03:08Z</time></trkpt><trkpt lat="49.171738183972806" lon="2.5672460042367575"><ele>70.0</ele><time>2026-05-02T14:03:11Z</time></trkpt><trkpt lat="49.17167580518158" lon="2.5672005880683706"><ele>70.0</ele><time>2026-05-02T14:03:13Z</time></trkpt><trkpt lat="49.17159516257622" lon="2.567137186365941"><ele>70.0</ele><time>2026-05-02T14:03:16Z</time></trkpt><trkpt lat="49.17153383256753" lon="2.5671020529024924"><ele>70.0</ele><time>2026-05-02T14:03:18Z</time></trkpt><trkpt lat="49.171476189420865" lon="2.5670606984051703"><ele>70.0</ele><time>2026-05-02T14:03:20Z</time></trkpt><trkpt lat="49.17141256253205" lon="2.5670158363323474"><ele>70.0</ele><time>2026-05-02T14:03:22Z</time></trkpt><trkpt lat="49.17133423802134" lon="2.5669618372230545"><ele>70.0</ele><time>2026-05-02T14:03:24.999Z</time></trkpt><trkpt lat="49.17127625676822" lon="2.566921772191547"><ele>70.33333333333333</ele><time>2026-05-02T14:03:26.999Z</time></trkpt><trkpt lat="49.17119244524775" lon="2.5668592707529334"><ele>70.66666666666666</ele><time>2026-05-02T14:03:29.999Z</time></trkpt><trkpt lat="49.171104050319" lon="2.5668049159188"><ele>71.0</ele><time>2026-05-02T14:03:32.999Z</time></trkpt><trkpt lat="49.1710225608217" lon="2.566745491433438"><ele>71.33333333333333</ele><time>2026-05-02T14:03:35.999Z</time></trkpt><trkpt lat="49.17096901086283" lon="2.566684386882003"><ele>71.66666666666667</ele><time>2026-05-02T14:03:37.999Z</time></trkpt><trkpt lat="49.17088769549511" lon="2.5666166653799274"><ele>72.0</ele><time>2026-05-02T14:03:40.999Z</time></trkpt><trkpt lat="49.17081479415644" lon="2.5665865015903866"><ele>72.00000000000001</ele><time>2026-05-02T14:03:42.999Z</time></trkpt><trkpt lat="49.17075667147253" lon="2.5665409846273066"><ele>72.0</ele><time>2026-05-02T14:03:44.999Z</time></trkpt><trkpt lat="49.170694263895264" lon="2.566492492095166"><ele>72.0</ele><time>2026-05-02T14:03:46.999Z</time></trkpt><trkpt lat="49.17062585075206" lon="2.566447605015087"><ele>72.0</ele><time>2026-05-02T14:03:48.999Z</time></trkpt><trkpt lat="49.17055799854193" lon="2.5664057580196125"><ele>72.0</ele><time>2026-05-02T14:03:50.999Z</time></trkpt><trkpt lat="49.17048936032822" lon="2.566353640535713"><ele>72.00000000000001</ele><time>2026-05-02T14:03:52.999Z</time></trkpt><trkpt lat="49.170425981215175" lon="2.5663097458269415"><ele>72.0</ele><time>2026-05-02T14:03:54.999Z</time></trkpt><trkpt lat="49.170355704347045" lon="2.5662645014524803"><ele>72.0</ele><time>2026-05-02T14:03:56.999Z</time></trkpt><trkpt lat="49.170283590170094" lon="2.566219322382424"><ele>72.0</ele><time>2026-05-02T14:03:58.998Z</time></trkpt><trkpt lat="49.17021674791959" lon="2.566167872471836"><ele>72.0</ele><time>2026-05-02T14:04:00.998Z</time></trkpt><trkpt lat="49.17014635520955" lon="2.566115280010596"><ele>72.0</ele><time>2026-05-02T14:04:02.998Z</time></trkpt><trkpt lat="49.170061668825596" lon="2.566063608776812"><ele>72.0</ele><time>2026-05-02T14:04:05.998Z</time></trkpt><trkpt lat="49.169976164338685" lon="2.5659984885632507"><ele>72.0</ele><time>2026-05-02T14:04:08.998Z</time></trkpt><trkpt lat="49.16989257718456" lon="2.5659354753428216"><ele>71.71428571428572</ele><time>2026-05-02T14:04:11.998Z</time></trkpt><trkpt lat="49.16983248177682" lon="2.565887838399945"><ele>71.42857142857143</ele><time>2026-05-02T14:04:13.998Z</time></trkpt><trkpt lat="49.16977197917649" lon="2.5658230579377626"><ele>71.14285714285714</ele><time>2026-05-02T14:04:15.998Z</time></trkpt><trkpt lat="49.16971043662942" lon="2.5657748622864625"><ele>70.85714285714286</ele><time>2026-05-02T14:04:17.998Z</time></trkpt><trkpt lat="49.16965002253164" lon="2.5657418480760987"><ele>70.57142857142857</ele><time>2026-05-02T14:04:19.998Z</time></trkpt><trkpt lat="49.1695803610042" lon="2.565700112497981"><ele>70.28571428571429</ele><time>2026-05-02T14:04:21.998Z</time></trkpt><trkpt lat="49.16951651904592" lon="2.5656540690519365"><ele>70.0</ele><time>2026-05-02T14:04:23.998Z</time></trkpt><trkpt lat="49.16944813561563" lon="2.565601216028104"><ele>70.0</ele><time>2026-05-02T14:04:25.998Z</time></trkpt><trkpt lat="49.16937839410759" lon="2.5655523279254466"><ele>70.0</ele><time>2026-05-02T14:04:27.998Z</time></trkpt><trkpt lat="49.169301622002706" lon="2.565504839632247"><ele>70.0</ele><time>2026-05-02T14:04:29.998Z</time></trkpt><trkpt lat="49.16923468968862" lon="2.565446651609524"><ele>70.0</ele><time>2026-05-02T14:04:31.998Z</time></trkpt><trkpt lat="49.16916419393158" lon="2.5653954348719354"><ele>70.0</ele><time>2026-05-02T14:04:33.998Z</time></trkpt><trkpt lat="49.16909093263867" lon="2.5653444214284877"><ele>70.0</ele><time>2026-05-02T14:04:35.997Z</time></trkpt><trkpt lat="49.16901938281369" lon="2.5652938584929745"><ele>70.5</ele><time>2026-05-02T14:04:37.997Z</time></trkpt><trkpt lat="49.168947249014984" lon="2.5652405095978943"><ele>71.0</ele><time>2026-05-02T14:04:39.997Z</time></trkpt><trkpt lat="49.16888446107851" lon="2.5651825061002453"><ele>71.5</ele><time>2026-05-02T14:04:41.997Z</time></trkpt><trkpt lat="49.168806442045685" lon="2.5651343464170018"><ele>72.0</ele><time>2026-05-02T14:04:43.997Z</time></trkpt><trkpt lat="49.16873493358545" lon="2.565084538367684"><ele>72.5</ele><time>2026-05-02T14:04:45.997Z</time></trkpt><trkpt lat="49.168668983896524" lon="2.565036402420251"><ele>73.0</ele><time>2026-05-02T14:04:47.997Z</time></trkpt><trkpt lat="49.1685980316644" lon="2.5649872435202914"><ele>73.0</ele><time>2026-05-02T14:04:49.997Z</time></trkpt><trkpt lat="49.1685261792307" lon="2.56494230546188"><ele>73.0</ele><time>2026-05-02T14:04:51.997Z</time></trkpt><trkpt lat="49.168462816100124" lon="2.5648953869059747"><ele>73.0</ele><time>2026-05-02T14:04:53.997Z</time></trkpt><trkpt lat="49.16839769087865" lon="2.564855327161521"><ele>73.0</ele><time>2026-05-02T14:04:55.997Z</time></trkpt><trkpt lat="49.168334730577364" lon="2.564797272231573"><ele>73.0</ele><time>2026-05-02T14:04:58.997Z</time></trkpt><trkpt lat="49.16827405615618" lon="2.5647455733577216"><ele>73.0</ele><time>2026-05-02T14:10:00.999Z</time></trkpt><trkpt lat="49.16821102700942" lon="2.5646981271278486"><ele>73.0</ele><time>2026-05-02T14:10:04.999Z</time></trkpt><trkpt lat="49.168135898079946" lon="2.564649232535519"><ele>72.71428571428571</ele><time>2026-05-02T14:10:07.999Z</time></trkpt><trkpt lat="49.168070750415446" lon="2.5646198581116595"><ele>72.42857142857143</ele><time>2026-05-02T14:10:09.998Z</time></trkpt><trkpt lat="49.16798632978865" lon="2.564549775109909"><ele>72.14285714285714</ele><time>2026-05-02T14:10:12.998Z</time></trkpt><trkpt lat="49.16792197948502" lon="2.5645096305421697"><ele>71.85714285714286</ele><time>2026-05-02T14:10:14.998Z</time></trkpt><trkpt lat="49.167859653519066" lon="2.564463955485076"><ele>71.57142857142857</ele><time>2026-05-02T14:10:16.998Z</time></trkpt><trkpt lat="49.1677924168279" lon="2.5644147341619106"><ele>71.28571428571428</ele><time>2026-05-02T14:10:18.998Z</time></trkpt><trkpt lat="49.167733165819165" lon="2.5643573898955885"><ele>71.0</ele><time>2026-05-02T14:10:20.998Z</time></trkpt><trkpt lat="49.16765685649289" lon="2.5643076578159634"><ele>71.0</ele><time>2026-05-02T14:10:22.998Z</time></trkpt><trkpt lat="49.167584942118914" lon="2.564258752130962"><ele>71.0</ele><time>2026-05-02T14:10:24.998Z</time></trkpt><trkpt lat="49.16751137857238" lon="2.56420746791996"><ele>71.0</ele><time>2026-05-02T14:10:26.998Z</time></trkpt><trkpt lat="49.16743819417768" lon="2.564155819424384"><ele>71.0</ele><time>2026-05-02T14:10:28.998Z</time></trkpt><trkpt lat="49.16736676900097" lon="2.5641004478623297"><ele>71.0</ele><time>2026-05-02T14:10:30.998Z</time></trkpt><trkpt lat="49.1672988181858" lon="2.5640481089506943"><ele>71.0</ele><time>2026-05-02T14:10:32.998Z</time></trkpt><trkpt lat="49.16722843845837" lon="2.5640075935391837"><ele>71.0</ele><time>2026-05-02T14:10:34.998Z</time></trkpt><trkpt lat="49.167159993466605" lon="2.563960822457402"><ele>71.0</ele><time>2026-05-02T14:10:36.998Z</time></trkpt><trkpt lat="49.167088698341445" lon="2.56391653987954"><ele>71.0</ele><time>2026-05-02T14:10:38.998Z</time></trkpt><trkpt lat="49.16701818538023" lon="2.56386092530285"><ele>71.0</ele><time>2026-05-02T14:10:40.998Z</time></trkpt><trkpt lat="49.16694389152956" lon="2.563810782832479"><ele>71.0</ele><time>2026-05-02T14:10:42.998Z</time></trkpt><trkpt lat="49.16687090029265" lon="2.563757158689276"><ele>71.0</ele><time>2026-05-02T14:10:44.997Z</time></trkpt><trkpt lat="49.16679719071469" lon="2.563706521427039"><ele>71.16666666666667</ele><time>2026-05-02T14:10:46.997Z</time></trkpt><trkpt lat="49.16672190493978" lon="2.5636513028757966"><ele>71.33333333333334</ele><time>2026-05-02T14:10:48.997Z</time></trkpt><trkpt lat="49.1666455477999" lon="2.5635987584279167"><ele>71.5</ele><time>2026-05-02T14:10:50.997Z</time></trkpt><trkpt lat="49.16657405686065" lon="2.563547027331138"><ele>71.66666666666667</ele><time>2026-05-02T14:10:52.997Z</time></trkpt><trkpt lat="49.16650787281396" lon="2.5634928719092955"><ele>71.83333333333333</ele><time>2026-05-02T14:10:54.997Z</time></trkpt><trkpt lat="49.16644081882369" lon="2.5634539783993753"><ele>72.0</ele><time>2026-05-02T14:10:56.997Z</time></trkpt><trkpt lat="49.16637129613229" lon="2.563403149810749"><ele>72.0</ele><time>2026-05-02T14:10:58.997Z</time></trkpt><trkpt lat="49.166289101681926" lon="2.563343611051816"><ele>72.0</ele><time>2026-05-02T14:11:00.997Z</time></trkpt><trkpt lat="49.166214419506076" lon="2.563287497207959"><ele>72.0</ele><time>2026-05-02T14:11:02.997Z</time></trkpt><trkpt lat="49.166132524857105" lon="2.563230732614797"><ele>72.0</ele><time>2026-05-02T14:11:04.997Z</time></trkpt><trkpt lat="49.166053396171044" lon="2.563176472479429"><ele>72.0</ele><time>2026-05-02T14:11:06.997Z</time></trkpt><trkpt lat="49.16598457074067" lon="2.5631255819155463"><ele>72.0</ele><time>2026-05-02T14:11:08.997Z</time></trkpt><trkpt lat="49.165908960626105" lon="2.5630751427048564"><ele>72.0</ele><time>2026-05-02T14:11:10.997Z</time></trkpt><trkpt lat="49.16584003091832" lon="2.563021859876337"><ele>72.0</ele><time>2026-05-02T14:11:12.997Z</time></trkpt><trkpt lat="49.16577663356601" lon="2.5629654330857083"><ele>72.0</ele><time>2026-05-02T14:11:14.997Z</time></trkpt><trkpt lat="49.16570665347345" lon="2.5629151270470154"><ele>72.0</ele><time>2026-05-02T14:11:16.997Z</time></trkpt><trkpt lat="49.16563755679064" lon="2.562869747793109"><ele>72.0</ele><time>2026-05-02T14:11:18.999Z</time></trkpt><trkpt lat="49.165565750440635" lon="2.5628252795729276"><ele>72.0</ele><time>2026-05-02T14:11:20.999Z</time></trkpt><trkpt lat="49.16550811432019" lon="2.562763307494974"><ele>71.85714285714286</ele><time>2026-05-02T14:11:22.999Z</time></trkpt><trkpt lat="49.1654476065581" lon="2.5627030795230916"><ele>71.71428571428572</ele><time>2026-05-02T14:11:24.999Z</time></trkpt><trkpt lat="49.16537898406956" lon="2.5626548159478615"><ele>71.57142857142857</ele><time>2026-05-02T14:11:26.999Z</time></trkpt><trkpt lat="49.1653125125125" lon="2.562614380172233"><ele>71.42857142857143</ele><time>2026-05-02T14:11:28.999Z</time></trkpt><trkpt lat="49.16525078686477" lon="2.5625689754906924"><ele>71.28571428571428</ele><time>2026-05-02T14:11:30.999Z</time></trkpt><trkpt lat="49.165185585050125" lon="2.5625218036269444"><ele>71.14285714285714</ele><time>2026-05-02T14:11:32.999Z</time></trkpt><trkpt lat="49.1651204243828" lon="2.5624759084142714"><ele>71.0</ele><time>2026-05-02T14:11:34.999Z</time></trkpt><trkpt lat="49.1650483676882" lon="2.562427227161857"><ele>71.0</ele><time>2026-05-02T14:11:36.999Z</time></trkpt><trkpt lat="49.16497464044149" lon="2.5623730021113"><ele>71.0</ele><time>2026-05-02T14:11:38.999Z</time></trkpt><trkpt lat="49.16490082922655" lon="2.562312606020141"><ele>71.0</ele><time>2026-05-02T14:11:40.999Z</time></trkpt><trkpt lat="49.164823000085896" lon="2.562263354646387"><ele>71.0</ele><time>2026-05-02T14:11:42.999Z</time></trkpt><trkpt lat="49.16474895394249" lon="2.5622123666780148"><ele>71.0</ele><time>2026-05-02T14:11:44.999Z</time></trkpt><trkpt lat="49.16467250653737" lon="2.5621634682112573"><ele>71.0</ele><time>2026-05-02T14:11:46.999Z</time></trkpt><trkpt lat="49.16460674504835" lon="2.5620944702132467"><ele>70.83333333333334</ele><time>2026-05-02T14:11:48.999Z</time></trkpt><trkpt lat="49.16450951723969" lon="2.562020726992527"><ele>70.66666666666667</ele><time>2026-05-02T14:11:51.999Z</time></trkpt><trkpt lat="49.164430902981174" lon="2.5619678811708706"><ele>70.5</ele><time>2026-05-02T14:11:53.999Z</time></trkpt><trkpt lat="49.16436912160018" lon="2.561911044459923"><ele>70.33333333333333</ele><time>2026-05-02T14:11:55.999Z</time></trkpt><trkpt lat="49.1642807584323" lon="2.5618607238039126"><ele>70.16666666666666</ele><time>2026-05-02T14:11:57.999Z</time></trkpt><trkpt lat="49.16420960183994" lon="2.5618071568861542"><ele>70.0</ele><time>2026-05-02T14:11:59.999Z</time></trkpt><trkpt lat="49.16412389005554" lon="2.561749317544396"><ele>70.0</ele><time>2026-05-02T14:12:01.999Z</time></trkpt><trkpt lat="49.16407175995155" lon="2.56165165507632"><ele>70.0</ele><time>2026-05-02T14:12:03.999Z</time></trkpt><trkpt lat="49.16405102159975" lon="2.561539607233494"><ele>70.0</ele><time>2026-05-02T14:12:05.999Z</time></trkpt><trkpt lat="49.16403955302985" lon="2.5614227600689983"><ele>70.0</ele><time>2026-05-02T14:12:07.999Z</time></trkpt><trkpt lat="49.16403613171438" lon="2.561307162940444"><ele>70.0</ele><time>2026-05-02T14:12:09.998Z</time></trkpt><trkpt lat="49.163985751211264" lon="2.561203135016212"><ele>70.0</ele><time>2026-05-02T14:12:10.998Z</time></trkpt><trkpt lat="49.16394385592144" lon="2.5610750646738056"><ele>70.0</ele><time>2026-05-02T14:12:12.998Z</time></trkpt><trkpt lat="49.16384511521215" lon="2.561017963354361"><ele>70.0</ele><time>2026-05-02T14:12:14.998Z</time></trkpt><trkpt lat="49.16377951287779" lon="2.5610233548439996"><ele>70.0</ele><time>2026-05-02T14:12:15.998Z</time></trkpt><trkpt lat="49.163653210919335" lon="2.5610359211852702"><ele>70.0</ele><time>2026-05-02T14:12:17.998Z</time></trkpt><trkpt lat="49.16354391242097" lon="2.561035794266515"><ele>70.0</ele><time>2026-05-02T14:12:19.998Z</time></trkpt><trkpt lat="49.163444528253585" lon="2.5610902790218883"><ele>70.0</ele><time>2026-05-02T14:12:21.998Z</time></trkpt><trkpt lat="49.163355567800146" lon="2.561119153497506"><ele>70.0</ele><time>2026-05-02T14:12:23.998Z</time></trkpt><trkpt lat="49.1632729861399" lon="2.561136809568778"><ele>70.0</ele><time>2026-05-02T14:12:25.998Z</time></trkpt><trkpt lat="49.1632006882088" lon="2.561127996615214"><ele>70.0</ele><time>2026-05-02T14:12:27.998Z</time></trkpt><trkpt lat="49.163134838329405" lon="2.5610771426575436"><ele>70.0</ele><time>2026-05-02T14:12:29.998Z</time></trkpt><trkpt lat="49.16305816087816" lon="2.5610399060429216"><ele>70.0</ele><time>2026-05-02T14:12:31.998Z</time></trkpt><trkpt lat="49.16300599852395" lon="2.5609703207378707"><ele>69.5</ele><time>2026-05-02T14:12:33.998Z</time></trkpt><trkpt lat="49.16292845507319" lon="2.560905787912969"><ele>69.0</ele><time>2026-05-02T14:12:35.998Z</time></trkpt><trkpt lat="49.162864366344756" lon="2.560843394958449"><ele>68.5</ele><time>2026-05-02T14:12:37.998Z</time></trkpt><trkpt lat="49.162784598884116" lon="2.560789474877512"><ele>68.0</ele><time>2026-05-02T14:12:39.998Z</time></trkpt><trkpt lat="49.16270998346527" lon="2.56072805719139"><ele>67.5</ele><time>2026-05-02T14:12:41.998Z</time></trkpt><trkpt lat="49.16263360384056" lon="2.560661667487705"><ele>67.0</ele><time>2026-05-02T14:12:43.998Z</time></trkpt><trkpt lat="49.16256009534306" lon="2.560612448407138"><ele>67.0</ele><time>2026-05-02T14:12:45.997Z</time></trkpt><trkpt lat="49.16247607327303" lon="2.560557186786103"><ele>67.0</ele><time>2026-05-02T14:12:47.997Z</time></trkpt><trkpt lat="49.162395286865014" lon="2.560483186281921"><ele>67.0</ele><time>2026-05-02T14:12:49.997Z</time></trkpt><trkpt lat="49.16231550526734" lon="2.5604221136999805"><ele>67.0</ele><time>2026-05-02T14:12:51.997Z</time></trkpt><trkpt lat="49.16222683788619" lon="2.560358700975961"><ele>67.0</ele><time>2026-05-02T14:12:53.997Z</time></trkpt><trkpt lat="49.16214851844197" lon="2.560297712671261"><ele>66.8</ele><time>2026-05-02T14:12:55.997Z</time></trkpt><trkpt lat="49.162075971284565" lon="2.5602444822580597"><ele>66.6</ele><time>2026-05-02T14:12:57.997Z</time></trkpt><trkpt lat="49.161990431160625" lon="2.5601759512090183"><ele>66.39999999999999</ele><time>2026-05-02T14:12:59.997Z</time></trkpt><trkpt lat="49.16190680181723" lon="2.5601421263556534"><ele>66.2</ele><time>2026-05-02T14:13:01.997Z</time></trkpt><trkpt lat="49.16182697300384" lon="2.560067458361663"><ele>66.0</ele><time>2026-05-02T14:13:03.997Z</time></trkpt><trkpt lat="49.161738131816925" lon="2.5600007074081357"><ele>66.0</ele><time>2026-05-02T14:13:05.997Z</time></trkpt><trkpt lat="49.161651847531054" lon="2.559947864354106"><ele>66.0</ele><time>2026-05-02T14:13:07.997Z</time></trkpt><trkpt lat="49.16156869553147" lon="2.5598809168632024"><ele>66.0</ele><time>2026-05-02T14:13:09.997Z</time></trkpt><trkpt lat="49.16147124465454" lon="2.5598310780998164"><ele>66.0</ele><time>2026-05-02T14:13:11.997Z</time></trkpt><trkpt lat="49.16138081875479" lon="2.5597783639661813"><ele>66.0</ele><time>2026-05-02T14:13:13.997Z</time></trkpt><trkpt lat="49.16128781796722" lon="2.559719086740806"><ele>65.8</ele><time>2026-05-02T14:13:15.997Z</time></trkpt><trkpt lat="49.161198537838324" lon="2.5596624031817186"><ele>65.6</ele><time>2026-05-02T14:13:17.997Z</time></trkpt><trkpt lat="49.161107610945" lon="2.5596117180668414"><ele>65.4</ele><time>2026-05-02T14:13:19.997Z</time></trkpt><trkpt lat="49.16102019614604" lon="2.5595588551332744"><ele>65.2</ele><time>2026-05-02T14:13:21.996Z</time></trkpt><trkpt lat="49.16093509207212" lon="2.559499912201079"><ele>65.0</ele><time>2026-05-02T14:13:23.996Z</time></trkpt><trkpt lat="49.16085199229706" lon="2.559443010134762"><ele>65.5</ele><time>2026-05-02T14:13:25.999Z</time></trkpt><trkpt lat="49.160767514691436" lon="2.5593853175385"><ele>66.0</ele><time>2026-05-02T14:13:27.999Z</time></trkpt><trkpt lat="49.16068952237508" lon="2.5593312374679225"><ele>66.5</ele><time>2026-05-02T14:13:29.999Z</time></trkpt><trkpt lat="49.160612226286624" lon="2.5592669042443923"><ele>67.0</ele><time>2026-05-02T14:13:31.999Z</time></trkpt><trkpt lat="49.16054219109225" lon="2.5591939697027453"><ele>67.5</ele><time>2026-05-02T14:13:33.999Z</time></trkpt><trkpt lat="49.16046956405247" lon="2.559136132362734"><ele>68.0</ele><time>2026-05-02T14:13:35.999Z</time></trkpt><trkpt lat="49.16040067218465" lon="2.559071802572533"><ele>68.33333333333334</ele><time>2026-05-02T14:13:38Z</time></trkpt><trkpt lat="49.160326423268245" lon="2.55901634421634"><ele>68.66666666666667</ele><time>2026-05-02T14:13:39.999Z</time></trkpt><trkpt lat="49.16025924084523" lon="2.55898996219591"><ele>69.0</ele><time>2026-05-02T14:13:41.999Z</time></trkpt><trkpt lat="49.16018856117306" lon="2.558947547115632"><ele>69.33333333333333</ele><time>2026-05-02T14:13:43.999Z</time></trkpt><trkpt lat="49.160133521648525" lon="2.558884200636996"><ele>69.66666666666666</ele><time>2026-05-02T14:13:45.999Z</time></trkpt><trkpt lat="49.16008549380306" lon="2.558799131144032"><ele>70.0</ele><time>2026-05-02T14:13:47.999Z</time></trkpt><trkpt lat="49.160059381137806" lon="2.558680789248633"><ele>70.16666666666666</ele><time>2026-05-02T14:13:49.999Z</time></trkpt><trkpt lat="49.16003870272779" lon="2.5585549160375742"><ele>70.33333333333333</ele><time>2026-05-02T14:13:51.999Z</time></trkpt><trkpt lat="49.16001544056441" lon="2.558445748486676"><ele>70.5</ele><time>2026-05-02T14:13:53.999Z</time></trkpt><trkpt lat="49.15997855917749" lon="2.5583398042523413"><ele>70.66666666666667</ele><time>2026-05-02T14:13:55.999Z</time></trkpt><trkpt lat="49.15994046536274" lon="2.5582204206497234"><ele>70.83333333333334</ele><time>2026-05-02T14:13:57.999Z</time></trkpt><trkpt lat="49.15989517628324" lon="2.5581251883928102"><ele>71.0</ele><time>2026-05-02T14:13:59.999Z</time></trkpt><trkpt lat="49.159859764010896" lon="2.5580015270156173"><ele>71.0</ele><time>2026-05-02T14:14:01.999Z</time></trkpt><trkpt lat="49.1598276439917" lon="2.5578697962723753"><ele>71.0</ele><time>2026-05-02T14:14:03.999Z</time></trkpt><trkpt lat="49.15979028953951" lon="2.5577442486468702"><ele>71.0</ele><time>2026-05-02T14:14:05.999Z</time></trkpt><trkpt lat="49.1597794842989" lon="2.557609699160839"><ele>71.0</ele><time>2026-05-02T14:14:07.999Z</time></trkpt><trkpt lat="49.15976878608775" lon="2.5574700363403737"><ele>71.0</ele><time>2026-05-02T14:14:09.999Z</time></trkpt><trkpt lat="49.15974344701809" lon="2.5573473158652416"><ele>71.0</ele><time>2026-05-02T14:14:11.999Z</time></trkpt><trkpt lat="49.159725231366565" lon="2.557236228085579"><ele>71.0</ele><time>2026-05-02T14:14:13.999Z</time></trkpt><trkpt lat="49.15970628827866" lon="2.5571283124260775"><ele>71.0</ele><time>2026-05-02T14:14:15.999Z</time></trkpt><trkpt lat="49.15967093128427" lon="2.5570336267729585"><ele>71.0</ele><time>2026-05-02T14:14:17.998Z</time></trkpt><trkpt lat="49.15963100551555" lon="2.556908882812913"><ele>71.0</ele><time>2026-05-02T14:14:20.998Z</time></trkpt><trkpt lat="49.159599847926806" lon="2.5567482147540845"><ele>71.0</ele><time>2026-05-02T14:14:23.998Z</time></trkpt><trkpt lat="49.159575063399494" lon="2.556616099878919"><ele>71.0</ele><time>2026-05-02T14:14:25.998Z</time></trkpt><trkpt lat="49.15956082680938" lon="2.5564845419568556"><ele>70.6</ele><time>2026-05-02T14:14:27.998Z</time></trkpt><trkpt lat="49.15955438503925" lon="2.5563378629554037"><ele>70.19999999999999</ele><time>2026-05-02T14:14:29.998Z</time></trkpt><trkpt lat="49.15954820295862" lon="2.5561930239432162"><ele>69.80000000000001</ele><time>2026-05-02T14:14:31.998Z</time></trkpt><trkpt lat="49.15953254548394" lon="2.5560595041768965"><ele>69.4</ele><time>2026-05-02T14:14:33.998Z</time></trkpt><trkpt lat="49.1595262589004" lon="2.555919174718657"><ele>69.0</ele><time>2026-05-02T14:14:35.998Z</time></trkpt><trkpt lat="49.15951947984034" lon="2.555794426069027"><ele>69.0</ele><time>2026-05-02T14:14:37.998Z</time></trkpt><trkpt lat="49.15947897516039" lon="2.555671639649306"><ele>69.0</ele><time>2026-05-02T14:14:39.998Z</time></trkpt><trkpt lat="49.15944487103219" lon="2.5555661546415824"><ele>69.0</ele><time>2026-05-02T14:14:41.998Z</time></trkpt><trkpt lat="49.15940547806139" lon="2.5554486962896656"><ele>69.0</ele><time>2026-05-02T14:14:43.998Z</time></trkpt><trkpt lat="49.15936843426358" lon="2.5553324597753733"><ele>69.0</ele><time>2026-05-02T14:14:45.998Z</time></trkpt><trkpt lat="49.15933131294129" lon="2.555223076023177"><ele>69.0</ele><time>2026-05-02T14:14:47.998Z</time></trkpt><trkpt lat="49.159312765764746" lon="2.5550844995848903"><ele>69.16666666666667</ele><time>2026-05-02T14:14:49.998Z</time></trkpt><trkpt lat="49.15925863014345" lon="2.5549682395278617"><ele>69.33333333333333</ele><time>2026-05-02T14:14:51.998Z</time></trkpt><trkpt lat="49.159258276593846" lon="2.5548574076564505"><ele>69.5</ele><time>2026-05-02T14:14:53.997Z</time></trkpt><trkpt lat="49.159200190140524" lon="2.5547520545684517"><ele>69.66666666666666</ele><time>2026-05-02T14:14:55.997Z</time></trkpt><trkpt lat="49.15914623203176" lon="2.5546722894634017"><ele>69.83333333333333</ele><time>2026-05-02T14:14:57.997Z</time></trkpt><trkpt lat="49.15908644455378" lon="2.5545863501587136"><ele>70.0</ele><time>2026-05-02T14:14:59.997Z</time></trkpt><trkpt lat="49.15903892656128" lon="2.5544904271480044"><ele>69.5</ele><time>2026-05-02T14:15:01.997Z</time></trkpt><trkpt lat="49.158983576877894" lon="2.554399788358822"><ele>69.0</ele><time>2026-05-02T14:15:03.997Z</time></trkpt><trkpt lat="49.1589252352005" lon="2.5543172554596363"><ele>68.5</ele><time>2026-05-02T14:15:05.997Z</time></trkpt><trkpt lat="49.158868574929784" lon="2.5542006976413036"><ele>68.0</ele><time>2026-05-02T14:15:07.997Z</time></trkpt><trkpt lat="49.15880743737329" lon="2.554114241065405"><ele>67.5</ele><time>2026-05-02T14:15:09.997Z</time></trkpt><trkpt lat="49.158756565730265" lon="2.554000108253136"><ele>67.0</ele><time>2026-05-02T14:15:11.997Z</time></trkpt><trkpt lat="49.15870130501275" lon="2.553921009076702"><ele>67.0</ele><time>2026-05-02T14:15:13.997Z</time></trkpt><trkpt lat="49.15864698252337" lon="2.5538278138723554"><ele>67.0</ele><time>2026-05-02T14:15:15.997Z</time></trkpt><trkpt lat="49.158600313740465" lon="2.5537204116001493"><ele>67.0</ele><time>2026-05-02T14:15:17.997Z</time></trkpt><trkpt lat="49.158552001012985" lon="2.5536233981967027"><ele>67.0</ele><time>2026-05-02T14:15:19.997Z</time></trkpt><trkpt lat="49.15850461564817" lon="2.553527382941592"><ele>67.0</ele><time>2026-05-02T14:15:21.997Z</time></trkpt><trkpt lat="49.158453604780895" lon="2.55343734584084"><ele>67.0</ele><time>2026-05-02T14:15:23.997Z</time></trkpt><trkpt lat="49.15840497639518" lon="2.553328797042957"><ele>67.0</ele><time>2026-05-02T14:15:25.997Z</time></trkpt><trkpt lat="49.158366284552194" lon="2.5532004558217345"><ele>67.0</ele><time>2026-05-02T14:15:27.997Z</time></trkpt><trkpt lat="49.15834155051254" lon="2.553091935261692"><ele>67.0</ele><time>2026-05-02T14:15:30Z</time></trkpt><trkpt lat="49.15830657435227" lon="2.5529956749105387"><ele>67.0</ele><time>2026-05-02T14:15:32Z</time></trkpt><trkpt lat="49.1582524640754" lon="2.552889960213322"><ele>67.0</ele><time>2026-05-02T14:15:34Z</time></trkpt><trkpt lat="49.1582113703119" lon="2.552799968017663"><ele>67.0</ele><time>2026-05-02T14:15:36Z</time></trkpt><trkpt lat="49.15816474734874" lon="2.5527076458190017"><ele>66.57142857142857</ele><time>2026-05-02T14:15:38Z</time></trkpt><trkpt lat="49.15811402599654" lon="2.5526467965967417"><ele>66.14285714285714</ele><time>2026-05-02T14:15:40Z</time></trkpt><trkpt lat="49.158056514892024" lon="2.5525848431978613"><ele>65.71428571428571</ele><time>2026-05-02T14:15:42Z</time></trkpt><trkpt lat="49.1579934885707" lon="2.552538091305617"><ele>65.28571428571428</ele><time>2026-05-02T14:15:44Z</time></trkpt><trkpt lat="49.15793145769589" lon="2.552479354679803"><ele>64.85714285714285</ele><time>2026-05-02T14:15:46Z</time></trkpt><trkpt lat="49.15787568028754" lon="2.5524278058885743"><ele>64.42857142857143</ele><time>2026-05-02T14:15:48Z</time></trkpt><trkpt lat="49.15780702994827" lon="2.552360195931063"><ele>64.0</ele><time>2026-05-02T14:15:50.999Z</time></trkpt><trkpt lat="49.15774627040985" lon="2.5523089972701034"><ele>63.99999999999999</ele><time>2026-05-02T14:15:53.999Z</time></trkpt><trkpt lat="49.157665978405994" lon="2.552242028910533"><ele>64.0</ele><time>2026-05-02T14:15:56.999Z</time></trkpt><trkpt lat="49.15759893622159" lon="2.5521611453560404"><ele>64.0</ele><time>2026-05-02T14:15:59.999Z</time></trkpt><trkpt lat="49.157522250121225" lon="2.5520806924978174"><ele>64.0</ele><time>2026-05-02T14:16:02.999Z</time></trkpt><trkpt lat="49.157442405682076" lon="2.552018235612249"><ele>63.99999999999999</ele><time>2026-05-02T14:16:05.999Z</time></trkpt><trkpt lat="49.15738248739863" lon="2.551961265403379"><ele>64.0</ele><time>2026-05-02T14:16:07.999Z</time></trkpt><trkpt lat="49.157320289462525" lon="2.551921932429236"><ele>62.83333333333333</ele><time>2026-05-02T14:16:09.999Z</time></trkpt><trkpt lat="49.15725730304208" lon="2.551889140713512"><ele>61.666666666666664</ele><time>2026-05-02T14:16:11.999Z</time></trkpt><trkpt lat="49.15719245026029" lon="2.5518256286654877"><ele>60.5</ele><time>2026-05-02T14:16:13.999Z</time></trkpt><trkpt lat="49.15717221065817" lon="2.5517174679036714"><ele>59.33333333333333</ele><time>2026-05-02T14:16:16.999Z</time></trkpt><trkpt lat="49.15719288239794" lon="2.551592132434233"><ele>58.166666666666664</ele><time>2026-05-02T14:16:19.999Z</time></trkpt><trkpt lat="49.157157678037706" lon="2.551466895024811"><ele>57.0</ele><time>2026-05-02T14:16:21.999Z</time></trkpt><trkpt lat="49.157094023115285" lon="2.551426676919751"><ele>57.0</ele><time>2026-05-02T14:16:23.999Z</time></trkpt><trkpt lat="49.15702470911585" lon="2.551392750423814"><ele>57.0</ele><time>2026-05-02T14:16:25.999Z</time></trkpt><trkpt lat="49.15695731455089" lon="2.5513551825755942"><ele>57.0</ele><time>2026-05-02T14:16:27.998Z</time></trkpt><trkpt lat="49.15688835203063" lon="2.5513118302680824"><ele>57.0</ele><time>2026-05-02T14:16:29.998Z</time></trkpt><trkpt lat="49.15682310507351" lon="2.551229950910763"><ele>57.0</ele><time>2026-05-02T14:16:31.998Z</time></trkpt><trkpt lat="49.1567434705357" lon="2.5511953284491486"><ele>57.0</ele><time>2026-05-02T14:16:33.998Z</time></trkpt><trkpt lat="49.15664681094025" lon="2.5511478070955813"><ele>56.6</ele><time>2026-05-02T14:16:35.998Z</time></trkpt><trkpt lat="49.15656303021768" lon="2.5510671879213183"><ele>56.2</ele><time>2026-05-02T14:16:37.998Z</time></trkpt><trkpt lat="49.15652485917674" lon="2.5509096180961373"><ele>55.8</ele><time>2026-05-02T14:16:39.998Z</time></trkpt><trkpt lat="49.15650894183466" lon="2.5507527964448498"><ele>55.4</ele><time>2026-05-02T14:16:41.998Z</time></trkpt><trkpt lat="49.156483745573844" lon="2.5505973891667106"><ele>55.0</ele><time>2026-05-02T14:16:43.998Z</time></trkpt><trkpt lat="49.15645453531247" lon="2.5504471386721947"><ele>55.6</ele><time>2026-05-02T14:16:45.998Z</time></trkpt><trkpt lat="49.15642584400095" lon="2.5502927959819113"><ele>56.2</ele><time>2026-05-02T14:16:47.998Z</time></trkpt><trkpt lat="49.15640054769563" lon="2.5501400457912946"><ele>56.8</ele><time>2026-05-02T14:16:49.998Z</time></trkpt><trkpt lat="49.156370840466984" lon="2.5499901310092468"><ele>57.4</ele><time>2026-05-02T14:16:51.998Z</time></trkpt><trkpt lat="49.15633762927749" lon="2.5498453195851254"><ele>58.0</ele><time>2026-05-02T14:16:53.998Z</time></trkpt><trkpt lat="49.156328683789795" lon="2.5496937206120185"><ele>57.99999999999999</ele><time>2026-05-02T14:16:55.998Z</time></trkpt><trkpt lat="49.15629141413987" lon="2.5495555845642497"><ele>58.0</ele><time>2026-05-02T14:16:57.998Z</time></trkpt><trkpt lat="49.15627860527325" lon="2.5494125573016677"><ele>58.0</ele><time>2026-05-02T14:16:59.998Z</time></trkpt><trkpt lat="49.156245596007274" lon="2.54928428155459"><ele>58.0</ele><time>2026-05-02T14:17:01.998Z</time></trkpt><trkpt lat="49.15622244049458" lon="2.549156800095889"><ele>57.99999999999999</ele><time>2026-05-02T14:17:03.997Z</time></trkpt><trkpt lat="49.15619691199248" lon="2.5490403008809013"><ele>58.0</ele><time>2026-05-02T14:17:05.997Z</time></trkpt><trkpt lat="49.15617421821214" lon="2.548924167500192"><ele>57.83333333333333</ele><time>2026-05-02T14:17:07.997Z</time></trkpt><trkpt lat="49.15615496731685" lon="2.548816942611265"><ele>57.666666666666664</ele><time>2026-05-02T14:17:09.997Z</time></trkpt><trkpt lat="49.15613756391783" lon="2.548713847686583"><ele>57.5</ele><time>2026-05-02T14:17:11.997Z</time></trkpt><trkpt lat="49.15610910957621" lon="2.548576561515118"><ele>57.33333333333333</ele><time>2026-05-02T14:17:14.997Z</time></trkpt><trkpt lat="49.156094990800774" lon="2.5484824348313038"><ele>57.166666666666664</ele><time>2026-05-02T14:17:16.997Z</time></trkpt><trkpt lat="49.156066988822914" lon="2.5483895151885343"><ele>57.0</ele><time>2026-05-02T14:17:18.997Z</time></trkpt><trkpt lat="49.15603088732384" lon="2.5482631488725493"><ele>56.666666666666664</ele><time>2026-05-02T14:17:21.997Z</time></trkpt><trkpt lat="49.15600271588044" lon="2.548120533851702"><ele>56.33333333333333</ele><time>2026-05-02T14:17:24.997Z</time></trkpt><trkpt lat="49.15596857369726" lon="2.548027199612427"><ele>56.0</ele><time>2026-05-02T14:17:26.997Z</time></trkpt><trkpt lat="49.15593461987627" lon="2.5479343822453946"><ele>55.666666666666664</ele><time>2026-05-02T14:17:28.997Z</time></trkpt><trkpt lat="49.15589778610125" lon="2.547833692345427"><ele>55.33333333333333</ele><time>2026-05-02T14:17:30.997Z</time></trkpt><trkpt lat="49.15581595581406" lon="2.547750073934137"><ele>55.0</ele><time>2026-05-02T14:17:32.997Z</time></trkpt><trkpt lat="49.1557515819016" lon="2.54767440579777"><ele>54.6</ele><time>2026-05-02T14:17:34.997Z</time></trkpt><trkpt lat="49.15565941533264" lon="2.5475525806772454"><ele>54.2</ele><time>2026-05-02T14:17:37Z</time></trkpt><trkpt lat="49.15560177033262" lon="2.5474174154351115"><ele>53.8</ele><time>2026-05-02T14:17:40Z</time></trkpt><trkpt lat="49.15555727588224" lon="2.54731586579642"><ele>53.4</ele><time>2026-05-02T14:17:42Z</time></trkpt><trkpt lat="49.15551004094006" lon="2.547205309825736"><ele>53.0</ele><time>2026-05-02T14:17:44Z</time></trkpt><trkpt lat="49.15547375608416" lon="2.5470933360442287"><ele>53.333333333333336</ele><time>2026-05-02T14:17:46Z</time></trkpt><trkpt lat="49.15544289280874" lon="2.5469853558305156"><ele>53.66666666666667</ele><time>2026-05-02T14:17:48Z</time></trkpt><trkpt lat="49.155414141053505" lon="2.5468784516302456"><ele>54.0</ele><time>2026-05-02T14:17:50Z</time></trkpt><trkpt lat="49.15538231173779" lon="2.5467681662404575"><ele>54.33333333333333</ele><time>2026-05-02T14:17:52Z</time></trkpt><trkpt lat="49.15534599242477" lon="2.5466244249667875"><ele>54.666666666666664</ele><time>2026-05-02T14:17:55Z</time></trkpt><trkpt lat="49.15531570734039" lon="2.5465074097435023"><ele>55.0</ele><time>2026-05-02T14:17:57Z</time></trkpt><trkpt lat="49.15529006111702" lon="2.546393396578865"><ele>54.99999999999999</ele><time>2026-05-02T14:17:58.999Z</time></trkpt><trkpt lat="49.155289081948084" lon="2.5462687150174066"><ele>55.0</ele><time>2026-05-02T14:18:00.999Z</time></trkpt><trkpt lat="49.15527302810503" lon="2.546156870471602"><ele>55.0</ele><time>2026-05-02T14:18:02.999Z</time></trkpt><trkpt lat="49.155260892349006" lon="2.5460441578460675"><ele>55.0</ele><time>2026-05-02T14:18:04.999Z</time></trkpt><trkpt lat="49.15524264740013" lon="2.5459321549949423"><ele>54.99999999999999</ele><time>2026-05-02T14:18:06.999Z</time></trkpt><trkpt lat="49.15524076805317" lon="2.5458122917415156"><ele>55.0</ele><time>2026-05-02T14:18:08.999Z</time></trkpt><trkpt lat="49.15523425664045" lon="2.5457008827633176"><ele>55.42857142857142</ele><time>2026-05-02T14:18:10.999Z</time></trkpt><trkpt lat="49.15523024738434" lon="2.5455888488153207"><ele>55.85714285714286</ele><time>2026-05-02T14:18:12.999Z</time></trkpt><trkpt lat="49.15522938181407" lon="2.5454915854344833"><ele>56.28571428571429</ele><time>2026-05-02T14:18:14.999Z</time></trkpt><trkpt lat="49.15522314297766" lon="2.5453820125136914"><ele>56.714285714285715</ele><time>2026-05-02T14:18:16.999Z</time></trkpt><trkpt lat="49.15522016206809" lon="2.5452666405220183"><ele>57.142857142857146</ele><time>2026-05-02T14:18:18.999Z</time></trkpt><trkpt lat="49.155217513851916" lon="2.5451602531223774"><ele>57.57142857142858</ele><time>2026-05-02T14:18:20.999Z</time></trkpt><trkpt lat="49.15521767253001" lon="2.5450592823547775"><ele>58.00000000000001</ele><time>2026-05-02T14:18:22.999Z</time></trkpt><trkpt lat="49.155217294231996" lon="2.544938750758246"><ele>58.14285714285715</ele><time>2026-05-02T14:18:25.999Z</time></trkpt><trkpt lat="49.155214016088216" lon="2.5448323120578458"><ele>58.28571428571429</ele><time>2026-05-02T14:18:27.999Z</time></trkpt><trkpt lat="49.15521355325361" lon="2.544731195130609"><ele>58.42857142857143</ele><time>2026-05-02T14:18:29.999Z</time></trkpt><trkpt lat="49.155212594406414" lon="2.544634457531751"><ele>58.57142857142858</ele><time>2026-05-02T14:18:31.999Z</time></trkpt><trkpt lat="49.155209184929454" lon="2.5445063010606512"><ele>58.71428571428572</ele><time>2026-05-02T14:18:34.999Z</time></trkpt><trkpt lat="49.15521351343026" lon="2.5444080295281277"><ele>58.857142857142854</ele><time>2026-05-02T14:18:36.998Z</time></trkpt><trkpt lat="49.15521415669764" lon="2.5442884191926125"><ele>59.0</ele><time>2026-05-02T14:18:39.998Z</time></trkpt><trkpt lat="49.1552200035886" lon="2.5441758420401936"><ele>58.857142857142854</ele><time>2026-05-02T14:18:42.998Z</time></trkpt><trkpt lat="49.15522307251203" lon="2.5440582354489454"><ele>58.71428571428572</ele><time>2026-05-02T14:18:45.998Z</time></trkpt><trkpt lat="49.155234955001525" lon="2.5439362747499725"><ele>58.57142857142858</ele><time>2026-05-02T14:18:48.998Z</time></trkpt><trkpt lat="49.155225321510464" lon="2.5438285842877266"><ele>58.42857142857143</ele><time>2026-05-02T14:18:51.998Z</time></trkpt><trkpt lat="49.15522358623784" lon="2.5437189056559126"><ele>58.28571428571429</ele><time>2026-05-02T14:18:54.998Z</time></trkpt><trkpt lat="49.155219002199644" lon="2.5436206387491"><ele>58.14285714285715</ele><time>2026-05-02T14:18:56.998Z</time></trkpt><trkpt lat="49.15520536176023" lon="2.54349541724077"><ele>58.00000000000001</ele><time>2026-05-02T14:18:59.998Z</time></trkpt><trkpt lat="49.15519235358343" lon="2.5433683727047334"><ele>57.99999999999999</ele><time>2026-05-02T14:19:02.998Z</time></trkpt><trkpt lat="49.155178287566464" lon="2.543256858974643"><ele>58.0</ele><time>2026-05-02T14:19:05.998Z</time></trkpt><trkpt lat="49.15516623198618" lon="2.543136545984143"><ele>58.0</ele><time>2026-05-02T14:19:08.998Z</time></trkpt><trkpt lat="49.15515216774689" lon="2.543010241087937"><ele>58.0</ele><time>2026-05-02T14:19:11.997Z</time></trkpt><trkpt lat="49.15513959088776" lon="2.5428794125167182"><ele>57.99999999999999</ele><time>2026-05-02T14:19:14.997Z</time></trkpt><trkpt lat="49.15513087167013" lon="2.5427821440664253"><ele>58.0</ele><time>2026-05-02T14:19:16.997Z</time></trkpt><trkpt lat="49.15512005206419" lon="2.542669976119332"><ele>58.166666666666664</ele><time>2026-05-02T14:19:18.997Z</time></trkpt><trkpt lat="49.155108789396884" lon="2.542536589704222"><ele>58.33333333333333</ele><time>2026-05-02T14:19:20.997Z</time></trkpt><trkpt lat="49.15509599484128" lon="2.5424064799696175"><ele>58.5</ele><time>2026-05-02T14:19:22.997Z</time></trkpt><trkpt lat="49.155078340283445" lon="2.5422700235499462"><ele>58.66666666666667</ele><time>2026-05-02T14:19:24.997Z</time></trkpt><trkpt lat="49.15507684636884" lon="2.5421238147860903"><ele>58.833333333333336</ele><time>2026-05-02T14:19:26.997Z</time></trkpt><trkpt lat="49.155070287098184" lon="2.541993631712676"><ele>59.0</ele><time>2026-05-02T14:19:28.997Z</time></trkpt><trkpt lat="49.155065784819044" lon="2.541859518896552"><ele>59.00000000000001</ele><time>2026-05-02T14:19:30.997Z</time></trkpt><trkpt lat="49.155057570551065" lon="2.5417270261093403"><ele>59.0</ele><time>2026-05-02T14:19:32.997Z</time></trkpt><trkpt lat="49.15506545709667" lon="2.541596670542692"><ele>59.0</ele><time>2026-05-02T14:19:34.997Z</time></trkpt><trkpt lat="49.15506230099679" lon="2.541472563168396"><ele>59.0</ele><time>2026-05-02T14:19:36.997Z</time></trkpt><trkpt lat="49.155063868369176" lon="2.5413338179981166"><ele>59.00000000000001</ele><time>2026-05-02T14:19:38.997Z</time></trkpt><trkpt lat="49.155065383310884" lon="2.541190917488332"><ele>59.0</ele><time>2026-05-02T14:19:41Z</time></trkpt><trkpt lat="49.15506602144211" lon="2.541055483873448"><ele>59.00000000000001</ele><time>2026-05-02T14:19:43Z</time></trkpt><trkpt lat="49.15506892743892" lon="2.540914412007488"><ele>59.0</ele><time>2026-05-02T14:19:45Z</time></trkpt><trkpt lat="49.15506300020197" lon="2.540768701237837"><ele>59.0</ele><time>2026-05-02T14:19:47Z</time></trkpt><trkpt lat="49.15507838657962" lon="2.540636403798646"><ele>59.0</ele><time>2026-05-02T14:19:49Z</time></trkpt><trkpt lat="49.155087652067735" lon="2.5405031528822044"><ele>59.00000000000001</ele><time>2026-05-02T14:19:51Z</time></trkpt><trkpt lat="49.155096203843634" lon="2.5403774327942217"><ele>59.0</ele><time>2026-05-02T14:19:53Z</time></trkpt><trkpt lat="49.15510679453832" lon="2.540247485347464"><ele>58.66666666666667</ele><time>2026-05-02T14:19:55Z</time></trkpt><trkpt lat="49.155116987064" lon="2.540120859275602"><ele>58.333333333333336</ele><time>2026-05-02T14:19:57Z</time></trkpt><trkpt lat="49.15512673149582" lon="2.5399963630365843"><ele>58.0</ele><time>2026-05-02T14:19:59Z</time></trkpt><trkpt lat="49.155135038497896" lon="2.539862775298612"><ele>57.66666666666667</ele><time>2026-05-02T14:20:01Z</time></trkpt><trkpt lat="49.15513875572913" lon="2.5397407544263"><ele>57.333333333333336</ele><time>2026-05-02T14:20:03Z</time></trkpt><trkpt lat="49.15516337994198" lon="2.539625849891299"><ele>57.0</ele><time>2026-05-02T14:20:04.999Z</time></trkpt><trkpt lat="49.15516718149611" lon="2.5395085484879143"><ele>57.0</ele><time>2026-05-02T14:20:06.999Z</time></trkpt><trkpt lat="49.155156748093454" lon="2.5393863917682125"><ele>57.0</ele><time>2026-05-02T14:20:08.999Z</time></trkpt><trkpt lat="49.15515966653538" lon="2.539277539453641"><ele>57.0</ele><time>2026-05-02T14:20:10.999Z</time></trkpt><trkpt lat="49.15516243279471" lon="2.5391562850114653"><ele>57.0</ele><time>2026-05-02T14:20:12.999Z</time></trkpt><trkpt lat="49.155160287846776" lon="2.5390355923900985"><ele>57.0</ele><time>2026-05-02T14:20:14.999Z</time></trkpt><trkpt lat="49.15516420899722" lon="2.538925281108751"><ele>57.0</ele><time>2026-05-02T14:20:16.999Z</time></trkpt><trkpt lat="49.15516304184793" lon="2.5388201154580647"><ele>57.666666666666664</ele><time>2026-05-02T14:20:18.999Z</time></trkpt><trkpt lat="49.15515436876833" lon="2.538706947770045"><ele>58.33333333333333</ele><time>2026-05-02T14:20:20.999Z</time></trkpt><trkpt lat="49.15514813106011" lon="2.5385569793777414"><ele>59.0</ele><time>2026-05-02T14:20:23.999Z</time></trkpt><trkpt lat="49.155161196362904" lon="2.5384112489663444"><ele>59.666666666666664</ele><time>2026-05-02T14:20:25.999Z</time></trkpt><trkpt lat="49.15516148703618" lon="2.5382973058379488"><ele>60.33333333333333</ele><time>2026-05-02T14:20:27.999Z</time></trkpt><trkpt lat="49.155161792957536" lon="2.5381773851516827"><ele>61.0</ele><time>2026-05-02T14:20:29.999Z</time></trkpt><trkpt lat="49.15516309828155" lon="2.5380555304994195"><ele>60.99999999999999</ele><time>2026-05-02T14:20:31.999Z</time></trkpt><trkpt lat="49.15515611177107" lon="2.5379517401922493"><ele>61.0</ele><time>2026-05-02T14:20:33.999Z</time></trkpt><trkpt lat="49.155167669318544" lon="2.5378235251446815"><ele>61.0</ele><time>2026-05-02T14:20:35.999Z</time></trkpt><trkpt lat="49.155173519828416" lon="2.5376898938763888"><ele>61.0</ele><time>2026-05-02T14:20:37.999Z</time></trkpt><trkpt lat="49.15518310480466" lon="2.537547273659418"><ele>60.99999999999999</ele><time>2026-05-02T14:20:39.998Z</time></trkpt><trkpt lat="49.15518366706426" lon="2.537412937134694"><ele>61.0</ele><time>2026-05-02T14:20:41.998Z</time></trkpt><trkpt lat="49.15521372949636" lon="2.537295954323288"><ele>61.428571428571416</ele><time>2026-05-02T14:20:43.998Z</time></trkpt><trkpt lat="49.15525186586292" lon="2.537186319762988"><ele>61.857142857142854</ele><time>2026-05-02T14:20:45.998Z</time></trkpt><trkpt lat="49.15529601699379" lon="2.5370957954879283"><ele>62.28571428571428</ele><time>2026-05-02T14:20:47.998Z</time></trkpt><trkpt lat="49.15534123193827" lon="2.5370242122182343"><ele>62.71428571428571</ele><time>2026-05-02T14:20:49.998Z</time></trkpt><trkpt lat="49.15537276208269" lon="2.5369313012528805"><ele>63.14285714285714</ele><time>2026-05-02T14:20:51.998Z</time></trkpt><trkpt lat="49.15541175936846" lon="2.5368068449217267"><ele>63.57142857142857</ele><time>2026-05-02T14:20:54.998Z</time></trkpt><trkpt lat="49.155445942536986" lon="2.5367230956708995"><ele>64.0</ele><time>2026-05-02T14:20:57.998Z</time></trkpt><trkpt lat="49.15545251885569" lon="2.5366238032111155"><ele>64.16666666666666</ele><time>2026-05-02T14:20:59.998Z</time></trkpt><trkpt lat="49.15549921182641" lon="2.536500520857266"><ele>64.33333333333333</ele><time>2026-05-02T14:21:02.998Z</time></trkpt><trkpt lat="49.15551143264045" lon="2.5363684483158515"><ele>64.5</ele><time>2026-05-02T14:21:05.998Z</time></trkpt><trkpt lat="49.15554306179975" lon="2.536252759947848"><ele>64.66666666666667</ele><time>2026-05-02T14:21:08.998Z</time></trkpt><trkpt lat="49.1555647151545" lon="2.5361523433187734"><ele>64.83333333333334</ele><time>2026-05-02T14:21:10.998Z</time></trkpt><trkpt lat="49.15558996297259" lon="2.5360270081212346"><ele>65.0</ele><time>2026-05-02T14:21:13.998Z</time></trkpt><trkpt lat="49.15561044209618" lon="2.5359299608650496"><ele>65.16666666666667</ele><time>2026-05-02T14:21:15.997Z</time></trkpt><trkpt lat="49.15562757933359" lon="2.535822798887487"><ele>65.33333333333334</ele><time>2026-05-02T14:21:18.997Z</time></trkpt><trkpt lat="49.15565167528901" lon="2.5357217487523163"><ele>65.5</ele><time>2026-05-02T14:21:21.997Z</time></trkpt><trkpt lat="49.155681160942805" lon="2.5356366371751617"><ele>65.66666666666667</ele><time>2026-05-02T14:21:23.997Z</time></trkpt><trkpt lat="49.15569695469163" lon="2.5354704309263"><ele>65.83333333333333</ele><time>2026-05-02T14:21:27.997Z</time></trkpt><trkpt lat="49.15571722293025" lon="2.5353660371318845"><ele>66.0</ele><time>2026-05-02T14:21:30.997Z</time></trkpt><trkpt lat="49.15574617591517" lon="2.535253624715157"><ele>66.0</ele><time>2026-05-02T14:21:33.997Z</time></trkpt><trkpt lat="49.15576243148578" lon="2.535159249525816"><ele>66.0</ele><time>2026-05-02T14:21:35.997Z</time></trkpt><trkpt lat="49.155774348789976" lon="2.535034070763118"><ele>66.0</ele><time>2026-05-02T14:21:39.997Z</time></trkpt><trkpt lat="49.15579408048869" lon="2.534936090390292"><ele>66.0</ele><time>2026-05-02T14:21:42.997Z</time></trkpt><trkpt lat="49.15578873926188" lon="2.534835177071346"><ele>66.0</ele><time>2026-05-02T14:21:45.997Z</time></trkpt><trkpt lat="49.155802797931194" lon="2.5347000605528405"><ele>66.0</ele><time>2026-05-02T14:21:50Z</time></trkpt><trkpt lat="49.1558212737587" lon="2.534600546013666"><ele>66.0</ele><time>2026-05-02T14:21:52Z</time></trkpt><trkpt lat="49.15582510286869" lon="2.534495848521553"><ele>65.83333333333333</ele><time>2026-05-02T14:21:54Z</time></trkpt><trkpt lat="49.15582754840648" lon="2.5343871313396704"><ele>65.66666666666667</ele><time>2026-05-02T14:21:56Z</time></trkpt><trkpt lat="49.15581778712283" lon="2.5342454736629274"><ele>65.5</ele><time>2026-05-02T14:21:59Z</time></trkpt><trkpt lat="49.155820132032595" lon="2.5341328982882865"><ele>65.33333333333334</ele><time>2026-05-02T14:22:01Z</time></trkpt><trkpt lat="49.15581468039384" lon="2.5340020605451596"><ele>65.16666666666667</ele><time>2026-05-02T14:22:03Z</time></trkpt><trkpt lat="49.15581581550998" lon="2.5338833073381597"><ele>65.0</ele><time>2026-05-02T14:22:05Z</time></trkpt><trkpt lat="49.15581409082089" lon="2.5337732883899817"><ele>64.57142857142858</ele><time>2026-05-02T14:22:07Z</time></trkpt><trkpt lat="49.15580840826273" lon="2.5336657150950272"><ele>64.14285714285714</ele><time>2026-05-02T14:22:09Z</time></trkpt><trkpt lat="49.155807698370225" lon="2.533551141524431"><ele>63.71428571428572</ele><time>2026-05-02T14:22:10.999Z</time></trkpt><trkpt lat="49.155821249613" lon="2.533446537275605"><ele>63.28571428571429</ele><time>2026-05-02T14:22:12.999Z</time></trkpt><trkpt lat="49.15581275040125" lon="2.5333467204310387"><ele>62.85714285714286</ele><time>2026-05-02T14:22:14.999Z</time></trkpt><trkpt lat="49.15579598801472" lon="2.5332040329687766"><ele>62.42857142857143</ele><time>2026-05-02T14:22:17.999Z</time></trkpt><trkpt lat="49.15578165159086" lon="2.5331066480501434"><ele>62.0</ele><time>2026-05-02T14:22:19.999Z</time></trkpt><trkpt lat="49.15574825214102" lon="2.533000586941876"><ele>62.00000000000001</ele><time>2026-05-02T14:22:21.999Z</time></trkpt><trkpt lat="49.15573132994951" lon="2.532905262529235"><ele>62.0</ele><time>2026-05-02T14:22:23.999Z</time></trkpt><trkpt lat="49.155711230980245" lon="2.5327955111720435"><ele>62.0</ele><time>2026-05-02T14:22:25.999Z</time></trkpt><trkpt lat="49.15569461095181" lon="2.5326560116135193"><ele>62.0</ele><time>2026-05-02T14:22:27.999Z</time></trkpt><trkpt lat="49.15565856993849" lon="2.532544001773415"><ele>62.00000000000001</ele><time>2026-05-02T14:22:29.999Z</time></trkpt><trkpt lat="49.15563153958069" lon="2.532404184610777"><ele>62.0</ele><time>2026-05-02T14:22:31.999Z</time></trkpt><trkpt lat="49.15560313280866" lon="2.532272844897966"><ele>61.66666666666667</ele><time>2026-05-02T14:22:33.999Z</time></trkpt><trkpt lat="49.155591728081994" lon="2.5321304462637806"><ele>61.333333333333336</ele><time>2026-05-02T14:22:35.999Z</time></trkpt><trkpt lat="49.15558485770316" lon="2.532009544691343"><ele>61.0</ele><time>2026-05-02T14:22:37.999Z</time></trkpt><trkpt lat="49.15558139514578" lon="2.5318938984374526"><ele>60.66666666666667</ele><time>2026-05-02T14:22:39.999Z</time></trkpt><trkpt lat="49.15555959229212" lon="2.5317837373601035"><ele>60.333333333333336</ele><time>2026-05-02T14:22:41.999Z</time></trkpt><trkpt lat="49.15555537316565" lon="2.531673745486071"><ele>60.0</ele><time>2026-05-02T14:22:43.999Z</time></trkpt><trkpt lat="49.155553888592735" lon="2.531563625117265"><ele>59.714285714285715</ele><time>2026-05-02T14:22:45.998Z</time></trkpt><trkpt lat="49.15557024460739" lon="2.5314527783724445"><ele>59.42857142857143</ele><time>2026-05-02T14:22:47.998Z</time></trkpt><trkpt lat="49.155556806730765" lon="2.5313486031759607"><ele>59.142857142857146</ele><time>2026-05-02T14:22:49.998Z</time></trkpt><trkpt lat="49.15555979199707" lon="2.531207664308971"><ele>58.85714285714286</ele><time>2026-05-02T14:22:52.998Z</time></trkpt><trkpt lat="49.15556390152296" lon="2.5310949056490553"><ele>58.57142857142857</ele><time>2026-05-02T14:22:54.998Z</time></trkpt><trkpt lat="49.15557983721368" lon="2.5310010506638507"><ele>58.28571428571429</ele><time>2026-05-02T14:22:56.998Z</time></trkpt><trkpt lat="49.15558134026097" lon="2.5309012251054086"><ele>58.00000000000001</ele><time>2026-05-02T14:22:58.998Z</time></trkpt><trkpt lat="49.155574839974705" lon="2.5308045283839258"><ele>57.99999999999999</ele><time>2026-05-02T14:23:08.998Z</time></trkpt><trkpt lat="49.1555650393288" lon="2.5306598745082316"><ele>58.0</ele><time>2026-05-02T14:23:12.998Z</time></trkpt><trkpt lat="49.155572804891726" lon="2.5305573023060743"><ele>58.0</ele><time>2026-05-02T14:23:14.998Z</time></trkpt><trkpt lat="49.155586880949016" lon="2.530441942305542"><ele>58.0</ele><time>2026-05-02T14:23:16.998Z</time></trkpt><trkpt lat="49.155578875863846" lon="2.530295886617166"><ele>57.99999999999999</ele><time>2026-05-02T14:23:18.998Z</time></trkpt><trkpt lat="49.15554409900112" lon="2.530147485561489"><ele>58.0</ele><time>2026-05-02T14:23:20.998Z</time></trkpt><trkpt lat="49.1555252469283" lon="2.5300175686092117"><ele>57.8</ele><time>2026-05-02T14:23:22.997Z</time></trkpt><trkpt lat="49.155497964507624" lon="2.529870139996664"><ele>57.599999999999994</ele><time>2026-05-02T14:23:24.997Z</time></trkpt><trkpt lat="49.155458853176356" lon="2.529741470474954"><ele>57.400000000000006</ele><time>2026-05-02T14:23:26.997Z</time></trkpt><trkpt lat="49.15543986065874" lon="2.5295930714240114"><ele>57.2</ele><time>2026-05-02T14:23:28.997Z</time></trkpt><trkpt lat="49.15540113735482" lon="2.529472372524873"><ele>57.0</ele><time>2026-05-02T14:23:30.997Z</time></trkpt><trkpt lat="49.155367667156845" lon="2.5293316606037934"><ele>56.666666666666664</ele><time>2026-05-02T14:23:32.997Z</time></trkpt><trkpt lat="49.155345156884366" lon="2.5292056360364823"><ele>56.33333333333333</ele><time>2026-05-02T14:23:34.997Z</time></trkpt><trkpt lat="49.15531960308621" lon="2.5290946644014025"><ele>56.0</ele><time>2026-05-02T14:23:36.997Z</time></trkpt><trkpt lat="49.15529580945857" lon="2.528964240650948"><ele>55.666666666666664</ele><time>2026-05-02T14:23:38.997Z</time></trkpt><trkpt lat="49.15528060894513" lon="2.5288322361293165"><ele>55.33333333333333</ele><time>2026-05-02T14:23:40.997Z</time></trkpt><trkpt lat="49.15526634514572" lon="2.5286908103989463"><ele>55.0</ele><time>2026-05-02T14:23:42.997Z</time></trkpt><trkpt lat="49.155244101774365" lon="2.5285573897152145"><ele>54.2</ele><time>2026-05-02T14:23:44.997Z</time></trkpt><trkpt lat="49.15521722259427" lon="2.5284255318112328"><ele>53.4</ele><time>2026-05-02T14:23:46.997Z</time></trkpt><trkpt lat="49.1552103702026" lon="2.5282780633701423"><ele>52.599999999999994</ele><time>2026-05-02T14:23:48.997Z</time></trkpt><trkpt lat="49.155198292468654" lon="2.528131233687206"><ele>51.8</ele><time>2026-05-02T14:23:50.997Z</time></trkpt><trkpt lat="49.1551877080494" lon="2.5279854934579586"><ele>51.0</ele><time>2026-05-02T14:23:53Z</time></trkpt><trkpt lat="49.15517740160704" lon="2.5278488188936628"><ele>51.0</ele><time>2026-05-02T14:23:55Z</time></trkpt><trkpt lat="49.15516853631158" lon="2.527721502664712"><ele>51.0</ele><time>2026-05-02T14:23:57Z</time></trkpt><trkpt lat="49.15516272382645" lon="2.5275891561661274"><ele>51.0</ele><time>2026-05-02T14:23:59Z</time></trkpt><trkpt lat="49.1551511578752" lon="2.527446297274547"><ele>51.0</ele><time>2026-05-02T14:24:01Z</time></trkpt><trkpt lat="49.155146191080654" lon="2.5273046095677674"><ele>51.0</ele><time>2026-05-02T14:24:03Z</time></trkpt><trkpt lat="49.15514182157688" lon="2.527169741766157"><ele>51.0</ele><time>2026-05-02T14:24:05Z</time></trkpt><trkpt lat="49.15513730200398" lon="2.527038073360536"><ele>51.0</ele><time>2026-05-02T14:24:07Z</time></trkpt><trkpt lat="49.15513599683604" lon="2.52690933873268"><ele>51.0</ele><time>2026-05-02T14:24:09Z</time></trkpt><trkpt lat="49.15512988163284" lon="2.5267719805470894"><ele>51.0</ele><time>2026-05-02T14:24:11Z</time></trkpt><trkpt lat="49.15513248353562" lon="2.5266510551565573"><ele>51.0</ele><time>2026-05-02T14:24:13Z</time></trkpt><trkpt lat="49.15513168308154" lon="2.5265245460521175"><ele>51.0</ele><time>2026-05-02T14:24:15Z</time></trkpt><trkpt lat="49.1551330558515" lon="2.5264170534893635"><ele>51.0</ele><time>2026-05-02T14:24:16.999Z</time></trkpt><trkpt lat="49.15513177829533" lon="2.5262986104480216"><ele>51.166666666666664</ele><time>2026-05-02T14:24:18.999Z</time></trkpt><trkpt lat="49.15513024908868" lon="2.5261712123705387"><ele>51.33333333333333</ele><time>2026-05-02T14:24:20.999Z</time></trkpt><trkpt lat="49.155130029764784" lon="2.5260422317655404"><ele>51.5</ele><time>2026-05-02T14:24:22.999Z</time></trkpt><trkpt lat="49.15513003418618" lon="2.525928248533274"><ele>51.666666666666664</ele><time>2026-05-02T14:24:24.999Z</time></trkpt><trkpt lat="49.15512906868735" lon="2.5258209918586467"><ele>51.83333333333333</ele><time>2026-05-02T14:24:26.999Z</time></trkpt><trkpt lat="49.15513162040881" lon="2.525697618871995"><ele>52.0</ele><time>2026-05-02T14:24:28.999Z</time></trkpt><trkpt lat="49.15513054052867" lon="2.525575124139766"><ele>51.99999999999999</ele><time>2026-05-02T14:24:30.999Z</time></trkpt><trkpt lat="49.155130224791534" lon="2.5254538057466682"><ele>52.0</ele><time>2026-05-02T14:24:32.999Z</time></trkpt><trkpt lat="49.155127915451835" lon="2.5253282767716847"><ele>52.0</ele><time>2026-05-02T14:24:34.999Z</time></trkpt><trkpt lat="49.15513547876102" lon="2.5252107799222703"><ele>52.0</ele><time>2026-05-02T14:24:36.999Z</time></trkpt><trkpt lat="49.155139499050186" lon="2.5250965059137602"><ele>51.99999999999999</ele><time>2026-05-02T14:24:38.999Z</time></trkpt><trkpt lat="49.155147411202904" lon="2.524986611380079"><ele>52.0</ele><time>2026-05-02T14:24:40.999Z</time></trkpt><trkpt lat="49.15514773120337" lon="2.524885882246511"><ele>52.33333333333333</ele><time>2026-05-02T14:24:42.999Z</time></trkpt><trkpt lat="49.15516807489652" lon="2.524754311970502"><ele>52.666666666666664</ele><time>2026-05-02T14:24:45.999Z</time></trkpt><trkpt lat="49.1551719907278" lon="2.5246460561346136"><ele>53.0</ele><time>2026-05-02T14:24:47.999Z</time></trkpt><trkpt lat="49.15517727611491" lon="2.524504674501835"><ele>53.33333333333333</ele><time>2026-05-02T14:24:50.999Z</time></trkpt><trkpt lat="49.155165482358015" lon="2.524365991362222"><ele>53.666666666666664</ele><time>2026-05-02T14:24:53.998Z</time></trkpt><trkpt lat="49.155157991443254" lon="2.5242311758270213"><ele>54.0</ele><time>2026-05-02T14:24:56.998Z</time></trkpt><trkpt lat="49.15513896676268" lon="2.5241377622038716"><ele>54.166666666666664</ele><time>2026-05-02T14:24:59.998Z</time></trkpt><trkpt lat="49.15514773714569" lon="2.524024552359098"><ele>54.33333333333333</ele><time>2026-05-02T14:25:02.998Z</time></trkpt><trkpt lat="49.15514237192901" lon="2.523901009744405"><ele>54.5</ele><time>2026-05-02T14:25:05.998Z</time></trkpt><trkpt lat="49.15511923299855" lon="2.5237945369835786"><ele>54.666666666666664</ele><time>2026-05-02T14:25:08.998Z</time></trkpt><trkpt lat="49.15510834257929" lon="2.523666414835625"><ele>54.83333333333333</ele><time>2026-05-02T14:25:10.998Z</time></trkpt><trkpt lat="49.15510189437661" lon="2.523539268244998"><ele>55.0</ele><time>2026-05-02T14:25:13.998Z</time></trkpt><trkpt lat="49.15510563032004" lon="2.5234231925309443"><ele>54.99999999999999</ele><time>2026-05-02T14:25:16.998Z</time></trkpt><trkpt lat="49.15508906816229" lon="2.523269259233026"><ele>55.0</ele><time>2026-05-02T14:25:18.998Z</time></trkpt><trkpt lat="49.15507885342565" lon="2.5231698704396353"><ele>55.0</ele><time>2026-05-02T14:25:20.998Z</time></trkpt><trkpt lat="49.1550822596687" lon="2.5230402410928505"><ele>55.0</ele><time>2026-05-02T14:25:23.998Z</time></trkpt><trkpt lat="49.155084441634116" lon="2.522912142742275"><ele>54.99999999999999</ele><time>2026-05-02T14:25:26.998Z</time></trkpt><trkpt lat="49.15509006988117" lon="2.5228085178652457"><ele>55.0</ele><time>2026-05-02T14:25:28.997Z</time></trkpt><trkpt lat="49.155100058929754" lon="2.52267084326634"><ele>55.33333333333333</ele><time>2026-05-02T14:25:31.997Z</time></trkpt><trkpt lat="49.15511096425835" lon="2.5225304752869406"><ele>55.666666666666664</ele><time>2026-05-02T14:25:34.997Z</time></trkpt><trkpt lat="49.15512336706299" lon="2.522390733239832"><ele>56.0</ele><time>2026-05-02T14:25:37.997Z</time></trkpt><trkpt lat="49.15513158327578" lon="2.5222843390782486"><ele>56.33333333333333</ele><time>2026-05-02T14:25:39.997Z</time></trkpt><trkpt lat="49.155137403280875" lon="2.5221835910207306"><ele>56.666666666666664</ele><time>2026-05-02T14:25:41.997Z</time></trkpt><trkpt lat="49.155141809328114" lon="2.5220806088198846"><ele>57.0</ele><time>2026-05-02T14:25:43.997Z</time></trkpt><trkpt lat="49.15514657547038" lon="2.521980627028378"><ele>57.333333333333336</ele><time>2026-05-02T14:25:45.997Z</time></trkpt><trkpt lat="49.155153960416506" lon="2.5218672288947395"><ele>57.66666666666667</ele><time>2026-05-02T14:25:47.997Z</time></trkpt><trkpt lat="49.15516037812297" lon="2.521749768518157"><ele>58.0</ele><time>2026-05-02T14:25:49.997Z</time></trkpt><trkpt lat="49.15516799803421" lon="2.521625349989166"><ele>58.333333333333336</ele><time>2026-05-02T14:25:51.997Z</time></trkpt><trkpt lat="49.155166003765686" lon="2.521497827195342"><ele>58.66666666666667</ele><time>2026-05-02T14:25:53.997Z</time></trkpt><trkpt lat="49.155176366964874" lon="2.5213587188566327"><ele>59.0</ele><time>2026-05-02T14:25:55.997Z</time></trkpt><trkpt lat="49.15515939817265" lon="2.5212109470737034"><ele>59.0</ele><time>2026-05-02T14:25:58Z</time></trkpt><trkpt lat="49.15513883575143" lon="2.52111661358347"><ele>59.0</ele><time>2026-05-02T14:25:59Z</time></trkpt><trkpt lat="49.1550880517313" lon="2.5209897885036576"><ele>59.0</ele><time>2026-05-02T14:26:01Z</time></trkpt><trkpt lat="49.155073740936906" lon="2.5208831642666203"><ele>59.0</ele><time>2026-05-02T14:26:03Z</time></trkpt><trkpt lat="49.155080477258004" lon="2.5207775929306337"><ele>59.0</ele><time>2026-05-02T14:26:06Z</time></trkpt><trkpt lat="49.155078412842805" lon="2.520669135129768"><ele>59.0</ele><time>2026-05-02T14:26:08Z</time></trkpt><trkpt lat="49.155090456483315" lon="2.520567835083911"><ele>59.0</ele><time>2026-05-02T14:26:10Z</time></trkpt><trkpt lat="49.15509291894117" lon="2.520461197438168"><ele>58.857142857142854</ele><time>2026-05-02T14:26:12Z</time></trkpt><trkpt lat="49.15508617422365" lon="2.520335277728855"><ele>58.71428571428572</ele><time>2026-05-02T14:26:15Z</time></trkpt><trkpt lat="49.15508983186849" lon="2.520231189422789"><ele>58.57142857142858</ele><time>2026-05-02T14:26:17Z</time></trkpt><trkpt lat="49.15509116616466" lon="2.5201278650116072"><ele>58.42857142857143</ele><time>2026-05-02T14:26:19Z</time></trkpt><trkpt lat="49.155098474049055" lon="2.5200149970087553"><ele>58.28571428571429</ele><time>2026-05-02T14:26:21Z</time></trkpt><trkpt lat="49.15509951899861" lon="2.5199034338839965"><ele>58.14285714285715</ele><time>2026-05-02T14:26:23Z</time></trkpt><trkpt lat="49.15510204419591" lon="2.5197974955937377"><ele>58.00000000000001</ele><time>2026-05-02T14:26:24.999Z</time></trkpt><trkpt lat="49.15510693407201" lon="2.5196781302830016"><ele>57.99999999999999</ele><time>2026-05-02T14:26:26.999Z</time></trkpt><trkpt lat="49.15510809589664" lon="2.5195606193367444"><ele>58.0</ele><time>2026-05-02T14:26:28.999Z</time></trkpt><trkpt lat="49.15511292306058" lon="2.5194337655098926"><ele>58.0</ele><time>2026-05-02T14:26:30.999Z</time></trkpt><trkpt lat="49.15511793005072" lon="2.519304761280642"><ele>58.0</ele><time>2026-05-02T14:26:32.999Z</time></trkpt><trkpt lat="49.15512196543784" lon="2.519173771273213"><ele>57.99999999999999</ele><time>2026-05-02T14:26:34.999Z</time></trkpt><trkpt lat="49.15512297372477" lon="2.519040229610004"><ele>58.0</ele><time>2026-05-02T14:26:36.999Z</time></trkpt><trkpt lat="49.15512180767302" lon="2.518904976535132"><ele>58.0</ele><time>2026-05-02T14:26:38.999Z</time></trkpt><trkpt lat="49.15511699831507" lon="2.518770447266327"><ele>58.0</ele><time>2026-05-02T14:26:40.999Z</time></trkpt><trkpt lat="49.155118087682006" lon="2.5186407545379135"><ele>58.0</ele><time>2026-05-02T14:26:42.999Z</time></trkpt><trkpt lat="49.155113475956966" lon="2.518533773672833"><ele>58.0</ele><time>2026-05-02T14:26:44.999Z</time></trkpt><trkpt lat="49.15499480022711" lon="2.5185052419368636"><ele>58.0</ele><time>2026-05-02T14:26:45.999Z</time></trkpt><trkpt lat="49.15491552606701" lon="2.518422642232244"><ele>57.2</ele><time>2026-05-02T14:26:47.999Z</time></trkpt><trkpt lat="49.15483855041142" lon="2.518353390001391"><ele>56.4</ele><time>2026-05-02T14:26:49.999Z</time></trkpt><trkpt lat="49.15475556874717" lon="2.5182590003649903"><ele>55.60000000000001</ele><time>2026-05-02T14:26:51.999Z</time></trkpt><trkpt lat="49.1546672623508" lon="2.518200744040619"><ele>54.800000000000004</ele><time>2026-05-02T14:26:53.999Z</time></trkpt><trkpt lat="49.15457855207067" lon="2.518144042600501"><ele>54.0</ele><time>2026-05-02T14:26:55.999Z</time></trkpt><trkpt lat="49.154487888051925" lon="2.518085866882649"><ele>54.0</ele><time>2026-05-02T14:26:57.999Z</time></trkpt><trkpt lat="49.15439525998935" lon="2.5180236567327454"><ele>54.00000000000001</ele><time>2026-05-02T14:26:59.998Z</time></trkpt><trkpt lat="49.15430325590008" lon="2.517966846234713"><ele>54.00000000000001</ele><time>2026-05-02T14:27:01.998Z</time></trkpt><trkpt lat="49.15420126441153" lon="2.5179053719181783"><ele>54.0</ele><time>2026-05-02T14:27:03.998Z</time></trkpt><trkpt lat="49.15409830736497" lon="2.5178411372487393"><ele>54.0</ele><time>2026-05-02T14:27:05.998Z</time></trkpt><trkpt lat="49.154001922277565" lon="2.5177789079333"><ele>54.400000000000006</ele><time>2026-05-02T14:27:07.998Z</time></trkpt><trkpt lat="49.153901404693606" lon="2.517707110288812"><ele>54.800000000000004</ele><time>2026-05-02T14:27:09.998Z</time></trkpt><trkpt lat="49.153794553852556" lon="2.5176307501304978"><ele>55.199999999999996</ele><time>2026-05-02T14:27:11.998Z</time></trkpt><trkpt lat="49.15370861946556" lon="2.517579554997821"><ele>55.599999999999994</ele><time>2026-05-02T14:27:13.998Z</time></trkpt><trkpt lat="49.153605805814074" lon="2.517501357885547"><ele>56.0</ele><time>2026-05-02T14:27:15.998Z</time></trkpt><trkpt lat="49.153497752047244" lon="2.5174334302982726"><ele>56.0</ele><time>2026-05-02T14:27:17.998Z</time></trkpt><trkpt lat="49.15339187750561" lon="2.517372562288798"><ele>56.0</ele><time>2026-05-02T14:27:19.998Z</time></trkpt><trkpt lat="49.153283436059425" lon="2.5173149357366955"><ele>56.0</ele><time>2026-05-02T14:27:21.998Z</time></trkpt><trkpt lat="49.15317745010076" lon="2.5172527187826974"><ele>56.0</ele><time>2026-05-02T14:27:23.998Z</time></trkpt><trkpt lat="49.15306609928512" lon="2.5172203107805244"><ele>56.0</ele><time>2026-05-02T14:27:25.998Z</time></trkpt><trkpt lat="49.152950054589496" lon="2.517197679460867"><ele>55.99999999999999</ele><time>2026-05-02T14:27:27.998Z</time></trkpt><trkpt lat="49.152835514303305" lon="2.517207775962471"><ele>55.99999999999999</ele><time>2026-05-02T14:27:29.998Z</time></trkpt><trkpt lat="49.152707761882695" lon="2.5171770637093247"><ele>56.0</ele><time>2026-05-02T14:27:31.998Z</time></trkpt><trkpt lat="49.152643311561086" lon="2.517175637505446"><ele>56.0</ele><time>2026-05-02T14:27:32.998Z</time></trkpt><trkpt lat="49.15251133995447" lon="2.5171897000180707"><ele>56.00000000000001</ele><time>2026-05-02T14:27:34.997Z</time></trkpt><trkpt lat="49.152444333041785" lon="2.517190796111688"><ele>56.0</ele><time>2026-05-02T14:27:35.997Z</time></trkpt><trkpt lat="49.15230887429405" lon="2.517194627752555"><ele>56.0</ele><time>2026-05-02T14:27:37.997Z</time></trkpt><trkpt lat="49.152231492625305" lon="2.5171818917607904"><ele>56.0</ele><time>2026-05-02T14:27:38.997Z</time></trkpt><trkpt lat="49.15216076931657" lon="2.5172089139691507"><ele>56.00000000000001</ele><time>2026-05-02T14:27:39.997Z</time></trkpt><trkpt lat="49.152089786146455" lon="2.517199351619101"><ele>56.0</ele><time>2026-05-02T14:27:40.997Z</time></trkpt><trkpt lat="49.15201297904713" lon="2.517205587743893"><ele>55.333333333333336</ele><time>2026-05-02T14:27:41.997Z</time></trkpt><trkpt lat="49.15193452481389" lon="2.517196618843274"><ele>54.66666666666667</ele><time>2026-05-02T14:27:42.997Z</time></trkpt><trkpt lat="49.15185531531051" lon="2.5171809762424338"><ele>54.0</ele><time>2026-05-02T14:27:43.997Z</time></trkpt><trkpt lat="49.15177555104318" lon="2.517154893268363"><ele>53.33333333333333</ele><time>2026-05-02T14:27:44.997Z</time></trkpt><trkpt lat="49.151703534248696" lon="2.5171054003731044"><ele>52.666666666666664</ele><time>2026-05-02T14:27:45.997Z</time></trkpt><trkpt lat="49.151650335783394" lon="2.5170062905264206"><ele>52.0</ele><time>2026-05-02T14:27:46.997Z</time></trkpt><trkpt lat="49.15160652486028" lon="2.5169055412758485"><ele>51.99999999999999</ele><time>2026-05-02T14:27:47.997Z</time></trkpt><trkpt lat="49.15156210176894" lon="2.516800053758339"><ele>52.0</ele><time>2026-05-02T14:27:48.997Z</time></trkpt><trkpt lat="49.15153700030544" lon="2.5166857536547593"><ele>52.0</ele><time>2026-05-02T14:27:49.997Z</time></trkpt><trkpt lat="49.15150054941139" lon="2.5165838275478047"><ele>52.0</ele><time>2026-05-02T14:27:50.997Z</time></trkpt><trkpt lat="49.151470729806235" lon="2.5164785130773715"><ele>51.99999999999999</ele><time>2026-05-02T14:27:51.997Z</time></trkpt><trkpt lat="49.151386595116946" lon="2.5164232454757953"><ele>52.0</ele><time>2026-05-02T14:27:52.997Z</time></trkpt><trkpt lat="49.15132554480187" lon="2.5163534659883338"><ele>51.57142857142857</ele><time>2026-05-02T14:27:53.997Z</time></trkpt><trkpt lat="49.151279591292" lon="2.516274572640865"><ele>51.142857142857146</ele><time>2026-05-02T14:27:54.997Z</time></trkpt><trkpt lat="49.15121349343417" lon="2.5162276225961313"><ele>50.714285714285715</ele><time>2026-05-02T14:27:55.997Z</time></trkpt><trkpt lat="49.15116147383191" lon="2.51615054700813"><ele>50.285714285714285</ele><time>2026-05-02T14:27:56.997Z</time></trkpt><trkpt lat="49.15110182645921" lon="2.516095377290909"><ele>49.85714285714286</ele><time>2026-05-02T14:27:57.997Z</time></trkpt><trkpt lat="49.151048965758186" lon="2.516034375923432"><ele>49.42857142857143</ele><time>2026-05-02T14:27:58.997Z</time></trkpt><trkpt lat="49.150994276948474" lon="2.515971244688631"><ele>49.0</ele><time>2026-05-02T14:27:59.997Z</time></trkpt><trkpt lat="49.1508929031411" lon="2.515866011782968"><ele>49.0</ele><time>2026-05-02T14:28:01.997Z</time></trkpt><trkpt lat="49.150785606556994" lon="2.515768574221426"><ele>49.0</ele><time>2026-05-02T14:28:04Z</time></trkpt><trkpt lat="49.1507141387294" lon="2.5157357534372484"><ele>49.0</ele><time>2026-05-02T14:28:05Z</time></trkpt><trkpt lat="49.15063443374486" lon="2.5157465998216213"><ele>49.0</ele><time>2026-05-02T14:28:06Z</time></trkpt><trkpt lat="49.150569766475854" lon="2.515755704964097"><ele>49.0</ele><time>2026-05-02T14:28:07Z</time></trkpt><trkpt lat="49.150454091029076" lon="2.515758439692202"><ele>49.2</ele><time>2026-05-02T14:28:09Z</time></trkpt><trkpt lat="49.15033448748271" lon="2.515762731302876"><ele>49.400000000000006</ele><time>2026-05-02T14:28:11Z</time></trkpt><trkpt lat="49.15022394128133" lon="2.5157935285144455"><ele>49.6</ele><time>2026-05-02T14:28:13Z</time></trkpt><trkpt lat="49.15011499897823" lon="2.5158259373791236"><ele>49.8</ele><time>2026-05-02T14:28:15Z</time></trkpt><trkpt lat="49.15001064225323" lon="2.515845556848447"><ele>50.0</ele><time>2026-05-02T14:28:17Z</time></trkpt><trkpt lat="49.1499126776048" lon="2.515877034469528"><ele>50.0</ele><time>2026-05-02T14:28:19Z</time></trkpt><trkpt lat="49.149809463598146" lon="2.515905218538325"><ele>50.0</ele><time>2026-05-02T14:28:21Z</time></trkpt><trkpt lat="49.14970956172853" lon="2.5159344319686867"><ele>50.0</ele><time>2026-05-02T14:28:23Z</time></trkpt><trkpt lat="49.14960965679344" lon="2.5159561361500153"><ele>50.0</ele><time>2026-05-02T14:28:25Z</time></trkpt><trkpt lat="49.149508114381064" lon="2.5159842436420106"><ele>50.0</ele><time>2026-05-02T14:28:27Z</time></trkpt><trkpt lat="49.149405796332324" lon="2.516012453583464"><ele>50.0</ele><time>2026-05-02T14:28:29Z</time></trkpt><trkpt lat="49.14930149054346" lon="2.51603862528585"><ele>50.0</ele><time>2026-05-02T14:28:30.999Z</time></trkpt><trkpt lat="49.14919624931862" lon="2.5160638616916673"><ele>50.0</ele><time>2026-05-02T14:28:32.999Z</time></trkpt><trkpt lat="49.149087868972195" lon="2.5160879075838576"><ele>50.0</ele><time>2026-05-02T14:28:34.999Z</time></trkpt><trkpt lat="49.14897805952028" lon="2.5161042327356853"><ele>50.0</ele><time>2026-05-02T14:28:36.999Z</time></trkpt><trkpt lat="49.148867726105024" lon="2.516121446448445"><ele>49.8</ele><time>2026-05-02T14:28:38.999Z</time></trkpt><trkpt lat="49.14875295878286" lon="2.5160996125621615"><ele>49.6</ele><time>2026-05-02T14:28:40.999Z</time></trkpt><trkpt lat="49.14865841574006" lon="2.51611828687693"><ele>49.400000000000006</ele><time>2026-05-02T14:28:42.999Z</time></trkpt><trkpt lat="49.14855642150006" lon="2.5161121399073307"><ele>49.2</ele><time>2026-05-02T14:28:44.999Z</time></trkpt><trkpt lat="49.14845097152877" lon="2.516105244317256"><ele>49.0</ele><time>2026-05-02T14:28:46.999Z</time></trkpt><trkpt lat="49.148345371907695" lon="2.516095180325247"><ele>49.0</ele><time>2026-05-02T14:28:48.999Z</time></trkpt><trkpt lat="49.14824381935403" lon="2.516057123151069"><ele>49.0</ele><time>2026-05-02T14:28:50.999Z</time></trkpt><trkpt lat="49.14813525451733" lon="2.516067201140893"><ele>49.0</ele><time>2026-05-02T14:28:52.999Z</time></trkpt><trkpt lat="49.14803487567729" lon="2.5160444691488424"><ele>49.0</ele><time>2026-05-02T14:28:54.999Z</time></trkpt><trkpt lat="49.14792537801186" lon="2.516016820791988"><ele>49.0</ele><time>2026-05-02T14:28:56.999Z</time></trkpt><trkpt lat="49.14781789181484" lon="2.5160048669075605"><ele>49.2</ele><time>2026-05-02T14:28:58.999Z</time></trkpt><trkpt lat="49.14770940871732" lon="2.5159940138485877"><ele>49.400000000000006</ele><time>2026-05-02T14:29:00.999Z</time></trkpt><trkpt lat="49.14760247370072" lon="2.515984840167275"><ele>49.6</ele><time>2026-05-02T14:29:02.999Z</time></trkpt><trkpt lat="49.14749895926837" lon="2.5159677576099293"><ele>49.8</ele><time>2026-05-02T14:29:04.998Z</time></trkpt><trkpt lat="49.147403809883706" lon="2.515949952641327"><ele>50.0</ele><time>2026-05-02T14:29:06.998Z</time></trkpt><trkpt lat="49.147310357548776" lon="2.5159319971012604"><ele>50.00000000000001</ele><time>2026-05-02T14:29:08.998Z</time></trkpt><trkpt lat="49.14722240442335" lon="2.5159147671009374"><ele>50.0</ele><time>2026-05-02T14:29:10.998Z</time></trkpt><trkpt lat="49.147141356575034" lon="2.515898056431647"><ele>50.0</ele><time>2026-05-02T14:29:12.998Z</time></trkpt><trkpt lat="49.14705425828771" lon="2.515899500270287"><ele>50.0</ele><time>2026-05-02T14:29:14.998Z</time></trkpt><trkpt lat="49.146970120696395" lon="2.5158689726961088"><ele>50.00000000000001</ele><time>2026-05-02T14:29:16.998Z</time></trkpt><trkpt lat="49.146876523836966" lon="2.5158479024135882"><ele>50.0</ele><time>2026-05-02T14:29:18.998Z</time></trkpt><trkpt lat="49.14678123790516" lon="2.515803582483793"><ele>50.0</ele><time>2026-05-02T14:29:20.998Z</time></trkpt><trkpt lat="49.14668682501116" lon="2.5157995423473665"><ele>50.0</ele><time>2026-05-02T14:29:22.998Z</time></trkpt><trkpt lat="49.14659375654528" lon="2.5158037293660365"><ele>50.0</ele><time>2026-05-02T14:29:24.998Z</time></trkpt><trkpt lat="49.14650107763612" lon="2.515836951190553"><ele>50.0</ele><time>2026-05-02T14:29:26.998Z</time></trkpt><trkpt lat="49.1464116305859" lon="2.515845856097847"><ele>50.0</ele><time>2026-05-02T14:29:28.998Z</time></trkpt><trkpt lat="49.14631931778068" lon="2.5158724628482836"><ele>50.0</ele><time>2026-05-02T14:29:30.998Z</time></trkpt><trkpt lat="49.14622388199992" lon="2.5158763600960876"><ele>50.0</ele><time>2026-05-02T14:29:32.998Z</time></trkpt><trkpt lat="49.14613595382579" lon="2.515920865420936"><ele>50.0</ele><time>2026-05-02T14:29:34.998Z</time></trkpt><trkpt lat="49.14604585218285" lon="2.5159504806981463"><ele>50.0</ele><time>2026-05-02T14:29:36.998Z</time></trkpt><trkpt lat="49.145954817296406" lon="2.5159851280478316"><ele>50.0</ele><time>2026-05-02T14:29:38.997Z</time></trkpt><trkpt lat="49.1458638451549" lon="2.516019430088171"><ele>50.00000000000001</ele><time>2026-05-02T14:29:40.997Z</time></trkpt><trkpt lat="49.145776165641244" lon="2.516047788237431"><ele>50.0</ele><time>2026-05-02T14:29:42.997Z</time></trkpt><trkpt lat="49.14569095333949" lon="2.5160786086311893"><ele>50.0</ele><time>2026-05-02T14:29:44.997Z</time></trkpt><trkpt lat="49.14561767597531" lon="2.5161211243252173"><ele>50.0</ele><time>2026-05-02T14:29:46.997Z</time></trkpt><trkpt lat="49.14554560894266" lon="2.5161348058435338"><ele>50.00000000000001</ele><time>2026-05-02T14:29:48.997Z</time></trkpt><trkpt lat="49.14548025795396" lon="2.5161686784021127"><ele>50.0</ele><time>2026-05-02T14:29:50.997Z</time></trkpt><trkpt lat="49.145415852221845" lon="2.516195835471362"><ele>50.57142857142858</ele><time>2026-05-02T14:29:52.997Z</time></trkpt><trkpt lat="49.14535120011082" lon="2.516223507655788"><ele>51.142857142857146</ele><time>2026-05-02T14:29:54.997Z</time></trkpt><trkpt lat="49.14528863576569" lon="2.516255820993546"><ele>51.714285714285715</ele><time>2026-05-02T14:29:56.997Z</time></trkpt><trkpt lat="49.14522602684394" lon="2.5162724719233918"><ele>52.28571428571429</ele><time>2026-05-02T14:29:58.997Z</time></trkpt><trkpt lat="49.14516159907086" lon="2.516285283314562"><ele>52.857142857142854</ele><time>2026-05-02T14:30:00.997Z</time></trkpt><trkpt lat="49.145094236669195" lon="2.516298133421337"><ele>53.42857142857143</ele><time>2026-05-02T14:30:02.997Z</time></trkpt><trkpt lat="49.14502823671404" lon="2.5163145504993008"><ele>54.0</ele><time>2026-05-02T14:30:04.997Z</time></trkpt><trkpt lat="49.144962666781005" lon="2.516328079187897"><ele>54.0</ele><time>2026-05-02T14:30:06.997Z</time></trkpt><trkpt lat="49.14489538506853" lon="2.516333065723869"><ele>54.0</ele><time>2026-05-02T14:30:08.997Z</time></trkpt><trkpt lat="49.14480195022103" lon="2.516335224223387"><ele>54.0</ele><time>2026-05-02T14:30:12Z</time></trkpt><trkpt lat="49.144753724234064" lon="2.516231494540663"><ele>54.0</ele><time>2026-05-02T14:30:14Z</time></trkpt><trkpt lat="49.14470926468612" lon="2.516106400719275"><ele>54.0</ele><time>2026-05-02T14:30:17Z</time></trkpt><trkpt lat="49.14464454109272" lon="2.515998398702983"><ele>54.0</ele><time>2026-05-02T14:30:20Z</time></trkpt><trkpt lat="49.14457871446392" lon="2.5159172517955204"><ele>54.166666666666664</ele><time>2026-05-02T14:30:23Z</time></trkpt><trkpt lat="49.14454024291432" lon="2.5157949633195282"><ele>54.33333333333333</ele><time>2026-05-02T14:30:26Z</time></trkpt><trkpt lat="49.144471182679226" lon="2.5157013777548327"><ele>54.5</ele><time>2026-05-02T14:30:29Z</time></trkpt><trkpt lat="49.144407990697914" lon="2.5156019148227684"><ele>54.666666666666664</ele><time>2026-05-02T14:30:32Z</time></trkpt><trkpt lat="49.14434846154227" lon="2.5155032501861507"><ele>54.83333333333333</ele><time>2026-05-02T14:30:34.999Z</time></trkpt><trkpt lat="49.14429032884382" lon="2.5154208039656476"><ele>55.0</ele><time>2026-05-02T14:30:38.999Z</time></trkpt><trkpt lat="49.1443531131841" lon="2.515300887493545"><ele>54.99999999999999</ele><time>2026-05-02T14:31:43.997Z</time></trkpt><trkpt lat="49.144415955902716" lon="2.5153224716152596"><ele>55.0</ele><time>2026-05-02T14:31:59.997Z</time></trkpt><trkpt lat="49.144366547239024" lon="2.515260484879957"><ele>55.0</ele><time>2026-05-02T14:33:43.997Z</time></trkpt><trkpt lat="49.14431979661428" lon="2.515331125653747"><ele>55.0</ele><time>2026-05-02T14:33:49.997Z</time></trkpt><trkpt lat="49.144399887336576" lon="2.515302232746389"><ele>55.0</ele><time>2026-05-02T14:34:16.996Z</time></trkpt><trkpt lat="49.14433895123763" lon="2.5153472247382394"><ele>54.99999999999999</ele><time>2026-05-02T14:34:54.998Z</time></trkpt><trkpt lat="49.14428364242564" lon="2.5152312222962148"><ele>55.0</ele><time>2026-05-02T14:35:02.998Z</time></trkpt><trkpt lat="49.14428033159487" lon="2.515330717119761"><ele>54.99999999999999</ele><time>2026-05-02T14:35:06.998Z</time></trkpt><trkpt lat="49.14421233499585" lon="2.5153435857899105"><ele>55.0</ele><time>2026-05-02T14:36:11.996Z</time></trkpt><trkpt lat="49.144159350627525" lon="2.5152588166662233"><ele>55.0</ele><time>2026-05-02T14:36:51.998Z</time></trkpt><trkpt lat="49.144093123687526" lon="2.515165330613372"><ele>55.0</ele><time>2026-05-02T14:36:54.998Z</time></trkpt><trkpt lat="49.14403211950498" lon="2.515073008638381"><ele>55.0</ele><time>2026-05-02T14:36:57.998Z</time></trkpt><trkpt lat="49.14398516399574" lon="2.51500771299552"><ele>54.99999999999999</ele><time>2026-05-02T14:36:59.998Z</time></trkpt><trkpt lat="49.143940614714836" lon="2.5149375321879988"><ele>55.0</ele><time>2026-05-02T14:37:01.998Z</time></trkpt><trkpt lat="49.143894274058376" lon="2.5148717357565507"><ele>55.28571428571428</ele><time>2026-05-02T14:37:03.998Z</time></trkpt><trkpt lat="49.143845263569716" lon="2.5147941907615734"><ele>55.57142857142857</ele><time>2026-05-02T14:37:05.998Z</time></trkpt><trkpt lat="49.143795811244125" lon="2.5147222386339823"><ele>55.857142857142854</ele><time>2026-05-02T14:37:07.998Z</time></trkpt><trkpt lat="49.14374646507015" lon="2.514645867027349"><ele>56.14285714285714</ele><time>2026-05-02T14:37:09.998Z</time></trkpt><trkpt lat="49.143695947523305" lon="2.514564632802905"><ele>56.42857142857142</ele><time>2026-05-02T14:37:11.998Z</time></trkpt><trkpt lat="49.14363829526138" lon="2.514482710427107"><ele>56.71428571428571</ele><time>2026-05-02T14:37:13.998Z</time></trkpt><trkpt lat="49.14358389562045" lon="2.514398495833872"><ele>57.0</ele><time>2026-05-02T14:37:15.998Z</time></trkpt><trkpt lat="49.14352913605045" lon="2.5143214985887656"><ele>57.0</ele><time>2026-05-02T14:37:17.998Z</time></trkpt><trkpt lat="49.14347435828229" lon="2.514239594536763"><ele>57.0</ele><time>2026-05-02T14:37:19.998Z</time></trkpt><trkpt lat="49.1434180278118" lon="2.5141558600962712"><ele>57.0</ele><time>2026-05-02T14:37:21.998Z</time></trkpt><trkpt lat="49.14335981255682" lon="2.5140692692591524"><ele>57.0</ele><time>2026-05-02T14:37:23.998Z</time></trkpt><trkpt lat="49.14329931907489" lon="2.5139817484444746"><ele>57.0</ele><time>2026-05-02T14:37:25.998Z</time></trkpt><trkpt lat="49.143238753681494" lon="2.5138919438089"><ele>57.0</ele><time>2026-05-02T14:37:27.998Z</time></trkpt><trkpt lat="49.14318458415079" lon="2.513815455153396"><ele>57.166666666666664</ele><time>2026-05-02T14:37:29.998Z</time></trkpt><trkpt lat="49.143130120205754" lon="2.5137420001436643"><ele>57.33333333333333</ele><time>2026-05-02T14:37:31.998Z</time></trkpt><trkpt lat="49.14307209296305" lon="2.513655231162036"><ele>57.5</ele><time>2026-05-02T14:37:33.998Z</time></trkpt><trkpt lat="49.14301908972473" lon="2.513567962703201"><ele>57.666666666666664</ele><time>2026-05-02T14:37:35.997Z</time></trkpt><trkpt lat="49.14296324475854" lon="2.513483451824691"><ele>57.83333333333333</ele><time>2026-05-02T14:37:37.997Z</time></trkpt><trkpt lat="49.14290874495344" lon="2.5133945496711307"><ele>58.0</ele><time>2026-05-02T14:37:39.997Z</time></trkpt><trkpt lat="49.14285027099674" lon="2.513308419995227"><ele>57.99999999999999</ele><time>2026-05-02T14:37:41.997Z</time></trkpt><trkpt lat="49.14279265309586" lon="2.5132228660248432"><ele>58.0</ele><time>2026-05-02T14:37:43.997Z</time></trkpt><trkpt lat="49.142741274056156" lon="2.5131384546276645"><ele>58.0</ele><time>2026-05-02T14:37:45.997Z</time></trkpt><trkpt lat="49.14268178103507" lon="2.5130539670640024"><ele>58.0</ele><time>2026-05-02T14:37:47.997Z</time></trkpt><trkpt lat="49.142629332855705" lon="2.512970145027594"><ele>57.99999999999999</ele><time>2026-05-02T14:37:49.997Z</time></trkpt><trkpt lat="49.14257649742152" lon="2.512888949999115"><ele>58.0</ele><time>2026-05-02T14:37:51.997Z</time></trkpt><trkpt lat="49.14251398956957" lon="2.5128066482340827"><ele>57.99999999999999</ele><time>2026-05-02T14:37:53.997Z</time></trkpt><trkpt lat="49.14245807342553" lon="2.5127140748392445"><ele>58.0</ele><time>2026-05-02T14:37:55.997Z</time></trkpt><trkpt lat="49.14240277490691" lon="2.512635020676247"><ele>58.0</ele><time>2026-05-02T14:37:57.997Z</time></trkpt><trkpt lat="49.14234769996272" lon="2.5125474866973754"><ele>58.0</ele><time>2026-05-02T14:37:59.997Z</time></trkpt><trkpt lat="49.14228875378766" lon="2.5124639977241734"><ele>57.99999999999999</ele><time>2026-05-02T14:38:01.997Z</time></trkpt><trkpt lat="49.14223035919617" lon="2.5123856757742606"><ele>58.0</ele><time>2026-05-02T14:38:03.997Z</time></trkpt><trkpt lat="49.14216738702273" lon="2.512299949330538"><ele>57.99999999999999</ele><time>2026-05-02T14:38:05.997Z</time></trkpt><trkpt lat="49.14210717043704" lon="2.5122199140433445"><ele>58.0</ele><time>2026-05-02T14:38:07.997Z</time></trkpt><trkpt lat="49.142044833182155" lon="2.512132564410534"><ele>58.0</ele><time>2026-05-02T14:38:09.997Z</time></trkpt><trkpt lat="49.14198142000294" lon="2.5120443399614585"><ele>58.0</ele><time>2026-05-02T14:38:11.997Z</time></trkpt><trkpt lat="49.14191675884067" lon="2.5119437828418123"><ele>57.99999999999999</ele><time>2026-05-02T14:38:13.997Z</time></trkpt><trkpt lat="49.141845605829786" lon="2.5118622554976264"><ele>58.0</ele><time>2026-05-02T14:38:15.997Z</time></trkpt><trkpt lat="49.14176900944897" lon="2.511766209438937"><ele>57.99999999999999</ele><time>2026-05-02T14:38:17.997Z</time></trkpt><trkpt lat="49.14169997099129" lon="2.5116811275585635"><ele>58.0</ele><time>2026-05-02T14:38:19.997Z</time></trkpt><trkpt lat="49.141622919594035" lon="2.5116011471276174"><ele>58.0</ele><time>2026-05-02T14:38:21.996Z</time></trkpt><trkpt lat="49.141551672993714" lon="2.5115201140917467"><ele>58.0</ele><time>2026-05-02T14:38:23.996Z</time></trkpt><trkpt lat="49.14147584021115" lon="2.51143952708616"><ele>57.99999999999999</ele><time>2026-05-02T14:38:25.996Z</time></trkpt><trkpt lat="49.141409102188504" lon="2.5113649447309943"><ele>58.0</ele><time>2026-05-02T14:38:27.996Z</time></trkpt><trkpt lat="49.14133447690636" lon="2.5112980825139504"><ele>58.666666666666664</ele><time>2026-05-02T14:38:29.996Z</time></trkpt><trkpt lat="49.1412589773269" lon="2.511243893651732"><ele>59.33333333333333</ele><time>2026-05-02T14:38:31.996Z</time></trkpt><trkpt lat="49.14119023781729" lon="2.5111760007474766"><ele>60.0</ele><time>2026-05-02T14:38:33.998Z</time></trkpt><trkpt lat="49.14112320001684" lon="2.5111126715266052"><ele>60.66666666666667</ele><time>2026-05-02T14:38:35.998Z</time></trkpt><trkpt lat="49.141054409398166" lon="2.511047562972832"><ele>61.333333333333336</ele><time>2026-05-02T14:38:37.999Z</time></trkpt><trkpt lat="49.140993142777916" lon="2.5109744656744284"><ele>62.0</ele><time>2026-05-02T14:38:39.999Z</time></trkpt><trkpt lat="49.140931145537174" lon="2.5109070205096335"><ele>62.00000000000001</ele><time>2026-05-02T14:38:41.999Z</time></trkpt><trkpt lat="49.14086822132274" lon="2.510845291852274"><ele>62.0</ele><time>2026-05-02T14:38:43.999Z</time></trkpt><trkpt lat="49.14080475901004" lon="2.5107728752595007"><ele>62.0</ele><time>2026-05-02T14:38:45.999Z</time></trkpt><trkpt lat="49.14074081240055" lon="2.510705555195046"><ele>62.0</ele><time>2026-05-02T14:38:47.999Z</time></trkpt><trkpt lat="49.14067903302229" lon="2.510638430649026"><ele>62.00000000000001</ele><time>2026-05-02T14:38:49.999Z</time></trkpt><trkpt lat="49.14061669509911" lon="2.510575570489844"><ele>62.0</ele><time>2026-05-02T14:38:51.999Z</time></trkpt><trkpt lat="49.14055694967908" lon="2.5105142362291737"><ele>62.0</ele><time>2026-05-02T14:38:53.999Z</time></trkpt><trkpt lat="49.140491037189356" lon="2.510454777058287"><ele>62.00000000000001</ele><time>2026-05-02T14:38:55.999Z</time></trkpt><trkpt lat="49.140430851941346" lon="2.5103995914307"><ele>62.0</ele><time>2026-05-02T14:38:57.999Z</time></trkpt><trkpt lat="49.14037077238691" lon="2.510343051426848"><ele>62.0</ele><time>2026-05-02T14:38:59.999Z</time></trkpt><trkpt lat="49.140309684513824" lon="2.5102869123021923"><ele>62.00000000000001</ele><time>2026-05-02T14:39:01.999Z</time></trkpt><trkpt lat="49.140251418023865" lon="2.5102395650124554"><ele>62.0</ele><time>2026-05-02T14:39:03.999Z</time></trkpt><trkpt lat="49.14019646627018" lon="2.5101898771795637"><ele>62.0</ele><time>2026-05-02T14:39:05.999Z</time></trkpt><trkpt lat="49.140139955873664" lon="2.510133811160509"><ele>62.0</ele><time>2026-05-02T14:39:07.999Z</time></trkpt><trkpt lat="49.14007753437479" lon="2.5100825494138905"><ele>62.00000000000001</ele><time>2026-05-02T14:39:09.999Z</time></trkpt><trkpt lat="49.14000022845737" lon="2.5100074003297403"><ele>62.0</ele><time>2026-05-02T14:39:12.998Z</time></trkpt><trkpt lat="49.13994205260853" lon="2.5099551446360615"><ele>62.0</ele><time>2026-05-02T14:39:14.998Z</time></trkpt><trkpt lat="49.13988708925511" lon="2.5099070539998447"><ele>62.00000000000001</ele><time>2026-05-02T14:39:16.998Z</time></trkpt><trkpt lat="49.13983436926115" lon="2.5098540691524853"><ele>62.0</ele><time>2026-05-02T14:39:18.998Z</time></trkpt><trkpt lat="49.13975564740292" lon="2.5097809426495483"><ele>62.0</ele><time>2026-05-02T14:39:21.998Z</time></trkpt><trkpt lat="49.139700201975955" lon="2.509726199678774"><ele>62.16666666666667</ele><time>2026-05-02T14:39:23.998Z</time></trkpt><trkpt lat="49.139644048600275" lon="2.5096752364581567"><ele>62.333333333333336</ele><time>2026-05-02T14:39:25.998Z</time></trkpt><trkpt lat="49.139588252116795" lon="2.509624689733246"><ele>62.5</ele><time>2026-05-02T14:39:27.998Z</time></trkpt><trkpt lat="49.13950535675416" lon="2.509543160850842"><ele>62.66666666666667</ele><time>2026-05-02T14:39:30.998Z</time></trkpt><trkpt lat="49.13942777861624" lon="2.509479497606476"><ele>62.833333333333336</ele><time>2026-05-02T14:39:33.998Z</time></trkpt><trkpt lat="49.139345277957965" lon="2.509411760282492"><ele>63.0</ele><time>2026-05-02T14:39:36.998Z</time></trkpt><trkpt lat="49.139267876106864" lon="2.5093450087527187"><ele>63.4</ele><time>2026-05-02T14:39:39.998Z</time></trkpt><trkpt lat="49.13918753924382" lon="2.509277821970278"><ele>63.8</ele><time>2026-05-02T14:39:42.998Z</time></trkpt><trkpt lat="49.139110296066626" lon="2.50921516340022"><ele>64.2</ele><time>2026-05-02T14:39:45.998Z</time></trkpt><trkpt lat="49.13902864244393" lon="2.509154200107915"><ele>64.6</ele><time>2026-05-02T14:39:48.998Z</time></trkpt><trkpt lat="49.13894688114568" lon="2.509096230753699"><ele>65.0</ele><time>2026-05-02T14:39:51.998Z</time></trkpt><trkpt lat="49.138864083767295" lon="2.5090402600041934"><ele>65.5</ele><time>2026-05-02T14:39:54.998Z</time></trkpt><trkpt lat="49.13878881016049" lon="2.5089850458414267"><ele>66.0</ele><time>2026-05-02T14:39:57.998Z</time></trkpt><trkpt lat="49.138708984165746" lon="2.5089418864007524"><ele>66.5</ele><time>2026-05-02T14:40:00.998Z</time></trkpt><trkpt lat="49.138700144681074" lon="2.508837030601466"><ele>67.0</ele><time>2026-05-02T14:40:01.998Z</time></trkpt><trkpt lat="49.13861589333625" lon="2.5088029677282324"><ele>67.5</ele><time>2026-05-02T14:40:04.998Z</time></trkpt><trkpt lat="49.13853470710278" lon="2.5087729504045386"><ele>68.0</ele><time>2026-05-02T14:40:07.997Z</time></trkpt><trkpt lat="49.13846584812457" lon="2.5087355413684387"><ele>68.83333333333334</ele><time>2026-05-02T14:40:10.997Z</time></trkpt><trkpt lat="49.13838021762059" lon="2.508708779854174"><ele>69.66666666666667</ele><time>2026-05-02T14:40:13.997Z</time></trkpt><trkpt lat="49.13830636742001" lon="2.5086370434044842"><ele>70.5</ele><time>2026-05-02T14:40:16.997Z</time></trkpt><trkpt lat="49.13822374640856" lon="2.508588321371673"><ele>71.33333333333333</ele><time>2026-05-02T14:40:19.997Z</time></trkpt><trkpt lat="49.13813804630079" lon="2.508557584469834"><ele>72.16666666666666</ele><time>2026-05-02T14:40:22.997Z</time></trkpt><trkpt lat="49.13805945167453" lon="2.5084901622137736"><ele>73.0</ele><time>2026-05-02T14:40:25.997Z</time></trkpt><trkpt lat="49.137981316797344" lon="2.508442128680135"><ele>73.0</ele><time>2026-05-02T14:40:28.997Z</time></trkpt><trkpt lat="49.13790050295123" lon="2.508390588827063"><ele>73.0</ele><time>2026-05-02T14:40:31.997Z</time></trkpt><trkpt lat="49.13781832117345" lon="2.508338176564512"><ele>73.0</ele><time>2026-05-02T14:40:34.997Z</time></trkpt><trkpt lat="49.13774046807763" lon="2.508289539965821"><ele>73.0</ele><time>2026-05-02T14:40:37.997Z</time></trkpt><trkpt lat="49.1376670371912" lon="2.5082442880361002"><ele>73.0</ele><time>2026-05-02T14:40:41Z</time></trkpt><trkpt lat="49.13759060051447" lon="2.5082168798081885"><ele>73.0</ele><time>2026-05-02T14:40:44Z</time></trkpt><trkpt lat="49.13752187830374" lon="2.5081808778209567"><ele>73.0</ele><time>2026-05-02T14:40:47Z</time></trkpt><trkpt lat="49.1374445971932" lon="2.508134776438763"><ele>73.0</ele><time>2026-05-02T14:40:50Z</time></trkpt><trkpt lat="49.13736685650533" lon="2.5080912097224646"><ele>73.0</ele><time>2026-05-02T14:40:53Z</time></trkpt><trkpt lat="49.13730521434934" lon="2.508049771119023"><ele>73.0</ele><time>2026-05-02T14:40:56Z</time></trkpt><trkpt lat="49.13723492089887" lon="2.507988341964583"><ele>73.0</ele><time>2026-05-02T14:40:59Z</time></trkpt><trkpt lat="49.1371562048484" lon="2.5079440967054443"><ele>73.0</ele><time>2026-05-02T14:41:01.999Z</time></trkpt><trkpt lat="49.137078722143166" lon="2.507901811299676"><ele>73.66666666666666</ele><time>2026-05-02T14:41:04.999Z</time></trkpt><trkpt lat="49.136995766624835" lon="2.507873085214304"><ele>74.33333333333333</ele><time>2026-05-02T14:41:07.999Z</time></trkpt><trkpt lat="49.1369172093619" lon="2.5078317990259715"><ele>75.0</ele><time>2026-05-02T14:41:10.999Z</time></trkpt><trkpt lat="49.13683961371099" lon="2.5077890313979414"><ele>75.66666666666667</ele><time>2026-05-02T14:41:13.999Z</time></trkpt><trkpt lat="49.1367669309982" lon="2.507749764522576"><ele>76.33333333333334</ele><time>2026-05-02T14:41:16.999Z</time></trkpt><trkpt lat="49.13668669907809" lon="2.507710690543777"><ele>77.0</ele><time>2026-05-02T14:41:19.999Z</time></trkpt><trkpt lat="49.136611356145636" lon="2.5076376679537"><ele>76.66666666666667</ele><time>2026-05-02T14:41:22.999Z</time></trkpt><trkpt lat="49.13652595559428" lon="2.507603831968614"><ele>76.33333333333334</ele><time>2026-05-02T14:41:25.999Z</time></trkpt><trkpt lat="49.13647210319894" lon="2.5075417751954556"><ele>76.0</ele><time>2026-05-02T14:41:27.999Z</time></trkpt><trkpt lat="49.136383151004146" lon="2.507514059937673"><ele>75.66666666666667</ele><time>2026-05-02T14:41:30.999Z</time></trkpt><trkpt lat="49.13630507500036" lon="2.50746547633879"><ele>75.33333333333333</ele><time>2026-05-02T14:41:33.999Z</time></trkpt><trkpt lat="49.1362304606063" lon="2.5074221696909875"><ele>75.0</ele><time>2026-05-02T14:41:36.999Z</time></trkpt><trkpt lat="49.136155995344176" lon="2.50736330407775"><ele>75.0</ele><time>2026-05-02T14:41:39.999Z</time></trkpt><trkpt lat="49.13606951779634" lon="2.507338287392877"><ele>75.0</ele><time>2026-05-02T14:41:42.999Z</time></trkpt><trkpt lat="49.13601213488186" lon="2.507289927180769"><ele>75.0</ele><time>2026-05-02T14:41:44.999Z</time></trkpt><trkpt lat="49.13592466356856" lon="2.5072272512000757"><ele>75.0</ele><time>2026-05-02T14:41:47.999Z</time></trkpt><trkpt lat="49.13584941772823" lon="2.5072121665192024"><ele>75.0</ele><time>2026-05-02T14:41:49.999Z</time></trkpt><trkpt lat="49.135769894552" lon="2.507196083616183"><ele>75.0</ele><time>2026-05-02T14:41:51.998Z</time></trkpt><trkpt lat="49.13568838946207" lon="2.5071794892461416"><ele>74.99999999999999</ele><time>2026-05-02T14:41:53.998Z</time></trkpt><trkpt lat="49.13560942559497" lon="2.5071689783000304"><ele>75.0</ele><time>2026-05-02T14:41:55.998Z</time></trkpt><trkpt lat="49.13553791025489" lon="2.5071469386462453"><ele>75.0</ele><time>2026-05-02T14:41:57.998Z</time></trkpt><trkpt lat="49.135461405941484" lon="2.5071370576665646"><ele>75.0</ele><time>2026-05-02T14:41:59.998Z</time></trkpt><trkpt lat="49.135392158348765" lon="2.5071207227117935"><ele>75.0</ele><time>2026-05-02T14:42:02.998Z</time></trkpt><trkpt lat="49.13532767779845" lon="2.507107126653543"><ele>74.99999999999999</ele><time>2026-05-02T14:42:03.998Z</time></trkpt><trkpt lat="49.135245938516825" lon="2.507098596745805"><ele>75.0</ele><time>2026-05-02T14:42:05.998Z</time></trkpt><trkpt lat="49.13516718562694" lon="2.507083294821529"><ele>75.83333333333333</ele><time>2026-05-02T14:42:07.998Z</time></trkpt><trkpt lat="49.13508407461146" lon="2.507065486066118"><ele>76.66666666666667</ele><time>2026-05-02T14:42:09.998Z</time></trkpt><trkpt lat="49.13500332115048" lon="2.5070435452199535"><ele>77.5</ele><time>2026-05-02T14:42:11.998Z</time></trkpt><trkpt lat="49.13492508801813" lon="2.507018377498623"><ele>78.33333333333334</ele><time>2026-05-02T14:42:13.998Z</time></trkpt><trkpt lat="49.1348473419926" lon="2.5070004685905003"><ele>79.16666666666667</ele><time>2026-05-02T14:42:15.998Z</time></trkpt><trkpt lat="49.13477043072826" lon="2.506979474736315"><ele>80.0</ele><time>2026-05-02T14:42:17.998Z</time></trkpt><trkpt lat="49.134697703315204" lon="2.506953676150256"><ele>80.0</ele><time>2026-05-02T14:42:19.998Z</time></trkpt><trkpt lat="49.134631767659435" lon="2.5069031616040713"><ele>80.0</ele><time>2026-05-02T14:42:21.998Z</time></trkpt><trkpt lat="49.13456411602821" lon="2.506870408798968"><ele>80.0</ele><time>2026-05-02T14:42:23.998Z</time></trkpt><trkpt lat="49.134494889301855" lon="2.506857944161588"><ele>80.0</ele><time>2026-05-02T14:42:25.998Z</time></trkpt><trkpt lat="49.134429873076435" lon="2.5068085266666533"><ele>80.0</ele><time>2026-05-02T14:42:27.998Z</time></trkpt><trkpt lat="49.134360405812345" lon="2.5067783050620798"><ele>80.0</ele><time>2026-05-02T14:42:29.998Z</time></trkpt><trkpt lat="49.13430597424173" lon="2.5067230312998547"><ele>80.0</ele><time>2026-05-02T14:42:31.998Z</time></trkpt><trkpt lat="49.134244963856695" lon="2.5066852189075757"><ele>80.0</ele><time>2026-05-02T14:42:33.998Z</time></trkpt><trkpt lat="49.134153973642235" lon="2.506899174163019"><ele>80.0</ele><time>2026-05-02T14:42:36.998Z</time></trkpt><trkpt lat="49.13411066764832" lon="2.507010084538639"><ele>80.0</ele><time>2026-05-02T14:42:38.998Z</time></trkpt><trkpt lat="49.134058009253664" lon="2.507142471910518"><ele>80.0</ele><time>2026-05-02T14:42:40.997Z</time></trkpt><trkpt lat="49.134003537720666" lon="2.5072782422092117"><ele>79.25</ele><time>2026-05-02T14:42:42.997Z</time></trkpt><trkpt lat="49.13394391022994" lon="2.5074244336358853"><ele>78.5</ele><time>2026-05-02T14:42:45Z</time></trkpt><trkpt lat="49.13388463942255" lon="2.5075719945419697"><ele>77.75</ele><time>2026-05-02T14:42:47Z</time></trkpt><trkpt lat="49.133826621195055" lon="2.507718005230876"><ele>77.0</ele><time>2026-05-02T14:42:49Z</time></trkpt><trkpt lat="49.133766341375974" lon="2.5078698925333764"><ele>77.2</ele><time>2026-05-02T14:42:51Z</time></trkpt><trkpt lat="49.13370424683328" lon="2.5080265473810885"><ele>77.4</ele><time>2026-05-02T14:42:53Z</time></trkpt><trkpt lat="49.13364699422845" lon="2.508171466826108"><ele>77.6</ele><time>2026-05-02T14:42:55Z</time></trkpt><trkpt lat="49.13359991410949" lon="2.5082906373655693"><ele>77.8</ele><time>2026-05-02T14:42:57Z</time></trkpt><trkpt lat="49.1335548885206" lon="2.50840542799105"><ele>78.0</ele><time>2026-05-02T14:42:59Z</time></trkpt><trkpt lat="49.13351382019743" lon="2.5085102356659883"><ele>78.0</ele><time>2026-05-02T14:43:01Z</time></trkpt><trkpt lat="49.133471617073305" lon="2.5086170250132014"><ele>78.0</ele><time>2026-05-02T14:43:03Z</time></trkpt><trkpt lat="49.13343268366707" lon="2.508714753702841"><ele>78.0</ele><time>2026-05-02T14:43:05Z</time></trkpt><trkpt lat="49.13339250496734" lon="2.508815608271854"><ele>78.0</ele><time>2026-05-02T14:43:07Z</time></trkpt><trkpt lat="49.133355563624434" lon="2.508909621566445"><ele>78.0</ele><time>2026-05-02T14:43:09Z</time></trkpt><trkpt lat="49.13331908509383" lon="2.5090030953256477"><ele>78.0</ele><time>2026-05-02T14:43:11Z</time></trkpt><trkpt lat="49.133295630078145" lon="2.509102339933206"><ele>78.0</ele><time>2026-05-02T14:43:13Z</time></trkpt><trkpt lat="49.13323488095582" lon="2.5091447379765124"><ele>78.16666666666667</ele><time>2026-05-02T14:43:15Z</time></trkpt><trkpt lat="49.133177196857524" lon="2.5090734498242155"><ele>78.33333333333333</ele><time>2026-05-02T14:43:17Z</time></trkpt><trkpt lat="49.1331259984753" lon="2.5090135133226945"><ele>78.5</ele><time>2026-05-02T14:43:19Z</time></trkpt><trkpt lat="49.13305394643413" lon="2.508946346424084"><ele>78.66666666666666</ele><time>2026-05-02T14:43:22Z</time></trkpt><trkpt lat="49.13312843286019" lon="2.5090148774360728"><ele>78.83333333333333</ele><time>2026-05-02T14:43:29.999Z</time></trkpt><trkpt lat="49.13320812712345" lon="2.509094090375515"><ele>79.0</ele><time>2026-05-02T14:43:32.999Z</time></trkpt><trkpt lat="49.13326601744213" lon="2.5091428097994988"><ele>79.0</ele><time>2026-05-02T14:43:34.999Z</time></trkpt><trkpt lat="49.13333300071071" lon="2.5090647188142916"><ele>79.0</ele><time>2026-05-02T14:43:37.999Z</time></trkpt><trkpt lat="49.13336047955952" lon="2.5089547252627336"><ele>79.0</ele><time>2026-05-02T14:43:39.999Z</time></trkpt><trkpt lat="49.133403020525904" lon="2.508848239527745"><ele>79.0</ele><time>2026-05-02T14:43:41.999Z</time></trkpt><trkpt lat="49.13344748854357" lon="2.5087316851706722"><ele>79.0</ele><time>2026-05-02T14:43:43.999Z</time></trkpt><trkpt lat="49.13348593168316" lon="2.5086063352623005"><ele>79.0</ele><time>2026-05-02T14:43:45.999Z</time></trkpt><trkpt lat="49.13354346347244" lon="2.508491848599544"><ele>78.83333333333333</ele><time>2026-05-02T14:43:47.999Z</time></trkpt><trkpt lat="49.13358915580552" lon="2.508370713628836"><ele>78.66666666666666</ele><time>2026-05-02T14:43:49.999Z</time></trkpt><trkpt lat="49.133636036143784" lon="2.5082570360080254"><ele>78.5</ele><time>2026-05-02T14:43:51.999Z</time></trkpt><trkpt lat="49.13368646638889" lon="2.508146270978315"><ele>78.33333333333333</ele><time>2026-05-02T14:43:54.999Z</time></trkpt><trkpt lat="49.13372790478037" lon="2.5080540593486935"><ele>78.16666666666667</ele><time>2026-05-02T14:43:58.999Z</time></trkpt><trkpt lat="49.1336680578314" lon="2.5080087910570805"><ele>78.0</ele><time>2026-05-02T14:44:17.998Z</time></trkpt><trkpt lat="49.13362237235111" lon="2.5079188172394185"><ele>78.0</ele><time>2026-05-02T14:49:28Z</time></trkpt><trkpt lat="49.13356601425056" lon="2.507985765267649"><ele>78.0</ele><time>2026-05-02T14:53:51.999Z</time></trkpt><trkpt lat="49.13360173399629" lon="2.507880164680619"><ele>77.0</ele><time>2026-05-02T14:56:03.999Z</time></trkpt><trkpt lat="49.1336474916264" lon="2.5078051816678637"><ele>77.0</ele><time>2026-05-02T14:56:06.999Z</time></trkpt><trkpt lat="49.133638225994055" lon="2.5079320435791828"><ele>78.0</ele><time>2026-05-02T14:56:11.999Z</time></trkpt></trkseg></trk></gpx>